<?xml version='1.0' encoding='UTF-8'?><gpx version="1.1" creator="JPX - https://github.com/jenetics/jpx" xmlns="http://www.topografix.com/GPX/1/1"><trk><trkseg><trkpt lat="45.4082852" lon="9.2712214"><ele>101.0</ele><time>2026-04-23T15:37:22.864Z</time></trkpt><trkpt lat="45.4084885" lon="9.2712169"><ele>101.0</ele><time>2026-04-23T15:37:23.819Z</time></trkpt><trkpt lat="45.4086899" lon="9.2712756"><ele>101.0</ele><time>2026-04-23T15:37:28.788Z</time></trkpt><trkpt lat="45.408739" lon="9.2711927"><ele>100.99999999999999</ele><time>2026-04-23T15:37:30.787Z</time></trkpt><trkpt lat="45.4088047" lon="9.2711486"><ele>101.0</ele><time>2026-04-23T15:37:32.787Z</time></trkpt><trkpt lat="45.4088819" lon="9.271084"><ele>101.0</ele><time>2026-04-23T15:37:35.783Z</time></trkpt><trkpt lat="45.4089621" lon="9.2710189"><ele>101.0</ele><time>2026-04-23T15:37:38.791Z</time></trkpt><trkpt lat="45.4090026" lon="9.270943"><ele>100.99999999999999</ele><time>2026-04-23T15:37:40.792Z</time></trkpt><trkpt lat="45.4090646" lon="9.270846"><ele>101.0</ele><time>2026-04-23T15:37:43.786Z</time></trkpt><trkpt lat="45.4091036" lon="9.2707424"><ele>100.83333333333333</ele><time>2026-04-23T15:37:46.794Z</time></trkpt><trkpt lat="45.4091078" lon="9.2706346"><ele>100.66666666666666</ele><time>2026-04-23T15:37:49.795Z</time></trkpt><trkpt lat="45.4090778" lon="9.2705215"><ele>100.5</ele><time>2026-04-23T15:37:52.795Z</time></trkpt><trkpt lat="45.4090684" lon="9.2703796"><ele>100.33333333333334</ele><time>2026-04-23T15:37:55.795Z</time></trkpt><trkpt lat="45.4090695" lon="9.2702692"><ele>100.16666666666667</ele><time>2026-04-23T15:37:57.792Z</time></trkpt><trkpt lat="45.4090955" lon="9.2701763"><ele>100.0</ele><time>2026-04-23T15:37:59.793Z</time></trkpt><trkpt lat="45.4091592" lon="9.2701334"><ele>100.16666666666667</ele><time>2026-04-23T15:38:01.79Z</time></trkpt><trkpt lat="45.4092138" lon="9.2700501"><ele>100.33333333333334</ele><time>2026-04-23T15:38:03.796Z</time></trkpt><trkpt lat="45.4092735" lon="9.2699852"><ele>100.5</ele><time>2026-04-23T15:38:05.792Z</time></trkpt><trkpt lat="45.4093383" lon="9.2699239"><ele>100.66666666666666</ele><time>2026-04-23T15:38:07.789Z</time></trkpt><trkpt lat="45.4094086" lon="9.2698672"><ele>100.83333333333333</ele><time>2026-04-23T15:38:09.793Z</time></trkpt><trkpt lat="45.4094664" lon="9.2697993"><ele>101.0</ele><time>2026-04-23T15:38:11.797Z</time></trkpt><trkpt lat="45.4095268" lon="9.2697474"><ele>101.0</ele><time>2026-04-23T15:38:13.791Z</time></trkpt><trkpt lat="45.4095892" lon="9.2696965"><ele>101.0</ele><time>2026-04-23T15:38:16.795Z</time></trkpt><trkpt lat="45.4096514" lon="9.269659"><ele>101.0</ele><time>2026-04-23T15:38:19.798Z</time></trkpt><trkpt lat="45.4097368" lon="9.2696316"><ele>101.0</ele><time>2026-04-23T15:38:22.792Z</time></trkpt><trkpt lat="45.4097988" lon="9.2696108"><ele>101.0</ele><time>2026-04-23T15:38:24.799Z</time></trkpt><trkpt lat="45.4098481" lon="9.2695471"><ele>101.0</ele><time>2026-04-23T15:38:26.79Z</time></trkpt><trkpt lat="45.4098501" lon="9.2694493"><ele>101.0</ele><time>2026-04-23T15:38:28.792Z</time></trkpt><trkpt lat="45.4098502" lon="9.269357"><ele>101.33333333333333</ele><time>2026-04-23T15:38:30.79Z</time></trkpt><trkpt lat="45.4098784" lon="9.2692662"><ele>101.66666666666666</ele><time>2026-04-23T15:38:32.794Z</time></trkpt><trkpt lat="45.4098749" lon="9.2691693"><ele>102.0</ele><time>2026-04-23T15:38:34.793Z</time></trkpt><trkpt lat="45.4098853" lon="9.2690484"><ele>102.33333333333334</ele><time>2026-04-23T15:38:36.796Z</time></trkpt><trkpt lat="45.4099154" lon="9.2689441"><ele>102.66666666666667</ele><time>2026-04-23T15:38:38.796Z</time></trkpt><trkpt lat="45.4099742" lon="9.2688436"><ele>103.0</ele><time>2026-04-23T15:38:40.796Z</time></trkpt><trkpt lat="45.4100149" lon="9.2687624"><ele>102.99999999999999</ele><time>2026-04-23T15:38:42.788Z</time></trkpt><trkpt lat="45.4100489" lon="9.2686831"><ele>103.0</ele><time>2026-04-23T15:38:44.792Z</time></trkpt><trkpt lat="45.4100877" lon="9.2685846"><ele>103.0</ele><time>2026-04-23T15:38:46.793Z</time></trkpt><trkpt lat="45.4101313" lon="9.2684871"><ele>103.0</ele><time>2026-04-23T15:38:48.79Z</time></trkpt><trkpt lat="45.4101791" lon="9.2684199"><ele>103.0</ele><time>2026-04-23T15:38:50.789Z</time></trkpt><trkpt lat="45.4102301" lon="9.2683642"><ele>102.99999999999999</ele><time>2026-04-23T15:38:52.799Z</time></trkpt><trkpt lat="45.4102817" lon="9.2682981"><ele>103.0</ele><time>2026-04-23T15:38:54.794Z</time></trkpt><trkpt lat="45.4103246" lon="9.2682287"><ele>103.00000000000001</ele><time>2026-04-23T15:38:56.802Z</time></trkpt><trkpt lat="45.4103674" lon="9.2681304"><ele>103.0</ele><time>2026-04-23T15:38:58.795Z</time></trkpt><trkpt lat="45.4104082" lon="9.2680271"><ele>103.0</ele><time>2026-04-23T15:39:00.794Z</time></trkpt><trkpt lat="45.4104547" lon="9.2679307"><ele>103.0</ele><time>2026-04-23T15:39:02.798Z</time></trkpt><trkpt lat="45.4105123" lon="9.2678643"><ele>103.00000000000001</ele><time>2026-04-23T15:39:04.784Z</time></trkpt><trkpt lat="45.4105703" lon="9.2678097"><ele>103.0</ele><time>2026-04-23T15:39:06.791Z</time></trkpt><trkpt lat="45.410616" lon="9.2677131"><ele>103.14285714285714</ele><time>2026-04-23T15:39:09.789Z</time></trkpt><trkpt lat="45.4106631" lon="9.2676458"><ele>103.28571428571428</ele><time>2026-04-23T15:39:11.796Z</time></trkpt><trkpt lat="45.4107193" lon="9.2675999"><ele>103.42857142857142</ele><time>2026-04-23T15:39:13.792Z</time></trkpt><trkpt lat="45.4107731" lon="9.2675347"><ele>103.57142857142857</ele><time>2026-04-23T15:39:15.791Z</time></trkpt><trkpt lat="45.4108481" lon="9.2674778"><ele>103.71428571428572</ele><time>2026-04-23T15:39:17.788Z</time></trkpt><trkpt lat="45.4109135" lon="9.267413"><ele>103.85714285714285</ele><time>2026-04-23T15:39:19.796Z</time></trkpt><trkpt lat="45.4109761" lon="9.2673543"><ele>104.0</ele><time>2026-04-23T15:39:21.796Z</time></trkpt><trkpt lat="45.4110369" lon="9.2672965"><ele>103.83333333333333</ele><time>2026-04-23T15:39:23.79Z</time></trkpt><trkpt lat="45.4110933" lon="9.2672401"><ele>103.66666666666666</ele><time>2026-04-23T15:39:25.792Z</time></trkpt><trkpt lat="45.4111549" lon="9.2671849"><ele>103.5</ele><time>2026-04-23T15:39:27.788Z</time></trkpt><trkpt lat="45.4112177" lon="9.2671291"><ele>103.33333333333334</ele><time>2026-04-23T15:39:29.791Z</time></trkpt><trkpt lat="45.4112964" lon="9.2670809"><ele>103.16666666666667</ele><time>2026-04-23T15:39:32.79Z</time></trkpt><trkpt lat="45.4113789" lon="9.2670088"><ele>103.0</ele><time>2026-04-23T15:39:35.792Z</time></trkpt><trkpt lat="45.4114307" lon="9.2669525"><ele>102.99999999999999</ele><time>2026-04-23T15:39:37.79Z</time></trkpt><trkpt lat="45.4114938" lon="9.2668867"><ele>103.0</ele><time>2026-04-23T15:39:39.785Z</time></trkpt><trkpt lat="45.4115549" lon="9.2668353"><ele>103.0</ele><time>2026-04-23T15:39:41.787Z</time></trkpt><trkpt lat="45.4116121" lon="9.2667721"><ele>103.0</ele><time>2026-04-23T15:39:43.794Z</time></trkpt><trkpt lat="45.4116724" lon="9.2667199"><ele>103.0</ele><time>2026-04-23T15:39:45.785Z</time></trkpt><trkpt lat="45.4117356" lon="9.2666695"><ele>102.99999999999999</ele><time>2026-04-23T15:39:47.788Z</time></trkpt><trkpt lat="45.4117623" lon="9.2665878"><ele>103.0</ele><time>2026-04-23T15:39:50.791Z</time></trkpt><trkpt lat="45.4117131" lon="9.2665015"><ele>102.66666666666667</ele><time>2026-04-23T15:40:38.789Z</time></trkpt><trkpt lat="45.4116755" lon="9.266429"><ele>102.33333333333334</ele><time>2026-04-23T15:40:40.795Z</time></trkpt><trkpt lat="45.4116353" lon="9.2663373"><ele>102.0</ele><time>2026-04-23T15:40:42.787Z</time></trkpt><trkpt lat="45.4115728" lon="9.2662551"><ele>101.66666666666666</ele><time>2026-04-23T15:40:44.79Z</time></trkpt><trkpt lat="45.4115162" lon="9.2661726"><ele>101.33333333333333</ele><time>2026-04-23T15:40:46.79Z</time></trkpt><trkpt lat="45.4114674" lon="9.2660881"><ele>101.0</ele><time>2026-04-23T15:40:48.795Z</time></trkpt><trkpt lat="45.4114276" lon="9.2660099"><ele>101.0</ele><time>2026-04-23T15:40:50.789Z</time></trkpt><trkpt lat="45.4113848" lon="9.2659395"><ele>101.0</ele><time>2026-04-23T15:40:52.785Z</time></trkpt><trkpt lat="45.4113075" lon="9.2658851"><ele>101.0</ele><time>2026-04-23T15:40:56.809Z</time></trkpt><trkpt lat="45.4112668" lon="9.2657905"><ele>101.0</ele><time>2026-04-23T15:40:58.79Z</time></trkpt><trkpt lat="45.4112559" lon="9.2656834"><ele>101.0</ele><time>2026-04-23T15:41:00.793Z</time></trkpt><trkpt lat="45.4112331" lon="9.2655992"><ele>101.0</ele><time>2026-04-23T15:41:02.793Z</time></trkpt><trkpt lat="45.4111842" lon="9.2655242"><ele>101.0</ele><time>2026-04-23T15:41:04.793Z</time></trkpt><trkpt lat="45.4111347" lon="9.2654482"><ele>101.0</ele><time>2026-04-23T15:41:06.793Z</time></trkpt><trkpt lat="45.4110902" lon="9.2653816"><ele>101.0</ele><time>2026-04-23T15:41:08.796Z</time></trkpt><trkpt lat="45.41104" lon="9.2653259"><ele>101.0</ele><time>2026-04-23T15:41:10.79Z</time></trkpt><trkpt lat="45.4110013" lon="9.2652501"><ele>101.0</ele><time>2026-04-23T15:41:12.791Z</time></trkpt><trkpt lat="45.4109427" lon="9.2651598"><ele>101.0</ele><time>2026-04-23T15:41:15.795Z</time></trkpt><trkpt lat="45.410878" lon="9.265069"><ele>101.0</ele><time>2026-04-23T15:41:18.79Z</time></trkpt><trkpt lat="45.4108289" lon="9.265005"><ele>101.0</ele><time>2026-04-23T15:41:20.793Z</time></trkpt><trkpt lat="45.4107811" lon="9.2649349"><ele>100.99999999999999</ele><time>2026-04-23T15:41:22.795Z</time></trkpt><trkpt lat="45.4107183" lon="9.2648456"><ele>101.0</ele><time>2026-04-23T15:41:25.793Z</time></trkpt><trkpt lat="45.4106563" lon="9.2647399"><ele>101.0</ele><time>2026-04-23T15:41:28.798Z</time></trkpt><trkpt lat="45.4106192" lon="9.264662"><ele>101.0</ele><time>2026-04-23T15:41:30.798Z</time></trkpt><trkpt lat="45.4105536" lon="9.26457"><ele>100.99999999999999</ele><time>2026-04-23T15:41:33.794Z</time></trkpt><trkpt lat="45.4105077" lon="9.2645067"><ele>101.0</ele><time>2026-04-23T15:41:35.789Z</time></trkpt><trkpt lat="45.4104547" lon="9.264455"><ele>101.16666666666666</ele><time>2026-04-23T15:41:37.789Z</time></trkpt><trkpt lat="45.4103933" lon="9.2643571"><ele>101.33333333333333</ele><time>2026-04-23T15:41:40.799Z</time></trkpt><trkpt lat="45.4103291" lon="9.2642745"><ele>101.5</ele><time>2026-04-23T15:41:43.787Z</time></trkpt><trkpt lat="45.4102845" lon="9.2642099"><ele>101.66666666666666</ele><time>2026-04-23T15:41:45.79Z</time></trkpt><trkpt lat="45.4102186" lon="9.2641168"><ele>101.83333333333333</ele><time>2026-04-23T15:41:48.787Z</time></trkpt><trkpt lat="45.4101732" lon="9.2640539"><ele>102.0</ele><time>2026-04-23T15:41:50.788Z</time></trkpt><trkpt lat="45.4101108" lon="9.2639583"><ele>102.0</ele><time>2026-04-23T15:41:53.8Z</time></trkpt><trkpt lat="45.4100471" lon="9.2638614"><ele>102.0</ele><time>2026-04-23T15:41:56.801Z</time></trkpt><trkpt lat="45.4100034" lon="9.2637904"><ele>102.0</ele><time>2026-04-23T15:41:58.79Z</time></trkpt><trkpt lat="45.4099562" lon="9.2637152"><ele>102.0</ele><time>2026-04-23T15:42:00.792Z</time></trkpt><trkpt lat="45.4099134" lon="9.2636459"><ele>102.0</ele><time>2026-04-23T15:42:02.79Z</time></trkpt><trkpt lat="45.4098637" lon="9.2635733"><ele>102.0</ele><time>2026-04-23T15:42:04.787Z</time></trkpt><trkpt lat="45.4098204" lon="9.2635031"><ele>102.0</ele><time>2026-04-23T15:42:06.785Z</time></trkpt><trkpt lat="45.4097816" lon="9.263432"><ele>102.0</ele><time>2026-04-23T15:42:08.795Z</time></trkpt><trkpt lat="45.4097418" lon="9.2633548"><ele>102.0</ele><time>2026-04-23T15:42:10.799Z</time></trkpt><trkpt lat="45.4096931" lon="9.2632797"><ele>102.0</ele><time>2026-04-23T15:42:12.794Z</time></trkpt><trkpt lat="45.4096382" lon="9.2632001"><ele>102.0</ele><time>2026-04-23T15:42:14.794Z</time></trkpt><trkpt lat="45.4095734" lon="9.2631248"><ele>102.0</ele><time>2026-04-23T15:42:16.79Z</time></trkpt><trkpt lat="45.4094879" lon="9.263033"><ele>102.0</ele><time>2026-04-23T15:42:18.801Z</time></trkpt><trkpt lat="45.4094151" lon="9.2629518"><ele>101.33333333333333</ele><time>2026-04-23T15:42:20.793Z</time></trkpt><trkpt lat="45.4093441" lon="9.2628985"><ele>100.66666666666666</ele><time>2026-04-23T15:42:23.797Z</time></trkpt><trkpt lat="45.4093256" lon="9.2628051"><ele>100.0</ele><time>2026-04-23T15:42:28.8Z</time></trkpt><trkpt lat="45.4093198" lon="9.2627031"><ele>99.33333333333333</ele><time>2026-04-23T15:42:30.789Z</time></trkpt><trkpt lat="45.4092602" lon="9.2626096"><ele>98.66666666666666</ele><time>2026-04-23T15:42:32.794Z</time></trkpt><trkpt lat="45.4091961" lon="9.2625039"><ele>98.0</ele><time>2026-04-23T15:42:34.8Z</time></trkpt><trkpt lat="45.4091768" lon="9.2624072"><ele>98.0</ele><time>2026-04-23T15:42:35.802Z</time></trkpt><trkpt lat="45.4092045" lon="9.2623105"><ele>98.0</ele><time>2026-04-23T15:42:36.791Z</time></trkpt><trkpt lat="45.4092661" lon="9.2622458"><ele>98.0</ele><time>2026-04-23T15:42:37.788Z</time></trkpt><trkpt lat="45.4093365" lon="9.2622345"><ele>98.0</ele><time>2026-04-23T15:42:38.788Z</time></trkpt><trkpt lat="45.4094109" lon="9.2622526"><ele>98.0</ele><time>2026-04-23T15:42:39.787Z</time></trkpt><trkpt lat="45.4094814" lon="9.2622742"><ele>98.0</ele><time>2026-04-23T15:42:40.797Z</time></trkpt><trkpt lat="45.4095494" lon="9.2622892"><ele>98.0</ele><time>2026-04-23T15:42:41.791Z</time></trkpt><trkpt lat="45.4096239" lon="9.2623043"><ele>98.83333333333333</ele><time>2026-04-23T15:42:42.793Z</time></trkpt><trkpt lat="45.409701" lon="9.262316"><ele>99.66666666666666</ele><time>2026-04-23T15:42:43.79Z</time></trkpt><trkpt lat="45.4097684" lon="9.2623272"><ele>100.5</ele><time>2026-04-23T15:42:44.797Z</time></trkpt><trkpt lat="45.4098337" lon="9.2623343"><ele>101.33333333333334</ele><time>2026-04-23T15:42:45.794Z</time></trkpt><trkpt lat="45.4098958" lon="9.2623506"><ele>102.16666666666667</ele><time>2026-04-23T15:42:46.798Z</time></trkpt><trkpt lat="45.4100156" lon="9.2624156"><ele>103.0</ele><time>2026-04-23T15:42:48.79Z</time></trkpt><trkpt lat="45.4101277" lon="9.2624972"><ele>103.00000000000001</ele><time>2026-04-23T15:42:50.793Z</time></trkpt><trkpt lat="45.410187" lon="9.2625294"><ele>103.0</ele><time>2026-04-23T15:42:51.785Z</time></trkpt><trkpt lat="45.4102529" lon="9.2625441"><ele>103.0</ele><time>2026-04-23T15:42:52.793Z</time></trkpt><trkpt lat="45.4103214" lon="9.2625318"><ele>103.0</ele><time>2026-04-23T15:42:53.797Z</time></trkpt><trkpt lat="45.4103817" lon="9.2624913"><ele>103.00000000000001</ele><time>2026-04-23T15:42:54.798Z</time></trkpt><trkpt lat="45.4104725" lon="9.2624001"><ele>103.0</ele><time>2026-04-23T15:42:56.791Z</time></trkpt><trkpt lat="45.4105089" lon="9.2622862"><ele>103.25</ele><time>2026-04-23T15:42:58.802Z</time></trkpt><trkpt lat="45.4105304" lon="9.2621278"><ele>103.5</ele><time>2026-04-23T15:43:00.791Z</time></trkpt><trkpt lat="45.4105376" lon="9.2619629"><ele>103.75</ele><time>2026-04-23T15:43:02.784Z</time></trkpt><trkpt lat="45.4105497" lon="9.2617966"><ele>104.0</ele><time>2026-04-23T15:43:04.792Z</time></trkpt><trkpt lat="45.4105346" lon="9.26165"><ele>104.0</ele><time>2026-04-23T15:43:06.781Z</time></trkpt><trkpt lat="45.410503" lon="9.2615127"><ele>104.0</ele><time>2026-04-23T15:43:08.796Z</time></trkpt><trkpt lat="45.4104916" lon="9.2613602"><ele>104.0</ele><time>2026-04-23T15:43:10.795Z</time></trkpt><trkpt lat="45.4104534" lon="9.2612714"><ele>104.0</ele><time>2026-04-23T15:43:12.791Z</time></trkpt><trkpt lat="45.4103581" lon="9.261302"><ele>104.0</ele><time>2026-04-23T15:43:14.798Z</time></trkpt><trkpt lat="45.4102613" lon="9.2613042"><ele>102.80000000000001</ele><time>2026-04-23T15:43:16.788Z</time></trkpt><trkpt lat="45.410173" lon="9.2612759"><ele>101.60000000000001</ele><time>2026-04-23T15:43:18.794Z</time></trkpt><trkpt lat="45.4100755" lon="9.2612553"><ele>100.4</ele><time>2026-04-23T15:43:20.79Z</time></trkpt><trkpt lat="45.4099656" lon="9.2612332"><ele>99.2</ele><time>2026-04-23T15:43:22.791Z</time></trkpt><trkpt lat="45.4098567" lon="9.261227"><ele>98.0</ele><time>2026-04-23T15:43:24.795Z</time></trkpt><trkpt lat="45.409752" lon="9.2611792"><ele>98.0</ele><time>2026-04-23T15:43:26.796Z</time></trkpt><trkpt lat="45.4096624" lon="9.2610904"><ele>98.0</ele><time>2026-04-23T15:43:28.798Z</time></trkpt><trkpt lat="45.4095985" lon="9.2609741"><ele>98.0</ele><time>2026-04-23T15:43:30.79Z</time></trkpt><trkpt lat="45.4095793" lon="9.2608202"><ele>98.0</ele><time>2026-04-23T15:43:32.799Z</time></trkpt><trkpt lat="45.4095904" lon="9.2606606"><ele>98.0</ele><time>2026-04-23T15:43:34.79Z</time></trkpt><trkpt lat="45.4096048" lon="9.2605013"><ele>97.60000000000001</ele><time>2026-04-23T15:43:36.793Z</time></trkpt><trkpt lat="45.4096296" lon="9.2603488"><ele>97.2</ele><time>2026-04-23T15:43:38.822Z</time></trkpt><trkpt lat="45.4096338" lon="9.2601881"><ele>96.8</ele><time>2026-04-23T15:43:40.795Z</time></trkpt><trkpt lat="45.4096501" lon="9.2600102"><ele>96.4</ele><time>2026-04-23T15:43:42.798Z</time></trkpt><trkpt lat="45.4096519" lon="9.2599078"><ele>96.0</ele><time>2026-04-23T15:43:43.794Z</time></trkpt><trkpt lat="45.4096579" lon="9.2598136"><ele>96.28571428571428</ele><time>2026-04-23T15:43:44.802Z</time></trkpt><trkpt lat="45.4096573" lon="9.2597119"><ele>96.57142857142857</ele><time>2026-04-23T15:43:45.798Z</time></trkpt><trkpt lat="45.409644" lon="9.2596094"><ele>96.85714285714286</ele><time>2026-04-23T15:43:46.799Z</time></trkpt><trkpt lat="45.4096224" lon="9.2595155"><ele>97.14285714285714</ele><time>2026-04-23T15:43:47.796Z</time></trkpt><trkpt lat="45.4095858" lon="9.2594122"><ele>97.42857142857143</ele><time>2026-04-23T15:43:48.789Z</time></trkpt><trkpt lat="45.409547" lon="9.2593142"><ele>97.71428571428571</ele><time>2026-04-23T15:43:49.791Z</time></trkpt><trkpt lat="45.4095065" lon="9.2592262"><ele>98.0</ele><time>2026-04-23T15:43:50.798Z</time></trkpt><trkpt lat="45.4094653" lon="9.2591563"><ele>98.0</ele><time>2026-04-23T15:43:51.791Z</time></trkpt><trkpt lat="45.4093926" lon="9.2590181"><ele>98.0</ele><time>2026-04-23T15:43:53.782Z</time></trkpt><trkpt lat="45.4093132" lon="9.2588757"><ele>98.0</ele><time>2026-04-23T15:43:55.785Z</time></trkpt><trkpt lat="45.4092625" lon="9.258818"><ele>98.0</ele><time>2026-04-23T15:43:56.79Z</time></trkpt><trkpt lat="45.4091807" lon="9.2587144"><ele>98.0</ele><time>2026-04-23T15:43:58.797Z</time></trkpt><trkpt lat="45.4091356" lon="9.2586116"><ele>97.99999999999999</ele><time>2026-04-23T15:44:00.792Z</time></trkpt><trkpt lat="45.4090818" lon="9.2585315"><ele>98.0</ele><time>2026-04-23T15:44:02.788Z</time></trkpt><trkpt lat="45.4090553" lon="9.2584403"><ele>98.0</ele><time>2026-04-23T15:44:04.792Z</time></trkpt><trkpt lat="45.4090625" lon="9.2583437"><ele>98.0</ele><time>2026-04-23T15:44:06.794Z</time></trkpt><trkpt lat="45.4090976" lon="9.2582447"><ele>97.99999999999999</ele><time>2026-04-23T15:44:08.788Z</time></trkpt><trkpt lat="45.4091577" lon="9.2581654"><ele>98.0</ele><time>2026-04-23T15:44:10.79Z</time></trkpt><trkpt lat="45.4092059" lon="9.2580641"><ele>98.16666666666666</ele><time>2026-04-23T15:44:12.791Z</time></trkpt><trkpt lat="45.4092419" lon="9.2579626"><ele>98.33333333333333</ele><time>2026-04-23T15:44:14.796Z</time></trkpt><trkpt lat="45.4092944" lon="9.2578802"><ele>98.5</ele><time>2026-04-23T15:44:16.802Z</time></trkpt><trkpt lat="45.4093412" lon="9.2577929"><ele>98.66666666666666</ele><time>2026-04-23T15:44:18.792Z</time></trkpt><trkpt lat="45.4093904" lon="9.2576847"><ele>98.83333333333333</ele><time>2026-04-23T15:44:20.793Z</time></trkpt><trkpt lat="45.4094422" lon="9.257579"><ele>99.0</ele><time>2026-04-23T15:44:22.787Z</time></trkpt><trkpt lat="45.4095079" lon="9.257499"><ele>99.0</ele><time>2026-04-23T15:44:24.796Z</time></trkpt><trkpt lat="45.4095701" lon="9.2574018"><ele>99.0</ele><time>2026-04-23T15:44:26.787Z</time></trkpt><trkpt lat="45.4096361" lon="9.2573075"><ele>99.0</ele><time>2026-04-23T15:44:28.792Z</time></trkpt><trkpt lat="45.4096989" lon="9.2572001"><ele>99.0</ele><time>2026-04-23T15:44:30.795Z</time></trkpt><trkpt lat="45.4097643" lon="9.2571028"><ele>99.0</ele><time>2026-04-23T15:44:32.799Z</time></trkpt><trkpt lat="45.4098215" lon="9.2569988"><ele>98.80000000000001</ele><time>2026-04-23T15:44:34.789Z</time></trkpt><trkpt lat="45.409878" lon="9.2569045"><ele>98.60000000000001</ele><time>2026-04-23T15:44:36.789Z</time></trkpt><trkpt lat="45.4099383" lon="9.2568102"><ele>98.4</ele><time>2026-04-23T15:44:38.786Z</time></trkpt><trkpt lat="45.4100015" lon="9.2567051"><ele>98.2</ele><time>2026-04-23T15:44:40.797Z</time></trkpt><trkpt lat="45.4100662" lon="9.2566083"><ele>98.0</ele><time>2026-04-23T15:44:42.794Z</time></trkpt><trkpt lat="45.4101269" lon="9.2564969"><ele>98.0</ele><time>2026-04-23T15:44:44.796Z</time></trkpt><trkpt lat="45.4101862" lon="9.2563938"><ele>98.0</ele><time>2026-04-23T15:44:46.801Z</time></trkpt><trkpt lat="45.4102468" lon="9.2562943"><ele>98.0</ele><time>2026-04-23T15:44:48.794Z</time></trkpt><trkpt lat="45.4103116" lon="9.2561884"><ele>98.0</ele><time>2026-04-23T15:44:50.787Z</time></trkpt><trkpt lat="45.4103732" lon="9.2560877"><ele>98.0</ele><time>2026-04-23T15:44:52.797Z</time></trkpt><trkpt lat="45.4104292" lon="9.2559804"><ele>97.83333333333333</ele><time>2026-04-23T15:44:54.785Z</time></trkpt><trkpt lat="45.4104921" lon="9.2558857"><ele>97.66666666666666</ele><time>2026-04-23T15:44:56.808Z</time></trkpt><trkpt lat="45.4105514" lon="9.2557933"><ele>97.5</ele><time>2026-04-23T15:44:58.803Z</time></trkpt><trkpt lat="45.4106148" lon="9.2556977"><ele>97.33333333333334</ele><time>2026-04-23T15:45:00.793Z</time></trkpt><trkpt lat="45.4106741" lon="9.2556061"><ele>97.16666666666667</ele><time>2026-04-23T15:45:02.792Z</time></trkpt><trkpt lat="45.410673" lon="9.2554995"><ele>97.0</ele><time>2026-04-23T15:45:04.788Z</time></trkpt><trkpt lat="45.4106387" lon="9.2554085"><ele>97.19999999999999</ele><time>2026-04-23T15:45:06.79Z</time></trkpt><trkpt lat="45.4105932" lon="9.2552915"><ele>97.4</ele><time>2026-04-23T15:45:08.793Z</time></trkpt><trkpt lat="45.4105175" lon="9.2552185"><ele>97.6</ele><time>2026-04-23T15:45:10.793Z</time></trkpt><trkpt lat="45.4104449" lon="9.2551545"><ele>97.80000000000001</ele><time>2026-04-23T15:45:12.807Z</time></trkpt><trkpt lat="45.4103698" lon="9.2550742"><ele>98.0</ele><time>2026-04-23T15:45:14.795Z</time></trkpt><trkpt lat="45.4102901" lon="9.2550107"><ele>98.0</ele><time>2026-04-23T15:45:16.801Z</time></trkpt><trkpt lat="45.4102099" lon="9.2549298"><ele>98.0</ele><time>2026-04-23T15:45:18.802Z</time></trkpt><trkpt lat="45.4101305" lon="9.2548432"><ele>98.0</ele><time>2026-04-23T15:45:20.788Z</time></trkpt><trkpt lat="45.4100429" lon="9.2547561"><ele>98.0</ele><time>2026-04-23T15:45:22.802Z</time></trkpt><trkpt lat="45.4099661" lon="9.2547097"><ele>98.0</ele><time>2026-04-23T15:45:24.802Z</time></trkpt><trkpt lat="45.4099065" lon="9.2547432"><ele>97.83333333333333</ele><time>2026-04-23T15:45:26.804Z</time></trkpt><trkpt lat="45.4098147" lon="9.2547063"><ele>97.66666666666666</ele><time>2026-04-23T15:45:29.796Z</time></trkpt><trkpt lat="45.4097536" lon="9.254661"><ele>97.5</ele><time>2026-04-23T15:45:31.789Z</time></trkpt><trkpt lat="45.4096925" lon="9.2546188"><ele>97.33333333333334</ele><time>2026-04-23T15:45:33.785Z</time></trkpt><trkpt lat="45.4096146" lon="9.2545724"><ele>97.16666666666667</ele><time>2026-04-23T15:45:35.785Z</time></trkpt><trkpt lat="45.4095431" lon="9.2544702"><ele>97.0</ele><time>2026-04-23T15:45:37.795Z</time></trkpt><trkpt lat="45.4094793" lon="9.2543523"><ele>96.8</ele><time>2026-04-23T15:45:39.793Z</time></trkpt><trkpt lat="45.4094089" lon="9.2542358"><ele>96.6</ele><time>2026-04-23T15:45:41.789Z</time></trkpt><trkpt lat="45.4093383" lon="9.2541159"><ele>96.39999999999999</ele><time>2026-04-23T15:45:43.798Z</time></trkpt><trkpt lat="45.4092709" lon="9.25401"><ele>96.19999999999999</ele><time>2026-04-23T15:45:45.801Z</time></trkpt><trkpt lat="45.4092043" lon="9.2538975"><ele>96.0</ele><time>2026-04-23T15:45:47.789Z</time></trkpt><trkpt lat="45.4091399" lon="9.2537865"><ele>95.8</ele><time>2026-04-23T15:45:49.791Z</time></trkpt><trkpt lat="45.4090744" lon="9.2536882"><ele>95.6</ele><time>2026-04-23T15:45:51.795Z</time></trkpt><trkpt lat="45.4090121" lon="9.2535806"><ele>95.4</ele><time>2026-04-23T15:45:53.795Z</time></trkpt><trkpt lat="45.4089477" lon="9.2534795"><ele>95.2</ele><time>2026-04-23T15:45:55.803Z</time></trkpt><trkpt lat="45.4088828" lon="9.2533784"><ele>95.0</ele><time>2026-04-23T15:45:57.799Z</time></trkpt><trkpt lat="45.4088179" lon="9.2532822"><ele>94.8</ele><time>2026-04-23T15:45:59.796Z</time></trkpt><trkpt lat="45.4087513" lon="9.2531782"><ele>94.6</ele><time>2026-04-23T15:46:01.793Z</time></trkpt><trkpt lat="45.4086902" lon="9.2530804"><ele>94.4</ele><time>2026-04-23T15:46:03.798Z</time></trkpt><trkpt lat="45.4086328" lon="9.2529772"><ele>94.2</ele><time>2026-04-23T15:46:05.813Z</time></trkpt><trkpt lat="45.4085671" lon="9.2528742"><ele>94.0</ele><time>2026-04-23T15:46:07.792Z</time></trkpt><trkpt lat="45.4085055" lon="9.2527744"><ele>94.0</ele><time>2026-04-23T15:46:09.792Z</time></trkpt><trkpt lat="45.4084434" lon="9.2526787"><ele>94.0</ele><time>2026-04-23T15:46:11.79Z</time></trkpt><trkpt lat="45.4083833" lon="9.2525879"><ele>94.0</ele><time>2026-04-23T15:46:13.8Z</time></trkpt><trkpt lat="45.4083276" lon="9.2524935"><ele>94.0</ele><time>2026-04-23T15:46:15.791Z</time></trkpt><trkpt lat="45.4082709" lon="9.2523978"><ele>94.0</ele><time>2026-04-23T15:46:17.789Z</time></trkpt><trkpt lat="45.4082181" lon="9.2523134"><ele>94.0</ele><time>2026-04-23T15:46:19.791Z</time></trkpt><trkpt lat="45.4081597" lon="9.252228"><ele>94.16666666666666</ele><time>2026-04-23T15:46:21.79Z</time></trkpt><trkpt lat="45.4081102" lon="9.2521368"><ele>94.33333333333333</ele><time>2026-04-23T15:46:23.796Z</time></trkpt><trkpt lat="45.4080604" lon="9.2520429"><ele>94.5</ele><time>2026-04-23T15:46:25.799Z</time></trkpt><trkpt lat="45.4080019" lon="9.2519602"><ele>94.66666666666667</ele><time>2026-04-23T15:46:27.795Z</time></trkpt><trkpt lat="45.4079407" lon="9.2518812"><ele>94.83333333333334</ele><time>2026-04-23T15:46:29.794Z</time></trkpt><trkpt lat="45.4078678" lon="9.2518183"><ele>95.0</ele><time>2026-04-23T15:46:31.786Z</time></trkpt><trkpt lat="45.4077939" lon="9.2517464"><ele>95.0</ele><time>2026-04-23T15:46:33.791Z</time></trkpt><trkpt lat="45.4077208" lon="9.2516707"><ele>95.0</ele><time>2026-04-23T15:46:35.791Z</time></trkpt><trkpt lat="45.4076459" lon="9.2515998"><ele>95.0</ele><time>2026-04-23T15:46:37.79Z</time></trkpt><trkpt lat="45.4075724" lon="9.2515286"><ele>95.0</ele><time>2026-04-23T15:46:39.796Z</time></trkpt><trkpt lat="45.4074934" lon="9.2514559"><ele>95.0</ele><time>2026-04-23T15:46:41.792Z</time></trkpt><trkpt lat="45.4074172" lon="9.2513826"><ele>95.33333333333334</ele><time>2026-04-23T15:46:43.799Z</time></trkpt><trkpt lat="45.4073455" lon="9.2513108"><ele>95.66666666666667</ele><time>2026-04-23T15:46:45.792Z</time></trkpt><trkpt lat="45.4072729" lon="9.2512357"><ele>96.0</ele><time>2026-04-23T15:46:47.803Z</time></trkpt><trkpt lat="45.407201" lon="9.2511623"><ele>96.33333333333334</ele><time>2026-04-23T15:46:49.795Z</time></trkpt><trkpt lat="45.4071311" lon="9.2510924"><ele>96.66666666666667</ele><time>2026-04-23T15:46:51.788Z</time></trkpt><trkpt lat="45.4070627" lon="9.2510149"><ele>97.0</ele><time>2026-04-23T15:46:53.795Z</time></trkpt><trkpt lat="45.4069862" lon="9.2509453"><ele>97.00000000000001</ele><time>2026-04-23T15:46:55.799Z</time></trkpt><trkpt lat="45.406908" lon="9.2508761"><ele>97.0</ele><time>2026-04-23T15:46:57.791Z</time></trkpt><trkpt lat="45.4068285" lon="9.2508205"><ele>97.0</ele><time>2026-04-23T15:46:59.794Z</time></trkpt><trkpt lat="45.4067536" lon="9.25077"><ele>97.0</ele><time>2026-04-23T15:47:01.799Z</time></trkpt><trkpt lat="45.4066773" lon="9.25071"><ele>97.00000000000001</ele><time>2026-04-23T15:47:03.794Z</time></trkpt><trkpt lat="45.4066025" lon="9.250653"><ele>97.0</ele><time>2026-04-23T15:47:05.793Z</time></trkpt><trkpt lat="45.4065266" lon="9.2505995"><ele>96.83333333333334</ele><time>2026-04-23T15:47:07.796Z</time></trkpt><trkpt lat="45.4064582" lon="9.2505494"><ele>96.66666666666667</ele><time>2026-04-23T15:47:09.806Z</time></trkpt><trkpt lat="45.4063835" lon="9.2505027"><ele>96.5</ele><time>2026-04-23T15:47:11.797Z</time></trkpt><trkpt lat="45.4063122" lon="9.2504413"><ele>96.33333333333334</ele><time>2026-04-23T15:47:13.792Z</time></trkpt><trkpt lat="45.4062563" lon="9.2503567"><ele>96.16666666666667</ele><time>2026-04-23T15:47:15.792Z</time></trkpt><trkpt lat="45.406238" lon="9.2502623"><ele>96.0</ele><time>2026-04-23T15:47:17.792Z</time></trkpt><trkpt lat="45.4062268" lon="9.2501637"><ele>96.0</ele><time>2026-04-23T15:47:19.794Z</time></trkpt><trkpt lat="45.4062151" lon="9.2500481"><ele>96.0</ele><time>2026-04-23T15:47:21.794Z</time></trkpt><trkpt lat="45.4061959" lon="9.2499356"><ele>96.0</ele><time>2026-04-23T15:47:23.79Z</time></trkpt><trkpt lat="45.4061765" lon="9.249822"><ele>96.0</ele><time>2026-04-23T15:47:25.797Z</time></trkpt><trkpt lat="45.4061671" lon="9.2496987"><ele>96.0</ele><time>2026-04-23T15:47:27.791Z</time></trkpt><trkpt lat="45.4061566" lon="9.2495799"><ele>96.0</ele><time>2026-04-23T15:47:29.799Z</time></trkpt><trkpt lat="45.4061456" lon="9.2494582"><ele>95.83333333333333</ele><time>2026-04-23T15:47:31.791Z</time></trkpt><trkpt lat="45.4061341" lon="9.2493383"><ele>95.66666666666667</ele><time>2026-04-23T15:47:33.792Z</time></trkpt><trkpt lat="45.4061231" lon="9.249217"><ele>95.5</ele><time>2026-04-23T15:47:35.793Z</time></trkpt><trkpt lat="45.4061128" lon="9.2490954"><ele>95.33333333333334</ele><time>2026-04-23T15:47:37.796Z</time></trkpt><trkpt lat="45.4061013" lon="9.2489871"><ele>95.16666666666667</ele><time>2026-04-23T15:47:39.794Z</time></trkpt><trkpt lat="45.4060862" lon="9.2488696"><ele>95.0</ele><time>2026-04-23T15:47:41.793Z</time></trkpt><trkpt lat="45.4060708" lon="9.2487549"><ele>95.0</ele><time>2026-04-23T15:47:43.789Z</time></trkpt><trkpt lat="45.4060395" lon="9.2486355"><ele>95.0</ele><time>2026-04-23T15:47:45.792Z</time></trkpt><trkpt lat="45.406002" lon="9.2485175"><ele>95.0</ele><time>2026-04-23T15:47:47.795Z</time></trkpt><trkpt lat="45.4059523" lon="9.2484053"><ele>95.0</ele><time>2026-04-23T15:47:49.788Z</time></trkpt><trkpt lat="45.4059114" lon="9.248291"><ele>95.0</ele><time>2026-04-23T15:47:51.809Z</time></trkpt><trkpt lat="45.4058745" lon="9.2481776"><ele>95.5</ele><time>2026-04-23T15:47:53.797Z</time></trkpt><trkpt lat="45.4058365" lon="9.2480704"><ele>96.0</ele><time>2026-04-23T15:47:55.803Z</time></trkpt><trkpt lat="45.4057961" lon="9.2479625"><ele>96.5</ele><time>2026-04-23T15:47:57.792Z</time></trkpt><trkpt lat="45.405752" lon="9.2478567"><ele>97.0</ele><time>2026-04-23T15:47:59.792Z</time></trkpt><trkpt lat="45.4057066" lon="9.2477524"><ele>97.49999999999999</ele><time>2026-04-23T15:48:01.795Z</time></trkpt><trkpt lat="45.4056662" lon="9.2476439"><ele>98.0</ele><time>2026-04-23T15:48:03.8Z</time></trkpt><trkpt lat="45.4056303" lon="9.2475327"><ele>97.99999999999999</ele><time>2026-04-23T15:48:05.792Z</time></trkpt><trkpt lat="45.4055933" lon="9.2474236"><ele>98.0</ele><time>2026-04-23T15:48:07.79Z</time></trkpt><trkpt lat="45.4055542" lon="9.2473172"><ele>98.0</ele><time>2026-04-23T15:48:09.8Z</time></trkpt><trkpt lat="45.4055068" lon="9.2472094"><ele>98.0</ele><time>2026-04-23T15:48:11.796Z</time></trkpt><trkpt lat="45.4054617" lon="9.2471035"><ele>97.99999999999999</ele><time>2026-04-23T15:48:13.792Z</time></trkpt><trkpt lat="45.4054159" lon="9.2470135"><ele>98.0</ele><time>2026-04-23T15:48:15.805Z</time></trkpt><trkpt lat="45.4053664" lon="9.2469209"><ele>97.99999999999999</ele><time>2026-04-23T15:48:17.798Z</time></trkpt><trkpt lat="45.4053126" lon="9.2468233"><ele>98.0</ele><time>2026-04-23T15:48:19.792Z</time></trkpt><trkpt lat="45.4052581" lon="9.246724"><ele>98.0</ele><time>2026-04-23T15:48:21.79Z</time></trkpt><trkpt lat="45.4052053" lon="9.2466284"><ele>98.0</ele><time>2026-04-23T15:48:23.794Z</time></trkpt><trkpt lat="45.4051545" lon="9.2465412"><ele>97.99999999999999</ele><time>2026-04-23T15:48:25.796Z</time></trkpt><trkpt lat="45.4050964" lon="9.2464588"><ele>98.0</ele><time>2026-04-23T15:48:27.796Z</time></trkpt><trkpt lat="45.4050476" lon="9.2463719"><ele>97.99999999999999</ele><time>2026-04-23T15:48:29.795Z</time></trkpt><trkpt lat="45.4049952" lon="9.2462788"><ele>98.0</ele><time>2026-04-23T15:48:31.791Z</time></trkpt><trkpt lat="45.404941" lon="9.2461898"><ele>98.0</ele><time>2026-04-23T15:48:33.795Z</time></trkpt><trkpt lat="45.404886" lon="9.2461119"><ele>98.0</ele><time>2026-04-23T15:48:35.794Z</time></trkpt><trkpt lat="45.4048376" lon="9.2460226"><ele>97.99999999999999</ele><time>2026-04-23T15:48:37.789Z</time></trkpt><trkpt lat="45.4047708" lon="9.2459455"><ele>98.0</ele><time>2026-04-23T15:48:39.79Z</time></trkpt><trkpt lat="45.4047149" lon="9.2458568"><ele>97.99999999999999</ele><time>2026-04-23T15:48:41.793Z</time></trkpt><trkpt lat="45.4047002" lon="9.2457435"><ele>98.0</ele><time>2026-04-23T15:48:44.793Z</time></trkpt><trkpt lat="45.4047518" lon="9.2456503"><ele>98.0</ele><time>2026-04-23T15:48:47.792Z</time></trkpt><trkpt lat="45.4048012" lon="9.245579"><ele>98.0</ele><time>2026-04-23T15:48:49.788Z</time></trkpt><trkpt lat="45.4048521" lon="9.2455171"><ele>97.99999999999999</ele><time>2026-04-23T15:48:51.789Z</time></trkpt><trkpt lat="45.4049106" lon="9.2454492"><ele>98.0</ele><time>2026-04-23T15:48:53.785Z</time></trkpt><trkpt lat="45.404981" lon="9.2453624"><ele>98.60000000000001</ele><time>2026-04-23T15:48:55.793Z</time></trkpt><trkpt lat="45.4050534" lon="9.2452794"><ele>99.2</ele><time>2026-04-23T15:48:57.799Z</time></trkpt><trkpt lat="45.4051308" lon="9.2451839"><ele>99.8</ele><time>2026-04-23T15:48:59.798Z</time></trkpt><trkpt lat="45.4052097" lon="9.2450871"><ele>100.4</ele><time>2026-04-23T15:49:01.806Z</time></trkpt><trkpt lat="45.4052926" lon="9.244998"><ele>101.0</ele><time>2026-04-23T15:49:03.792Z</time></trkpt><trkpt lat="45.4053713" lon="9.2448953"><ele>101.0</ele><time>2026-04-23T15:49:05.789Z</time></trkpt><trkpt lat="45.4054538" lon="9.244799"><ele>101.0</ele><time>2026-04-23T15:49:07.787Z</time></trkpt><trkpt lat="45.4055319" lon="9.244697"><ele>101.0</ele><time>2026-04-23T15:49:09.791Z</time></trkpt><trkpt lat="45.4056091" lon="9.2445868"><ele>101.0</ele><time>2026-04-23T15:49:11.791Z</time></trkpt><trkpt lat="45.4056822" lon="9.244493"><ele>101.0</ele><time>2026-04-23T15:49:13.789Z</time></trkpt><trkpt lat="45.4057566" lon="9.2443794"><ele>101.0</ele><time>2026-04-23T15:49:15.787Z</time></trkpt><trkpt lat="45.4058192" lon="9.2442687"><ele>101.0</ele><time>2026-04-23T15:49:17.8Z</time></trkpt><trkpt lat="45.4058822" lon="9.2441496"><ele>101.0</ele><time>2026-04-23T15:49:19.798Z</time></trkpt><trkpt lat="45.4059618" lon="9.2440474"><ele>101.0</ele><time>2026-04-23T15:49:21.787Z</time></trkpt><trkpt lat="45.4060609" lon="9.2440105"><ele>101.0</ele><time>2026-04-23T15:49:23.795Z</time></trkpt><trkpt lat="45.4061789" lon="9.2439967"><ele>101.0</ele><time>2026-04-23T15:49:25.807Z</time></trkpt><trkpt lat="45.4062894" lon="9.2439872"><ele>101.0</ele><time>2026-04-23T15:49:27.799Z</time></trkpt><trkpt lat="45.4063979" lon="9.2439595"><ele>101.0</ele><time>2026-04-23T15:49:29.795Z</time></trkpt><trkpt lat="45.4065075" lon="9.2439402"><ele>101.0</ele><time>2026-04-23T15:49:31.791Z</time></trkpt><trkpt lat="45.4066145" lon="9.2439221"><ele>101.0</ele><time>2026-04-23T15:49:33.795Z</time></trkpt><trkpt lat="45.4067197" lon="9.2439056"><ele>101.19999999999999</ele><time>2026-04-23T15:49:35.793Z</time></trkpt><trkpt lat="45.4068313" lon="9.2439027"><ele>101.39999999999999</ele><time>2026-04-23T15:49:37.789Z</time></trkpt><trkpt lat="45.4069246" lon="9.243858"><ele>101.6</ele><time>2026-04-23T15:49:39.789Z</time></trkpt><trkpt lat="45.4069704" lon="9.2437278"><ele>101.8</ele><time>2026-04-23T15:49:41.797Z</time></trkpt><trkpt lat="45.4069328" lon="9.2435871"><ele>102.0</ele><time>2026-04-23T15:49:43.799Z</time></trkpt><trkpt lat="45.4068769" lon="9.2434887"><ele>102.0</ele><time>2026-04-23T15:49:45.794Z</time></trkpt><trkpt lat="45.4068505" lon="9.2433729"><ele>102.0</ele><time>2026-04-23T15:49:47.799Z</time></trkpt><trkpt lat="45.406792" lon="9.2432942"><ele>102.0</ele><time>2026-04-23T15:49:49.805Z</time></trkpt><trkpt lat="45.4067448" lon="9.2431751"><ele>102.0</ele><time>2026-04-23T15:49:51.791Z</time></trkpt><trkpt lat="45.4066894" lon="9.2430652"><ele>102.0</ele><time>2026-04-23T15:49:53.802Z</time></trkpt><trkpt lat="45.4066591" lon="9.2429653"><ele>102.0</ele><time>2026-04-23T15:49:55.791Z</time></trkpt><trkpt lat="45.4066343" lon="9.2428671"><ele>101.57142857142857</ele><time>2026-04-23T15:49:57.791Z</time></trkpt><trkpt lat="45.4066158" lon="9.2427711"><ele>101.14285714285714</ele><time>2026-04-23T15:49:59.79Z</time></trkpt><trkpt lat="45.4065918" lon="9.2426723"><ele>100.71428571428572</ele><time>2026-04-23T15:50:01.795Z</time></trkpt><trkpt lat="45.4065749" lon="9.2425853"><ele>100.28571428571428</ele><time>2026-04-23T15:50:03.795Z</time></trkpt><trkpt lat="45.4065604" lon="9.2424917"><ele>99.85714285714285</ele><time>2026-04-23T15:50:05.786Z</time></trkpt><trkpt lat="45.406551" lon="9.2424025"><ele>99.42857142857143</ele><time>2026-04-23T15:50:07.79Z</time></trkpt><trkpt lat="45.4065466" lon="9.2423045"><ele>99.0</ele><time>2026-04-23T15:50:09.793Z</time></trkpt><trkpt lat="45.4065527" lon="9.2421706"><ele>99.0</ele><time>2026-04-23T15:50:12.801Z</time></trkpt><trkpt lat="45.4065595" lon="9.2420441"><ele>99.0</ele><time>2026-04-23T15:50:15.79Z</time></trkpt><trkpt lat="45.4065603" lon="9.2419231"><ele>99.0</ele><time>2026-04-23T15:50:18.795Z</time></trkpt><trkpt lat="45.4065799" lon="9.2418092"><ele>99.0</ele><time>2026-04-23T15:50:21.796Z</time></trkpt><trkpt lat="45.4066079" lon="9.2416924"><ele>99.0</ele><time>2026-04-23T15:50:24.793Z</time></trkpt><trkpt lat="45.4066338" lon="9.2415735"><ele>99.0</ele><time>2026-04-23T15:50:27.79Z</time></trkpt><trkpt lat="45.4066624" lon="9.2414595"><ele>99.0</ele><time>2026-04-23T15:50:30.793Z</time></trkpt><trkpt lat="45.4066974" lon="9.2413616"><ele>99.0</ele><time>2026-04-23T15:50:33.792Z</time></trkpt><trkpt lat="45.4067306" lon="9.2412676"><ele>99.0</ele><time>2026-04-23T15:50:36.79Z</time></trkpt><trkpt lat="45.4067638" lon="9.2411851"><ele>99.0</ele><time>2026-04-23T15:50:38.791Z</time></trkpt><trkpt lat="45.4068015" lon="9.2411083"><ele>99.0</ele><time>2026-04-23T15:50:40.792Z</time></trkpt><trkpt lat="45.4068412" lon="9.241037"><ele>99.0</ele><time>2026-04-23T15:50:42.79Z</time></trkpt><trkpt lat="45.4068914" lon="9.2409295"><ele>99.0</ele><time>2026-04-23T15:50:45.801Z</time></trkpt><trkpt lat="45.4069484" lon="9.2408265"><ele>99.0</ele><time>2026-04-23T15:50:48.789Z</time></trkpt><trkpt lat="45.4069857" lon="9.2407478"><ele>99.0</ele><time>2026-04-23T15:50:50.79Z</time></trkpt><trkpt lat="45.4070184" lon="9.240668"><ele>99.0</ele><time>2026-04-23T15:50:52.799Z</time></trkpt><trkpt lat="45.4070735" lon="9.2405613"><ele>99.0</ele><time>2026-04-23T15:50:55.791Z</time></trkpt><trkpt lat="45.4071147" lon="9.2404831"><ele>99.0</ele><time>2026-04-23T15:50:57.793Z</time></trkpt><trkpt lat="45.4071522" lon="9.2404103"><ele>99.0</ele><time>2026-04-23T15:50:59.802Z</time></trkpt><trkpt lat="45.4072082" lon="9.2403018"><ele>99.0</ele><time>2026-04-23T15:51:02.785Z</time></trkpt><trkpt lat="45.4072441" lon="9.2402117"><ele>99.0</ele><time>2026-04-23T15:51:04.802Z</time></trkpt><trkpt lat="45.407287" lon="9.2401367"><ele>99.0</ele><time>2026-04-23T15:51:06.783Z</time></trkpt><trkpt lat="45.4073288" lon="9.2400392"><ele>99.0</ele><time>2026-04-23T15:51:08.785Z</time></trkpt><trkpt lat="45.4073794" lon="9.2399314"><ele>99.0</ele><time>2026-04-23T15:51:10.79Z</time></trkpt><trkpt lat="45.407434" lon="9.2398268"><ele>99.0</ele><time>2026-04-23T15:51:12.784Z</time></trkpt><trkpt lat="45.4074858" lon="9.2396998"><ele>99.0</ele><time>2026-04-23T15:51:14.79Z</time></trkpt><trkpt lat="45.4075356" lon="9.2395793"><ele>99.0</ele><time>2026-04-23T15:51:16.8Z</time></trkpt><trkpt lat="45.4075826" lon="9.2394322"><ele>99.0</ele><time>2026-04-23T15:51:18.797Z</time></trkpt><trkpt lat="45.4076275" lon="9.2392835"><ele>99.0</ele><time>2026-04-23T15:51:20.794Z</time></trkpt><trkpt lat="45.4076552" lon="9.2391213"><ele>99.0</ele><time>2026-04-23T15:51:22.787Z</time></trkpt><trkpt lat="45.4076819" lon="9.2389508"><ele>99.42857142857143</ele><time>2026-04-23T15:51:24.796Z</time></trkpt><trkpt lat="45.4076959" lon="9.2388473"><ele>99.85714285714285</ele><time>2026-04-23T15:51:25.789Z</time></trkpt><trkpt lat="45.4077038" lon="9.2387455"><ele>100.28571428571428</ele><time>2026-04-23T15:51:26.791Z</time></trkpt><trkpt lat="45.4077042" lon="9.238653"><ele>100.71428571428572</ele><time>2026-04-23T15:51:27.793Z</time></trkpt><trkpt lat="45.4077024" lon="9.2385558"><ele>101.14285714285714</ele><time>2026-04-23T15:51:28.79Z</time></trkpt><trkpt lat="45.4076968" lon="9.2384542"><ele>101.57142857142857</ele><time>2026-04-23T15:51:29.788Z</time></trkpt><trkpt lat="45.4076897" lon="9.2383456"><ele>102.0</ele><time>2026-04-23T15:51:30.791Z</time></trkpt><trkpt lat="45.4076775" lon="9.2382463"><ele>102.0</ele><time>2026-04-23T15:51:31.795Z</time></trkpt><trkpt lat="45.4076643" lon="9.2381438"><ele>102.0</ele><time>2026-04-23T15:51:32.795Z</time></trkpt><trkpt lat="45.4076521" lon="9.2380443"><ele>102.0</ele><time>2026-04-23T15:51:33.791Z</time></trkpt><trkpt lat="45.4076472" lon="9.2379482"><ele>102.0</ele><time>2026-04-23T15:51:34.793Z</time></trkpt><trkpt lat="45.407641" lon="9.2377942"><ele>102.0</ele><time>2026-04-23T15:51:36.789Z</time></trkpt><trkpt lat="45.4076648" lon="9.2376658"><ele>102.0</ele><time>2026-04-23T15:51:38.788Z</time></trkpt><trkpt lat="45.4077271" lon="9.2375936"><ele>101.83333333333333</ele><time>2026-04-23T15:51:40.789Z</time></trkpt><trkpt lat="45.407756" lon="9.2374859"><ele>101.66666666666666</ele><time>2026-04-23T15:51:43.787Z</time></trkpt><trkpt lat="45.4077636" lon="9.2373636"><ele>101.5</ele><time>2026-04-23T15:51:46.795Z</time></trkpt><trkpt lat="45.4076957" lon="9.2373273"><ele>101.33333333333333</ele><time>2026-04-23T15:51:49.788Z</time></trkpt><trkpt lat="45.407611" lon="9.237259"><ele>101.16666666666666</ele><time>2026-04-23T15:51:52.795Z</time></trkpt><trkpt lat="45.4075356" lon="9.237222"><ele>101.0</ele><time>2026-04-23T15:51:54.792Z</time></trkpt><trkpt lat="45.4074773" lon="9.2371805"><ele>100.83333333333333</ele><time>2026-04-23T15:51:56.787Z</time></trkpt><trkpt lat="45.4074107" lon="9.2371333"><ele>100.66666666666666</ele><time>2026-04-23T15:51:58.791Z</time></trkpt><trkpt lat="45.4073496" lon="9.2370625"><ele>100.5</ele><time>2026-04-23T15:52:00.786Z</time></trkpt><trkpt lat="45.4072963" lon="9.2369644"><ele>100.33333333333334</ele><time>2026-04-23T15:52:02.792Z</time></trkpt><trkpt lat="45.4072631" lon="9.2368468"><ele>100.16666666666667</ele><time>2026-04-23T15:52:04.793Z</time></trkpt><trkpt lat="45.4072214" lon="9.236728"><ele>100.0</ele><time>2026-04-23T15:52:06.79Z</time></trkpt><trkpt lat="45.4071722" lon="9.2366075"><ele>100.8</ele><time>2026-04-23T15:52:08.789Z</time></trkpt><trkpt lat="45.4071203" lon="9.2364779"><ele>101.6</ele><time>2026-04-23T15:52:10.796Z</time></trkpt><trkpt lat="45.407052" lon="9.236358"><ele>102.4</ele><time>2026-04-23T15:52:12.788Z</time></trkpt><trkpt lat="45.4069968" lon="9.2362298"><ele>103.2</ele><time>2026-04-23T15:52:14.791Z</time></trkpt><trkpt lat="45.4069417" lon="9.2360886"><ele>104.0</ele><time>2026-04-23T15:52:16.791Z</time></trkpt><trkpt lat="45.4069016" lon="9.2359386"><ele>104.0</ele><time>2026-04-23T15:52:18.792Z</time></trkpt><trkpt lat="45.4068707" lon="9.2357823"><ele>104.0</ele><time>2026-04-23T15:52:20.8Z</time></trkpt><trkpt lat="45.4068463" lon="9.2356318"><ele>104.0</ele><time>2026-04-23T15:52:22.791Z</time></trkpt><trkpt lat="45.4068241" lon="9.2354838"><ele>104.0</ele><time>2026-04-23T15:52:24.794Z</time></trkpt><trkpt lat="45.4068054" lon="9.2353354"><ele>104.0</ele><time>2026-04-23T15:52:26.791Z</time></trkpt><trkpt lat="45.4067984" lon="9.2351902"><ele>103.80000000000001</ele><time>2026-04-23T15:52:28.799Z</time></trkpt><trkpt lat="45.4067885" lon="9.2350296"><ele>103.60000000000001</ele><time>2026-04-23T15:52:30.793Z</time></trkpt><trkpt lat="45.4067936" lon="9.234867"><ele>103.4</ele><time>2026-04-23T15:52:32.796Z</time></trkpt><trkpt lat="45.4068035" lon="9.2347138"><ele>103.2</ele><time>2026-04-23T15:52:34.798Z</time></trkpt><trkpt lat="45.4068219" lon="9.2345691"><ele>103.0</ele><time>2026-04-23T15:52:36.794Z</time></trkpt><trkpt lat="45.4068486" lon="9.234413"><ele>102.80000000000001</ele><time>2026-04-23T15:52:38.784Z</time></trkpt><trkpt lat="45.4068793" lon="9.2342633"><ele>102.6</ele><time>2026-04-23T15:52:40.789Z</time></trkpt><trkpt lat="45.4069124" lon="9.2341219"><ele>102.4</ele><time>2026-04-23T15:52:42.79Z</time></trkpt><trkpt lat="45.4069382" lon="9.2339785"><ele>102.19999999999999</ele><time>2026-04-23T15:52:44.784Z</time></trkpt><trkpt lat="45.4069657" lon="9.2338349"><ele>102.0</ele><time>2026-04-23T15:52:46.786Z</time></trkpt><trkpt lat="45.4069853" lon="9.2336915"><ele>102.0</ele><time>2026-04-23T15:52:48.807Z</time></trkpt><trkpt lat="45.4069855" lon="9.2335319"><ele>102.0</ele><time>2026-04-23T15:52:50.793Z</time></trkpt><trkpt lat="45.4069867" lon="9.2333871"><ele>102.0</ele><time>2026-04-23T15:52:52.788Z</time></trkpt><trkpt lat="45.4069743" lon="9.2332324"><ele>102.0</ele><time>2026-04-23T15:52:54.795Z</time></trkpt><trkpt lat="45.4069562" lon="9.2330882"><ele>102.0</ele><time>2026-04-23T15:52:56.79Z</time></trkpt><trkpt lat="45.4069351" lon="9.2329483"><ele>101.8</ele><time>2026-04-23T15:52:58.79Z</time></trkpt><trkpt lat="45.4069155" lon="9.232801"><ele>101.6</ele><time>2026-04-23T15:53:00.788Z</time></trkpt><trkpt lat="45.4068882" lon="9.2326581"><ele>101.39999999999999</ele><time>2026-04-23T15:53:02.787Z</time></trkpt><trkpt lat="45.4068204" lon="9.2325639"><ele>101.19999999999999</ele><time>2026-04-23T15:53:04.789Z</time></trkpt><trkpt lat="45.4067222" lon="9.2325775"><ele>101.0</ele><time>2026-04-23T15:53:06.79Z</time></trkpt><trkpt lat="45.4066301" lon="9.232639"><ele>101.0</ele><time>2026-04-23T15:53:08.798Z</time></trkpt><trkpt lat="45.4065221" lon="9.2326939"><ele>101.0</ele><time>2026-04-23T15:53:10.792Z</time></trkpt><trkpt lat="45.4064144" lon="9.2327694"><ele>101.0</ele><time>2026-04-23T15:53:12.793Z</time></trkpt><trkpt lat="45.4063134" lon="9.232836"><ele>101.0</ele><time>2026-04-23T15:53:14.791Z</time></trkpt><trkpt lat="45.406208" lon="9.232906"><ele>101.75</ele><time>2026-04-23T15:53:16.788Z</time></trkpt><trkpt lat="45.4061042" lon="9.2329616"><ele>102.5</ele><time>2026-04-23T15:53:18.793Z</time></trkpt><trkpt lat="45.4059916" lon="9.2330354"><ele>103.25</ele><time>2026-04-23T15:53:20.808Z</time></trkpt><trkpt lat="45.4058839" lon="9.2331006"><ele>104.0</ele><time>2026-04-23T15:53:22.791Z</time></trkpt><trkpt lat="45.4057847" lon="9.2331749"><ele>104.0</ele><time>2026-04-23T15:53:24.797Z</time></trkpt><trkpt lat="45.4057238" lon="9.2332019"><ele>104.0</ele><time>2026-04-23T15:53:25.81Z</time></trkpt><trkpt lat="45.4056165" lon="9.233274"><ele>104.0</ele><time>2026-04-23T15:53:27.792Z</time></trkpt><trkpt lat="45.4055153" lon="9.2333419"><ele>104.0</ele><time>2026-04-23T15:53:29.791Z</time></trkpt><trkpt lat="45.4054129" lon="9.2334118"><ele>104.0</ele><time>2026-04-23T15:53:31.791Z</time></trkpt><trkpt lat="45.4053157" lon="9.2334679"><ele>104.0</ele><time>2026-04-23T15:53:33.789Z</time></trkpt><trkpt lat="45.4052192" lon="9.2335278"><ele>104.0</ele><time>2026-04-23T15:53:35.787Z</time></trkpt><trkpt lat="45.4051153" lon="9.233565"><ele>104.0</ele><time>2026-04-23T15:53:37.793Z</time></trkpt><trkpt lat="45.405007" lon="9.2335582"><ele>104.0</ele><time>2026-04-23T15:53:39.788Z</time></trkpt><trkpt lat="45.4048963" lon="9.2335527"><ele>104.0</ele><time>2026-04-23T15:53:41.794Z</time></trkpt><trkpt lat="45.4047914" lon="9.233539"><ele>104.0</ele><time>2026-04-23T15:53:43.803Z</time></trkpt><trkpt lat="45.4046786" lon="9.2335289"><ele>104.0</ele><time>2026-04-23T15:53:45.791Z</time></trkpt><trkpt lat="45.4045628" lon="9.2335192"><ele>104.0</ele><time>2026-04-23T15:53:47.79Z</time></trkpt><trkpt lat="45.4044586" lon="9.2335164"><ele>104.0</ele><time>2026-04-23T15:53:49.794Z</time></trkpt><trkpt lat="45.4043529" lon="9.2335202"><ele>104.0</ele><time>2026-04-23T15:53:51.788Z</time></trkpt><trkpt lat="45.4042435" lon="9.2335203"><ele>103.80000000000001</ele><time>2026-04-23T15:53:53.802Z</time></trkpt><trkpt lat="45.404142" lon="9.2334994"><ele>103.60000000000001</ele><time>2026-04-23T15:53:55.795Z</time></trkpt><trkpt lat="45.4040294" lon="9.2334834"><ele>103.4</ele><time>2026-04-23T15:53:57.791Z</time></trkpt><trkpt lat="45.4039237" lon="9.2334723"><ele>103.2</ele><time>2026-04-23T15:53:59.786Z</time></trkpt><trkpt lat="45.4038144" lon="9.2334575"><ele>103.0</ele><time>2026-04-23T15:54:01.801Z</time></trkpt><trkpt lat="45.4037112" lon="9.2334535"><ele>102.80000000000001</ele><time>2026-04-23T15:54:03.794Z</time></trkpt><trkpt lat="45.4036012" lon="9.233443"><ele>102.6</ele><time>2026-04-23T15:54:05.787Z</time></trkpt><trkpt lat="45.4035027" lon="9.2334146"><ele>102.4</ele><time>2026-04-23T15:54:07.795Z</time></trkpt><trkpt lat="45.4033995" lon="9.2334135"><ele>102.19999999999999</ele><time>2026-04-23T15:54:09.793Z</time></trkpt><trkpt lat="45.403296" lon="9.2334133"><ele>102.0</ele><time>2026-04-23T15:54:11.793Z</time></trkpt><trkpt lat="45.4031838" lon="9.2334119"><ele>102.0</ele><time>2026-04-23T15:54:13.786Z</time></trkpt><trkpt lat="45.4030843" lon="9.2334116"><ele>102.0</ele><time>2026-04-23T15:54:15.804Z</time></trkpt><trkpt lat="45.4029815" lon="9.2333932"><ele>102.0</ele><time>2026-04-23T15:54:17.792Z</time></trkpt><trkpt lat="45.4028854" lon="9.2333932"><ele>102.0</ele><time>2026-04-23T15:54:19.805Z</time></trkpt><trkpt lat="45.4027851" lon="9.2333901"><ele>102.0</ele><time>2026-04-23T15:54:21.795Z</time></trkpt><trkpt lat="45.4026901" lon="9.2333921"><ele>101.8</ele><time>2026-04-23T15:54:23.79Z</time></trkpt><trkpt lat="45.4025949" lon="9.2333796"><ele>101.6</ele><time>2026-04-23T15:54:25.807Z</time></trkpt><trkpt lat="45.4024929" lon="9.2333814"><ele>101.39999999999999</ele><time>2026-04-23T15:54:27.796Z</time></trkpt><trkpt lat="45.4024025" lon="9.2333718"><ele>101.19999999999999</ele><time>2026-04-23T15:54:29.792Z</time></trkpt><trkpt lat="45.4023158" lon="9.2333178"><ele>101.0</ele><time>2026-04-23T15:54:31.795Z</time></trkpt><trkpt lat="45.4022683" lon="9.2331942"><ele>101.4</ele><time>2026-04-23T15:54:33.787Z</time></trkpt><trkpt lat="45.4022326" lon="9.2330801"><ele>101.8</ele><time>2026-04-23T15:54:35.783Z</time></trkpt><trkpt lat="45.4021852" lon="9.2329394"><ele>102.2</ele><time>2026-04-23T15:54:37.79Z</time></trkpt><trkpt lat="45.4021357" lon="9.2328155"><ele>102.60000000000001</ele><time>2026-04-23T15:54:39.789Z</time></trkpt><trkpt lat="45.4020945" lon="9.2326831"><ele>103.0</ele><time>2026-04-23T15:54:41.796Z</time></trkpt><trkpt lat="45.4020525" lon="9.2325596"><ele>103.0</ele><time>2026-04-23T15:54:43.792Z</time></trkpt><trkpt lat="45.40201" lon="9.2324426"><ele>103.0</ele><time>2026-04-23T15:54:45.794Z</time></trkpt><trkpt lat="45.4019652" lon="9.2323192"><ele>103.0</ele><time>2026-04-23T15:54:47.79Z</time></trkpt><trkpt lat="45.4019198" lon="9.2321879"><ele>103.0</ele><time>2026-04-23T15:54:49.788Z</time></trkpt><trkpt lat="45.4018771" lon="9.232074"><ele>103.0</ele><time>2026-04-23T15:54:51.79Z</time></trkpt><trkpt lat="45.4018424" lon="9.2319548"><ele>103.0</ele><time>2026-04-23T15:54:53.788Z</time></trkpt><trkpt lat="45.4017877" lon="9.2318381"><ele>103.0</ele><time>2026-04-23T15:54:55.795Z</time></trkpt><trkpt lat="45.4017376" lon="9.2317255"><ele>103.0</ele><time>2026-04-23T15:54:57.789Z</time></trkpt><trkpt lat="45.4016916" lon="9.2316035"><ele>103.0</ele><time>2026-04-23T15:54:59.791Z</time></trkpt><trkpt lat="45.4016427" lon="9.2314869"><ele>103.0</ele><time>2026-04-23T15:55:01.794Z</time></trkpt><trkpt lat="45.4015857" lon="9.2313767"><ele>103.00000000000001</ele><time>2026-04-23T15:55:03.796Z</time></trkpt><trkpt lat="45.4015427" lon="9.2312668"><ele>103.0</ele><time>2026-04-23T15:55:05.79Z</time></trkpt><trkpt lat="45.4014899" lon="9.2311715"><ele>103.0</ele><time>2026-04-23T15:55:07.792Z</time></trkpt><trkpt lat="45.4014443" lon="9.2310715"><ele>103.0</ele><time>2026-04-23T15:55:09.79Z</time></trkpt><trkpt lat="45.4014062" lon="9.2309784"><ele>103.00000000000001</ele><time>2026-04-23T15:55:11.794Z</time></trkpt><trkpt lat="45.401364" lon="9.2308924"><ele>103.0</ele><time>2026-04-23T15:55:13.797Z</time></trkpt><trkpt lat="45.4012875" lon="9.2309123"><ele>103.0</ele><time>2026-04-23T15:55:15.785Z</time></trkpt><trkpt lat="45.4012159" lon="9.2309911"><ele>103.0</ele><time>2026-04-23T15:55:17.792Z</time></trkpt><trkpt lat="45.4011515" lon="9.2310646"><ele>103.0</ele><time>2026-04-23T15:55:19.79Z</time></trkpt><trkpt lat="45.4010683" lon="9.2311439"><ele>103.0</ele><time>2026-04-23T15:55:21.791Z</time></trkpt><trkpt lat="45.4009884" lon="9.2312232"><ele>103.0</ele><time>2026-04-23T15:55:23.789Z</time></trkpt><trkpt lat="45.4009181" lon="9.2313157"><ele>103.0</ele><time>2026-04-23T15:55:25.786Z</time></trkpt><trkpt lat="45.4008312" lon="9.2313819"><ele>103.0</ele><time>2026-04-23T15:55:27.795Z</time></trkpt><trkpt lat="45.4007426" lon="9.2314517"><ele>103.0</ele><time>2026-04-23T15:55:29.789Z</time></trkpt><trkpt lat="45.4006592" lon="9.2315241"><ele>103.0</ele><time>2026-04-23T15:55:31.795Z</time></trkpt><trkpt lat="45.400569" lon="9.2315964"><ele>103.0</ele><time>2026-04-23T15:55:33.784Z</time></trkpt><trkpt lat="45.4004831" lon="9.2316772"><ele>103.16666666666667</ele><time>2026-04-23T15:55:35.786Z</time></trkpt><trkpt lat="45.4003945" lon="9.2317568"><ele>103.33333333333334</ele><time>2026-04-23T15:55:37.79Z</time></trkpt><trkpt lat="45.4003072" lon="9.2318287"><ele>103.5</ele><time>2026-04-23T15:55:39.782Z</time></trkpt><trkpt lat="45.4002393" lon="9.2318712"><ele>103.66666666666666</ele><time>2026-04-23T15:55:41.787Z</time></trkpt><trkpt lat="45.4002012" lon="9.2317987"><ele>103.83333333333333</ele><time>2026-04-23T15:55:43.79Z</time></trkpt><trkpt lat="45.4001518" lon="9.2316966"><ele>104.0</ele><time>2026-04-23T15:55:45.786Z</time></trkpt><trkpt lat="45.4001388" lon="9.2316063"><ele>103.99999999999999</ele><time>2026-04-23T15:55:47.792Z</time></trkpt><trkpt lat="45.4001226" lon="9.2314971"><ele>104.0</ele><time>2026-04-23T15:55:49.788Z</time></trkpt><trkpt lat="45.4001077" lon="9.2313904"><ele>104.0</ele><time>2026-04-23T15:55:51.788Z</time></trkpt><trkpt lat="45.4000999" lon="9.2312692"><ele>104.0</ele><time>2026-04-23T15:55:53.791Z</time></trkpt><trkpt lat="45.400099" lon="9.2311465"><ele>103.99999999999999</ele><time>2026-04-23T15:55:55.786Z</time></trkpt><trkpt lat="45.4000919" lon="9.2310315"><ele>104.0</ele><time>2026-04-23T15:55:57.789Z</time></trkpt><trkpt lat="45.4000638" lon="9.2309154"><ele>103.99999999999999</ele><time>2026-04-23T15:55:59.801Z</time></trkpt><trkpt lat="45.4000412" lon="9.2307906"><ele>104.0</ele><time>2026-04-23T15:56:01.794Z</time></trkpt><trkpt lat="45.4000106" lon="9.230688"><ele>104.0</ele><time>2026-04-23T15:56:03.796Z</time></trkpt><trkpt lat="45.3999843" lon="9.2305742"><ele>104.0</ele><time>2026-04-23T15:56:05.789Z</time></trkpt><trkpt lat="45.3999573" lon="9.2304631"><ele>103.99999999999999</ele><time>2026-04-23T15:56:07.788Z</time></trkpt><trkpt lat="45.39994" lon="9.2303521"><ele>104.0</ele><time>2026-04-23T15:56:09.796Z</time></trkpt><trkpt lat="45.3999119" lon="9.2302408"><ele>103.99999999999999</ele><time>2026-04-23T15:56:11.789Z</time></trkpt><trkpt lat="45.3998804" lon="9.2301239"><ele>104.0</ele><time>2026-04-23T15:56:13.787Z</time></trkpt><trkpt lat="45.3998514" lon="9.230007"><ele>104.0</ele><time>2026-04-23T15:56:15.798Z</time></trkpt><trkpt lat="45.3998301" lon="9.2299034"><ele>104.0</ele><time>2026-04-23T15:56:17.791Z</time></trkpt><trkpt lat="45.3998048" lon="9.229789"><ele>103.99999999999999</ele><time>2026-04-23T15:56:19.793Z</time></trkpt><trkpt lat="45.3997649" lon="9.2296697"><ele>104.0</ele><time>2026-04-23T15:56:21.786Z</time></trkpt><trkpt lat="45.3997292" lon="9.2295692"><ele>103.99999999999999</ele><time>2026-04-23T15:56:23.786Z</time></trkpt><trkpt lat="45.3997208" lon="9.2294622"><ele>104.0</ele><time>2026-04-23T15:56:26.788Z</time></trkpt><trkpt lat="45.3997209" lon="9.2295888"><ele>104.0</ele><time>2026-04-23T15:56:33.787Z</time></trkpt><trkpt lat="45.3996552" lon="9.229659"><ele>104.0</ele><time>2026-04-23T15:56:35.787Z</time></trkpt><trkpt lat="45.3995801" lon="9.2296927"><ele>103.99999999999999</ele><time>2026-04-23T15:56:37.787Z</time></trkpt><trkpt lat="45.3994983" lon="9.2297246"><ele>104.0</ele><time>2026-04-23T15:56:39.785Z</time></trkpt><trkpt lat="45.3994101" lon="9.22976"><ele>103.99999999999999</ele><time>2026-04-23T15:56:41.788Z</time></trkpt><trkpt lat="45.3993292" lon="9.2297977"><ele>104.0</ele><time>2026-04-23T15:56:43.785Z</time></trkpt><trkpt lat="45.3992469" lon="9.229819"><ele>104.0</ele><time>2026-04-23T15:56:45.789Z</time></trkpt><trkpt lat="45.3991535" lon="9.2298647"><ele>104.0</ele><time>2026-04-23T15:56:47.786Z</time></trkpt><trkpt lat="45.3990721" lon="9.2298919"><ele>103.99999999999999</ele><time>2026-04-23T15:56:49.786Z</time></trkpt><trkpt lat="45.3989904" lon="9.2299182"><ele>104.0</ele><time>2026-04-23T15:56:51.789Z</time></trkpt><trkpt lat="45.3989027" lon="9.2299359"><ele>103.49999999999999</ele><time>2026-04-23T15:56:53.788Z</time></trkpt><trkpt lat="45.3988141" lon="9.2299711"><ele>103.0</ele><time>2026-04-23T15:56:55.79Z</time></trkpt><trkpt lat="45.398721" lon="9.2299945"><ele>102.5</ele><time>2026-04-23T15:56:57.792Z</time></trkpt><trkpt lat="45.3986391" lon="9.2300255"><ele>102.0</ele><time>2026-04-23T15:56:59.788Z</time></trkpt><trkpt lat="45.3985579" lon="9.2300724"><ele>101.49999999999999</ele><time>2026-04-23T15:57:01.788Z</time></trkpt><trkpt lat="45.3984748" lon="9.2301089"><ele>101.0</ele><time>2026-04-23T15:57:03.793Z</time></trkpt><trkpt lat="45.3983858" lon="9.2301295"><ele>100.99999999999999</ele><time>2026-04-23T15:57:05.796Z</time></trkpt><trkpt lat="45.3982972" lon="9.230091"><ele>101.0</ele><time>2026-04-23T15:57:07.808Z</time></trkpt><trkpt lat="45.3982449" lon="9.2299861"><ele>101.0</ele><time>2026-04-23T15:57:09.798Z</time></trkpt><trkpt lat="45.3982162" lon="9.2298692"><ele>101.0</ele><time>2026-04-23T15:57:11.797Z</time></trkpt><trkpt lat="45.3981818" lon="9.2297489"><ele>100.99999999999999</ele><time>2026-04-23T15:57:13.786Z</time></trkpt><trkpt lat="45.3981457" lon="9.2296381"><ele>101.0</ele><time>2026-04-23T15:57:15.79Z</time></trkpt><trkpt lat="45.3981062" lon="9.2295225"><ele>101.16666666666666</ele><time>2026-04-23T15:57:17.791Z</time></trkpt><trkpt lat="45.3980672" lon="9.2293977"><ele>101.33333333333333</ele><time>2026-04-23T15:57:19.789Z</time></trkpt><trkpt lat="45.3980299" lon="9.2292791"><ele>101.5</ele><time>2026-04-23T15:57:21.792Z</time></trkpt><trkpt lat="45.3979948" lon="9.2291679"><ele>101.66666666666666</ele><time>2026-04-23T15:57:23.789Z</time></trkpt><trkpt lat="45.3979599" lon="9.2290513"><ele>101.83333333333333</ele><time>2026-04-23T15:57:25.79Z</time></trkpt><trkpt lat="45.3979236" lon="9.2289384"><ele>102.0</ele><time>2026-04-23T15:57:27.79Z</time></trkpt><trkpt lat="45.3978866" lon="9.2288361"><ele>102.0</ele><time>2026-04-23T15:57:29.794Z</time></trkpt><trkpt lat="45.3978492" lon="9.2287115"><ele>102.0</ele><time>2026-04-23T15:57:31.789Z</time></trkpt><trkpt lat="45.3978115" lon="9.2285868"><ele>102.0</ele><time>2026-04-23T15:57:33.79Z</time></trkpt><trkpt lat="45.3977678" lon="9.2284769"><ele>102.0</ele><time>2026-04-23T15:57:35.788Z</time></trkpt><trkpt lat="45.3977234" lon="9.2283606"><ele>102.0</ele><time>2026-04-23T15:57:37.792Z</time></trkpt><trkpt lat="45.3976811" lon="9.2282446"><ele>101.66666666666667</ele><time>2026-04-23T15:57:39.787Z</time></trkpt><trkpt lat="45.3976373" lon="9.2281136"><ele>101.33333333333334</ele><time>2026-04-23T15:57:41.789Z</time></trkpt><trkpt lat="45.3976033" lon="9.2280019"><ele>101.0</ele><time>2026-04-23T15:57:43.792Z</time></trkpt><trkpt lat="45.3975684" lon="9.2278831"><ele>100.66666666666667</ele><time>2026-04-23T15:57:45.79Z</time></trkpt><trkpt lat="45.3975346" lon="9.2277651"><ele>100.33333333333334</ele><time>2026-04-23T15:57:47.79Z</time></trkpt><trkpt lat="45.3975118" lon="9.2276546"><ele>100.0</ele><time>2026-04-23T15:57:49.791Z</time></trkpt><trkpt lat="45.3974725" lon="9.2275333"><ele>100.0</ele><time>2026-04-23T15:57:51.788Z</time></trkpt><trkpt lat="45.3974408" lon="9.2274056"><ele>100.0</ele><time>2026-04-23T15:57:53.779Z</time></trkpt><trkpt lat="45.3973987" lon="9.2272894"><ele>100.0</ele><time>2026-04-23T15:57:55.799Z</time></trkpt><trkpt lat="45.3973551" lon="9.227179"><ele>100.0</ele><time>2026-04-23T15:57:57.787Z</time></trkpt><trkpt lat="45.39732" lon="9.227059"><ele>100.0</ele><time>2026-04-23T15:57:59.791Z</time></trkpt><trkpt lat="45.3972858" lon="9.2269403"><ele>99.66666666666667</ele><time>2026-04-23T15:58:01.787Z</time></trkpt><trkpt lat="45.3972518" lon="9.2268304"><ele>99.33333333333334</ele><time>2026-04-23T15:58:03.787Z</time></trkpt><trkpt lat="45.3972262" lon="9.2267213"><ele>99.0</ele><time>2026-04-23T15:58:05.789Z</time></trkpt><trkpt lat="45.3971686" lon="9.2266387"><ele>98.66666666666666</ele><time>2026-04-23T15:58:07.792Z</time></trkpt><trkpt lat="45.397094" lon="9.2266783"><ele>98.33333333333333</ele><time>2026-04-23T15:58:09.793Z</time></trkpt><trkpt lat="45.3970301" lon="9.2267442"><ele>98.0</ele><time>2026-04-23T15:58:11.788Z</time></trkpt><trkpt lat="45.3969579" lon="9.2268142"><ele>97.99999999999999</ele><time>2026-04-23T15:58:13.791Z</time></trkpt><trkpt lat="45.3968862" lon="9.2268827"><ele>98.0</ele><time>2026-04-23T15:58:15.789Z</time></trkpt><trkpt lat="45.3968044" lon="9.2269429"><ele>98.0</ele><time>2026-04-23T15:58:17.786Z</time></trkpt><trkpt lat="45.3967291" lon="9.227006"><ele>98.0</ele><time>2026-04-23T15:58:19.786Z</time></trkpt><trkpt lat="45.3966602" lon="9.2270635"><ele>97.99999999999999</ele><time>2026-04-23T15:58:21.794Z</time></trkpt><trkpt lat="45.3966014" lon="9.2271193"><ele>98.0</ele><time>2026-04-23T15:58:23.806Z</time></trkpt><trkpt lat="45.3965286" lon="9.2271701"><ele>97.99999999999999</ele><time>2026-04-23T15:58:25.787Z</time></trkpt><trkpt lat="45.3964514" lon="9.2272339"><ele>98.0</ele><time>2026-04-23T15:58:27.786Z</time></trkpt><trkpt lat="45.3963737" lon="9.2272973"><ele>98.0</ele><time>2026-04-23T15:58:29.792Z</time></trkpt><trkpt lat="45.3962966" lon="9.2273578"><ele>98.0</ele><time>2026-04-23T15:58:31.808Z</time></trkpt><trkpt lat="45.3962181" lon="9.2274204"><ele>97.99999999999999</ele><time>2026-04-23T15:58:33.788Z</time></trkpt><trkpt lat="45.3961398" lon="9.2274877"><ele>98.0</ele><time>2026-04-23T15:58:35.789Z</time></trkpt><trkpt lat="45.3960642" lon="9.2275508"><ele>98.4</ele><time>2026-04-23T15:58:37.792Z</time></trkpt><trkpt lat="45.3959898" lon="9.2276053"><ele>98.80000000000001</ele><time>2026-04-23T15:58:39.79Z</time></trkpt><trkpt lat="45.3959162" lon="9.2276709"><ele>99.2</ele><time>2026-04-23T15:58:41.782Z</time></trkpt><trkpt lat="45.3958329" lon="9.2277442"><ele>99.6</ele><time>2026-04-23T15:58:43.787Z</time></trkpt><trkpt lat="45.3957548" lon="9.2278068"><ele>100.0</ele><time>2026-04-23T15:58:45.787Z</time></trkpt><trkpt lat="45.3956743" lon="9.2278778"><ele>100.0</ele><time>2026-04-23T15:58:47.789Z</time></trkpt><trkpt lat="45.3955877" lon="9.227944"><ele>100.0</ele><time>2026-04-23T15:58:49.793Z</time></trkpt><trkpt lat="45.3955058" lon="9.2280019"><ele>100.0</ele><time>2026-04-23T15:58:51.79Z</time></trkpt><trkpt lat="45.3954225" lon="9.228071"><ele>100.0</ele><time>2026-04-23T15:58:53.784Z</time></trkpt><trkpt lat="45.3953401" lon="9.2281273"><ele>100.0</ele><time>2026-04-23T15:58:55.788Z</time></trkpt><trkpt lat="45.3952601" lon="9.2281954"><ele>99.8</ele><time>2026-04-23T15:58:57.805Z</time></trkpt><trkpt lat="45.395181" lon="9.2282613"><ele>99.6</ele><time>2026-04-23T15:58:59.795Z</time></trkpt><trkpt lat="45.3950934" lon="9.2283286"><ele>99.4</ele><time>2026-04-23T15:59:01.787Z</time></trkpt><trkpt lat="45.3950099" lon="9.2284014"><ele>99.2</ele><time>2026-04-23T15:59:03.787Z</time></trkpt><trkpt lat="45.3949236" lon="9.2284626"><ele>99.0</ele><time>2026-04-23T15:59:05.789Z</time></trkpt><trkpt lat="45.3948416" lon="9.2285222"><ele>99.0</ele><time>2026-04-23T15:59:07.793Z</time></trkpt><trkpt lat="45.3947625" lon="9.2285875"><ele>99.0</ele><time>2026-04-23T15:59:09.787Z</time></trkpt><trkpt lat="45.3946884" lon="9.2286601"><ele>99.0</ele><time>2026-04-23T15:59:11.788Z</time></trkpt><trkpt lat="45.3946094" lon="9.2287265"><ele>99.0</ele><time>2026-04-23T15:59:13.791Z</time></trkpt><trkpt lat="45.3945294" lon="9.2287927"><ele>99.0</ele><time>2026-04-23T15:59:15.805Z</time></trkpt><trkpt lat="45.3944538" lon="9.2288647"><ele>99.0</ele><time>2026-04-23T15:59:17.784Z</time></trkpt><trkpt lat="45.394374" lon="9.2289191"><ele>99.0</ele><time>2026-04-23T15:59:19.787Z</time></trkpt><trkpt lat="45.3942996" lon="9.228979"><ele>99.0</ele><time>2026-04-23T15:59:21.788Z</time></trkpt><trkpt lat="45.3942281" lon="9.2290326"><ele>99.0</ele><time>2026-04-23T15:59:23.79Z</time></trkpt><trkpt lat="45.3941439" lon="9.2290532"><ele>99.0</ele><time>2026-04-23T15:59:25.798Z</time></trkpt><trkpt lat="45.3940889" lon="9.2289668"><ele>99.0</ele><time>2026-04-23T15:59:27.788Z</time></trkpt><trkpt lat="45.3940505" lon="9.2288804"><ele>99.16666666666667</ele><time>2026-04-23T15:59:29.788Z</time></trkpt><trkpt lat="45.3940131" lon="9.2287829"><ele>99.33333333333334</ele><time>2026-04-23T15:59:31.792Z</time></trkpt><trkpt lat="45.393966" lon="9.2286766"><ele>99.5</ele><time>2026-04-23T15:59:33.79Z</time></trkpt><trkpt lat="45.3939236" lon="9.2285799"><ele>99.66666666666667</ele><time>2026-04-23T15:59:35.79Z</time></trkpt><trkpt lat="45.3938796" lon="9.2284901"><ele>99.83333333333334</ele><time>2026-04-23T15:59:37.793Z</time></trkpt><trkpt lat="45.3938438" lon="9.2284024"><ele>100.0</ele><time>2026-04-23T15:59:39.795Z</time></trkpt><trkpt lat="45.3938005" lon="9.2283122"><ele>100.00000000000001</ele><time>2026-04-23T15:59:41.788Z</time></trkpt><trkpt lat="45.393759" lon="9.228205"><ele>100.0</ele><time>2026-04-23T15:59:43.791Z</time></trkpt><trkpt lat="45.39372" lon="9.2280942"><ele>100.0</ele><time>2026-04-23T15:59:45.787Z</time></trkpt><trkpt lat="45.3936787" lon="9.2280006"><ele>100.0</ele><time>2026-04-23T15:59:47.792Z</time></trkpt><trkpt lat="45.3936367" lon="9.2278982"><ele>100.00000000000001</ele><time>2026-04-23T15:59:49.797Z</time></trkpt><trkpt lat="45.3935923" lon="9.2278005"><ele>100.0</ele><time>2026-04-23T15:59:51.798Z</time></trkpt><trkpt lat="45.3935439" lon="9.2277098"><ele>100.00000000000001</ele><time>2026-04-23T15:59:53.784Z</time></trkpt><trkpt lat="45.3935016" lon="9.2276168"><ele>100.0</ele><time>2026-04-23T15:59:55.8Z</time></trkpt><trkpt lat="45.3934596" lon="9.2275109"><ele>100.0</ele><time>2026-04-23T15:59:57.795Z</time></trkpt><trkpt lat="45.3934202" lon="9.2274069"><ele>100.0</ele><time>2026-04-23T15:59:59.787Z</time></trkpt><trkpt lat="45.3933845" lon="9.2273115"><ele>100.00000000000001</ele><time>2026-04-23T16:00:01.79Z</time></trkpt><trkpt lat="45.3933445" lon="9.2272122"><ele>100.0</ele><time>2026-04-23T16:00:03.803Z</time></trkpt><trkpt lat="45.3933024" lon="9.2271173"><ele>100.00000000000001</ele><time>2026-04-23T16:00:05.788Z</time></trkpt><trkpt lat="45.3932671" lon="9.2270125"><ele>100.0</ele><time>2026-04-23T16:00:07.794Z</time></trkpt><trkpt lat="45.3932311" lon="9.2269137"><ele>100.0</ele><time>2026-04-23T16:00:09.791Z</time></trkpt><trkpt lat="45.393194" lon="9.2268102"><ele>100.0</ele><time>2026-04-23T16:00:11.804Z</time></trkpt><trkpt lat="45.3931498" lon="9.2267027"><ele>100.00000000000001</ele><time>2026-04-23T16:00:13.789Z</time></trkpt><trkpt lat="45.3931015" lon="9.2266058"><ele>100.0</ele><time>2026-04-23T16:00:15.791Z</time></trkpt><trkpt lat="45.3930614" lon="9.2265186"><ele>99.85714285714286</ele><time>2026-04-23T16:00:17.793Z</time></trkpt><trkpt lat="45.3930216" lon="9.2264193"><ele>99.71428571428572</ele><time>2026-04-23T16:00:19.786Z</time></trkpt><trkpt lat="45.3929782" lon="9.2263346"><ele>99.57142857142858</ele><time>2026-04-23T16:00:21.788Z</time></trkpt><trkpt lat="45.3929433" lon="9.226243"><ele>99.42857142857143</ele><time>2026-04-23T16:00:23.79Z</time></trkpt><trkpt lat="45.3929066" lon="9.2261506"><ele>99.28571428571428</ele><time>2026-04-23T16:00:25.796Z</time></trkpt><trkpt lat="45.3928648" lon="9.2260748"><ele>99.14285714285715</ele><time>2026-04-23T16:00:27.797Z</time></trkpt><trkpt lat="45.3928282" lon="9.2259874"><ele>99.0</ele><time>2026-04-23T16:00:29.791Z</time></trkpt><trkpt lat="45.3927896" lon="9.2258969"><ele>99.0</ele><time>2026-04-23T16:00:31.788Z</time></trkpt><trkpt lat="45.3927512" lon="9.2257994"><ele>99.0</ele><time>2026-04-23T16:00:33.792Z</time></trkpt><trkpt lat="45.3927077" lon="9.2256964"><ele>99.0</ele><time>2026-04-23T16:00:35.794Z</time></trkpt><trkpt lat="45.3926589" lon="9.2255953"><ele>99.0</ele><time>2026-04-23T16:00:37.797Z</time></trkpt><trkpt lat="45.3926124" lon="9.2255062"><ele>99.0</ele><time>2026-04-23T16:00:39.79Z</time></trkpt><trkpt lat="45.3925651" lon="9.2253993"><ele>99.0</ele><time>2026-04-23T16:00:41.788Z</time></trkpt><trkpt lat="45.3925224" lon="9.2252952"><ele>99.0</ele><time>2026-04-23T16:00:43.787Z</time></trkpt><trkpt lat="45.3924771" lon="9.2251873"><ele>99.0</ele><time>2026-04-23T16:00:45.795Z</time></trkpt><trkpt lat="45.3924284" lon="9.2250815"><ele>99.0</ele><time>2026-04-23T16:00:47.796Z</time></trkpt><trkpt lat="45.3923865" lon="9.2249796"><ele>99.0</ele><time>2026-04-23T16:00:49.793Z</time></trkpt><trkpt lat="45.3923458" lon="9.2248859"><ele>99.0</ele><time>2026-04-23T16:00:51.792Z</time></trkpt><trkpt lat="45.3922993" lon="9.22477"><ele>99.0</ele><time>2026-04-23T16:00:53.789Z</time></trkpt><trkpt lat="45.3922536" lon="9.2246575"><ele>99.16666666666667</ele><time>2026-04-23T16:00:55.793Z</time></trkpt><trkpt lat="45.3922066" lon="9.2245444"><ele>99.33333333333334</ele><time>2026-04-23T16:00:57.79Z</time></trkpt><trkpt lat="45.3921648" lon="9.2244399"><ele>99.5</ele><time>2026-04-23T16:00:59.789Z</time></trkpt><trkpt lat="45.3921219" lon="9.2243365"><ele>99.66666666666667</ele><time>2026-04-23T16:01:01.804Z</time></trkpt><trkpt lat="45.3920717" lon="9.2242368"><ele>99.83333333333334</ele><time>2026-04-23T16:01:03.792Z</time></trkpt><trkpt lat="45.3920299" lon="9.2241292"><ele>100.0</ele><time>2026-04-23T16:01:05.792Z</time></trkpt><trkpt lat="45.391993" lon="9.2240244"><ele>100.16666666666667</ele><time>2026-04-23T16:01:07.788Z</time></trkpt><trkpt lat="45.3919712" lon="9.2239015"><ele>100.33333333333334</ele><time>2026-04-23T16:01:09.788Z</time></trkpt><trkpt lat="45.3919572" lon="9.2237836"><ele>100.5</ele><time>2026-04-23T16:01:11.79Z</time></trkpt><trkpt lat="45.3919346" lon="9.2236607"><ele>100.66666666666666</ele><time>2026-04-23T16:01:13.791Z</time></trkpt><trkpt lat="45.3919188" lon="9.2235381"><ele>100.83333333333333</ele><time>2026-04-23T16:01:15.803Z</time></trkpt><trkpt lat="45.3919016" lon="9.2234205"><ele>101.0</ele><time>2026-04-23T16:01:17.786Z</time></trkpt><trkpt lat="45.3918872" lon="9.223299"><ele>100.99999999999999</ele><time>2026-04-23T16:01:19.791Z</time></trkpt><trkpt lat="45.3918656" lon="9.2231815"><ele>101.0</ele><time>2026-04-23T16:01:21.791Z</time></trkpt><trkpt lat="45.3918491" lon="9.2230611"><ele>101.0</ele><time>2026-04-23T16:01:23.788Z</time></trkpt><trkpt lat="45.3918308" lon="9.2229523"><ele>101.0</ele><time>2026-04-23T16:01:25.801Z</time></trkpt><trkpt lat="45.3918172" lon="9.222847"><ele>100.99999999999999</ele><time>2026-04-23T16:01:27.787Z</time></trkpt><trkpt lat="45.3918153" lon="9.2227412"><ele>101.0</ele><time>2026-04-23T16:01:29.785Z</time></trkpt><trkpt lat="45.3917993" lon="9.2226207"><ele>100.99999999999999</ele><time>2026-04-23T16:01:31.791Z</time></trkpt><trkpt lat="45.3917806" lon="9.2224905"><ele>101.0</ele><time>2026-04-23T16:01:33.79Z</time></trkpt><trkpt lat="45.3917606" lon="9.2223646"><ele>101.0</ele><time>2026-04-23T16:01:35.795Z</time></trkpt><trkpt lat="45.3917434" lon="9.2222499"><ele>101.0</ele><time>2026-04-23T16:01:37.787Z</time></trkpt><trkpt lat="45.3917256" lon="9.2221319"><ele>100.99999999999999</ele><time>2026-04-23T16:01:39.79Z</time></trkpt><trkpt lat="45.3917058" lon="9.2220154"><ele>101.0</ele><time>2026-04-23T16:01:41.79Z</time></trkpt><trkpt lat="45.3916905" lon="9.2218963"><ele>101.33333333333333</ele><time>2026-04-23T16:01:43.791Z</time></trkpt><trkpt lat="45.3916584" lon="9.2217846"><ele>101.66666666666666</ele><time>2026-04-23T16:01:45.789Z</time></trkpt><trkpt lat="45.3915778" lon="9.2217394"><ele>102.0</ele><time>2026-04-23T16:01:47.794Z</time></trkpt><trkpt lat="45.3914969" lon="9.2217814"><ele>102.33333333333334</ele><time>2026-04-23T16:01:49.794Z</time></trkpt><trkpt lat="45.3914096" lon="9.2218133"><ele>102.66666666666667</ele><time>2026-04-23T16:01:51.787Z</time></trkpt><trkpt lat="45.391323" lon="9.2218376"><ele>103.0</ele><time>2026-04-23T16:01:53.786Z</time></trkpt><trkpt lat="45.3912345" lon="9.2218762"><ele>103.0</ele><time>2026-04-23T16:01:55.791Z</time></trkpt><trkpt lat="45.3911526" lon="9.2219254"><ele>103.0</ele><time>2026-04-23T16:01:57.793Z</time></trkpt><trkpt lat="45.3910759" lon="9.2219987"><ele>103.0</ele><time>2026-04-23T16:01:59.798Z</time></trkpt><trkpt lat="45.3909932" lon="9.2220766"><ele>103.0</ele><time>2026-04-23T16:02:01.789Z</time></trkpt><trkpt lat="45.3909193" lon="9.2221594"><ele>103.0</ele><time>2026-04-23T16:02:03.792Z</time></trkpt><trkpt lat="45.390851" lon="9.222241"><ele>102.60000000000001</ele><time>2026-04-23T16:02:05.787Z</time></trkpt><trkpt lat="45.3907787" lon="9.2223429"><ele>102.2</ele><time>2026-04-23T16:02:07.792Z</time></trkpt><trkpt lat="45.3907053" lon="9.2224431"><ele>101.8</ele><time>2026-04-23T16:02:09.788Z</time></trkpt><trkpt lat="45.3906381" lon="9.2225351"><ele>101.4</ele><time>2026-04-23T16:02:11.79Z</time></trkpt><trkpt lat="45.3905736" lon="9.2226116"><ele>101.0</ele><time>2026-04-23T16:02:13.785Z</time></trkpt><trkpt lat="45.3904997" lon="9.2226963"><ele>100.99999999999999</ele><time>2026-04-23T16:02:15.785Z</time></trkpt><trkpt lat="45.3904318" lon="9.2227721"><ele>101.0</ele><time>2026-04-23T16:02:17.792Z</time></trkpt><trkpt lat="45.3903674" lon="9.2228475"><ele>101.0</ele><time>2026-04-23T16:02:19.799Z</time></trkpt><trkpt lat="45.3903019" lon="9.2229521"><ele>101.0</ele><time>2026-04-23T16:02:21.796Z</time></trkpt><trkpt lat="45.3902327" lon="9.2230284"><ele>100.99999999999999</ele><time>2026-04-23T16:02:23.794Z</time></trkpt><trkpt lat="45.3901641" lon="9.2230925"><ele>101.0</ele><time>2026-04-23T16:02:25.789Z</time></trkpt><trkpt lat="45.3900934" lon="9.2231846"><ele>100.83333333333333</ele><time>2026-04-23T16:02:27.788Z</time></trkpt><trkpt lat="45.3900259" lon="9.2232829"><ele>100.66666666666666</ele><time>2026-04-23T16:02:29.798Z</time></trkpt><trkpt lat="45.3899615" lon="9.2233618"><ele>100.5</ele><time>2026-04-23T16:02:31.787Z</time></trkpt><trkpt lat="45.3898981" lon="9.2234554"><ele>100.33333333333334</ele><time>2026-04-23T16:02:33.788Z</time></trkpt><trkpt lat="45.3898207" lon="9.2235038"><ele>100.16666666666667</ele><time>2026-04-23T16:02:35.787Z</time></trkpt><trkpt lat="45.3897423" lon="9.2234548"><ele>100.0</ele><time>2026-04-23T16:02:37.79Z</time></trkpt><trkpt lat="45.3896831" lon="9.2233625"><ele>100.00000000000001</ele><time>2026-04-23T16:02:39.794Z</time></trkpt><trkpt lat="45.3896468" lon="9.2232642"><ele>100.0</ele><time>2026-04-23T16:02:41.788Z</time></trkpt><trkpt lat="45.3896155" lon="9.2231476"><ele>100.0</ele><time>2026-04-23T16:02:43.79Z</time></trkpt><trkpt lat="45.389575" lon="9.223032"><ele>100.0</ele><time>2026-04-23T16:02:45.789Z</time></trkpt><trkpt lat="45.3895225" lon="9.222935"><ele>100.00000000000001</ele><time>2026-04-23T16:02:47.796Z</time></trkpt><trkpt lat="45.389469" lon="9.2228376"><ele>100.0</ele><time>2026-04-23T16:02:49.794Z</time></trkpt><trkpt lat="45.3894112" lon="9.2227366"><ele>100.00000000000001</ele><time>2026-04-23T16:02:51.792Z</time></trkpt><trkpt lat="45.3893533" lon="9.2226461"><ele>100.0</ele><time>2026-04-23T16:02:53.791Z</time></trkpt><trkpt lat="45.3893017" lon="9.2225639"><ele>100.0</ele><time>2026-04-23T16:02:55.786Z</time></trkpt><trkpt lat="45.3892486" lon="9.2224669"><ele>100.0</ele><time>2026-04-23T16:02:57.787Z</time></trkpt><trkpt lat="45.3891963" lon="9.2223575"><ele>100.00000000000001</ele><time>2026-04-23T16:02:59.798Z</time></trkpt><trkpt lat="45.3891566" lon="9.2222688"><ele>100.0</ele><time>2026-04-23T16:03:01.782Z</time></trkpt><trkpt lat="45.3891016" lon="9.2221779"><ele>100.00000000000001</ele><time>2026-04-23T16:03:03.783Z</time></trkpt><trkpt lat="45.3890549" lon="9.2220731"><ele>100.0</ele><time>2026-04-23T16:03:05.788Z</time></trkpt><trkpt lat="45.3890078" lon="9.2219735"><ele>100.0</ele><time>2026-04-23T16:03:07.781Z</time></trkpt><trkpt lat="45.3889618" lon="9.2218697"><ele>100.0</ele><time>2026-04-23T16:03:09.787Z</time></trkpt><trkpt lat="45.3889174" lon="9.2217627"><ele>100.00000000000001</ele><time>2026-04-23T16:03:11.8Z</time></trkpt><trkpt lat="45.3888682" lon="9.2216612"><ele>100.0</ele><time>2026-04-23T16:03:13.786Z</time></trkpt><trkpt lat="45.3888238" lon="9.2215607"><ele>100.16666666666667</ele><time>2026-04-23T16:03:15.787Z</time></trkpt><trkpt lat="45.3887737" lon="9.2214542"><ele>100.33333333333334</ele><time>2026-04-23T16:03:17.787Z</time></trkpt><trkpt lat="45.3887217" lon="9.2213516"><ele>100.5</ele><time>2026-04-23T16:03:19.795Z</time></trkpt><trkpt lat="45.388674" lon="9.221253"><ele>100.66666666666666</ele><time>2026-04-23T16:03:21.79Z</time></trkpt><trkpt lat="45.388651" lon="9.2211491"><ele>100.83333333333333</ele><time>2026-04-23T16:03:23.791Z</time></trkpt><trkpt lat="45.388666" lon="9.2210542"><ele>101.0</ele><time>2026-04-23T16:03:25.794Z</time></trkpt><trkpt lat="45.3886931" lon="9.2209548"><ele>100.99999999999999</ele><time>2026-04-23T16:03:27.786Z</time></trkpt><trkpt lat="45.3887393" lon="9.2208473"><ele>101.0</ele><time>2026-04-23T16:03:29.79Z</time></trkpt><trkpt lat="45.3887766" lon="9.2207289"><ele>101.0</ele><time>2026-04-23T16:03:31.791Z</time></trkpt><trkpt lat="45.3887992" lon="9.2206156"><ele>101.0</ele><time>2026-04-23T16:03:33.789Z</time></trkpt><trkpt lat="45.388832" lon="9.2205031"><ele>100.99999999999999</ele><time>2026-04-23T16:03:35.79Z</time></trkpt><trkpt lat="45.3888666" lon="9.2203849"><ele>101.0</ele><time>2026-04-23T16:03:37.784Z</time></trkpt><trkpt lat="45.3888957" lon="9.2202634"><ele>101.19999999999999</ele><time>2026-04-23T16:03:39.793Z</time></trkpt><trkpt lat="45.3889277" lon="9.220147"><ele>101.39999999999999</ele><time>2026-04-23T16:03:41.788Z</time></trkpt><trkpt lat="45.3889563" lon="9.2200349"><ele>101.6</ele><time>2026-04-23T16:03:43.806Z</time></trkpt><trkpt lat="45.3889897" lon="9.2199163"><ele>101.8</ele><time>2026-04-23T16:03:45.787Z</time></trkpt><trkpt lat="45.3890304" lon="9.2197914"><ele>102.0</ele><time>2026-04-23T16:03:47.792Z</time></trkpt><trkpt lat="45.3890678" lon="9.2196692"><ele>102.0</ele><time>2026-04-23T16:03:49.787Z</time></trkpt><trkpt lat="45.3891102" lon="9.2195591"><ele>102.0</ele><time>2026-04-23T16:03:51.789Z</time></trkpt><trkpt lat="45.3891553" lon="9.2194489"><ele>102.0</ele><time>2026-04-23T16:03:53.79Z</time></trkpt><trkpt lat="45.3891909" lon="9.2193409"><ele>102.0</ele><time>2026-04-23T16:03:55.788Z</time></trkpt><trkpt lat="45.3891995" lon="9.2192193"><ele>102.0</ele><time>2026-04-23T16:03:57.783Z</time></trkpt><trkpt lat="45.3892169" lon="9.2190837"><ele>102.0</ele><time>2026-04-23T16:03:59.799Z</time></trkpt><trkpt lat="45.3892457" lon="9.2189532"><ele>102.0</ele><time>2026-04-23T16:04:01.785Z</time></trkpt><trkpt lat="45.3892728" lon="9.2188249"><ele>102.0</ele><time>2026-04-23T16:04:03.79Z</time></trkpt><trkpt lat="45.3893046" lon="9.2186933"><ele>102.0</ele><time>2026-04-23T16:04:05.8Z</time></trkpt><trkpt lat="45.3893364" lon="9.2185725"><ele>102.0</ele><time>2026-04-23T16:04:07.784Z</time></trkpt><trkpt lat="45.3893726" lon="9.218446"><ele>102.0</ele><time>2026-04-23T16:04:09.787Z</time></trkpt><trkpt lat="45.389407" lon="9.2183213"><ele>102.0</ele><time>2026-04-23T16:04:11.789Z</time></trkpt><trkpt lat="45.389436" lon="9.2182019"><ele>102.0</ele><time>2026-04-23T16:04:13.785Z</time></trkpt><trkpt lat="45.3894671" lon="9.2180807"><ele>102.0</ele><time>2026-04-23T16:04:15.791Z</time></trkpt><trkpt lat="45.3894979" lon="9.2179752"><ele>102.0</ele><time>2026-04-23T16:04:17.785Z</time></trkpt><trkpt lat="45.3895331" lon="9.2178515"><ele>102.0</ele><time>2026-04-23T16:04:19.792Z</time></trkpt><trkpt lat="45.3895723" lon="9.2177295"><ele>102.0</ele><time>2026-04-23T16:04:21.79Z</time></trkpt><trkpt lat="45.3896111" lon="9.2176127"><ele>102.0</ele><time>2026-04-23T16:04:23.788Z</time></trkpt><trkpt lat="45.3896502" lon="9.2174913"><ele>102.0</ele><time>2026-04-23T16:04:25.797Z</time></trkpt><trkpt lat="45.3896863" lon="9.2173757"><ele>102.0</ele><time>2026-04-23T16:04:27.794Z</time></trkpt><trkpt lat="45.3897116" lon="9.2172523"><ele>102.0</ele><time>2026-04-23T16:04:29.783Z</time></trkpt><trkpt lat="45.3897427" lon="9.2171347"><ele>102.0</ele><time>2026-04-23T16:04:31.798Z</time></trkpt><trkpt lat="45.3897659" lon="9.2170236"><ele>102.0</ele><time>2026-04-23T16:04:33.784Z</time></trkpt><trkpt lat="45.3897856" lon="9.2169207"><ele>102.19999999999999</ele><time>2026-04-23T16:04:35.788Z</time></trkpt><trkpt lat="45.3898108" lon="9.2167812"><ele>102.4</ele><time>2026-04-23T16:04:37.785Z</time></trkpt><trkpt lat="45.3898632" lon="9.2166676"><ele>102.6</ele><time>2026-04-23T16:04:39.798Z</time></trkpt><trkpt lat="45.3898891" lon="9.2165474"><ele>102.80000000000001</ele><time>2026-04-23T16:04:41.762Z</time></trkpt><trkpt lat="45.389917" lon="9.2164376"><ele>103.0</ele><time>2026-04-23T16:04:43.723Z</time></trkpt><trkpt lat="45.3899512" lon="9.216324"><ele>103.00000000000001</ele><time>2026-04-23T16:04:45.794Z</time></trkpt><trkpt lat="45.3899733" lon="9.2162101"><ele>103.0</ele><time>2026-04-23T16:04:47.792Z</time></trkpt><trkpt lat="45.3899883" lon="9.2160977"><ele>103.0</ele><time>2026-04-23T16:04:49.789Z</time></trkpt><trkpt lat="45.390015" lon="9.2159933"><ele>103.0</ele><time>2026-04-23T16:04:51.788Z</time></trkpt><trkpt lat="45.3900325" lon="9.2158741"><ele>103.00000000000001</ele><time>2026-04-23T16:04:53.806Z</time></trkpt><trkpt lat="45.3900082" lon="9.2157422"><ele>103.0</ele><time>2026-04-23T16:04:55.794Z</time></trkpt><trkpt lat="45.3899354" lon="9.2156886"><ele>103.0</ele><time>2026-04-23T16:04:57.791Z</time></trkpt><trkpt lat="45.3898611" lon="9.2156714"><ele>103.0</ele><time>2026-04-23T16:04:59.786Z</time></trkpt><trkpt lat="45.389774" lon="9.2156467"><ele>103.0</ele><time>2026-04-23T16:05:01.785Z</time></trkpt><trkpt lat="45.3896748" lon="9.2155414"><ele>103.0</ele><time>2026-04-23T16:05:03.778Z</time></trkpt><trkpt lat="45.3896299" lon="9.215227"><ele>102.4</ele><time>2026-04-23T16:05:05.782Z</time></trkpt><trkpt lat="45.3896039" lon="9.2150942"><ele>101.80000000000001</ele><time>2026-04-23T16:05:06.777Z</time></trkpt><trkpt lat="45.3894835" lon="9.2152881"><ele>101.2</ele><time>2026-04-23T16:05:08.791Z</time></trkpt><trkpt lat="45.3894337" lon="9.2153961"><ele>100.6</ele><time>2026-04-23T16:05:09.789Z</time></trkpt><trkpt lat="45.3893851" lon="9.2153164"><ele>100.0</ele><time>2026-04-23T16:05:13.785Z</time></trkpt><trkpt lat="45.3894233" lon="9.215203"><ele>100.0</ele><time>2026-04-23T16:05:15.785Z</time></trkpt><trkpt lat="45.389454" lon="9.2150939"><ele>100.0</ele><time>2026-04-23T16:05:17.781Z</time></trkpt><trkpt lat="45.3894741" lon="9.2149676"><ele>100.0</ele><time>2026-04-23T16:05:19.796Z</time></trkpt><trkpt lat="45.389492" lon="9.2148382"><ele>100.0</ele><time>2026-04-23T16:05:21.792Z</time></trkpt><trkpt lat="45.3895075" lon="9.2147102"><ele>100.0</ele><time>2026-04-23T16:05:23.784Z</time></trkpt><trkpt lat="45.3895041" lon="9.2145769"><ele>100.33333333333334</ele><time>2026-04-23T16:05:25.791Z</time></trkpt><trkpt lat="45.3894898" lon="9.2144599"><ele>100.66666666666667</ele><time>2026-04-23T16:05:27.786Z</time></trkpt><trkpt lat="45.3894674" lon="9.2143451"><ele>101.0</ele><time>2026-04-23T16:05:29.784Z</time></trkpt><trkpt lat="45.3894485" lon="9.2142231"><ele>101.33333333333334</ele><time>2026-04-23T16:05:31.788Z</time></trkpt><trkpt lat="45.3894184" lon="9.214106"><ele>101.66666666666667</ele><time>2026-04-23T16:05:33.788Z</time></trkpt><trkpt lat="45.3893897" lon="9.2139793"><ele>102.0</ele><time>2026-04-23T16:05:35.791Z</time></trkpt><trkpt lat="45.3893652" lon="9.2138688"><ele>102.0</ele><time>2026-04-23T16:05:37.788Z</time></trkpt><trkpt lat="45.3893462" lon="9.2137613"><ele>102.0</ele><time>2026-04-23T16:05:39.792Z</time></trkpt><trkpt lat="45.3893186" lon="9.2136493"><ele>102.0</ele><time>2026-04-23T16:05:41.804Z</time></trkpt><trkpt lat="45.3892874" lon="9.2135424"><ele>102.0</ele><time>2026-04-23T16:05:43.786Z</time></trkpt><trkpt lat="45.3892648" lon="9.2134315"><ele>102.0</ele><time>2026-04-23T16:05:45.791Z</time></trkpt><trkpt lat="45.389242" lon="9.2133202"><ele>102.0</ele><time>2026-04-23T16:05:47.79Z</time></trkpt><trkpt lat="45.3892183" lon="9.2132034"><ele>101.83333333333333</ele><time>2026-04-23T16:05:49.797Z</time></trkpt><trkpt lat="45.3891872" lon="9.2130933"><ele>101.66666666666666</ele><time>2026-04-23T16:05:51.787Z</time></trkpt><trkpt lat="45.3891622" lon="9.212973"><ele>101.5</ele><time>2026-04-23T16:05:53.784Z</time></trkpt><trkpt lat="45.3891262" lon="9.2128621"><ele>101.33333333333333</ele><time>2026-04-23T16:05:55.791Z</time></trkpt><trkpt lat="45.3890721" lon="9.2127773"><ele>101.16666666666666</ele><time>2026-04-23T16:05:57.805Z</time></trkpt><trkpt lat="45.3889976" lon="9.2127333"><ele>101.0</ele><time>2026-04-23T16:05:59.781Z</time></trkpt><trkpt lat="45.3889149" lon="9.2127197"><ele>101.16666666666666</ele><time>2026-04-23T16:06:01.785Z</time></trkpt><trkpt lat="45.3888347" lon="9.2127251"><ele>101.33333333333333</ele><time>2026-04-23T16:06:03.788Z</time></trkpt><trkpt lat="45.3887558" lon="9.2127428"><ele>101.5</ele><time>2026-04-23T16:06:05.787Z</time></trkpt><trkpt lat="45.3886663" lon="9.2127644"><ele>101.66666666666666</ele><time>2026-04-23T16:06:07.79Z</time></trkpt><trkpt lat="45.3885866" lon="9.2127952"><ele>101.83333333333333</ele><time>2026-04-23T16:06:09.789Z</time></trkpt><trkpt lat="45.3885103" lon="9.212812"><ele>102.0</ele><time>2026-04-23T16:06:11.819Z</time></trkpt><trkpt lat="45.3884421" lon="9.2128341"><ele>102.0</ele><time>2026-04-23T16:06:13.792Z</time></trkpt><trkpt lat="45.3883632" lon="9.2128609"><ele>102.0</ele><time>2026-04-23T16:06:15.794Z</time></trkpt><trkpt lat="45.3882987" lon="9.2129061"><ele>102.0</ele><time>2026-04-23T16:06:17.786Z</time></trkpt><trkpt lat="45.3882346" lon="9.2129595"><ele>102.0</ele><time>2026-04-23T16:06:19.791Z</time></trkpt><trkpt lat="45.388175" lon="9.2130239"><ele>102.0</ele><time>2026-04-23T16:06:21.791Z</time></trkpt><trkpt lat="45.3881172" lon="9.2130765"><ele>102.0</ele><time>2026-04-23T16:06:23.787Z</time></trkpt><trkpt lat="45.3880555" lon="9.2131253"><ele>102.0</ele><time>2026-04-23T16:06:25.794Z</time></trkpt><trkpt lat="45.3879878" lon="9.2131192"><ele>101.83333333333333</ele><time>2026-04-23T16:06:27.792Z</time></trkpt><trkpt lat="45.3879182" lon="9.2131038"><ele>101.66666666666666</ele><time>2026-04-23T16:06:29.781Z</time></trkpt><trkpt lat="45.3878556" lon="9.213084"><ele>101.5</ele><time>2026-04-23T16:06:31.787Z</time></trkpt><trkpt lat="45.3877698" lon="9.2130723"><ele>101.33333333333333</ele><time>2026-04-23T16:06:34.786Z</time></trkpt><trkpt lat="45.3876792" lon="9.2130612"><ele>101.16666666666666</ele><time>2026-04-23T16:06:37.791Z</time></trkpt><trkpt lat="45.3876132" lon="9.2130637"><ele>101.0</ele><time>2026-04-23T16:06:39.788Z</time></trkpt><trkpt lat="45.3875222" lon="9.21306"><ele>100.99999999999999</ele><time>2026-04-23T16:06:42.791Z</time></trkpt><trkpt lat="45.387432" lon="9.2130749"><ele>101.0</ele><time>2026-04-23T16:06:45.795Z</time></trkpt><trkpt lat="45.3873681" lon="9.2130873"><ele>101.0</ele><time>2026-04-23T16:06:47.789Z</time></trkpt><trkpt lat="45.3873015" lon="9.2131086"><ele>101.0</ele><time>2026-04-23T16:06:49.795Z</time></trkpt><trkpt lat="45.3872137" lon="9.2131391"><ele>100.99999999999999</ele><time>2026-04-23T16:06:52.797Z</time></trkpt><trkpt lat="45.3871328" lon="9.213172"><ele>101.0</ele><time>2026-04-23T16:06:55.794Z</time></trkpt><trkpt lat="45.3870714" lon="9.2131419"><ele>100.49999999999999</ele><time>2026-04-23T16:06:59.8Z</time></trkpt><trkpt lat="45.387033" lon="9.2130502"><ele>100.0</ele><time>2026-04-23T16:07:03.785Z</time></trkpt><trkpt lat="45.3869945" lon="9.2129432"><ele>99.5</ele><time>2026-04-23T16:07:06.788Z</time></trkpt><trkpt lat="45.3869791" lon="9.2128322"><ele>99.0</ele><time>2026-04-23T16:07:09.789Z</time></trkpt><trkpt lat="45.386897" lon="9.2128137"><ele>98.49999999999999</ele><time>2026-04-23T16:07:14.799Z</time></trkpt><trkpt lat="45.3868157" lon="9.2128462"><ele>98.0</ele><time>2026-04-23T16:07:16.794Z</time></trkpt><trkpt lat="45.3867281" lon="9.212884"><ele>98.0</ele><time>2026-04-23T16:07:18.789Z</time></trkpt><trkpt lat="45.386638" lon="9.2129153"><ele>98.0</ele><time>2026-04-23T16:07:20.798Z</time></trkpt><trkpt lat="45.3865299" lon="9.2129547"><ele>98.0</ele><time>2026-04-23T16:07:22.795Z</time></trkpt><trkpt lat="45.386421" lon="9.2129838"><ele>98.0</ele><time>2026-04-23T16:07:24.798Z</time></trkpt><trkpt lat="45.3863002" lon="9.2130096"><ele>98.0</ele><time>2026-04-23T16:07:26.789Z</time></trkpt><trkpt lat="45.3862364" lon="9.2130217"><ele>97.83333333333333</ele><time>2026-04-23T16:07:27.793Z</time></trkpt><trkpt lat="45.3861149" lon="9.2130444"><ele>97.66666666666666</ele><time>2026-04-23T16:07:29.795Z</time></trkpt><trkpt lat="45.3860509" lon="9.2130545"><ele>97.5</ele><time>2026-04-23T16:07:30.792Z</time></trkpt><trkpt lat="45.3859869" lon="9.2130681"><ele>97.33333333333334</ele><time>2026-04-23T16:07:31.795Z</time></trkpt><trkpt lat="45.3859183" lon="9.2130803"><ele>97.16666666666667</ele><time>2026-04-23T16:07:32.791Z</time></trkpt><trkpt lat="45.3858514" lon="9.2130881"><ele>97.0</ele><time>2026-04-23T16:07:33.795Z</time></trkpt><trkpt lat="45.3857376" lon="9.2130772"><ele>97.0</ele><time>2026-04-23T16:07:35.796Z</time></trkpt><trkpt lat="45.3857763" lon="9.2129928"><ele>97.0</ele><time>2026-04-23T16:07:40.788Z</time></trkpt><trkpt lat="45.3858402" lon="9.2129887"><ele>97.0</ele><time>2026-04-23T16:07:42.783Z</time></trkpt><trkpt lat="45.3859094" lon="9.2129895"><ele>97.0</ele><time>2026-04-23T16:07:44.796Z</time></trkpt><trkpt lat="45.3859791" lon="9.2129803"><ele>97.0</ele><time>2026-04-23T16:07:46.8Z</time></trkpt><trkpt lat="45.386055" lon="9.2129697"><ele>97.0</ele><time>2026-04-23T16:07:48.794Z</time></trkpt><trkpt lat="45.3861265" lon="9.2129596"><ele>97.0</ele><time>2026-04-23T16:07:50.792Z</time></trkpt><trkpt lat="45.386192" lon="9.2129488"><ele>97.00000000000001</ele><time>2026-04-23T16:07:52.788Z</time></trkpt><trkpt lat="45.3862637" lon="9.2129328"><ele>97.0</ele><time>2026-04-23T16:07:54.792Z</time></trkpt><trkpt lat="45.3863349" lon="9.2129026"><ele>97.0</ele><time>2026-04-23T16:07:56.791Z</time></trkpt><trkpt lat="45.3864168" lon="9.2128693"><ele>97.0</ele><time>2026-04-23T16:07:58.792Z</time></trkpt><trkpt lat="45.3864935" lon="9.2128445"><ele>97.00000000000001</ele><time>2026-04-23T16:08:00.79Z</time></trkpt><trkpt lat="45.3865782" lon="9.2128195"><ele>97.0</ele><time>2026-04-23T16:08:02.788Z</time></trkpt><trkpt lat="45.3866567" lon="9.2127975"><ele>97.16666666666667</ele><time>2026-04-23T16:08:04.79Z</time></trkpt><trkpt lat="45.3867225" lon="9.2127595"><ele>97.33333333333334</ele><time>2026-04-23T16:08:06.782Z</time></trkpt><trkpt lat="45.3867926" lon="9.212737"><ele>97.5</ele><time>2026-04-23T16:08:08.795Z</time></trkpt><trkpt lat="45.3868778" lon="9.2127198"><ele>97.66666666666666</ele><time>2026-04-23T16:08:10.797Z</time></trkpt><trkpt lat="45.3869615" lon="9.2126894"><ele>97.83333333333333</ele><time>2026-04-23T16:08:12.789Z</time></trkpt><trkpt lat="45.3870407" lon="9.2126611"><ele>98.0</ele><time>2026-04-23T16:08:14.798Z</time></trkpt><trkpt lat="45.3871104" lon="9.2126298"><ele>98.0</ele><time>2026-04-23T16:08:16.791Z</time></trkpt><trkpt lat="45.3871749" lon="9.2126012"><ele>98.0</ele><time>2026-04-23T16:08:18.786Z</time></trkpt><trkpt lat="45.3872505" lon="9.2125691"><ele>98.0</ele><time>2026-04-23T16:08:20.787Z</time></trkpt><trkpt lat="45.3873129" lon="9.2125438"><ele>98.0</ele><time>2026-04-23T16:08:22.788Z</time></trkpt><trkpt lat="45.3873746" lon="9.2125116"><ele>98.0</ele><time>2026-04-23T16:08:24.791Z</time></trkpt><trkpt lat="45.3874435" lon="9.2124832"><ele>98.0</ele><time>2026-04-23T16:08:26.785Z</time></trkpt><trkpt lat="45.3875086" lon="9.2124605"><ele>98.0</ele><time>2026-04-23T16:08:28.797Z</time></trkpt><trkpt lat="45.3875716" lon="9.2124271"><ele>98.14285714285714</ele><time>2026-04-23T16:08:30.784Z</time></trkpt><trkpt lat="45.3876541" lon="9.2123966"><ele>98.28571428571428</ele><time>2026-04-23T16:08:33.79Z</time></trkpt><trkpt lat="45.387718" lon="9.2123693"><ele>98.42857142857143</ele><time>2026-04-23T16:08:35.785Z</time></trkpt><trkpt lat="45.3877898" lon="9.2123478"><ele>98.57142857142857</ele><time>2026-04-23T16:08:37.787Z</time></trkpt><trkpt lat="45.3878553" lon="9.2123217"><ele>98.71428571428571</ele><time>2026-04-23T16:08:39.783Z</time></trkpt><trkpt lat="45.3879219" lon="9.2122952"><ele>98.85714285714286</ele><time>2026-04-23T16:08:41.798Z</time></trkpt><trkpt lat="45.3879833" lon="9.2122487"><ele>99.0</ele><time>2026-04-23T16:08:43.805Z</time></trkpt><trkpt lat="45.3880483" lon="9.2122065"><ele>99.6</ele><time>2026-04-23T16:08:45.788Z</time></trkpt><trkpt lat="45.3881316" lon="9.212196"><ele>100.2</ele><time>2026-04-23T16:08:47.786Z</time></trkpt><trkpt lat="45.3882335" lon="9.2121542"><ele>100.8</ele><time>2026-04-23T16:08:49.789Z</time></trkpt><trkpt lat="45.3883259" lon="9.2121175"><ele>101.39999999999999</ele><time>2026-04-23T16:08:51.792Z</time></trkpt><trkpt lat="45.3884201" lon="9.2120877"><ele>102.0</ele><time>2026-04-23T16:08:53.791Z</time></trkpt><trkpt lat="45.3885204" lon="9.2120456"><ele>102.0</ele><time>2026-04-23T16:08:55.796Z</time></trkpt><trkpt lat="45.3886187" lon="9.2120044"><ele>102.0</ele><time>2026-04-23T16:08:57.807Z</time></trkpt><trkpt lat="45.3887126" lon="9.2119568"><ele>102.0</ele><time>2026-04-23T16:08:59.789Z</time></trkpt><trkpt lat="45.3888113" lon="9.211893"><ele>102.0</ele><time>2026-04-23T16:09:01.784Z</time></trkpt><trkpt lat="45.3889006" lon="9.2118102"><ele>102.0</ele><time>2026-04-23T16:09:03.785Z</time></trkpt><trkpt lat="45.3889691" lon="9.2116946"><ele>102.19999999999999</ele><time>2026-04-23T16:09:05.786Z</time></trkpt><trkpt lat="45.3890271" lon="9.2115628"><ele>102.4</ele><time>2026-04-23T16:09:07.789Z</time></trkpt><trkpt lat="45.3890514" lon="9.211411"><ele>102.6</ele><time>2026-04-23T16:09:09.792Z</time></trkpt><trkpt lat="45.3890348" lon="9.2112626"><ele>102.80000000000001</ele><time>2026-04-23T16:09:11.799Z</time></trkpt><trkpt lat="45.389007" lon="9.2111132"><ele>103.0</ele><time>2026-04-23T16:09:13.784Z</time></trkpt><trkpt lat="45.3889881" lon="9.2109648"><ele>103.0</ele><time>2026-04-23T16:09:15.791Z</time></trkpt><trkpt lat="45.3889631" lon="9.2108308"><ele>103.0</ele><time>2026-04-23T16:09:17.804Z</time></trkpt><trkpt lat="45.388946" lon="9.2106891"><ele>103.0</ele><time>2026-04-23T16:09:19.793Z</time></trkpt><trkpt lat="45.3889158" lon="9.2105535"><ele>103.0</ele><time>2026-04-23T16:09:21.792Z</time></trkpt><trkpt lat="45.3888925" lon="9.2104197"><ele>103.0</ele><time>2026-04-23T16:09:23.788Z</time></trkpt><trkpt lat="45.3888651" lon="9.2102805"><ele>102.80000000000001</ele><time>2026-04-23T16:09:25.786Z</time></trkpt><trkpt lat="45.3888439" lon="9.2101521"><ele>102.6</ele><time>2026-04-23T16:09:27.785Z</time></trkpt><trkpt lat="45.3888192" lon="9.2100169"><ele>102.4</ele><time>2026-04-23T16:09:29.787Z</time></trkpt><trkpt lat="45.3887937" lon="9.2098892"><ele>102.19999999999999</ele><time>2026-04-23T16:09:31.79Z</time></trkpt><trkpt lat="45.3887752" lon="9.2097547"><ele>102.0</ele><time>2026-04-23T16:09:33.791Z</time></trkpt><trkpt lat="45.3887493" lon="9.2096256"><ele>102.33333333333333</ele><time>2026-04-23T16:09:35.787Z</time></trkpt><trkpt lat="45.3887292" lon="9.2094986"><ele>102.66666666666666</ele><time>2026-04-23T16:09:37.789Z</time></trkpt><trkpt lat="45.3887051" lon="9.2093781"><ele>103.0</ele><time>2026-04-23T16:09:39.784Z</time></trkpt><trkpt lat="45.388687" lon="9.2092513"><ele>103.33333333333333</ele><time>2026-04-23T16:09:41.786Z</time></trkpt><trkpt lat="45.3886677" lon="9.2091347"><ele>103.66666666666666</ele><time>2026-04-23T16:09:43.807Z</time></trkpt><trkpt lat="45.3886531" lon="9.2090129"><ele>104.0</ele><time>2026-04-23T16:09:45.785Z</time></trkpt><trkpt lat="45.3886294" lon="9.2088876"><ele>103.99999999999999</ele><time>2026-04-23T16:09:47.787Z</time></trkpt><trkpt lat="45.3886028" lon="9.2087632"><ele>104.0</ele><time>2026-04-23T16:09:49.795Z</time></trkpt><trkpt lat="45.3885787" lon="9.2086443"><ele>104.0</ele><time>2026-04-23T16:09:51.787Z</time></trkpt><trkpt lat="45.3885564" lon="9.2085289"><ele>104.0</ele><time>2026-04-23T16:09:53.789Z</time></trkpt><trkpt lat="45.3885362" lon="9.208396"><ele>103.99999999999999</ele><time>2026-04-23T16:09:55.792Z</time></trkpt><trkpt lat="45.3885147" lon="9.2082815"><ele>104.0</ele><time>2026-04-23T16:09:57.794Z</time></trkpt><trkpt lat="45.3884939" lon="9.2081701"><ele>103.83333333333333</ele><time>2026-04-23T16:09:59.789Z</time></trkpt><trkpt lat="45.3884702" lon="9.2080355"><ele>103.66666666666666</ele><time>2026-04-23T16:10:01.799Z</time></trkpt><trkpt lat="45.388453" lon="9.2079188"><ele>103.5</ele><time>2026-04-23T16:10:03.79Z</time></trkpt><trkpt lat="45.3884302" lon="9.2077982"><ele>103.33333333333334</ele><time>2026-04-23T16:10:05.783Z</time></trkpt><trkpt lat="45.3884131" lon="9.2076813"><ele>103.16666666666667</ele><time>2026-04-23T16:10:07.786Z</time></trkpt><trkpt lat="45.3883997" lon="9.2075675"><ele>103.0</ele><time>2026-04-23T16:10:09.797Z</time></trkpt><trkpt lat="45.3883749" lon="9.207448"><ele>103.00000000000001</ele><time>2026-04-23T16:10:11.79Z</time></trkpt><trkpt lat="45.3883456" lon="9.2073317"><ele>103.0</ele><time>2026-04-23T16:10:13.792Z</time></trkpt><trkpt lat="45.3883292" lon="9.2072174"><ele>103.0</ele><time>2026-04-23T16:10:15.802Z</time></trkpt><trkpt lat="45.3883156" lon="9.2071051"><ele>103.0</ele><time>2026-04-23T16:10:17.787Z</time></trkpt><trkpt lat="45.3882947" lon="9.206987"><ele>103.00000000000001</ele><time>2026-04-23T16:10:19.788Z</time></trkpt><trkpt lat="45.388271" lon="9.2068665"><ele>103.0</ele><time>2026-04-23T16:10:21.783Z</time></trkpt><trkpt lat="45.3882493" lon="9.206751"><ele>102.50000000000001</ele><time>2026-04-23T16:10:23.792Z</time></trkpt><trkpt lat="45.3882329" lon="9.206635"><ele>102.0</ele><time>2026-04-23T16:10:25.794Z</time></trkpt><trkpt lat="45.3882184" lon="9.206517"><ele>101.5</ele><time>2026-04-23T16:10:27.799Z</time></trkpt><trkpt lat="45.3881893" lon="9.2063929"><ele>101.0</ele><time>2026-04-23T16:10:29.794Z</time></trkpt><trkpt lat="45.3881622" lon="9.206278"><ele>100.50000000000001</ele><time>2026-04-23T16:10:31.794Z</time></trkpt><trkpt lat="45.3881334" lon="9.2061575"><ele>100.0</ele><time>2026-04-23T16:10:33.787Z</time></trkpt><trkpt lat="45.3881219" lon="9.2060213"><ele>100.00000000000001</ele><time>2026-04-23T16:10:35.794Z</time></trkpt><trkpt lat="45.3881068" lon="9.2058976"><ele>100.0</ele><time>2026-04-23T16:10:37.798Z</time></trkpt><trkpt lat="45.3880799" lon="9.2057794"><ele>100.0</ele><time>2026-04-23T16:10:39.8Z</time></trkpt><trkpt lat="45.3880554" lon="9.2056639"><ele>100.0</ele><time>2026-04-23T16:10:41.787Z</time></trkpt><trkpt lat="45.388031" lon="9.2055374"><ele>100.00000000000001</ele><time>2026-04-23T16:10:43.792Z</time></trkpt><trkpt lat="45.3880144" lon="9.2054254"><ele>100.0</ele><time>2026-04-23T16:10:45.788Z</time></trkpt><trkpt lat="45.387991" lon="9.2053068"><ele>100.00000000000001</ele><time>2026-04-23T16:10:47.79Z</time></trkpt><trkpt lat="45.3879714" lon="9.2051891"><ele>100.0</ele><time>2026-04-23T16:10:49.793Z</time></trkpt><trkpt lat="45.3879473" lon="9.2050858"><ele>100.0</ele><time>2026-04-23T16:10:51.796Z</time></trkpt><trkpt lat="45.3879275" lon="9.2049687"><ele>100.0</ele><time>2026-04-23T16:10:53.792Z</time></trkpt><trkpt lat="45.3879145" lon="9.2048388"><ele>100.00000000000001</ele><time>2026-04-23T16:10:55.786Z</time></trkpt><trkpt lat="45.3878974" lon="9.204726"><ele>100.0</ele><time>2026-04-23T16:10:57.793Z</time></trkpt><trkpt lat="45.3878757" lon="9.2046082"><ele>100.16666666666667</ele><time>2026-04-23T16:10:59.789Z</time></trkpt><trkpt lat="45.3878525" lon="9.2044872"><ele>100.33333333333334</ele><time>2026-04-23T16:11:01.789Z</time></trkpt><trkpt lat="45.3878307" lon="9.2043692"><ele>100.5</ele><time>2026-04-23T16:11:03.791Z</time></trkpt><trkpt lat="45.387807" lon="9.2042505"><ele>100.66666666666666</ele><time>2026-04-23T16:11:05.785Z</time></trkpt><trkpt lat="45.3877864" lon="9.2041379"><ele>100.83333333333333</ele><time>2026-04-23T16:11:07.787Z</time></trkpt><trkpt lat="45.387766" lon="9.2040147"><ele>101.0</ele><time>2026-04-23T16:11:09.788Z</time></trkpt><trkpt lat="45.3877487" lon="9.2038887"><ele>100.66666666666666</ele><time>2026-04-23T16:11:11.791Z</time></trkpt><trkpt lat="45.3877244" lon="9.2037648"><ele>100.33333333333333</ele><time>2026-04-23T16:11:13.8Z</time></trkpt><trkpt lat="45.3876973" lon="9.2036518"><ele>100.0</ele><time>2026-04-23T16:11:15.788Z</time></trkpt><trkpt lat="45.3876798" lon="9.2035303"><ele>99.66666666666666</ele><time>2026-04-23T16:11:17.791Z</time></trkpt><trkpt lat="45.3876648" lon="9.2034031"><ele>99.33333333333333</ele><time>2026-04-23T16:11:19.796Z</time></trkpt><trkpt lat="45.3876491" lon="9.2032853"><ele>99.0</ele><time>2026-04-23T16:11:21.793Z</time></trkpt><trkpt lat="45.3876266" lon="9.203175"><ele>99.80000000000001</ele><time>2026-04-23T16:11:23.793Z</time></trkpt><trkpt lat="45.3875847" lon="9.2030745"><ele>100.60000000000001</ele><time>2026-04-23T16:11:25.787Z</time></trkpt><trkpt lat="45.3875728" lon="9.2029734"><ele>101.4</ele><time>2026-04-23T16:11:27.788Z</time></trkpt><trkpt lat="45.3874428" lon="9.202794"><ele>102.2</ele><time>2026-04-23T16:12:54.789Z</time></trkpt><trkpt lat="45.3873492" lon="9.2028321"><ele>103.0</ele><time>2026-04-23T16:12:57.781Z</time></trkpt><trkpt lat="45.3872622" lon="9.2028508"><ele>102.83333333333334</ele><time>2026-04-23T16:13:00.789Z</time></trkpt><trkpt lat="45.3871757" lon="9.2028911"><ele>102.66666666666667</ele><time>2026-04-23T16:13:03.785Z</time></trkpt><trkpt lat="45.387096" lon="9.2029186"><ele>102.5</ele><time>2026-04-23T16:13:06.787Z</time></trkpt><trkpt lat="45.3870228" lon="9.2029194"><ele>102.33333333333334</ele><time>2026-04-23T16:13:09.789Z</time></trkpt><trkpt lat="45.3869796" lon="9.202839"><ele>102.16666666666667</ele><time>2026-04-23T16:13:12.795Z</time></trkpt><trkpt lat="45.3869514" lon="9.2027395"><ele>102.0</ele><time>2026-04-23T16:13:17.787Z</time></trkpt><trkpt lat="45.386919" lon="9.2026286"><ele>102.0</ele><time>2026-04-23T16:13:21.79Z</time></trkpt><trkpt lat="45.3868894" lon="9.2025484"><ele>102.0</ele><time>2026-04-23T16:13:23.795Z</time></trkpt><trkpt lat="45.3868639" lon="9.2024663"><ele>102.0</ele><time>2026-04-23T16:13:25.79Z</time></trkpt><trkpt lat="45.3868386" lon="9.2023646"><ele>102.0</ele><time>2026-04-23T16:13:27.783Z</time></trkpt><trkpt lat="45.3868104" lon="9.2022631"><ele>102.0</ele><time>2026-04-23T16:13:29.786Z</time></trkpt><trkpt lat="45.3867922" lon="9.2021661"><ele>102.0</ele><time>2026-04-23T16:13:31.79Z</time></trkpt><trkpt lat="45.3867765" lon="9.202073"><ele>102.0</ele><time>2026-04-23T16:13:33.786Z</time></trkpt><trkpt lat="45.3867581" lon="9.2019662"><ele>101.83333333333333</ele><time>2026-04-23T16:13:35.789Z</time></trkpt><trkpt lat="45.3867284" lon="9.2018558"><ele>101.66666666666666</ele><time>2026-04-23T16:13:37.787Z</time></trkpt><trkpt lat="45.3867095" lon="9.2017474"><ele>101.5</ele><time>2026-04-23T16:13:39.792Z</time></trkpt><trkpt lat="45.3866835" lon="9.20163"><ele>101.33333333333333</ele><time>2026-04-23T16:13:41.799Z</time></trkpt><trkpt lat="45.3866649" lon="9.2015163"><ele>101.16666666666666</ele><time>2026-04-23T16:13:43.79Z</time></trkpt><trkpt lat="45.3866405" lon="9.2013936"><ele>101.0</ele><time>2026-04-23T16:13:45.79Z</time></trkpt><trkpt lat="45.3866151" lon="9.2012865"><ele>100.49999999999999</ele><time>2026-04-23T16:13:47.788Z</time></trkpt><trkpt lat="45.3865916" lon="9.2011728"><ele>100.0</ele><time>2026-04-23T16:13:49.788Z</time></trkpt><trkpt lat="45.3865718" lon="9.2010566"><ele>99.5</ele><time>2026-04-23T16:13:51.793Z</time></trkpt><trkpt lat="45.3865466" lon="9.2009458"><ele>99.0</ele><time>2026-04-23T16:13:53.785Z</time></trkpt><trkpt lat="45.386524" lon="9.2008295"><ele>98.49999999999999</ele><time>2026-04-23T16:13:55.787Z</time></trkpt><trkpt lat="45.3864992" lon="9.2007206"><ele>98.0</ele><time>2026-04-23T16:13:57.787Z</time></trkpt><trkpt lat="45.3864768" lon="9.2006133"><ele>98.16666666666666</ele><time>2026-04-23T16:13:59.789Z</time></trkpt><trkpt lat="45.3864491" lon="9.2004963"><ele>98.33333333333333</ele><time>2026-04-23T16:14:01.791Z</time></trkpt><trkpt lat="45.3864253" lon="9.2003761"><ele>98.5</ele><time>2026-04-23T16:14:03.784Z</time></trkpt><trkpt lat="45.3864038" lon="9.2002533"><ele>98.66666666666666</ele><time>2026-04-23T16:14:05.792Z</time></trkpt><trkpt lat="45.3863782" lon="9.2001418"><ele>98.83333333333333</ele><time>2026-04-23T16:14:07.781Z</time></trkpt><trkpt lat="45.3863539" lon="9.2000125"><ele>99.0</ele><time>2026-04-23T16:14:09.788Z</time></trkpt><trkpt lat="45.3863333" lon="9.1998938"><ele>98.66666666666667</ele><time>2026-04-23T16:14:11.787Z</time></trkpt><trkpt lat="45.3863124" lon="9.1997732"><ele>98.33333333333334</ele><time>2026-04-23T16:14:13.792Z</time></trkpt><trkpt lat="45.3862951" lon="9.1996502"><ele>98.0</ele><time>2026-04-23T16:14:15.791Z</time></trkpt><trkpt lat="45.3862668" lon="9.1995353"><ele>97.66666666666667</ele><time>2026-04-23T16:14:17.794Z</time></trkpt><trkpt lat="45.386242" lon="9.1994173"><ele>97.33333333333334</ele><time>2026-04-23T16:14:19.784Z</time></trkpt><trkpt lat="45.3862223" lon="9.1992862"><ele>97.0</ele><time>2026-04-23T16:14:21.791Z</time></trkpt><trkpt lat="45.3861956" lon="9.1991629"><ele>97.0</ele><time>2026-04-23T16:14:23.787Z</time></trkpt><trkpt lat="45.3861632" lon="9.1990352"><ele>97.0</ele><time>2026-04-23T16:14:25.792Z</time></trkpt><trkpt lat="45.386138" lon="9.1989135"><ele>97.0</ele><time>2026-04-23T16:14:27.79Z</time></trkpt><trkpt lat="45.3861112" lon="9.198791"><ele>97.0</ele><time>2026-04-23T16:14:29.787Z</time></trkpt><trkpt lat="45.3860892" lon="9.1986626"><ele>97.0</ele><time>2026-04-23T16:14:31.792Z</time></trkpt><trkpt lat="45.3860629" lon="9.1985418"><ele>96.83333333333334</ele><time>2026-04-23T16:14:33.783Z</time></trkpt><trkpt lat="45.3860366" lon="9.1984184"><ele>96.66666666666667</ele><time>2026-04-23T16:14:35.79Z</time></trkpt><trkpt lat="45.3860122" lon="9.1982981"><ele>96.5</ele><time>2026-04-23T16:14:37.793Z</time></trkpt><trkpt lat="45.3859947" lon="9.1981782"><ele>96.33333333333334</ele><time>2026-04-23T16:14:39.793Z</time></trkpt><trkpt lat="45.3859672" lon="9.1980568"><ele>96.16666666666667</ele><time>2026-04-23T16:14:41.788Z</time></trkpt><trkpt lat="45.3859412" lon="9.1979346"><ele>96.0</ele><time>2026-04-23T16:14:43.796Z</time></trkpt><trkpt lat="45.3859179" lon="9.197818"><ele>96.19999999999999</ele><time>2026-04-23T16:14:45.785Z</time></trkpt><trkpt lat="45.3858949" lon="9.1976889"><ele>96.39999999999999</ele><time>2026-04-23T16:14:47.79Z</time></trkpt><trkpt lat="45.3858703" lon="9.1975685"><ele>96.6</ele><time>2026-04-23T16:14:49.79Z</time></trkpt><trkpt lat="45.3858372" lon="9.1974416"><ele>96.8</ele><time>2026-04-23T16:14:51.783Z</time></trkpt><trkpt lat="45.3858142" lon="9.1973068"><ele>97.0</ele><time>2026-04-23T16:14:53.79Z</time></trkpt><trkpt lat="45.3857859" lon="9.1971775"><ele>97.0</ele><time>2026-04-23T16:14:55.784Z</time></trkpt><trkpt lat="45.38576" lon="9.197054"><ele>97.0</ele><time>2026-04-23T16:14:57.791Z</time></trkpt><trkpt lat="45.3857287" lon="9.1969248"><ele>97.0</ele><time>2026-04-23T16:14:59.801Z</time></trkpt><trkpt lat="45.3857025" lon="9.1967908"><ele>97.0</ele><time>2026-04-23T16:15:01.787Z</time></trkpt><trkpt lat="45.3856776" lon="9.196645"><ele>97.0</ele><time>2026-04-23T16:15:03.794Z</time></trkpt><trkpt lat="45.3856468" lon="9.1965126"><ele>97.0</ele><time>2026-04-23T16:15:05.786Z</time></trkpt><trkpt lat="45.3856165" lon="9.1963711"><ele>97.0</ele><time>2026-04-23T16:15:07.803Z</time></trkpt><trkpt lat="45.3855821" lon="9.1962263"><ele>97.0</ele><time>2026-04-23T16:15:09.792Z</time></trkpt><trkpt lat="45.3855548" lon="9.1960784"><ele>97.0</ele><time>2026-04-23T16:15:11.793Z</time></trkpt><trkpt lat="45.3855324" lon="9.1959285"><ele>97.0</ele><time>2026-04-23T16:15:13.795Z</time></trkpt><trkpt lat="45.3855051" lon="9.1957888"><ele>97.0</ele><time>2026-04-23T16:15:15.785Z</time></trkpt><trkpt lat="45.3854725" lon="9.1956462"><ele>97.0</ele><time>2026-04-23T16:15:17.793Z</time></trkpt><trkpt lat="45.3854444" lon="9.1955014"><ele>97.0</ele><time>2026-04-23T16:15:19.79Z</time></trkpt><trkpt lat="45.385419" lon="9.1953609"><ele>97.0</ele><time>2026-04-23T16:15:21.795Z</time></trkpt><trkpt lat="45.3853888" lon="9.1952251"><ele>97.0</ele><time>2026-04-23T16:15:23.784Z</time></trkpt><trkpt lat="45.3853614" lon="9.1950817"><ele>97.0</ele><time>2026-04-23T16:15:25.799Z</time></trkpt><trkpt lat="45.3853385" lon="9.1949387"><ele>97.0</ele><time>2026-04-23T16:15:27.79Z</time></trkpt><trkpt lat="45.3853073" lon="9.194799"><ele>97.0</ele><time>2026-04-23T16:15:29.787Z</time></trkpt><trkpt lat="45.3852782" lon="9.1946527"><ele>97.0</ele><time>2026-04-23T16:15:31.787Z</time></trkpt><trkpt lat="45.3852468" lon="9.1945119"><ele>97.0</ele><time>2026-04-23T16:15:33.787Z</time></trkpt><trkpt lat="45.3852137" lon="9.1943653"><ele>97.0</ele><time>2026-04-23T16:15:35.793Z</time></trkpt><trkpt lat="45.3851854" lon="9.1942201"><ele>97.0</ele><time>2026-04-23T16:15:37.783Z</time></trkpt><trkpt lat="45.3851543" lon="9.1940909"><ele>97.0</ele><time>2026-04-23T16:15:39.787Z</time></trkpt><trkpt lat="45.3851282" lon="9.1939517"><ele>97.0</ele><time>2026-04-23T16:15:41.786Z</time></trkpt><trkpt lat="45.3850959" lon="9.1938088"><ele>97.0</ele><time>2026-04-23T16:15:43.787Z</time></trkpt><trkpt lat="45.385067" lon="9.1936591"><ele>97.19999999999999</ele><time>2026-04-23T16:15:45.785Z</time></trkpt><trkpt lat="45.3850437" lon="9.1935258"><ele>97.4</ele><time>2026-04-23T16:15:47.787Z</time></trkpt><trkpt lat="45.385021" lon="9.1933815"><ele>97.6</ele><time>2026-04-23T16:15:49.793Z</time></trkpt><trkpt lat="45.3849895" lon="9.1932471"><ele>97.80000000000001</ele><time>2026-04-23T16:15:51.79Z</time></trkpt><trkpt lat="45.384962" lon="9.1931113"><ele>98.0</ele><time>2026-04-23T16:15:53.803Z</time></trkpt><trkpt lat="45.3849354" lon="9.1929751"><ele>98.2</ele><time>2026-04-23T16:15:55.791Z</time></trkpt><trkpt lat="45.3849065" lon="9.1928428"><ele>98.4</ele><time>2026-04-23T16:15:57.794Z</time></trkpt><trkpt lat="45.3848794" lon="9.1927117"><ele>98.60000000000001</ele><time>2026-04-23T16:15:59.786Z</time></trkpt><trkpt lat="45.3848517" lon="9.1925865"><ele>98.80000000000001</ele><time>2026-04-23T16:16:01.788Z</time></trkpt><trkpt lat="45.3848225" lon="9.1924449"><ele>99.0</ele><time>2026-04-23T16:16:03.795Z</time></trkpt><trkpt lat="45.3847823" lon="9.1923179"><ele>99.0</ele><time>2026-04-23T16:16:05.791Z</time></trkpt><trkpt lat="45.3847465" lon="9.1921833"><ele>99.0</ele><time>2026-04-23T16:16:07.787Z</time></trkpt><trkpt lat="45.3847073" lon="9.1920538"><ele>99.0</ele><time>2026-04-23T16:16:09.803Z</time></trkpt><trkpt lat="45.3846697" lon="9.1919137"><ele>99.0</ele><time>2026-04-23T16:16:11.788Z</time></trkpt><trkpt lat="45.384626" lon="9.1917815"><ele>99.0</ele><time>2026-04-23T16:16:13.794Z</time></trkpt><trkpt lat="45.3845864" lon="9.1916475"><ele>99.0</ele><time>2026-04-23T16:16:15.79Z</time></trkpt><trkpt lat="45.3845462" lon="9.1915102"><ele>99.0</ele><time>2026-04-23T16:16:17.788Z</time></trkpt><trkpt lat="45.3845073" lon="9.1913669"><ele>99.0</ele><time>2026-04-23T16:16:19.791Z</time></trkpt><trkpt lat="45.3844654" lon="9.1912302"><ele>99.0</ele><time>2026-04-23T16:16:21.79Z</time></trkpt><trkpt lat="45.3844257" lon="9.1910847"><ele>99.0</ele><time>2026-04-23T16:16:23.787Z</time></trkpt><trkpt lat="45.384388" lon="9.1909489"><ele>98.80000000000001</ele><time>2026-04-23T16:16:25.786Z</time></trkpt><trkpt lat="45.3843521" lon="9.190812"><ele>98.60000000000001</ele><time>2026-04-23T16:16:27.791Z</time></trkpt><trkpt lat="45.3843075" lon="9.1906738"><ele>98.4</ele><time>2026-04-23T16:16:29.8Z</time></trkpt><trkpt lat="45.3842756" lon="9.1905334"><ele>98.2</ele><time>2026-04-23T16:16:31.788Z</time></trkpt><trkpt lat="45.3842401" lon="9.1903983"><ele>98.0</ele><time>2026-04-23T16:16:33.786Z</time></trkpt><trkpt lat="45.3842063" lon="9.1902698"><ele>97.80000000000001</ele><time>2026-04-23T16:16:35.785Z</time></trkpt><trkpt lat="45.3841709" lon="9.1901317"><ele>97.6</ele><time>2026-04-23T16:16:37.787Z</time></trkpt><trkpt lat="45.3841298" lon="9.190002"><ele>97.4</ele><time>2026-04-23T16:16:39.785Z</time></trkpt><trkpt lat="45.384085" lon="9.1898747"><ele>97.19999999999999</ele><time>2026-04-23T16:16:41.791Z</time></trkpt><trkpt lat="45.3840446" lon="9.189745"><ele>97.0</ele><time>2026-04-23T16:16:43.791Z</time></trkpt><trkpt lat="45.384008" lon="9.1896129"><ele>97.0</ele><time>2026-04-23T16:16:45.787Z</time></trkpt><trkpt lat="45.3839714" lon="9.1894815"><ele>97.0</ele><time>2026-04-23T16:16:47.784Z</time></trkpt><trkpt lat="45.3839318" lon="9.18936"><ele>97.0</ele><time>2026-04-23T16:16:49.79Z</time></trkpt><trkpt lat="45.3838917" lon="9.1892393"><ele>97.0</ele><time>2026-04-23T16:16:51.788Z</time></trkpt><trkpt lat="45.3838523" lon="9.1891229"><ele>97.0</ele><time>2026-04-23T16:16:53.787Z</time></trkpt><trkpt lat="45.3838058" lon="9.1890153"><ele>97.39999999999999</ele><time>2026-04-23T16:16:55.789Z</time></trkpt><trkpt lat="45.3837553" lon="9.1889074"><ele>97.8</ele><time>2026-04-23T16:16:57.793Z</time></trkpt><trkpt lat="45.3837138" lon="9.1887909"><ele>98.2</ele><time>2026-04-23T16:16:59.796Z</time></trkpt><trkpt lat="45.3836716" lon="9.1886791"><ele>98.6</ele><time>2026-04-23T16:17:01.787Z</time></trkpt><trkpt lat="45.3836527" lon="9.1885431"><ele>99.0</ele><time>2026-04-23T16:17:03.79Z</time></trkpt><trkpt lat="45.3837002" lon="9.1884067"><ele>99.0</ele><time>2026-04-23T16:17:05.789Z</time></trkpt><trkpt lat="45.3837797" lon="9.1883301"><ele>99.0</ele><time>2026-04-23T16:17:07.791Z</time></trkpt><trkpt lat="45.3838627" lon="9.1882581"><ele>99.0</ele><time>2026-04-23T16:17:09.796Z</time></trkpt><trkpt lat="45.383941" lon="9.1881791"><ele>99.0</ele><time>2026-04-23T16:17:11.786Z</time></trkpt><trkpt lat="45.384027" lon="9.1880997"><ele>99.0</ele><time>2026-04-23T16:17:13.787Z</time></trkpt><trkpt lat="45.3841162" lon="9.1880033"><ele>98.4</ele><time>2026-04-23T16:17:15.802Z</time></trkpt><trkpt lat="45.3842056" lon="9.1879077"><ele>97.80000000000001</ele><time>2026-04-23T16:17:17.785Z</time></trkpt><trkpt lat="45.3842598" lon="9.1878605"><ele>97.19999999999999</ele><time>2026-04-23T16:17:18.79Z</time></trkpt><trkpt lat="45.3843578" lon="9.1877746"><ele>96.6</ele><time>2026-04-23T16:17:20.799Z</time></trkpt><trkpt lat="45.384463" lon="9.1876989"><ele>96.0</ele><time>2026-04-23T16:17:22.792Z</time></trkpt><trkpt lat="45.3845549" lon="9.1876098"><ele>96.0</ele><time>2026-04-23T16:17:24.791Z</time></trkpt><trkpt lat="45.384636" lon="9.1875105"><ele>96.0</ele><time>2026-04-23T16:17:26.791Z</time></trkpt><trkpt lat="45.3847143" lon="9.187415"><ele>96.0</ele><time>2026-04-23T16:17:28.789Z</time></trkpt><trkpt lat="45.3847884" lon="9.1873211"><ele>96.0</ele><time>2026-04-23T16:17:30.79Z</time></trkpt><trkpt lat="45.3848608" lon="9.1872337"><ele>96.0</ele><time>2026-04-23T16:17:32.786Z</time></trkpt><trkpt lat="45.3849208" lon="9.1871334"><ele>96.16666666666667</ele><time>2026-04-23T16:17:34.787Z</time></trkpt><trkpt lat="45.3849597" lon="9.1870117"><ele>96.33333333333334</ele><time>2026-04-23T16:17:36.79Z</time></trkpt><trkpt lat="45.3849824" lon="9.1868787"><ele>96.5</ele><time>2026-04-23T16:17:38.786Z</time></trkpt><trkpt lat="45.3849785" lon="9.1867516"><ele>96.66666666666667</ele><time>2026-04-23T16:17:40.792Z</time></trkpt><trkpt lat="45.3849652" lon="9.186631"><ele>96.83333333333334</ele><time>2026-04-23T16:17:42.783Z</time></trkpt><trkpt lat="45.3849464" lon="9.1865188"><ele>97.0</ele><time>2026-04-23T16:17:44.784Z</time></trkpt><trkpt lat="45.3849226" lon="9.1863985"><ele>97.00000000000001</ele><time>2026-04-23T16:17:46.787Z</time></trkpt><trkpt lat="45.384896" lon="9.1862889"><ele>97.0</ele><time>2026-04-23T16:17:48.791Z</time></trkpt><trkpt lat="45.3848691" lon="9.1861675"><ele>97.0</ele><time>2026-04-23T16:17:50.781Z</time></trkpt><trkpt lat="45.3848563" lon="9.1860514"><ele>97.0</ele><time>2026-04-23T16:17:52.788Z</time></trkpt><trkpt lat="45.3848563" lon="9.1859323"><ele>97.00000000000001</ele><time>2026-04-23T16:17:54.785Z</time></trkpt><trkpt lat="45.384861" lon="9.185813"><ele>97.0</ele><time>2026-04-23T16:17:56.79Z</time></trkpt><trkpt lat="45.384862" lon="9.1856932"><ele>97.19999999999999</ele><time>2026-04-23T16:17:58.792Z</time></trkpt><trkpt lat="45.3848794" lon="9.1855734"><ele>97.4</ele><time>2026-04-23T16:18:00.784Z</time></trkpt><trkpt lat="45.384908" lon="9.1854514"><ele>97.6</ele><time>2026-04-23T16:18:02.793Z</time></trkpt><trkpt lat="45.3849289" lon="9.1853234"><ele>97.80000000000001</ele><time>2026-04-23T16:18:04.798Z</time></trkpt><trkpt lat="45.3849543" lon="9.1851966"><ele>98.0</ele><time>2026-04-23T16:18:06.785Z</time></trkpt><trkpt lat="45.3849781" lon="9.1850519"><ele>98.0</ele><time>2026-04-23T16:18:08.788Z</time></trkpt><trkpt lat="45.3849972" lon="9.1849218"><ele>98.0</ele><time>2026-04-23T16:18:10.79Z</time></trkpt><trkpt lat="45.3850179" lon="9.1847856"><ele>98.0</ele><time>2026-04-23T16:18:12.79Z</time></trkpt><trkpt lat="45.3850365" lon="9.1846468"><ele>98.0</ele><time>2026-04-23T16:18:14.786Z</time></trkpt><trkpt lat="45.3850587" lon="9.1845063"><ele>98.0</ele><time>2026-04-23T16:18:16.788Z</time></trkpt><trkpt lat="45.385081" lon="9.1843709"><ele>98.0</ele><time>2026-04-23T16:18:18.79Z</time></trkpt><trkpt lat="45.385109" lon="9.1842203"><ele>98.0</ele><time>2026-04-23T16:18:20.789Z</time></trkpt><trkpt lat="45.3851306" lon="9.1840771"><ele>98.0</ele><time>2026-04-23T16:18:22.794Z</time></trkpt><trkpt lat="45.3851531" lon="9.1839317"><ele>98.0</ele><time>2026-04-23T16:18:24.802Z</time></trkpt><trkpt lat="45.3851774" lon="9.1837928"><ele>98.0</ele><time>2026-04-23T16:18:26.792Z</time></trkpt><trkpt lat="45.3852006" lon="9.1836532"><ele>98.0</ele><time>2026-04-23T16:18:28.789Z</time></trkpt><trkpt lat="45.3852227" lon="9.1835199"><ele>98.0</ele><time>2026-04-23T16:18:30.789Z</time></trkpt><trkpt lat="45.3852386" lon="9.1833854"><ele>98.0</ele><time>2026-04-23T16:18:32.791Z</time></trkpt><trkpt lat="45.3852627" lon="9.1832493"><ele>98.0</ele><time>2026-04-23T16:18:34.784Z</time></trkpt><trkpt lat="45.3852809" lon="9.1831207"><ele>98.0</ele><time>2026-04-23T16:18:36.787Z</time></trkpt><trkpt lat="45.385298" lon="9.1830119"><ele>98.0</ele><time>2026-04-23T16:18:38.788Z</time></trkpt><trkpt lat="45.3853168" lon="9.1828909"><ele>98.0</ele><time>2026-04-23T16:18:40.778Z</time></trkpt><trkpt lat="45.385334" lon="9.182769"><ele>98.0</ele><time>2026-04-23T16:18:42.784Z</time></trkpt><trkpt lat="45.385359" lon="9.1826519"><ele>98.0</ele><time>2026-04-23T16:18:44.787Z</time></trkpt><trkpt lat="45.3853812" lon="9.1825166"><ele>98.0</ele><time>2026-04-23T16:18:46.788Z</time></trkpt><trkpt lat="45.3854033" lon="9.1823827"><ele>98.2</ele><time>2026-04-23T16:18:48.792Z</time></trkpt><trkpt lat="45.3854264" lon="9.1822527"><ele>98.4</ele><time>2026-04-23T16:18:50.785Z</time></trkpt><trkpt lat="45.3854482" lon="9.1821172"><ele>98.60000000000001</ele><time>2026-04-23T16:18:52.788Z</time></trkpt><trkpt lat="45.3854696" lon="9.1819909"><ele>98.80000000000001</ele><time>2026-04-23T16:18:54.788Z</time></trkpt><trkpt lat="45.385486" lon="9.1818626"><ele>99.0</ele><time>2026-04-23T16:18:56.786Z</time></trkpt><trkpt lat="45.3855025" lon="9.1817293"><ele>99.4</ele><time>2026-04-23T16:18:58.788Z</time></trkpt><trkpt lat="45.3855333" lon="9.1815998"><ele>99.80000000000001</ele><time>2026-04-23T16:19:00.789Z</time></trkpt><trkpt lat="45.3855569" lon="9.1814593"><ele>100.19999999999999</ele><time>2026-04-23T16:19:02.79Z</time></trkpt><trkpt lat="45.3855745" lon="9.181319"><ele>100.6</ele><time>2026-04-23T16:19:04.784Z</time></trkpt><trkpt lat="45.3855984" lon="9.1811894"><ele>101.0</ele><time>2026-04-23T16:19:06.789Z</time></trkpt><trkpt lat="45.3856119" lon="9.1810697"><ele>101.0</ele><time>2026-04-23T16:19:08.792Z</time></trkpt><trkpt lat="45.3856259" lon="9.180933"><ele>101.0</ele><time>2026-04-23T16:19:10.803Z</time></trkpt><trkpt lat="45.3856434" lon="9.1808018"><ele>101.0</ele><time>2026-04-23T16:19:12.787Z</time></trkpt><trkpt lat="45.3856668" lon="9.1806607"><ele>101.0</ele><time>2026-04-23T16:19:14.788Z</time></trkpt><trkpt lat="45.3856874" lon="9.1805295"><ele>101.0</ele><time>2026-04-23T16:19:16.788Z</time></trkpt><trkpt lat="45.3857068" lon="9.1803954"><ele>101.0</ele><time>2026-04-23T16:19:18.787Z</time></trkpt><trkpt lat="45.3857298" lon="9.1802571"><ele>101.0</ele><time>2026-04-23T16:19:20.789Z</time></trkpt><trkpt lat="45.3857525" lon="9.1801126"><ele>101.0</ele><time>2026-04-23T16:19:22.79Z</time></trkpt><trkpt lat="45.3857742" lon="9.17998"><ele>101.0</ele><time>2026-04-23T16:19:24.801Z</time></trkpt><trkpt lat="45.3857917" lon="9.1798457"><ele>101.0</ele><time>2026-04-23T16:19:26.791Z</time></trkpt><trkpt lat="45.3858136" lon="9.1797151"><ele>101.0</ele><time>2026-04-23T16:19:28.789Z</time></trkpt><trkpt lat="45.3858371" lon="9.1795797"><ele>101.0</ele><time>2026-04-23T16:19:30.786Z</time></trkpt><trkpt lat="45.3858601" lon="9.1794465"><ele>101.0</ele><time>2026-04-23T16:19:32.783Z</time></trkpt><trkpt lat="45.3858858" lon="9.1793099"><ele>101.0</ele><time>2026-04-23T16:19:34.785Z</time></trkpt><trkpt lat="45.3859104" lon="9.1791824"><ele>101.0</ele><time>2026-04-23T16:19:36.783Z</time></trkpt><trkpt lat="45.3859278" lon="9.1790547"><ele>101.6</ele><time>2026-04-23T16:19:38.788Z</time></trkpt><trkpt lat="45.3859448" lon="9.1789239"><ele>102.19999999999999</ele><time>2026-04-23T16:19:40.784Z</time></trkpt><trkpt lat="45.3859581" lon="9.1787899"><ele>102.80000000000001</ele><time>2026-04-23T16:19:42.791Z</time></trkpt><trkpt lat="45.385977" lon="9.1786618"><ele>103.4</ele><time>2026-04-23T16:19:44.802Z</time></trkpt><trkpt lat="45.3860141" lon="9.1785342"><ele>104.0</ele><time>2026-04-23T16:19:46.791Z</time></trkpt><trkpt lat="45.3860335" lon="9.1784175"><ele>104.0</ele><time>2026-04-23T16:19:48.796Z</time></trkpt><trkpt lat="45.3860543" lon="9.1782879"><ele>104.0</ele><time>2026-04-23T16:19:50.785Z</time></trkpt><trkpt lat="45.3860759" lon="9.1781619"><ele>104.0</ele><time>2026-04-23T16:19:52.785Z</time></trkpt><trkpt lat="45.3860977" lon="9.1780376"><ele>104.0</ele><time>2026-04-23T16:19:54.786Z</time></trkpt><trkpt lat="45.3861222" lon="9.1779056"><ele>104.0</ele><time>2026-04-23T16:19:56.784Z</time></trkpt><trkpt lat="45.3861389" lon="9.1777848"><ele>104.0</ele><time>2026-04-23T16:19:58.785Z</time></trkpt><trkpt lat="45.3861558" lon="9.177659"><ele>104.0</ele><time>2026-04-23T16:20:00.789Z</time></trkpt><trkpt lat="45.3861695" lon="9.1775374"><ele>104.0</ele><time>2026-04-23T16:20:02.789Z</time></trkpt><trkpt lat="45.3861959" lon="9.177393"><ele>104.0</ele><time>2026-04-23T16:20:04.794Z</time></trkpt><trkpt lat="45.3862315" lon="9.177266"><ele>104.0</ele><time>2026-04-23T16:20:06.788Z</time></trkpt><trkpt lat="45.3862762" lon="9.1771524"><ele>103.83333333333333</ele><time>2026-04-23T16:20:08.79Z</time></trkpt><trkpt lat="45.3863179" lon="9.1770434"><ele>103.66666666666666</ele><time>2026-04-23T16:20:10.789Z</time></trkpt><trkpt lat="45.3863599" lon="9.1769264"><ele>103.5</ele><time>2026-04-23T16:20:12.787Z</time></trkpt><trkpt lat="45.3863971" lon="9.1768245"><ele>103.33333333333334</ele><time>2026-04-23T16:20:14.788Z</time></trkpt><trkpt lat="45.3864399" lon="9.1767144"><ele>103.16666666666667</ele><time>2026-04-23T16:20:16.79Z</time></trkpt><trkpt lat="45.3864778" lon="9.1765978"><ele>103.0</ele><time>2026-04-23T16:20:18.786Z</time></trkpt><trkpt lat="45.3865251" lon="9.1764749"><ele>102.66666666666667</ele><time>2026-04-23T16:20:20.792Z</time></trkpt><trkpt lat="45.3865676" lon="9.1763458"><ele>102.33333333333334</ele><time>2026-04-23T16:20:22.788Z</time></trkpt><trkpt lat="45.3866033" lon="9.1762251"><ele>102.0</ele><time>2026-04-23T16:20:24.795Z</time></trkpt><trkpt lat="45.3866274" lon="9.176094"><ele>101.66666666666666</ele><time>2026-04-23T16:20:26.793Z</time></trkpt><trkpt lat="45.3866367" lon="9.1759733"><ele>101.33333333333333</ele><time>2026-04-23T16:20:28.793Z</time></trkpt><trkpt lat="45.386632" lon="9.1758702"><ele>101.0</ele><time>2026-04-23T16:20:30.792Z</time></trkpt><trkpt lat="45.3866065" lon="9.1757603"><ele>100.8</ele><time>2026-04-23T16:20:32.789Z</time></trkpt><trkpt lat="45.3865724" lon="9.1756496"><ele>100.6</ele><time>2026-04-23T16:20:34.792Z</time></trkpt><trkpt lat="45.3865473" lon="9.1755185"><ele>100.4</ele><time>2026-04-23T16:20:36.783Z</time></trkpt><trkpt lat="45.3865671" lon="9.1754007"><ele>100.2</ele><time>2026-04-23T16:20:38.792Z</time></trkpt><trkpt lat="45.3866292" lon="9.1752898"><ele>100.0</ele><time>2026-04-23T16:20:40.788Z</time></trkpt><trkpt lat="45.3866983" lon="9.1752076"><ele>100.00000000000001</ele><time>2026-04-23T16:20:42.779Z</time></trkpt><trkpt lat="45.3867654" lon="9.1751266"><ele>100.0</ele><time>2026-04-23T16:20:44.786Z</time></trkpt><trkpt lat="45.386826" lon="9.1750409"><ele>100.0</ele><time>2026-04-23T16:20:46.784Z</time></trkpt><trkpt lat="45.3868749" lon="9.1749557"><ele>100.0</ele><time>2026-04-23T16:20:48.781Z</time></trkpt><trkpt lat="45.3869561" lon="9.1749247"><ele>100.00000000000001</ele><time>2026-04-23T16:20:50.793Z</time></trkpt><trkpt lat="45.3870203" lon="9.1749068"><ele>100.0</ele><time>2026-04-23T16:20:52.782Z</time></trkpt><trkpt lat="45.3870746" lon="9.174959"><ele>100.00000000000001</ele><time>2026-04-23T16:20:54.788Z</time></trkpt><trkpt lat="45.3871048" lon="9.1750452"><ele>100.0</ele><time>2026-04-23T16:20:56.791Z</time></trkpt><trkpt lat="45.3871399" lon="9.1751348"><ele>100.0</ele><time>2026-04-23T16:20:58.797Z</time></trkpt><trkpt lat="45.3871922" lon="9.1752247"><ele>100.0</ele><time>2026-04-23T16:21:01.792Z</time></trkpt><trkpt lat="45.3872694" lon="9.1752893"><ele>100.00000000000001</ele><time>2026-04-23T16:21:04.79Z</time></trkpt><trkpt lat="45.3873321" lon="9.1753325"><ele>100.0</ele><time>2026-04-23T16:21:06.78Z</time></trkpt><trkpt lat="45.3874002" lon="9.1753497"><ele>100.14285714285715</ele><time>2026-04-23T16:21:08.788Z</time></trkpt><trkpt lat="45.387474" lon="9.1753636"><ele>100.28571428571429</ele><time>2026-04-23T16:21:10.782Z</time></trkpt><trkpt lat="45.3875357" lon="9.1753951"><ele>100.42857142857143</ele><time>2026-04-23T16:21:12.784Z</time></trkpt><trkpt lat="45.3875945" lon="9.175454"><ele>100.57142857142858</ele><time>2026-04-23T16:21:16.794Z</time></trkpt><trkpt lat="45.3876503" lon="9.1755087"><ele>100.71428571428571</ele><time>2026-04-23T16:21:46.789Z</time></trkpt><trkpt lat="45.3876844" lon="9.1756007"><ele>100.85714285714286</ele><time>2026-04-23T16:21:49.782Z</time></trkpt><trkpt lat="45.3876925" lon="9.1757113"><ele>101.0</ele><time>2026-04-23T16:21:51.787Z</time></trkpt><trkpt lat="45.3876922" lon="9.1758363"><ele>101.33333333333333</ele><time>2026-04-23T16:21:53.79Z</time></trkpt><trkpt lat="45.3876817" lon="9.1759472"><ele>101.66666666666666</ele><time>2026-04-23T16:21:55.79Z</time></trkpt><trkpt lat="45.3876856" lon="9.17606"><ele>102.0</ele><time>2026-04-23T16:21:57.79Z</time></trkpt><trkpt lat="45.3876997" lon="9.1761794"><ele>102.33333333333334</ele><time>2026-04-23T16:21:59.785Z</time></trkpt><trkpt lat="45.3877126" lon="9.1763009"><ele>102.66666666666667</ele><time>2026-04-23T16:22:01.792Z</time></trkpt><trkpt lat="45.3877296" lon="9.1764062"><ele>103.0</ele><time>2026-04-23T16:22:03.786Z</time></trkpt><trkpt lat="45.3877652" lon="9.1765303"><ele>103.16666666666667</ele><time>2026-04-23T16:22:05.789Z</time></trkpt><trkpt lat="45.3878129" lon="9.1766472"><ele>103.33333333333334</ele><time>2026-04-23T16:22:07.785Z</time></trkpt><trkpt lat="45.3878617" lon="9.1767528"><ele>103.5</ele><time>2026-04-23T16:22:09.783Z</time></trkpt><trkpt lat="45.3879067" lon="9.1768606"><ele>103.66666666666666</ele><time>2026-04-23T16:22:11.784Z</time></trkpt><trkpt lat="45.3879452" lon="9.1769683"><ele>103.83333333333333</ele><time>2026-04-23T16:22:13.795Z</time></trkpt><trkpt lat="45.3879851" lon="9.1770679"><ele>104.0</ele><time>2026-04-23T16:22:15.79Z</time></trkpt><trkpt lat="45.3880321" lon="9.1771788"><ele>103.99999999999999</ele><time>2026-04-23T16:22:17.786Z</time></trkpt><trkpt lat="45.3880792" lon="9.1772934"><ele>104.0</ele><time>2026-04-23T16:22:19.786Z</time></trkpt><trkpt lat="45.3881265" lon="9.1774072"><ele>104.0</ele><time>2026-04-23T16:22:21.791Z</time></trkpt><trkpt lat="45.3881771" lon="9.1775139"><ele>104.0</ele><time>2026-04-23T16:22:23.789Z</time></trkpt><trkpt lat="45.3882231" lon="9.1776107"><ele>103.99999999999999</ele><time>2026-04-23T16:22:25.785Z</time></trkpt><trkpt lat="45.3882631" lon="9.1777225"><ele>104.0</ele><time>2026-04-23T16:22:27.789Z</time></trkpt><trkpt lat="45.3883113" lon="9.1778363"><ele>103.83333333333333</ele><time>2026-04-23T16:22:29.785Z</time></trkpt><trkpt lat="45.3883625" lon="9.1779427"><ele>103.66666666666666</ele><time>2026-04-23T16:22:31.796Z</time></trkpt><trkpt lat="45.3884137" lon="9.1780348"><ele>103.5</ele><time>2026-04-23T16:22:33.793Z</time></trkpt><trkpt lat="45.3884747" lon="9.1781241"><ele>103.33333333333334</ele><time>2026-04-23T16:22:35.788Z</time></trkpt><trkpt lat="45.3885501" lon="9.1782131"><ele>103.16666666666667</ele><time>2026-04-23T16:22:37.788Z</time></trkpt><trkpt lat="45.388623" lon="9.178285"><ele>103.0</ele><time>2026-04-23T16:22:39.783Z</time></trkpt><trkpt lat="45.3886886" lon="9.1783415"><ele>103.00000000000001</ele><time>2026-04-23T16:22:41.788Z</time></trkpt><trkpt lat="45.388763" lon="9.1784017"><ele>103.0</ele><time>2026-04-23T16:22:43.793Z</time></trkpt><trkpt lat="45.3888426" lon="9.1784588"><ele>103.0</ele><time>2026-04-23T16:22:45.784Z</time></trkpt><trkpt lat="45.3889059" lon="9.1785091"><ele>103.0</ele><time>2026-04-23T16:22:47.786Z</time></trkpt><trkpt lat="45.3889742" lon="9.1785498"><ele>103.00000000000001</ele><time>2026-04-23T16:22:49.797Z</time></trkpt><trkpt lat="45.3890467" lon="9.1785916"><ele>103.0</ele><time>2026-04-23T16:22:51.797Z</time></trkpt><trkpt lat="45.3891253" lon="9.1786109"><ele>103.2</ele><time>2026-04-23T16:22:53.791Z</time></trkpt><trkpt lat="45.3892078" lon="9.1786205"><ele>103.4</ele><time>2026-04-23T16:22:55.79Z</time></trkpt><trkpt lat="45.3892984" lon="9.1786205"><ele>103.60000000000001</ele><time>2026-04-23T16:22:57.786Z</time></trkpt><trkpt lat="45.3893896" lon="9.1786602"><ele>103.80000000000001</ele><time>2026-04-23T16:22:59.783Z</time></trkpt><trkpt lat="45.3894759" lon="9.1786838"><ele>104.0</ele><time>2026-04-23T16:23:01.789Z</time></trkpt><trkpt lat="45.3895767" lon="9.1787198"><ele>104.0</ele><time>2026-04-23T16:23:03.796Z</time></trkpt><trkpt lat="45.3896717" lon="9.1787477"><ele>104.0</ele><time>2026-04-23T16:23:05.791Z</time></trkpt><trkpt lat="45.3897541" lon="9.1787887"><ele>104.0</ele><time>2026-04-23T16:23:07.789Z</time></trkpt><trkpt lat="45.3898261" lon="9.1788497"><ele>104.0</ele><time>2026-04-23T16:23:09.789Z</time></trkpt><trkpt lat="45.3899077" lon="9.1789589"><ele>104.0</ele><time>2026-04-23T16:23:11.793Z</time></trkpt><trkpt lat="45.3899817" lon="9.1790666"><ele>103.4</ele><time>2026-04-23T16:23:13.784Z</time></trkpt><trkpt lat="45.3900597" lon="9.1791505"><ele>102.80000000000001</ele><time>2026-04-23T16:23:15.783Z</time></trkpt><trkpt lat="45.390124" lon="9.1792558"><ele>102.19999999999999</ele><time>2026-04-23T16:23:17.793Z</time></trkpt><trkpt lat="45.3901537" lon="9.1793742"><ele>101.6</ele><time>2026-04-23T16:23:19.792Z</time></trkpt><trkpt lat="45.3901827" lon="9.1794996"><ele>101.0</ele><time>2026-04-23T16:23:21.798Z</time></trkpt><trkpt lat="45.3902115" lon="9.1796182"><ele>101.0</ele><time>2026-04-23T16:23:23.789Z</time></trkpt><trkpt lat="45.390247" lon="9.1797334"><ele>101.0</ele><time>2026-04-23T16:23:25.792Z</time></trkpt><trkpt lat="45.3902959" lon="9.1798511"><ele>101.0</ele><time>2026-04-23T16:23:27.786Z</time></trkpt><trkpt lat="45.3903429" lon="9.1799646"><ele>101.0</ele><time>2026-04-23T16:23:29.787Z</time></trkpt><trkpt lat="45.3903962" lon="9.1800753"><ele>101.0</ele><time>2026-04-23T16:23:31.79Z</time></trkpt><trkpt lat="45.390456" lon="9.1801903"><ele>101.0</ele><time>2026-04-23T16:23:33.791Z</time></trkpt><trkpt lat="45.3905045" lon="9.1802963"><ele>101.0</ele><time>2026-04-23T16:23:35.786Z</time></trkpt><trkpt lat="45.3905583" lon="9.1804132"><ele>101.0</ele><time>2026-04-23T16:23:37.788Z</time></trkpt><trkpt lat="45.3906124" lon="9.1805497"><ele>101.0</ele><time>2026-04-23T16:23:39.795Z</time></trkpt><trkpt lat="45.3906631" lon="9.1806837"><ele>101.0</ele><time>2026-04-23T16:23:41.785Z</time></trkpt><trkpt lat="45.3907011" lon="9.180831"><ele>101.0</ele><time>2026-04-23T16:23:43.788Z</time></trkpt><trkpt lat="45.3907344" lon="9.1809817"><ele>101.0</ele><time>2026-04-23T16:23:45.792Z</time></trkpt><trkpt lat="45.3907652" lon="9.1811341"><ele>101.0</ele><time>2026-04-23T16:23:47.787Z</time></trkpt><trkpt lat="45.3907916" lon="9.1812745"><ele>101.0</ele><time>2026-04-23T16:23:49.79Z</time></trkpt><trkpt lat="45.3908164" lon="9.1814091"><ele>101.0</ele><time>2026-04-23T16:23:51.784Z</time></trkpt><trkpt lat="45.3908446" lon="9.1815413"><ele>100.83333333333333</ele><time>2026-04-23T16:23:53.791Z</time></trkpt><trkpt lat="45.3908647" lon="9.1816755"><ele>100.66666666666666</ele><time>2026-04-23T16:23:55.784Z</time></trkpt><trkpt lat="45.390891" lon="9.181792"><ele>100.5</ele><time>2026-04-23T16:23:57.786Z</time></trkpt><trkpt lat="45.3909203" lon="9.1819038"><ele>100.33333333333334</ele><time>2026-04-23T16:23:59.785Z</time></trkpt><trkpt lat="45.390935" lon="9.1820197"><ele>100.16666666666667</ele><time>2026-04-23T16:24:01.785Z</time></trkpt><trkpt lat="45.3909599" lon="9.1821371"><ele>100.0</ele><time>2026-04-23T16:24:03.803Z</time></trkpt><trkpt lat="45.3909886" lon="9.1822656"><ele>100.0</ele><time>2026-04-23T16:24:05.787Z</time></trkpt><trkpt lat="45.3910483" lon="9.1823719"><ele>100.0</ele><time>2026-04-23T16:24:07.789Z</time></trkpt><trkpt lat="45.3911394" lon="9.1824087"><ele>100.0</ele><time>2026-04-23T16:24:09.791Z</time></trkpt><trkpt lat="45.3912404" lon="9.1824404"><ele>100.0</ele><time>2026-04-23T16:24:11.8Z</time></trkpt><trkpt lat="45.3913324" lon="9.182467"><ele>100.0</ele><time>2026-04-23T16:24:13.789Z</time></trkpt><trkpt lat="45.3914175" lon="9.1824717"><ele>100.16666666666667</ele><time>2026-04-23T16:24:15.789Z</time></trkpt><trkpt lat="45.3915076" lon="9.1824689"><ele>100.33333333333334</ele><time>2026-04-23T16:24:17.79Z</time></trkpt><trkpt lat="45.3915979" lon="9.1824932"><ele>100.5</ele><time>2026-04-23T16:24:19.791Z</time></trkpt><trkpt lat="45.3916841" lon="9.1825011"><ele>100.66666666666666</ele><time>2026-04-23T16:24:21.791Z</time></trkpt><trkpt lat="45.3917667" lon="9.1824961"><ele>100.83333333333333</ele><time>2026-04-23T16:24:23.792Z</time></trkpt><trkpt lat="45.3918459" lon="9.1824847"><ele>101.0</ele><time>2026-04-23T16:24:25.79Z</time></trkpt><trkpt lat="45.3919352" lon="9.1824945"><ele>100.99999999999999</ele><time>2026-04-23T16:24:27.785Z</time></trkpt><trkpt lat="45.3920168" lon="9.1824718"><ele>101.0</ele><time>2026-04-23T16:24:29.789Z</time></trkpt><trkpt lat="45.3920445" lon="9.1823614"><ele>101.0</ele><time>2026-04-23T16:24:32.79Z</time></trkpt><trkpt lat="45.3920935" lon="9.1822538"><ele>101.0</ele><time>2026-04-23T16:24:35.79Z</time></trkpt><trkpt lat="45.3921843" lon="9.1822146"><ele>100.99999999999999</ele><time>2026-04-23T16:24:38.792Z</time></trkpt><trkpt lat="45.3922574" lon="9.1822246"><ele>101.0</ele><time>2026-04-23T16:24:40.796Z</time></trkpt><trkpt lat="45.3923322" lon="9.1822474"><ele>100.99999999999999</ele><time>2026-04-23T16:24:42.791Z</time></trkpt><trkpt lat="45.3924053" lon="9.18226"><ele>101.0</ele><time>2026-04-23T16:24:44.782Z</time></trkpt><trkpt lat="45.3924907" lon="9.1822626"><ele>101.0</ele><time>2026-04-23T16:24:46.796Z</time></trkpt><trkpt lat="45.3925583" lon="9.1822648"><ele>101.0</ele><time>2026-04-23T16:24:48.79Z</time></trkpt><trkpt lat="45.3926334" lon="9.1822512"><ele>100.99999999999999</ele><time>2026-04-23T16:24:50.788Z</time></trkpt><trkpt lat="45.392713" lon="9.182243"><ele>101.0</ele><time>2026-04-23T16:24:52.79Z</time></trkpt><trkpt lat="45.3927937" lon="9.182242"><ele>100.99999999999999</ele><time>2026-04-23T16:24:54.79Z</time></trkpt><trkpt lat="45.3928732" lon="9.1822488"><ele>101.0</ele><time>2026-04-23T16:24:56.79Z</time></trkpt><trkpt lat="45.3929542" lon="9.182251"><ele>101.0</ele><time>2026-04-23T16:24:58.691Z</time></trkpt><trkpt lat="45.393039" lon="9.1822585"><ele>101.0</ele><time>2026-04-23T16:25:00.755Z</time></trkpt><trkpt lat="45.3931288" lon="9.1822537"><ele>100.99999999999999</ele><time>2026-04-23T16:25:02.784Z</time></trkpt><trkpt lat="45.3932082" lon="9.182256"><ele>101.0</ele><time>2026-04-23T16:25:04.692Z</time></trkpt><trkpt lat="45.3932935" lon="9.1822327"><ele>100.99999999999999</ele><time>2026-04-23T16:25:06.79Z</time></trkpt><trkpt lat="45.393375" lon="9.1822394"><ele>101.0</ele><time>2026-04-23T16:25:08.792Z</time></trkpt><trkpt lat="45.3934597" lon="9.1822481"><ele>101.0</ele><time>2026-04-23T16:25:10.789Z</time></trkpt><trkpt lat="45.3935477" lon="9.1822538"><ele>101.0</ele><time>2026-04-23T16:25:12.796Z</time></trkpt><trkpt lat="45.3936317" lon="9.1822505"><ele>100.99999999999999</ele><time>2026-04-23T16:25:14.789Z</time></trkpt><trkpt lat="45.3937145" lon="9.1822547"><ele>101.0</ele><time>2026-04-23T16:25:16.794Z</time></trkpt><trkpt lat="45.3937989" lon="9.1822593"><ele>101.16666666666666</ele><time>2026-04-23T16:25:18.797Z</time></trkpt><trkpt lat="45.39388" lon="9.1822693"><ele>101.33333333333333</ele><time>2026-04-23T16:25:20.788Z</time></trkpt><trkpt lat="45.3939621" lon="9.1822603"><ele>101.5</ele><time>2026-04-23T16:25:22.785Z</time></trkpt><trkpt lat="45.3940457" lon="9.1822596"><ele>101.66666666666666</ele><time>2026-04-23T16:25:24.786Z</time></trkpt><trkpt lat="45.3941145" lon="9.1822551"><ele>101.83333333333333</ele><time>2026-04-23T16:25:26.785Z</time></trkpt><trkpt lat="45.3942079" lon="9.182266"><ele>102.0</ele><time>2026-04-23T16:25:28.797Z</time></trkpt><trkpt lat="45.3943028" lon="9.1822805"><ele>102.0</ele><time>2026-04-23T16:25:30.787Z</time></trkpt><trkpt lat="45.3943879" lon="9.1822904"><ele>102.0</ele><time>2026-04-23T16:25:32.8Z</time></trkpt><trkpt lat="45.3944761" lon="9.1822976"><ele>102.0</ele><time>2026-04-23T16:25:34.789Z</time></trkpt><trkpt lat="45.3945623" lon="9.1822954"><ele>102.0</ele><time>2026-04-23T16:25:36.784Z</time></trkpt><trkpt lat="45.3946369" lon="9.1822888"><ele>102.0</ele><time>2026-04-23T16:25:38.797Z</time></trkpt><trkpt lat="45.3947217" lon="9.1822774"><ele>102.0</ele><time>2026-04-23T16:25:40.792Z</time></trkpt><trkpt lat="45.3948041" lon="9.1822753"><ele>102.0</ele><time>2026-04-23T16:25:42.79Z</time></trkpt><trkpt lat="45.3948869" lon="9.1822738"><ele>102.0</ele><time>2026-04-23T16:25:44.788Z</time></trkpt><trkpt lat="45.3949665" lon="9.1822829"><ele>102.0</ele><time>2026-04-23T16:25:46.789Z</time></trkpt><trkpt lat="45.3950628" lon="9.1822954"><ele>102.0</ele><time>2026-04-23T16:25:48.791Z</time></trkpt><trkpt lat="45.3951514" lon="9.1822941"><ele>102.0</ele><time>2026-04-23T16:25:50.795Z</time></trkpt><trkpt lat="45.3952317" lon="9.1823106"><ele>102.0</ele><time>2026-04-23T16:25:52.792Z</time></trkpt><trkpt lat="45.3953174" lon="9.1823102"><ele>102.0</ele><time>2026-04-23T16:25:54.8Z</time></trkpt><trkpt lat="45.3953995" lon="9.1823033"><ele>102.0</ele><time>2026-04-23T16:25:56.787Z</time></trkpt><trkpt lat="45.3954798" lon="9.1823279"><ele>102.0</ele><time>2026-04-23T16:25:58.788Z</time></trkpt><trkpt lat="45.3955582" lon="9.1823384"><ele>102.0</ele><time>2026-04-23T16:26:00.79Z</time></trkpt><trkpt lat="45.3956368" lon="9.1823295"><ele>102.0</ele><time>2026-04-23T16:26:02.787Z</time></trkpt><trkpt lat="45.3957175" lon="9.1823203"><ele>102.0</ele><time>2026-04-23T16:26:04.803Z</time></trkpt><trkpt lat="45.3958009" lon="9.1823292"><ele>102.16666666666667</ele><time>2026-04-23T16:26:06.789Z</time></trkpt><trkpt lat="45.3958827" lon="9.1823401"><ele>102.33333333333334</ele><time>2026-04-23T16:26:08.793Z</time></trkpt><trkpt lat="45.3959743" lon="9.1823538"><ele>102.5</ele><time>2026-04-23T16:26:10.787Z</time></trkpt><trkpt lat="45.3960518" lon="9.1823556"><ele>102.66666666666667</ele><time>2026-04-23T16:26:12.788Z</time></trkpt><trkpt lat="45.396123" lon="9.1823546"><ele>102.83333333333334</ele><time>2026-04-23T16:26:14.79Z</time></trkpt><trkpt lat="45.3962036" lon="9.1823494"><ele>103.0</ele><time>2026-04-23T16:26:16.791Z</time></trkpt><trkpt lat="45.3962842" lon="9.1823553"><ele>103.00000000000001</ele><time>2026-04-23T16:26:18.797Z</time></trkpt><trkpt lat="45.3963733" lon="9.1823731"><ele>103.0</ele><time>2026-04-23T16:26:20.789Z</time></trkpt><trkpt lat="45.3964381" lon="9.1823741"><ele>103.0</ele><time>2026-04-23T16:26:22.786Z</time></trkpt><trkpt lat="45.3965355" lon="9.1823889"><ele>103.0</ele><time>2026-04-23T16:26:24.788Z</time></trkpt><trkpt lat="45.3966226" lon="9.1823945"><ele>103.00000000000001</ele><time>2026-04-23T16:26:26.787Z</time></trkpt><trkpt lat="45.3967045" lon="9.1823831"><ele>103.0</ele><time>2026-04-23T16:26:28.787Z</time></trkpt><trkpt lat="45.3967855" lon="9.1823852"><ele>103.00000000000001</ele><time>2026-04-23T16:26:30.781Z</time></trkpt><trkpt lat="45.3968673" lon="9.1823953"><ele>103.0</ele><time>2026-04-23T16:26:32.788Z</time></trkpt><trkpt lat="45.3969508" lon="9.1823991"><ele>103.0</ele><time>2026-04-23T16:26:34.792Z</time></trkpt><trkpt lat="45.3970277" lon="9.1824095"><ele>103.0</ele><time>2026-04-23T16:26:36.787Z</time></trkpt><trkpt lat="45.397109" lon="9.1824119"><ele>103.00000000000001</ele><time>2026-04-23T16:26:38.787Z</time></trkpt><trkpt lat="45.397196" lon="9.1824102"><ele>103.0</ele><time>2026-04-23T16:26:40.787Z</time></trkpt><trkpt lat="45.3972703" lon="9.1824118"><ele>102.83333333333334</ele><time>2026-04-23T16:26:42.78Z</time></trkpt><trkpt lat="45.3973514" lon="9.182407"><ele>102.66666666666667</ele><time>2026-04-23T16:26:44.787Z</time></trkpt><trkpt lat="45.3974321" lon="9.1824148"><ele>102.5</ele><time>2026-04-23T16:26:46.795Z</time></trkpt><trkpt lat="45.397511" lon="9.1824318"><ele>102.33333333333334</ele><time>2026-04-23T16:26:48.789Z</time></trkpt><trkpt lat="45.3975838" lon="9.1824411"><ele>102.16666666666667</ele><time>2026-04-23T16:26:50.784Z</time></trkpt><trkpt lat="45.39766" lon="9.1824736"><ele>102.0</ele><time>2026-04-23T16:26:52.786Z</time></trkpt><trkpt lat="45.3977337" lon="9.182519"><ele>102.0</ele><time>2026-04-23T16:26:54.791Z</time></trkpt><trkpt lat="45.3978094" lon="9.1825629"><ele>102.0</ele><time>2026-04-23T16:26:56.788Z</time></trkpt><trkpt lat="45.3978859" lon="9.1825984"><ele>102.0</ele><time>2026-04-23T16:26:58.791Z</time></trkpt><trkpt lat="45.3979622" lon="9.182654"><ele>102.0</ele><time>2026-04-23T16:27:00.792Z</time></trkpt><trkpt lat="45.3980352" lon="9.1827051"><ele>102.0</ele><time>2026-04-23T16:27:02.791Z</time></trkpt><trkpt lat="45.3981113" lon="9.1827462"><ele>102.0</ele><time>2026-04-23T16:27:04.786Z</time></trkpt><trkpt lat="45.3981843" lon="9.1828031"><ele>101.5</ele><time>2026-04-23T16:27:06.786Z</time></trkpt><trkpt lat="45.3982628" lon="9.1828508"><ele>101.0</ele><time>2026-04-23T16:27:08.786Z</time></trkpt><trkpt lat="45.398338" lon="9.182893"><ele>100.5</ele><time>2026-04-23T16:27:10.79Z</time></trkpt><trkpt lat="45.3984134" lon="9.1829373"><ele>100.0</ele><time>2026-04-23T16:27:12.789Z</time></trkpt><trkpt lat="45.398495" lon="9.1829719"><ele>99.5</ele><time>2026-04-23T16:27:14.803Z</time></trkpt><trkpt lat="45.3985823" lon="9.1830072"><ele>99.0</ele><time>2026-04-23T16:27:16.782Z</time></trkpt><trkpt lat="45.3986672" lon="9.1830317"><ele>99.0</ele><time>2026-04-23T16:27:18.786Z</time></trkpt><trkpt lat="45.3987441" lon="9.1830456"><ele>99.0</ele><time>2026-04-23T16:27:20.793Z</time></trkpt><trkpt lat="45.3988229" lon="9.183048"><ele>99.0</ele><time>2026-04-23T16:27:22.791Z</time></trkpt><trkpt lat="45.3989099" lon="9.1830394"><ele>99.0</ele><time>2026-04-23T16:27:24.793Z</time></trkpt><trkpt lat="45.3989861" lon="9.1830184"><ele>99.0</ele><time>2026-04-23T16:27:26.791Z</time></trkpt><trkpt lat="45.399063" lon="9.182999"><ele>99.0</ele><time>2026-04-23T16:27:28.786Z</time></trkpt><trkpt lat="45.3991443" lon="9.1829922"><ele>99.33333333333333</ele><time>2026-04-23T16:27:30.785Z</time></trkpt><trkpt lat="45.3992163" lon="9.18299"><ele>99.66666666666666</ele><time>2026-04-23T16:27:32.788Z</time></trkpt><trkpt lat="45.3993029" lon="9.1829826"><ele>100.0</ele><time>2026-04-23T16:27:34.782Z</time></trkpt><trkpt lat="45.3993964" lon="9.1829674"><ele>100.33333333333333</ele><time>2026-04-23T16:27:36.789Z</time></trkpt><trkpt lat="45.3994888" lon="9.1829489"><ele>100.66666666666666</ele><time>2026-04-23T16:27:38.784Z</time></trkpt><trkpt lat="45.3995825" lon="9.1829358"><ele>101.0</ele><time>2026-04-23T16:27:40.792Z</time></trkpt><trkpt lat="45.39966" lon="9.1829083"><ele>101.66666666666666</ele><time>2026-04-23T16:27:42.789Z</time></trkpt><trkpt lat="45.3997469" lon="9.1828811"><ele>102.33333333333333</ele><time>2026-04-23T16:27:44.787Z</time></trkpt><trkpt lat="45.3998404" lon="9.1828492"><ele>103.0</ele><time>2026-04-23T16:27:46.787Z</time></trkpt><trkpt lat="45.3999124" lon="9.1828156"><ele>103.66666666666666</ele><time>2026-04-23T16:27:48.794Z</time></trkpt><trkpt lat="45.3999787" lon="9.182771"><ele>104.33333333333333</ele><time>2026-04-23T16:27:50.783Z</time></trkpt><trkpt lat="45.400044" lon="9.1827318"><ele>105.0</ele><time>2026-04-23T16:27:52.794Z</time></trkpt><trkpt lat="45.4001098" lon="9.1826892"><ele>105.0</ele><time>2026-04-23T16:27:54.788Z</time></trkpt><trkpt lat="45.4001704" lon="9.1826493"><ele>105.0</ele><time>2026-04-23T16:27:56.795Z</time></trkpt><trkpt lat="45.4002485" lon="9.1826203"><ele>105.0</ele><time>2026-04-23T16:27:58.791Z</time></trkpt><trkpt lat="45.4003302" lon="9.182567"><ele>105.0</ele><time>2026-04-23T16:28:00.791Z</time></trkpt><trkpt lat="45.4004097" lon="9.1825291"><ele>105.0</ele><time>2026-04-23T16:28:02.796Z</time></trkpt><trkpt lat="45.400494" lon="9.1824938"><ele>105.0</ele><time>2026-04-23T16:28:04.796Z</time></trkpt><trkpt lat="45.4005731" lon="9.1824652"><ele>105.0</ele><time>2026-04-23T16:28:06.789Z</time></trkpt><trkpt lat="45.4006535" lon="9.1824359"><ele>105.0</ele><time>2026-04-23T16:28:08.79Z</time></trkpt><trkpt lat="45.4007368" lon="9.1824107"><ele>105.0</ele><time>2026-04-23T16:28:10.796Z</time></trkpt><trkpt lat="45.4008107" lon="9.1823791"><ele>105.0</ele><time>2026-04-23T16:28:12.788Z</time></trkpt><trkpt lat="45.4008931" lon="9.1823538"><ele>105.0</ele><time>2026-04-23T16:28:14.8Z</time></trkpt><trkpt lat="45.4009732" lon="9.1823272"><ele>105.0</ele><time>2026-04-23T16:28:16.788Z</time></trkpt><trkpt lat="45.4010503" lon="9.1823145"><ele>105.0</ele><time>2026-04-23T16:28:18.789Z</time></trkpt><trkpt lat="45.4011263" lon="9.1822888"><ele>105.0</ele><time>2026-04-23T16:28:20.791Z</time></trkpt><trkpt lat="45.401207" lon="9.1822612"><ele>105.0</ele><time>2026-04-23T16:28:22.787Z</time></trkpt><trkpt lat="45.4012883" lon="9.1822273"><ele>105.0</ele><time>2026-04-23T16:28:24.785Z</time></trkpt><trkpt lat="45.4013645" lon="9.1821947"><ele>105.0</ele><time>2026-04-23T16:28:26.789Z</time></trkpt><trkpt lat="45.4014414" lon="9.1821629"><ele>105.0</ele><time>2026-04-23T16:28:28.79Z</time></trkpt><trkpt lat="45.4015147" lon="9.1821273"><ele>105.0</ele><time>2026-04-23T16:28:30.787Z</time></trkpt><trkpt lat="45.4015821" lon="9.182094"><ele>105.0</ele><time>2026-04-23T16:28:32.785Z</time></trkpt><trkpt lat="45.4016548" lon="9.1820631"><ele>105.0</ele><time>2026-04-23T16:28:34.783Z</time></trkpt><trkpt lat="45.4017216" lon="9.1820205"><ele>105.0</ele><time>2026-04-23T16:28:36.788Z</time></trkpt><trkpt lat="45.4017843" lon="9.1819903"><ele>105.0</ele><time>2026-04-23T16:28:38.79Z</time></trkpt><trkpt lat="45.4018439" lon="9.1819504"><ele>105.0</ele><time>2026-04-23T16:28:40.788Z</time></trkpt><trkpt lat="45.4019028" lon="9.1819168"><ele>105.0</ele><time>2026-04-23T16:28:42.791Z</time></trkpt><trkpt lat="45.4019701" lon="9.1819092"><ele>105.0</ele><time>2026-04-23T16:28:44.785Z</time></trkpt><trkpt lat="45.4020336" lon="9.1819822"><ele>105.0</ele><time>2026-04-23T16:28:46.785Z</time></trkpt><trkpt lat="45.4020982" lon="9.1820313"><ele>105.0</ele><time>2026-04-23T16:28:48.792Z</time></trkpt><trkpt lat="45.4021631" lon="9.1820619"><ele>105.0</ele><time>2026-04-23T16:28:50.79Z</time></trkpt><trkpt lat="45.4022411" lon="9.1820965"><ele>105.0</ele><time>2026-04-23T16:28:52.792Z</time></trkpt><trkpt lat="45.4023144" lon="9.1821298"><ele>105.0</ele><time>2026-04-23T16:28:54.786Z</time></trkpt><trkpt lat="45.4023862" lon="9.1822308"><ele>105.0</ele><time>2026-04-23T16:28:56.785Z</time></trkpt><trkpt lat="45.4024218" lon="9.1823147"><ele>105.0</ele><time>2026-04-23T16:28:58.79Z</time></trkpt><trkpt lat="45.4024624" lon="9.1824415"><ele>105.0</ele><time>2026-04-23T16:29:00.789Z</time></trkpt><trkpt lat="45.4025166" lon="9.1825585"><ele>105.0</ele><time>2026-04-23T16:29:02.788Z</time></trkpt><trkpt lat="45.402565" lon="9.1826712"><ele>105.0</ele><time>2026-04-23T16:29:04.79Z</time></trkpt><trkpt lat="45.4026212" lon="9.1827716"><ele>105.0</ele><time>2026-04-23T16:29:06.786Z</time></trkpt><trkpt lat="45.402673" lon="9.1828664"><ele>105.0</ele><time>2026-04-23T16:29:08.787Z</time></trkpt><trkpt lat="45.4027156" lon="9.182964"><ele>105.0</ele><time>2026-04-23T16:29:10.796Z</time></trkpt><trkpt lat="45.4027779" lon="9.1830083"><ele>105.0</ele><time>2026-04-23T16:29:12.79Z</time></trkpt><trkpt lat="45.4028685" lon="9.1829818"><ele>105.0</ele><time>2026-04-23T16:29:15.792Z</time></trkpt><trkpt lat="45.4029364" lon="9.1829359"><ele>105.0</ele><time>2026-04-23T16:29:17.79Z</time></trkpt><trkpt lat="45.4029954" lon="9.1828963"><ele>105.0</ele><time>2026-04-23T16:29:19.784Z</time></trkpt><trkpt lat="45.4030587" lon="9.1828546"><ele>104.83333333333333</ele><time>2026-04-23T16:29:21.788Z</time></trkpt><trkpt lat="45.403131" lon="9.1828166"><ele>104.66666666666666</ele><time>2026-04-23T16:29:23.79Z</time></trkpt><trkpt lat="45.4032063" lon="9.1827719"><ele>104.5</ele><time>2026-04-23T16:29:25.785Z</time></trkpt><trkpt lat="45.4032695" lon="9.1827126"><ele>104.33333333333333</ele><time>2026-04-23T16:29:27.787Z</time></trkpt><trkpt lat="45.4033249" lon="9.1826387"><ele>104.16666666666666</ele><time>2026-04-23T16:29:29.791Z</time></trkpt><trkpt lat="45.4033656" lon="9.1825629"><ele>104.0</ele><time>2026-04-23T16:29:31.796Z</time></trkpt><trkpt lat="45.4033812" lon="9.1824605"><ele>103.99999999999999</ele><time>2026-04-23T16:29:33.784Z</time></trkpt><trkpt lat="45.4033491" lon="9.1823442"><ele>104.0</ele><time>2026-04-23T16:29:35.794Z</time></trkpt><trkpt lat="45.4033082" lon="9.1822354"><ele>104.0</ele><time>2026-04-23T16:29:37.784Z</time></trkpt><trkpt lat="45.4032743" lon="9.1821237"><ele>104.0</ele><time>2026-04-23T16:29:39.787Z</time></trkpt><trkpt lat="45.40325" lon="9.1820212"><ele>103.99999999999999</ele><time>2026-04-23T16:29:41.782Z</time></trkpt><trkpt lat="45.4032252" lon="9.1819334"><ele>104.0</ele><time>2026-04-23T16:29:43.792Z</time></trkpt><trkpt lat="45.4031983" lon="9.1818482"><ele>103.99999999999999</ele><time>2026-04-23T16:29:45.782Z</time></trkpt><trkpt lat="45.4031722" lon="9.1817641"><ele>104.0</ele><time>2026-04-23T16:29:47.785Z</time></trkpt><trkpt lat="45.4031516" lon="9.1816537"><ele>104.0</ele><time>2026-04-23T16:29:50.781Z</time></trkpt><trkpt lat="45.4031224" lon="9.1815554"><ele>104.0</ele><time>2026-04-23T16:29:53.786Z</time></trkpt><trkpt lat="45.4030918" lon="9.181443"><ele>103.99999999999999</ele><time>2026-04-23T16:29:56.786Z</time></trkpt><trkpt lat="45.4030532" lon="9.1813241"><ele>104.0</ele><time>2026-04-23T16:29:59.789Z</time></trkpt><trkpt lat="45.4030242" lon="9.1812105"><ele>103.85714285714285</ele><time>2026-04-23T16:30:02.78Z</time></trkpt><trkpt lat="45.4029996" lon="9.1811256"><ele>103.71428571428572</ele><time>2026-04-23T16:30:04.787Z</time></trkpt><trkpt lat="45.4029774" lon="9.1810379"><ele>103.57142857142857</ele><time>2026-04-23T16:30:06.783Z</time></trkpt><trkpt lat="45.4029524" lon="9.1809485"><ele>103.42857142857142</ele><time>2026-04-23T16:30:08.784Z</time></trkpt><trkpt lat="45.4029278" lon="9.1808644"><ele>103.28571428571428</ele><time>2026-04-23T16:30:10.789Z</time></trkpt><trkpt lat="45.4028856" lon="9.1807439"><ele>103.14285714285714</ele><time>2026-04-23T16:30:13.784Z</time></trkpt><trkpt lat="45.4028618" lon="9.1806588"><ele>103.0</ele><time>2026-04-23T16:30:15.786Z</time></trkpt><trkpt lat="45.4028429" lon="9.1805651"><ele>102.71428571428571</ele><time>2026-04-23T16:30:17.788Z</time></trkpt><trkpt lat="45.4028145" lon="9.1804753"><ele>102.42857142857143</ele><time>2026-04-23T16:30:19.79Z</time></trkpt><trkpt lat="45.4027877" lon="9.1803906"><ele>102.14285714285714</ele><time>2026-04-23T16:30:21.799Z</time></trkpt><trkpt lat="45.402755" lon="9.1802706"><ele>101.85714285714286</ele><time>2026-04-23T16:30:24.783Z</time></trkpt><trkpt lat="45.4027367" lon="9.1801702"><ele>101.57142857142857</ele><time>2026-04-23T16:30:27.788Z</time></trkpt><trkpt lat="45.4027151" lon="9.1800856"><ele>101.28571428571428</ele><time>2026-04-23T16:30:30.784Z</time></trkpt><trkpt lat="45.4026954" lon="9.1799952"><ele>101.0</ele><time>2026-04-23T16:30:34.788Z</time></trkpt><trkpt lat="45.4026654" lon="9.1798831"><ele>101.4</ele><time>2026-04-23T16:30:50.79Z</time></trkpt><trkpt lat="45.4026382" lon="9.1797852"><ele>101.8</ele><time>2026-04-23T16:30:53.789Z</time></trkpt><trkpt lat="45.4026121" lon="9.1796967"><ele>102.2</ele><time>2026-04-23T16:30:56.789Z</time></trkpt><trkpt lat="45.4026001" lon="9.1796024"><ele>102.60000000000001</ele><time>2026-04-23T16:30:59.786Z</time></trkpt><trkpt lat="45.4025544" lon="9.1793517"><ele>103.0</ele><time>2026-04-23T16:33:11.788Z</time></trkpt><trkpt lat="45.4025444" lon="9.1794425"><ele>103.00000000000001</ele><time>2026-04-23T16:33:21.788Z</time></trkpt><trkpt lat="45.4025564" lon="9.1795592"><ele>103.0</ele><time>2026-04-23T16:33:25.788Z</time></trkpt><trkpt lat="45.40258" lon="9.1796867"><ele>103.0</ele><time>2026-04-23T16:33:28.786Z</time></trkpt><trkpt lat="45.4026022" lon="9.1797796"><ele>103.0</ele><time>2026-04-23T16:33:30.785Z</time></trkpt><trkpt lat="45.4026254" lon="9.1798832"><ele>103.00000000000001</ele><time>2026-04-23T16:33:32.779Z</time></trkpt><trkpt lat="45.4026405" lon="9.1799994"><ele>103.0</ele><time>2026-04-23T16:33:34.782Z</time></trkpt><trkpt lat="45.4026752" lon="9.1800944"><ele>103.00000000000001</ele><time>2026-04-23T16:33:36.779Z</time></trkpt><trkpt lat="45.4027068" lon="9.1801846"><ele>103.0</ele><time>2026-04-23T16:33:38.785Z</time></trkpt><trkpt lat="45.4027424" lon="9.1802823"><ele>103.0</ele><time>2026-04-23T16:33:40.787Z</time></trkpt><trkpt lat="45.402773" lon="9.1803955"><ele>103.0</ele><time>2026-04-23T16:33:42.783Z</time></trkpt><trkpt lat="45.4028008" lon="9.1805018"><ele>103.00000000000001</ele><time>2026-04-23T16:33:44.788Z</time></trkpt><trkpt lat="45.4028301" lon="9.1806081"><ele>103.0</ele><time>2026-04-23T16:33:46.787Z</time></trkpt><trkpt lat="45.4028667" lon="9.1807137"><ele>103.00000000000001</ele><time>2026-04-23T16:33:48.779Z</time></trkpt><trkpt lat="45.4028991" lon="9.1808243"><ele>103.0</ele><time>2026-04-23T16:33:50.785Z</time></trkpt><trkpt lat="45.4029265" lon="9.1809267"><ele>103.0</ele><time>2026-04-23T16:33:52.784Z</time></trkpt><trkpt lat="45.4029615" lon="9.1810399"><ele>103.0</ele><time>2026-04-23T16:33:54.784Z</time></trkpt><trkpt lat="45.402988" lon="9.1811479"><ele>103.00000000000001</ele><time>2026-04-23T16:33:56.786Z</time></trkpt><trkpt lat="45.4030178" lon="9.1812619"><ele>103.0</ele><time>2026-04-23T16:33:58.786Z</time></trkpt><trkpt lat="45.403048" lon="9.1813836"><ele>102.83333333333334</ele><time>2026-04-23T16:34:00.784Z</time></trkpt><trkpt lat="45.4030747" lon="9.1814992"><ele>102.66666666666667</ele><time>2026-04-23T16:34:02.789Z</time></trkpt><trkpt lat="45.4031078" lon="9.181605"><ele>102.5</ele><time>2026-04-23T16:34:04.778Z</time></trkpt><trkpt lat="45.4031357" lon="9.1817139"><ele>102.33333333333334</ele><time>2026-04-23T16:34:06.787Z</time></trkpt><trkpt lat="45.403165" lon="9.1818273"><ele>102.16666666666667</ele><time>2026-04-23T16:34:08.784Z</time></trkpt><trkpt lat="45.4031902" lon="9.1819407"><ele>102.0</ele><time>2026-04-23T16:34:10.785Z</time></trkpt><trkpt lat="45.4032226" lon="9.1820567"><ele>102.33333333333333</ele><time>2026-04-23T16:34:12.786Z</time></trkpt><trkpt lat="45.4032558" lon="9.1821754"><ele>102.66666666666666</ele><time>2026-04-23T16:34:14.785Z</time></trkpt><trkpt lat="45.4032945" lon="9.1822847"><ele>103.0</ele><time>2026-04-23T16:34:16.781Z</time></trkpt><trkpt lat="45.4033217" lon="9.1824034"><ele>103.33333333333333</ele><time>2026-04-23T16:34:18.783Z</time></trkpt><trkpt lat="45.4033469" lon="9.1825235"><ele>103.66666666666666</ele><time>2026-04-23T16:34:20.795Z</time></trkpt><trkpt lat="45.4033273" lon="9.1826435"><ele>104.0</ele><time>2026-04-23T16:34:22.781Z</time></trkpt><trkpt lat="45.4032526" lon="9.182719"><ele>103.99999999999999</ele><time>2026-04-23T16:34:24.789Z</time></trkpt><trkpt lat="45.4031613" lon="9.1827659"><ele>104.0</ele><time>2026-04-23T16:34:26.785Z</time></trkpt><trkpt lat="45.4030766" lon="9.1828169"><ele>104.0</ele><time>2026-04-23T16:34:28.786Z</time></trkpt><trkpt lat="45.4030009" lon="9.1828687"><ele>104.0</ele><time>2026-04-23T16:34:30.779Z</time></trkpt><trkpt lat="45.4029193" lon="9.1829138"><ele>103.99999999999999</ele><time>2026-04-23T16:34:32.788Z</time></trkpt><trkpt lat="45.4028408" lon="9.1829732"><ele>104.0</ele><time>2026-04-23T16:34:34.785Z</time></trkpt><trkpt lat="45.4027719" lon="9.1830411"><ele>104.0</ele><time>2026-04-23T16:34:36.786Z</time></trkpt><trkpt lat="45.4027577" lon="9.1831731"><ele>104.0</ele><time>2026-04-23T16:34:38.784Z</time></trkpt><trkpt lat="45.4027949" lon="9.1832943"><ele>104.0</ele><time>2026-04-23T16:34:40.787Z</time></trkpt><trkpt lat="45.4028549" lon="9.1833882"><ele>104.0</ele><time>2026-04-23T16:34:42.791Z</time></trkpt><trkpt lat="45.4029266" lon="9.1834745"><ele>104.0</ele><time>2026-04-23T16:34:44.788Z</time></trkpt><trkpt lat="45.4030078" lon="9.1835498"><ele>103.83333333333333</ele><time>2026-04-23T16:34:46.791Z</time></trkpt><trkpt lat="45.403098" lon="9.1836148"><ele>103.66666666666666</ele><time>2026-04-23T16:34:48.784Z</time></trkpt><trkpt lat="45.4031658" lon="9.1836724"><ele>103.5</ele><time>2026-04-23T16:34:50.787Z</time></trkpt><trkpt lat="45.403232" lon="9.1837533"><ele>103.33333333333334</ele><time>2026-04-23T16:34:52.783Z</time></trkpt><trkpt lat="45.4032958" lon="9.1838376"><ele>103.16666666666667</ele><time>2026-04-23T16:34:54.781Z</time></trkpt><trkpt lat="45.4033543" lon="9.1839425"><ele>103.0</ele><time>2026-04-23T16:34:56.787Z</time></trkpt><trkpt lat="45.4033882" lon="9.1840656"><ele>103.00000000000001</ele><time>2026-04-23T16:34:58.792Z</time></trkpt><trkpt lat="45.403407" lon="9.184177"><ele>103.0</ele><time>2026-04-23T16:35:00.784Z</time></trkpt><trkpt lat="45.403425" lon="9.1842928"><ele>103.0</ele><time>2026-04-23T16:35:02.781Z</time></trkpt><trkpt lat="45.4034489" lon="9.1844049"><ele>103.0</ele><time>2026-04-23T16:35:04.78Z</time></trkpt><trkpt lat="45.4034917" lon="9.1844983"><ele>103.00000000000001</ele><time>2026-04-23T16:35:06.784Z</time></trkpt><trkpt lat="45.4035596" lon="9.1845758"><ele>103.0</ele><time>2026-04-23T16:35:08.784Z</time></trkpt><trkpt lat="45.4036238" lon="9.1846621"><ele>103.0</ele><time>2026-04-23T16:35:10.794Z</time></trkpt><trkpt lat="45.4036847" lon="9.1847599"><ele>103.0</ele><time>2026-04-23T16:35:12.785Z</time></trkpt><trkpt lat="45.4037444" lon="9.184855"><ele>103.0</ele><time>2026-04-23T16:35:14.783Z</time></trkpt><trkpt lat="45.4037973" lon="9.1849603"><ele>103.0</ele><time>2026-04-23T16:35:16.78Z</time></trkpt><trkpt lat="45.4038497" lon="9.1850591"><ele>103.0</ele><time>2026-04-23T16:35:18.784Z</time></trkpt><trkpt lat="45.4039118" lon="9.1851631"><ele>103.2</ele><time>2026-04-23T16:35:20.783Z</time></trkpt><trkpt lat="45.4039735" lon="9.1852597"><ele>103.4</ele><time>2026-04-23T16:35:22.783Z</time></trkpt><trkpt lat="45.4040316" lon="9.1853657"><ele>103.60000000000001</ele><time>2026-04-23T16:35:24.79Z</time></trkpt><trkpt lat="45.4040865" lon="9.1854701"><ele>103.80000000000001</ele><time>2026-04-23T16:35:26.802Z</time></trkpt><trkpt lat="45.4041447" lon="9.1855801"><ele>104.0</ele><time>2026-04-23T16:35:28.783Z</time></trkpt><trkpt lat="45.4042062" lon="9.1857006"><ele>104.0</ele><time>2026-04-23T16:35:30.785Z</time></trkpt><trkpt lat="45.4042762" lon="9.1858147"><ele>104.0</ele><time>2026-04-23T16:35:32.775Z</time></trkpt><trkpt lat="45.404344" lon="9.1859448"><ele>104.0</ele><time>2026-04-23T16:35:34.78Z</time></trkpt><trkpt lat="45.4044158" lon="9.186077"><ele>104.0</ele><time>2026-04-23T16:35:36.787Z</time></trkpt><trkpt lat="45.4044905" lon="9.1861981"><ele>104.0</ele><time>2026-04-23T16:35:38.785Z</time></trkpt><trkpt lat="45.4045599" lon="9.1863087"><ele>104.0</ele><time>2026-04-23T16:35:40.781Z</time></trkpt><trkpt lat="45.4046252" lon="9.1864209"><ele>104.0</ele><time>2026-04-23T16:35:42.783Z</time></trkpt><trkpt lat="45.4046837" lon="9.1865207"><ele>104.0</ele><time>2026-04-23T16:35:44.779Z</time></trkpt><trkpt lat="45.4047318" lon="9.1866297"><ele>104.0</ele><time>2026-04-23T16:35:46.781Z</time></trkpt><trkpt lat="45.4047828" lon="9.1867406"><ele>103.99999999999999</ele><time>2026-04-23T16:35:48.782Z</time></trkpt><trkpt lat="45.4048359" lon="9.1868364"><ele>104.0</ele><time>2026-04-23T16:35:50.778Z</time></trkpt><trkpt lat="45.4048842" lon="9.1869372"><ele>104.0</ele><time>2026-04-23T16:35:52.778Z</time></trkpt><trkpt lat="45.404936" lon="9.1870395"><ele>104.0</ele><time>2026-04-23T16:35:54.777Z</time></trkpt><trkpt lat="45.40498" lon="9.1871414"><ele>103.99999999999999</ele><time>2026-04-23T16:35:56.794Z</time></trkpt><trkpt lat="45.4050237" lon="9.1872562"><ele>104.0</ele><time>2026-04-23T16:35:58.779Z</time></trkpt><trkpt lat="45.4050742" lon="9.1873618"><ele>103.99999999999999</ele><time>2026-04-23T16:36:00.811Z</time></trkpt><trkpt lat="45.4051299" lon="9.1874548"><ele>104.0</ele><time>2026-04-23T16:36:02.801Z</time></trkpt><trkpt lat="45.4051996" lon="9.1875363"><ele>104.0</ele><time>2026-04-23T16:36:04.809Z</time></trkpt><trkpt lat="45.4052694" lon="9.1876159"><ele>104.0</ele><time>2026-04-23T16:36:06.8Z</time></trkpt><trkpt lat="45.4053338" lon="9.1877042"><ele>103.99999999999999</ele><time>2026-04-23T16:36:08.783Z</time></trkpt><trkpt lat="45.4054051" lon="9.1877888"><ele>104.0</ele><time>2026-04-23T16:36:10.806Z</time></trkpt><trkpt lat="45.4054698" lon="9.1878828"><ele>104.2</ele><time>2026-04-23T16:36:12.791Z</time></trkpt><trkpt lat="45.4055348" lon="9.1879752"><ele>104.4</ele><time>2026-04-23T16:36:14.799Z</time></trkpt><trkpt lat="45.4055959" lon="9.1880683"><ele>104.6</ele><time>2026-04-23T16:36:16.788Z</time></trkpt><trkpt lat="45.4056562" lon="9.188164"><ele>104.8</ele><time>2026-04-23T16:36:18.805Z</time></trkpt><trkpt lat="45.4057141" lon="9.1882634"><ele>105.0</ele><time>2026-04-23T16:36:20.803Z</time></trkpt><trkpt lat="45.4057737" lon="9.1883581"><ele>105.16666666666667</ele><time>2026-04-23T16:36:22.81Z</time></trkpt><trkpt lat="45.4058303" lon="9.1884546"><ele>105.33333333333334</ele><time>2026-04-23T16:36:24.788Z</time></trkpt><trkpt lat="45.4058838" lon="9.1885526"><ele>105.5</ele><time>2026-04-23T16:36:26.79Z</time></trkpt><trkpt lat="45.405929" lon="9.1886521"><ele>105.66666666666667</ele><time>2026-04-23T16:36:28.801Z</time></trkpt><trkpt lat="45.4059788" lon="9.1887555"><ele>105.83333333333334</ele><time>2026-04-23T16:36:30.796Z</time></trkpt><trkpt lat="45.4060242" lon="9.1888587"><ele>106.0</ele><time>2026-04-23T16:36:32.777Z</time></trkpt><trkpt lat="45.406081" lon="9.1889628"><ele>105.83333333333334</ele><time>2026-04-23T16:36:34.814Z</time></trkpt><trkpt lat="45.4061427" lon="9.189065"><ele>105.66666666666667</ele><time>2026-04-23T16:36:36.797Z</time></trkpt><trkpt lat="45.406208" lon="9.1891587"><ele>105.5</ele><time>2026-04-23T16:36:38.796Z</time></trkpt><trkpt lat="45.4062648" lon="9.189264"><ele>105.33333333333334</ele><time>2026-04-23T16:36:40.81Z</time></trkpt><trkpt lat="45.4063146" lon="9.1893586"><ele>105.16666666666667</ele><time>2026-04-23T16:36:42.783Z</time></trkpt><trkpt lat="45.4063691" lon="9.1894486"><ele>105.0</ele><time>2026-04-23T16:36:44.797Z</time></trkpt><trkpt lat="45.4064235" lon="9.1895376"><ele>104.83333333333333</ele><time>2026-04-23T16:36:46.789Z</time></trkpt><trkpt lat="45.4064807" lon="9.1896408"><ele>104.66666666666666</ele><time>2026-04-23T16:36:48.793Z</time></trkpt><trkpt lat="45.4065342" lon="9.1897461"><ele>104.5</ele><time>2026-04-23T16:36:50.785Z</time></trkpt><trkpt lat="45.4065751" lon="9.189845"><ele>104.33333333333333</ele><time>2026-04-23T16:36:52.793Z</time></trkpt><trkpt lat="45.4066288" lon="9.189944"><ele>104.16666666666666</ele><time>2026-04-23T16:36:54.801Z</time></trkpt><trkpt lat="45.4066801" lon="9.1900355"><ele>104.0</ele><time>2026-04-23T16:36:56.787Z</time></trkpt><trkpt lat="45.4067246" lon="9.1901381"><ele>103.83333333333333</ele><time>2026-04-23T16:36:58.788Z</time></trkpt><trkpt lat="45.4067821" lon="9.1902321"><ele>103.66666666666666</ele><time>2026-04-23T16:37:00.787Z</time></trkpt><trkpt lat="45.4068397" lon="9.1903284"><ele>103.5</ele><time>2026-04-23T16:37:02.809Z</time></trkpt><trkpt lat="45.406898" lon="9.1904247"><ele>103.33333333333334</ele><time>2026-04-23T16:37:04.798Z</time></trkpt><trkpt lat="45.4069551" lon="9.190527"><ele>103.16666666666667</ele><time>2026-04-23T16:37:06.801Z</time></trkpt><trkpt lat="45.407014" lon="9.1906203"><ele>103.0</ele><time>2026-04-23T16:37:08.827Z</time></trkpt><trkpt lat="45.4070657" lon="9.190725"><ele>103.16666666666667</ele><time>2026-04-23T16:37:10.86Z</time></trkpt><trkpt lat="45.4071178" lon="9.1908333"><ele>103.33333333333334</ele><time>2026-04-23T16:37:12.81Z</time></trkpt><trkpt lat="45.4071688" lon="9.1909287"><ele>103.5</ele><time>2026-04-23T16:37:14.794Z</time></trkpt><trkpt lat="45.4072224" lon="9.1910201"><ele>103.66666666666666</ele><time>2026-04-23T16:37:16.802Z</time></trkpt><trkpt lat="45.4072719" lon="9.1911195"><ele>103.83333333333333</ele><time>2026-04-23T16:37:18.794Z</time></trkpt><trkpt lat="45.4073166" lon="9.1912224"><ele>104.0</ele><time>2026-04-23T16:37:20.812Z</time></trkpt><trkpt lat="45.4073674" lon="9.1913115"><ele>103.99999999999999</ele><time>2026-04-23T16:37:22.785Z</time></trkpt><trkpt lat="45.4074121" lon="9.1914069"><ele>104.0</ele><time>2026-04-23T16:37:24.777Z</time></trkpt><trkpt lat="45.40746" lon="9.1914989"><ele>104.0</ele><time>2026-04-23T16:37:26.803Z</time></trkpt><trkpt lat="45.4075109" lon="9.1915902"><ele>104.0</ele><time>2026-04-23T16:37:28.793Z</time></trkpt><trkpt lat="45.4075588" lon="9.1916839"><ele>103.99999999999999</ele><time>2026-04-23T16:37:30.793Z</time></trkpt><trkpt lat="45.4076033" lon="9.1917716"><ele>104.0</ele><time>2026-04-23T16:37:32.792Z</time></trkpt><trkpt lat="45.4076629" lon="9.1918476"><ele>104.33333333333333</ele><time>2026-04-23T16:37:34.784Z</time></trkpt><trkpt lat="45.4077124" lon="9.1919171"><ele>104.66666666666666</ele><time>2026-04-23T16:37:36.785Z</time></trkpt><trkpt lat="45.4077685" lon="9.1920043"><ele>105.0</ele><time>2026-04-23T16:37:38.792Z</time></trkpt><trkpt lat="45.4078249" lon="9.1920949"><ele>105.33333333333334</ele><time>2026-04-23T16:37:40.803Z</time></trkpt><trkpt lat="45.4078878" lon="9.1921878"><ele>105.66666666666667</ele><time>2026-04-23T16:37:42.79Z</time></trkpt><trkpt lat="45.4079316" lon="9.1922854"><ele>106.0</ele><time>2026-04-23T16:37:44.797Z</time></trkpt><trkpt lat="45.4079746" lon="9.1923703"><ele>106.00000000000001</ele><time>2026-04-23T16:37:46.814Z</time></trkpt><trkpt lat="45.4080287" lon="9.1924527"><ele>106.0</ele><time>2026-04-23T16:37:48.798Z</time></trkpt><trkpt lat="45.4080853" lon="9.1925302"><ele>106.0</ele><time>2026-04-23T16:37:50.79Z</time></trkpt><trkpt lat="45.4081278" lon="9.1926253"><ele>106.0</ele><time>2026-04-23T16:37:52.788Z</time></trkpt><trkpt lat="45.4081632" lon="9.1927243"><ele>106.00000000000001</ele><time>2026-04-23T16:37:54.787Z</time></trkpt><trkpt lat="45.4082075" lon="9.192821"><ele>106.0</ele><time>2026-04-23T16:37:56.79Z</time></trkpt><trkpt lat="45.4082597" lon="9.1929214"><ele>106.00000000000001</ele><time>2026-04-23T16:37:58.78Z</time></trkpt><trkpt lat="45.4083201" lon="9.1930201"><ele>106.0</ele><time>2026-04-23T16:38:00.784Z</time></trkpt><trkpt lat="45.4083624" lon="9.1931111"><ele>106.0</ele><time>2026-04-23T16:38:02.776Z</time></trkpt><trkpt lat="45.4084076" lon="9.1932152"><ele>106.0</ele><time>2026-04-23T16:38:04.78Z</time></trkpt><trkpt lat="45.4084612" lon="9.1933068"><ele>106.00000000000001</ele><time>2026-04-23T16:38:06.783Z</time></trkpt><trkpt lat="45.4085088" lon="9.1934089"><ele>106.0</ele><time>2026-04-23T16:38:08.789Z</time></trkpt><trkpt lat="45.4085585" lon="9.193505"><ele>105.83333333333334</ele><time>2026-04-23T16:38:10.785Z</time></trkpt><trkpt lat="45.408609" lon="9.1935925"><ele>105.66666666666667</ele><time>2026-04-23T16:38:12.783Z</time></trkpt><trkpt lat="45.4086659" lon="9.193682"><ele>105.5</ele><time>2026-04-23T16:38:14.791Z</time></trkpt><trkpt lat="45.4087121" lon="9.193773"><ele>105.33333333333334</ele><time>2026-04-23T16:38:16.777Z</time></trkpt><trkpt lat="45.4087624" lon="9.1938643"><ele>105.16666666666667</ele><time>2026-04-23T16:38:18.786Z</time></trkpt><trkpt lat="45.4088108" lon="9.1939559"><ele>105.0</ele><time>2026-04-23T16:38:20.778Z</time></trkpt><trkpt lat="45.4088641" lon="9.194043"><ele>104.83333333333333</ele><time>2026-04-23T16:38:22.78Z</time></trkpt><trkpt lat="45.4089117" lon="9.1941315"><ele>104.66666666666666</ele><time>2026-04-23T16:38:24.782Z</time></trkpt><trkpt lat="45.4089612" lon="9.1942292"><ele>104.5</ele><time>2026-04-23T16:38:26.785Z</time></trkpt><trkpt lat="45.4090085" lon="9.1943199"><ele>104.33333333333333</ele><time>2026-04-23T16:38:28.792Z</time></trkpt><trkpt lat="45.4090676" lon="9.1944207"><ele>104.16666666666666</ele><time>2026-04-23T16:38:30.781Z</time></trkpt><trkpt lat="45.4091191" lon="9.194513"><ele>104.0</ele><time>2026-04-23T16:38:32.777Z</time></trkpt><trkpt lat="45.409172" lon="9.1946002"><ele>103.99999999999999</ele><time>2026-04-23T16:38:34.783Z</time></trkpt><trkpt lat="45.4092294" lon="9.1946896"><ele>104.0</ele><time>2026-04-23T16:38:36.78Z</time></trkpt><trkpt lat="45.4092958" lon="9.1947713"><ele>104.0</ele><time>2026-04-23T16:38:38.787Z</time></trkpt><trkpt lat="45.4093626" lon="9.1948159"><ele>104.0</ele><time>2026-04-23T16:38:40.782Z</time></trkpt><trkpt lat="45.4094496" lon="9.1948283"><ele>103.99999999999999</ele><time>2026-04-23T16:38:42.781Z</time></trkpt><trkpt lat="45.409534" lon="9.1948115"><ele>104.0</ele><time>2026-04-23T16:38:44.781Z</time></trkpt><trkpt lat="45.4096197" lon="9.1948115"><ele>104.16666666666666</ele><time>2026-04-23T16:38:46.78Z</time></trkpt><trkpt lat="45.4096986" lon="9.1948065"><ele>104.33333333333333</ele><time>2026-04-23T16:38:48.784Z</time></trkpt><trkpt lat="45.409792" lon="9.194805"><ele>104.5</ele><time>2026-04-23T16:38:51.779Z</time></trkpt><trkpt lat="45.409857" lon="9.1947968"><ele>104.66666666666666</ele><time>2026-04-23T16:38:53.793Z</time></trkpt><trkpt lat="45.4099338" lon="9.194792"><ele>104.83333333333333</ele><time>2026-04-23T16:38:55.776Z</time></trkpt><trkpt lat="45.4100104" lon="9.1947835"><ele>105.0</ele><time>2026-04-23T16:38:57.782Z</time></trkpt><trkpt lat="45.410092" lon="9.1947959"><ele>105.0</ele><time>2026-04-23T16:38:59.786Z</time></trkpt><trkpt lat="45.4101784" lon="9.1947931"><ele>105.0</ele><time>2026-04-23T16:39:01.793Z</time></trkpt><trkpt lat="45.4102719" lon="9.1947886"><ele>105.0</ele><time>2026-04-23T16:39:03.782Z</time></trkpt><trkpt lat="45.4103664" lon="9.194788"><ele>105.0</ele><time>2026-04-23T16:39:05.784Z</time></trkpt><trkpt lat="45.4104472" lon="9.1947711"><ele>105.0</ele><time>2026-04-23T16:39:07.78Z</time></trkpt><trkpt lat="45.4105208" lon="9.1947723"><ele>105.0</ele><time>2026-04-23T16:39:09.781Z</time></trkpt><trkpt lat="45.4105941" lon="9.1947897"><ele>105.33333333333333</ele><time>2026-04-23T16:39:11.783Z</time></trkpt><trkpt lat="45.4106716" lon="9.1947914"><ele>105.66666666666666</ele><time>2026-04-23T16:39:13.783Z</time></trkpt><trkpt lat="45.4107519" lon="9.1947915"><ele>106.0</ele><time>2026-04-23T16:39:15.783Z</time></trkpt><trkpt lat="45.4108361" lon="9.1947903"><ele>106.33333333333333</ele><time>2026-04-23T16:39:17.792Z</time></trkpt><trkpt lat="45.4109228" lon="9.1947956"><ele>106.66666666666666</ele><time>2026-04-23T16:39:19.781Z</time></trkpt><trkpt lat="45.4110129" lon="9.1948076"><ele>107.0</ele><time>2026-04-23T16:39:21.782Z</time></trkpt><trkpt lat="45.4111057" lon="9.1948225"><ele>107.0</ele><time>2026-04-23T16:39:23.782Z</time></trkpt><trkpt lat="45.4112002" lon="9.1948384"><ele>106.99999999999999</ele><time>2026-04-23T16:39:25.785Z</time></trkpt><trkpt lat="45.4112948" lon="9.1948463"><ele>106.99999999999999</ele><time>2026-04-23T16:39:27.781Z</time></trkpt><trkpt lat="45.4113884" lon="9.1948565"><ele>107.0</ele><time>2026-04-23T16:39:29.782Z</time></trkpt><trkpt lat="45.4114747" lon="9.1948714"><ele>107.0</ele><time>2026-04-23T16:39:31.784Z</time></trkpt><trkpt lat="45.4115659" lon="9.1948697"><ele>107.0</ele><time>2026-04-23T16:39:33.784Z</time></trkpt><trkpt lat="45.4116566" lon="9.1948842"><ele>106.99999999999999</ele><time>2026-04-23T16:39:35.777Z</time></trkpt><trkpt lat="45.411749" lon="9.1948755"><ele>106.99999999999999</ele><time>2026-04-23T16:39:37.777Z</time></trkpt><trkpt lat="45.4118347" lon="9.1948594"><ele>107.0</ele><time>2026-04-23T16:39:39.782Z</time></trkpt><trkpt lat="45.4119245" lon="9.1948329"><ele>107.0</ele><time>2026-04-23T16:39:41.788Z</time></trkpt><trkpt lat="45.4120119" lon="9.1948153"><ele>107.16666666666666</ele><time>2026-04-23T16:39:43.779Z</time></trkpt><trkpt lat="45.4121018" lon="9.1947953"><ele>107.33333333333333</ele><time>2026-04-23T16:39:45.778Z</time></trkpt><trkpt lat="45.4121917" lon="9.1947827"><ele>107.5</ele><time>2026-04-23T16:39:47.783Z</time></trkpt><trkpt lat="45.4122849" lon="9.1947744"><ele>107.66666666666666</ele><time>2026-04-23T16:39:49.785Z</time></trkpt><trkpt lat="45.4123707" lon="9.1947736"><ele>107.83333333333333</ele><time>2026-04-23T16:39:51.779Z</time></trkpt><trkpt lat="45.4124574" lon="9.1947691"><ele>108.0</ele><time>2026-04-23T16:39:53.783Z</time></trkpt><trkpt lat="45.4125528" lon="9.1947514"><ele>107.80000000000001</ele><time>2026-04-23T16:39:55.779Z</time></trkpt><trkpt lat="45.4126373" lon="9.1947529"><ele>107.60000000000001</ele><time>2026-04-23T16:39:57.782Z</time></trkpt><trkpt lat="45.4127302" lon="9.1947582"><ele>107.39999999999999</ele><time>2026-04-23T16:39:59.785Z</time></trkpt><trkpt lat="45.412824" lon="9.1947573"><ele>107.19999999999999</ele><time>2026-04-23T16:40:01.781Z</time></trkpt><trkpt lat="45.4129135" lon="9.1947516"><ele>107.0</ele><time>2026-04-23T16:40:03.783Z</time></trkpt><trkpt lat="45.413007" lon="9.1947521"><ele>106.99999999999999</ele><time>2026-04-23T16:40:05.787Z</time></trkpt><trkpt lat="45.4130944" lon="9.194741"><ele>107.0</ele><time>2026-04-23T16:40:07.783Z</time></trkpt><trkpt lat="45.4131805" lon="9.1947391"><ele>107.0</ele><time>2026-04-23T16:40:09.779Z</time></trkpt><trkpt lat="45.4132732" lon="9.1947394"><ele>107.0</ele><time>2026-04-23T16:40:11.783Z</time></trkpt><trkpt lat="45.4133613" lon="9.1947366"><ele>106.99999999999999</ele><time>2026-04-23T16:40:13.797Z</time></trkpt><trkpt lat="45.4134495" lon="9.1947312"><ele>107.0</ele><time>2026-04-23T16:40:15.78Z</time></trkpt><trkpt lat="45.4135407" lon="9.194739"><ele>107.0</ele><time>2026-04-23T16:40:17.775Z</time></trkpt><trkpt lat="45.4136347" lon="9.1947365"><ele>106.99999999999999</ele><time>2026-04-23T16:40:19.782Z</time></trkpt><trkpt lat="45.4137212" lon="9.1947362"><ele>106.99999999999999</ele><time>2026-04-23T16:40:21.784Z</time></trkpt><trkpt lat="45.4138129" lon="9.1947268"><ele>107.0</ele><time>2026-04-23T16:40:23.791Z</time></trkpt><trkpt lat="45.4139034" lon="9.1947206"><ele>107.0</ele><time>2026-04-23T16:40:25.787Z</time></trkpt><trkpt lat="45.4139969" lon="9.1947226"><ele>107.19999999999999</ele><time>2026-04-23T16:40:27.782Z</time></trkpt><trkpt lat="45.4140965" lon="9.1947191"><ele>107.39999999999999</ele><time>2026-04-23T16:40:29.779Z</time></trkpt><trkpt lat="45.4141895" lon="9.1947205"><ele>107.60000000000001</ele><time>2026-04-23T16:40:31.789Z</time></trkpt><trkpt lat="45.4142832" lon="9.1947224"><ele>107.80000000000001</ele><time>2026-04-23T16:40:33.78Z</time></trkpt><trkpt lat="45.4143717" lon="9.1947277"><ele>108.0</ele><time>2026-04-23T16:40:35.781Z</time></trkpt><trkpt lat="45.4144668" lon="9.1947253"><ele>108.0</ele><time>2026-04-23T16:40:37.782Z</time></trkpt><trkpt lat="45.4145585" lon="9.1947208"><ele>108.00000000000001</ele><time>2026-04-23T16:40:39.784Z</time></trkpt><trkpt lat="45.4146474" lon="9.1947172"><ele>108.00000000000001</ele><time>2026-04-23T16:40:41.783Z</time></trkpt><trkpt lat="45.4147446" lon="9.1947164"><ele>108.0</ele><time>2026-04-23T16:40:43.791Z</time></trkpt><trkpt lat="45.4148327" lon="9.1947161"><ele>108.0</ele><time>2026-04-23T16:40:45.782Z</time></trkpt><trkpt lat="45.4149203" lon="9.1947144"><ele>107.4</ele><time>2026-04-23T16:40:47.785Z</time></trkpt><trkpt lat="45.4150067" lon="9.1947038"><ele>106.80000000000001</ele><time>2026-04-23T16:40:49.776Z</time></trkpt><trkpt lat="45.4150989" lon="9.1947122"><ele>106.2</ele><time>2026-04-23T16:40:51.784Z</time></trkpt><trkpt lat="45.4151979" lon="9.19471"><ele>105.6</ele><time>2026-04-23T16:40:53.794Z</time></trkpt><trkpt lat="45.4152897" lon="9.1947091"><ele>105.0</ele><time>2026-04-23T16:40:55.784Z</time></trkpt><trkpt lat="45.4153836" lon="9.1947034"><ele>105.0</ele><time>2026-04-23T16:40:57.787Z</time></trkpt><trkpt lat="45.4154772" lon="9.1947042"><ele>105.0</ele><time>2026-04-23T16:40:59.782Z</time></trkpt><trkpt lat="45.4155685" lon="9.1946993"><ele>105.0</ele><time>2026-04-23T16:41:01.782Z</time></trkpt><trkpt lat="45.4156611" lon="9.1946918"><ele>105.0</ele><time>2026-04-23T16:41:03.777Z</time></trkpt><trkpt lat="45.4157542" lon="9.1946846"><ele>105.0</ele><time>2026-04-23T16:41:05.782Z</time></trkpt><trkpt lat="45.4158475" lon="9.1946817"><ele>104.83333333333333</ele><time>2026-04-23T16:41:07.782Z</time></trkpt><trkpt lat="45.4159398" lon="9.1946812"><ele>104.66666666666666</ele><time>2026-04-23T16:41:09.804Z</time></trkpt><trkpt lat="45.4160268" lon="9.1946876"><ele>104.5</ele><time>2026-04-23T16:41:11.781Z</time></trkpt><trkpt lat="45.4161156" lon="9.1946837"><ele>104.33333333333333</ele><time>2026-04-23T16:41:13.78Z</time></trkpt><trkpt lat="45.4162075" lon="9.1946843"><ele>104.16666666666666</ele><time>2026-04-23T16:41:15.781Z</time></trkpt><trkpt lat="45.4162958" lon="9.1946806"><ele>104.0</ele><time>2026-04-23T16:41:17.793Z</time></trkpt><trkpt lat="45.4163838" lon="9.1946819"><ele>103.83333333333333</ele><time>2026-04-23T16:41:19.785Z</time></trkpt><trkpt lat="45.4164751" lon="9.1946779"><ele>103.66666666666666</ele><time>2026-04-23T16:41:21.782Z</time></trkpt><trkpt lat="45.4165614" lon="9.1946852"><ele>103.5</ele><time>2026-04-23T16:41:23.783Z</time></trkpt><trkpt lat="45.4166483" lon="9.1946822"><ele>103.33333333333334</ele><time>2026-04-23T16:41:25.781Z</time></trkpt><trkpt lat="45.4167313" lon="9.1946679"><ele>103.16666666666667</ele><time>2026-04-23T16:41:27.783Z</time></trkpt><trkpt lat="45.4168177" lon="9.1946604"><ele>103.0</ele><time>2026-04-23T16:41:29.789Z</time></trkpt><trkpt lat="45.4169154" lon="9.1946594"><ele>103.00000000000001</ele><time>2026-04-23T16:41:31.779Z</time></trkpt><trkpt lat="45.4170071" lon="9.1946581"><ele>103.0</ele><time>2026-04-23T16:41:33.778Z</time></trkpt><trkpt lat="45.4170983" lon="9.194653"><ele>103.0</ele><time>2026-04-23T16:41:35.784Z</time></trkpt><trkpt lat="45.4171872" lon="9.1946541"><ele>103.0</ele><time>2026-04-23T16:41:37.782Z</time></trkpt><trkpt lat="45.4172775" lon="9.1946454"><ele>103.00000000000001</ele><time>2026-04-23T16:41:39.787Z</time></trkpt><trkpt lat="45.4173604" lon="9.1946467"><ele>103.0</ele><time>2026-04-23T16:41:41.78Z</time></trkpt><trkpt lat="45.4174507" lon="9.1946442"><ele>103.2</ele><time>2026-04-23T16:41:43.783Z</time></trkpt><trkpt lat="45.4175398" lon="9.1946198"><ele>103.4</ele><time>2026-04-23T16:41:45.781Z</time></trkpt><trkpt lat="45.417633" lon="9.194607"><ele>103.60000000000001</ele><time>2026-04-23T16:41:47.784Z</time></trkpt><trkpt lat="45.4177206" lon="9.1946099"><ele>103.80000000000001</ele><time>2026-04-23T16:41:49.777Z</time></trkpt><trkpt lat="45.4178131" lon="9.1946119"><ele>104.0</ele><time>2026-04-23T16:41:51.776Z</time></trkpt><trkpt lat="45.4179011" lon="9.1946062"><ele>104.49999999999999</ele><time>2026-04-23T16:41:53.779Z</time></trkpt><trkpt lat="45.4179851" lon="9.1945921"><ele>105.0</ele><time>2026-04-23T16:41:55.779Z</time></trkpt><trkpt lat="45.4180681" lon="9.1945677"><ele>105.5</ele><time>2026-04-23T16:41:57.782Z</time></trkpt><trkpt lat="45.4181439" lon="9.1945369"><ele>106.0</ele><time>2026-04-23T16:41:59.789Z</time></trkpt><trkpt lat="45.4182203" lon="9.1945005"><ele>106.49999999999999</ele><time>2026-04-23T16:42:01.786Z</time></trkpt><trkpt lat="45.4183038" lon="9.1944658"><ele>107.0</ele><time>2026-04-23T16:42:03.781Z</time></trkpt><trkpt lat="45.4183815" lon="9.1944042"><ele>106.99999999999999</ele><time>2026-04-23T16:42:05.783Z</time></trkpt><trkpt lat="45.4184671" lon="9.194377"><ele>107.0</ele><time>2026-04-23T16:42:07.781Z</time></trkpt><trkpt lat="45.4185357" lon="9.194435"><ele>107.0</ele><time>2026-04-23T16:42:09.779Z</time></trkpt><trkpt lat="45.4185732" lon="9.1945524"><ele>107.0</ele><time>2026-04-23T16:42:11.785Z</time></trkpt><trkpt lat="45.4186117" lon="9.1946687"><ele>106.99999999999999</ele><time>2026-04-23T16:42:13.778Z</time></trkpt><trkpt lat="45.4186558" lon="9.1947905"><ele>107.0</ele><time>2026-04-23T16:42:15.779Z</time></trkpt><trkpt lat="45.4186951" lon="9.194912"><ele>107.16666666666666</ele><time>2026-04-23T16:42:17.786Z</time></trkpt><trkpt lat="45.4187385" lon="9.1950259"><ele>107.33333333333333</ele><time>2026-04-23T16:42:19.789Z</time></trkpt><trkpt lat="45.4187762" lon="9.195136"><ele>107.5</ele><time>2026-04-23T16:42:21.793Z</time></trkpt><trkpt lat="45.4188064" lon="9.1952414"><ele>107.66666666666666</ele><time>2026-04-23T16:42:23.775Z</time></trkpt><trkpt lat="45.4188488" lon="9.1953567"><ele>107.83333333333333</ele><time>2026-04-23T16:42:25.784Z</time></trkpt><trkpt lat="45.4188988" lon="9.1954728"><ele>108.0</ele><time>2026-04-23T16:42:27.786Z</time></trkpt><trkpt lat="45.4189383" lon="9.1955948"><ele>107.33333333333333</ele><time>2026-04-23T16:42:29.784Z</time></trkpt><trkpt lat="45.4189748" lon="9.1956959"><ele>106.66666666666666</ele><time>2026-04-23T16:42:31.781Z</time></trkpt><trkpt lat="45.4190075" lon="9.1957924"><ele>106.0</ele><time>2026-04-23T16:42:33.78Z</time></trkpt><trkpt lat="45.4190521" lon="9.1958992"><ele>105.33333333333333</ele><time>2026-04-23T16:42:35.783Z</time></trkpt><trkpt lat="45.4190885" lon="9.1960212"><ele>104.66666666666666</ele><time>2026-04-23T16:42:37.79Z</time></trkpt><trkpt lat="45.4191026" lon="9.1961341"><ele>104.0</ele><time>2026-04-23T16:42:39.787Z</time></trkpt><trkpt lat="45.4190954" lon="9.1962702"><ele>103.99999999999999</ele><time>2026-04-23T16:42:41.784Z</time></trkpt><trkpt lat="45.4190602" lon="9.1963736"><ele>104.0</ele><time>2026-04-23T16:42:43.782Z</time></trkpt><trkpt lat="45.419004" lon="9.1964638"><ele>104.0</ele><time>2026-04-23T16:42:45.791Z</time></trkpt><trkpt lat="45.4189443" lon="9.1965536"><ele>104.0</ele><time>2026-04-23T16:42:47.785Z</time></trkpt><trkpt lat="45.4188879" lon="9.1966493"><ele>103.99999999999999</ele><time>2026-04-23T16:42:49.78Z</time></trkpt><trkpt lat="45.4188285" lon="9.1967347"><ele>104.0</ele><time>2026-04-23T16:42:51.783Z</time></trkpt><trkpt lat="45.4187669" lon="9.1968242"><ele>104.16666666666666</ele><time>2026-04-23T16:42:53.784Z</time></trkpt><trkpt lat="45.4187215" lon="9.1969221"><ele>104.33333333333333</ele><time>2026-04-23T16:42:55.784Z</time></trkpt><trkpt lat="45.4186824" lon="9.1970256"><ele>104.5</ele><time>2026-04-23T16:42:57.778Z</time></trkpt><trkpt lat="45.418659" lon="9.1971345"><ele>104.66666666666666</ele><time>2026-04-23T16:42:59.78Z</time></trkpt><trkpt lat="45.418637" lon="9.1972374"><ele>104.83333333333333</ele><time>2026-04-23T16:43:01.783Z</time></trkpt><trkpt lat="45.4186248" lon="9.197351"><ele>105.0</ele><time>2026-04-23T16:43:03.784Z</time></trkpt><trkpt lat="45.4186063" lon="9.1974598"><ele>105.33333333333333</ele><time>2026-04-23T16:43:05.781Z</time></trkpt><trkpt lat="45.4186062" lon="9.1975781"><ele>105.66666666666666</ele><time>2026-04-23T16:43:07.781Z</time></trkpt><trkpt lat="45.418578" lon="9.1976761"><ele>106.0</ele><time>2026-04-23T16:43:09.792Z</time></trkpt><trkpt lat="45.4185572" lon="9.1977812"><ele>106.33333333333333</ele><time>2026-04-23T16:43:11.78Z</time></trkpt><trkpt lat="45.4185391" lon="9.1978882"><ele>106.66666666666666</ele><time>2026-04-23T16:43:13.78Z</time></trkpt><trkpt lat="45.4185215" lon="9.1980036"><ele>107.0</ele><time>2026-04-23T16:43:15.782Z</time></trkpt><trkpt lat="45.4185055" lon="9.1981139"><ele>106.6</ele><time>2026-04-23T16:43:17.782Z</time></trkpt><trkpt lat="45.4184899" lon="9.198236"><ele>106.19999999999999</ele><time>2026-04-23T16:43:19.788Z</time></trkpt><trkpt lat="45.4184707" lon="9.1983606"><ele>105.8</ele><time>2026-04-23T16:43:21.796Z</time></trkpt><trkpt lat="45.4184586" lon="9.1984828"><ele>105.4</ele><time>2026-04-23T16:43:23.784Z</time></trkpt><trkpt lat="45.4184386" lon="9.1986168"><ele>105.0</ele><time>2026-04-23T16:43:25.781Z</time></trkpt><trkpt lat="45.4184207" lon="9.1987465"><ele>105.0</ele><time>2026-04-23T16:43:27.782Z</time></trkpt><trkpt lat="45.4184059" lon="9.1988745"><ele>105.0</ele><time>2026-04-23T16:43:29.78Z</time></trkpt><trkpt lat="45.4183881" lon="9.1990014"><ele>105.0</ele><time>2026-04-23T16:43:31.782Z</time></trkpt><trkpt lat="45.4183747" lon="9.1991307"><ele>105.0</ele><time>2026-04-23T16:43:33.779Z</time></trkpt><trkpt lat="45.4183551" lon="9.1992549"><ele>105.0</ele><time>2026-04-23T16:43:35.782Z</time></trkpt><trkpt lat="45.4183307" lon="9.1993802"><ele>104.66666666666667</ele><time>2026-04-23T16:43:37.778Z</time></trkpt><trkpt lat="45.4183131" lon="9.1995073"><ele>104.33333333333334</ele><time>2026-04-23T16:43:39.783Z</time></trkpt><trkpt lat="45.4183016" lon="9.1996231"><ele>104.0</ele><time>2026-04-23T16:43:41.784Z</time></trkpt><trkpt lat="45.4182904" lon="9.1997443"><ele>103.66666666666667</ele><time>2026-04-23T16:43:43.783Z</time></trkpt><trkpt lat="45.418269" lon="9.1998715"><ele>103.33333333333334</ele><time>2026-04-23T16:43:45.783Z</time></trkpt><trkpt lat="45.4182472" lon="9.1999916"><ele>103.0</ele><time>2026-04-23T16:43:47.783Z</time></trkpt><trkpt lat="45.418225" lon="9.2001123"><ele>103.00000000000001</ele><time>2026-04-23T16:43:49.776Z</time></trkpt><trkpt lat="45.4182474" lon="9.2002256"><ele>103.0</ele><time>2026-04-23T16:43:51.777Z</time></trkpt><trkpt lat="45.4182921" lon="9.2003254"><ele>103.0</ele><time>2026-04-23T16:43:53.775Z</time></trkpt><trkpt lat="45.4183531" lon="9.200414"><ele>103.0</ele><time>2026-04-23T16:43:55.782Z</time></trkpt><trkpt lat="45.4184109" lon="9.2005138"><ele>103.00000000000001</ele><time>2026-04-23T16:43:57.782Z</time></trkpt><trkpt lat="45.4184799" lon="9.2006181"><ele>103.0</ele><time>2026-04-23T16:43:59.776Z</time></trkpt><trkpt lat="45.4185466" lon="9.2007186"><ele>103.2</ele><time>2026-04-23T16:44:01.784Z</time></trkpt><trkpt lat="45.4186133" lon="9.2008218"><ele>103.4</ele><time>2026-04-23T16:44:03.779Z</time></trkpt><trkpt lat="45.418681" lon="9.2009143"><ele>103.60000000000001</ele><time>2026-04-23T16:44:05.781Z</time></trkpt><trkpt lat="45.4187497" lon="9.201001"><ele>103.80000000000001</ele><time>2026-04-23T16:44:07.779Z</time></trkpt><trkpt lat="45.4188145" lon="9.2010951"><ele>104.0</ele><time>2026-04-23T16:44:09.785Z</time></trkpt><trkpt lat="45.4188789" lon="9.2011811"><ele>104.16666666666666</ele><time>2026-04-23T16:44:11.789Z</time></trkpt><trkpt lat="45.4189415" lon="9.2012743"><ele>104.33333333333333</ele><time>2026-04-23T16:44:13.779Z</time></trkpt><trkpt lat="45.419003" lon="9.2013648"><ele>104.5</ele><time>2026-04-23T16:44:15.782Z</time></trkpt><trkpt lat="45.4190633" lon="9.2014581"><ele>104.66666666666666</ele><time>2026-04-23T16:44:17.781Z</time></trkpt><trkpt lat="45.419127" lon="9.2015491"><ele>104.83333333333333</ele><time>2026-04-23T16:44:19.781Z</time></trkpt><trkpt lat="45.4191901" lon="9.201636"><ele>105.0</ele><time>2026-04-23T16:44:21.78Z</time></trkpt><trkpt lat="45.419247" lon="9.20173"><ele>105.16666666666667</ele><time>2026-04-23T16:44:23.783Z</time></trkpt><trkpt lat="45.4193146" lon="9.2018195"><ele>105.33333333333334</ele><time>2026-04-23T16:44:25.782Z</time></trkpt><trkpt lat="45.4193734" lon="9.2019089"><ele>105.5</ele><time>2026-04-23T16:44:27.784Z</time></trkpt><trkpt lat="45.419435" lon="9.2019946"><ele>105.66666666666667</ele><time>2026-04-23T16:44:29.781Z</time></trkpt><trkpt lat="45.419492" lon="9.2020854"><ele>105.83333333333334</ele><time>2026-04-23T16:44:31.783Z</time></trkpt><trkpt lat="45.4195536" lon="9.2021722"><ele>106.0</ele><time>2026-04-23T16:44:33.786Z</time></trkpt><trkpt lat="45.4196119" lon="9.2022778"><ele>106.00000000000001</ele><time>2026-04-23T16:44:35.779Z</time></trkpt><trkpt lat="45.4196448" lon="9.2024009"><ele>106.0</ele><time>2026-04-23T16:44:37.787Z</time></trkpt><trkpt lat="45.4196701" lon="9.2025169"><ele>106.0</ele><time>2026-04-23T16:44:39.781Z</time></trkpt><trkpt lat="45.4197072" lon="9.2026243"><ele>106.0</ele><time>2026-04-23T16:44:41.781Z</time></trkpt><trkpt lat="45.4197579" lon="9.2027278"><ele>106.00000000000001</ele><time>2026-04-23T16:44:43.781Z</time></trkpt><trkpt lat="45.4198039" lon="9.2028424"><ele>106.0</ele><time>2026-04-23T16:44:45.783Z</time></trkpt><trkpt lat="45.419851" lon="9.2029341"><ele>106.0</ele><time>2026-04-23T16:44:47.775Z</time></trkpt><trkpt lat="45.4198963" lon="9.2030299"><ele>106.0</ele><time>2026-04-23T16:44:49.78Z</time></trkpt><trkpt lat="45.4199335" lon="9.2031138"><ele>106.0</ele><time>2026-04-23T16:44:51.777Z</time></trkpt><trkpt lat="45.4199777" lon="9.203188"><ele>106.0</ele><time>2026-04-23T16:44:53.785Z</time></trkpt><trkpt lat="45.4200159" lon="9.2032631"><ele>106.0</ele><time>2026-04-23T16:44:55.778Z</time></trkpt><trkpt lat="45.4200563" lon="9.2033549"><ele>106.0</ele><time>2026-04-23T16:44:58.782Z</time></trkpt><trkpt lat="45.4201033" lon="9.2034443"><ele>106.0</ele><time>2026-04-23T16:45:02.784Z</time></trkpt><trkpt lat="45.4201475" lon="9.2035369"><ele>106.00000000000001</ele><time>2026-04-23T16:45:05.785Z</time></trkpt><trkpt lat="45.4202197" lon="9.203608"><ele>106.0</ele><time>2026-04-23T16:45:11.787Z</time></trkpt><trkpt lat="45.4202491" lon="9.203694"><ele>106.0</ele><time>2026-04-23T16:45:13.784Z</time></trkpt><trkpt lat="45.4203163" lon="9.2037787"><ele>106.0</ele><time>2026-04-23T16:45:15.789Z</time></trkpt><trkpt lat="45.4203793" lon="9.2038505"><ele>106.00000000000001</ele><time>2026-04-23T16:45:17.777Z</time></trkpt><trkpt lat="45.4204602" lon="9.2039166"><ele>106.0</ele><time>2026-04-23T16:45:19.778Z</time></trkpt><trkpt lat="45.4205405" lon="9.203998"><ele>106.4</ele><time>2026-04-23T16:45:21.779Z</time></trkpt><trkpt lat="45.4206076" lon="9.2040758"><ele>106.8</ele><time>2026-04-23T16:45:23.779Z</time></trkpt><trkpt lat="45.4206705" lon="9.2041595"><ele>107.20000000000002</ele><time>2026-04-23T16:45:25.783Z</time></trkpt><trkpt lat="45.4207485" lon="9.2042431"><ele>107.60000000000001</ele><time>2026-04-23T16:45:27.787Z</time></trkpt><trkpt lat="45.4208277" lon="9.2043255"><ele>108.0</ele><time>2026-04-23T16:45:29.782Z</time></trkpt><trkpt lat="45.4209031" lon="9.204406"><ele>108.0</ele><time>2026-04-23T16:45:31.785Z</time></trkpt><trkpt lat="45.4209895" lon="9.2044695"><ele>108.0</ele><time>2026-04-23T16:45:33.784Z</time></trkpt><trkpt lat="45.421085" lon="9.2045137"><ele>108.0</ele><time>2026-04-23T16:45:35.785Z</time></trkpt><trkpt lat="45.4211732" lon="9.2045347"><ele>108.0</ele><time>2026-04-23T16:45:37.781Z</time></trkpt><trkpt lat="45.4212538" lon="9.2045556"><ele>108.0</ele><time>2026-04-23T16:45:39.784Z</time></trkpt><trkpt lat="45.4213196" lon="9.2045396"><ele>108.0</ele><time>2026-04-23T16:45:41.784Z</time></trkpt><trkpt lat="45.421397" lon="9.2045296"><ele>108.0</ele><time>2026-04-23T16:45:43.777Z</time></trkpt><trkpt lat="45.4214713" lon="9.2044936"><ele>108.0</ele><time>2026-04-23T16:45:45.78Z</time></trkpt><trkpt lat="45.4215431" lon="9.2044709"><ele>108.0</ele><time>2026-04-23T16:45:48.788Z</time></trkpt><trkpt lat="45.421473" lon="9.2044973"><ele>108.0</ele><time>2026-04-23T16:45:59.785Z</time></trkpt><trkpt lat="45.4213883" lon="9.2045394"><ele>108.0</ele><time>2026-04-23T16:46:02.784Z</time></trkpt><trkpt lat="45.4213088" lon="9.204551"><ele>108.0</ele><time>2026-04-23T16:46:04.78Z</time></trkpt><trkpt lat="45.4212398" lon="9.2045602"><ele>108.0</ele><time>2026-04-23T16:46:06.788Z</time></trkpt><trkpt lat="45.4211901" lon="9.2046425"><ele>108.0</ele><time>2026-04-23T16:46:09.774Z</time></trkpt><trkpt lat="45.4212089" lon="9.2047482"><ele>108.0</ele><time>2026-04-23T16:46:11.776Z</time></trkpt><trkpt lat="45.4212374" lon="9.2048547"><ele>108.0</ele><time>2026-04-23T16:46:13.776Z</time></trkpt><trkpt lat="45.421252" lon="9.2049853"><ele>108.0</ele><time>2026-04-23T16:46:15.785Z</time></trkpt><trkpt lat="45.421252" lon="9.2050885"><ele>108.0</ele><time>2026-04-23T16:46:17.794Z</time></trkpt><trkpt lat="45.4212289" lon="9.2051807"><ele>108.0</ele><time>2026-04-23T16:46:19.782Z</time></trkpt><trkpt lat="45.4212135" lon="9.2052744"><ele>108.0</ele><time>2026-04-23T16:46:21.776Z</time></trkpt><trkpt lat="45.4212212" lon="9.205403"><ele>108.0</ele><time>2026-04-23T16:46:24.787Z</time></trkpt><trkpt lat="45.4212603" lon="9.2054845"><ele>108.0</ele><time>2026-04-23T16:46:26.786Z</time></trkpt><trkpt lat="45.4213381" lon="9.2055129"><ele>108.0</ele><time>2026-04-23T16:46:28.781Z</time></trkpt><trkpt lat="45.4214231" lon="9.2055286"><ele>108.0</ele><time>2026-04-23T16:46:30.778Z</time></trkpt><trkpt lat="45.4215094" lon="9.2055188"><ele>107.83333333333333</ele><time>2026-04-23T16:46:32.78Z</time></trkpt><trkpt lat="45.4215888" lon="9.2055086"><ele>107.66666666666666</ele><time>2026-04-23T16:46:34.779Z</time></trkpt><trkpt lat="45.4216772" lon="9.2054881"><ele>107.5</ele><time>2026-04-23T16:46:36.784Z</time></trkpt><trkpt lat="45.4217631" lon="9.2054472"><ele>107.33333333333333</ele><time>2026-04-23T16:46:38.781Z</time></trkpt><trkpt lat="45.4218406" lon="9.2053997"><ele>107.16666666666666</ele><time>2026-04-23T16:46:40.792Z</time></trkpt><trkpt lat="45.421915" lon="9.2053595"><ele>107.0</ele><time>2026-04-23T16:46:42.774Z</time></trkpt><trkpt lat="45.4219972" lon="9.2053136"><ele>106.99999999999999</ele><time>2026-04-23T16:46:44.778Z</time></trkpt><trkpt lat="45.4220782" lon="9.2053252"><ele>107.0</ele><time>2026-04-23T16:46:46.784Z</time></trkpt><trkpt lat="45.4221665" lon="9.2053247"><ele>107.0</ele><time>2026-04-23T16:46:48.79Z</time></trkpt><trkpt lat="45.4222474" lon="9.2053501"><ele>107.0</ele><time>2026-04-23T16:46:50.78Z</time></trkpt><trkpt lat="45.422334" lon="9.2053969"><ele>106.99999999999999</ele><time>2026-04-23T16:46:52.779Z</time></trkpt><trkpt lat="45.4224149" lon="9.2054687"><ele>107.0</ele><time>2026-04-23T16:46:54.782Z</time></trkpt><trkpt lat="45.4224786" lon="9.2055548"><ele>107.0</ele><time>2026-04-23T16:46:56.781Z</time></trkpt><trkpt lat="45.4225485" lon="9.205636"><ele>106.99999999999999</ele><time>2026-04-23T16:46:58.785Z</time></trkpt><trkpt lat="45.4226166" lon="9.205721"><ele>106.99999999999999</ele><time>2026-04-23T16:47:00.785Z</time></trkpt><trkpt lat="45.4226837" lon="9.2058071"><ele>107.0</ele><time>2026-04-23T16:47:02.795Z</time></trkpt><trkpt lat="45.4227876" lon="9.2059435"><ele>107.0</ele><time>2026-04-23T16:47:05.788Z</time></trkpt><trkpt lat="45.4228573" lon="9.2060313"><ele>106.99999999999999</ele><time>2026-04-23T16:47:07.784Z</time></trkpt><trkpt lat="45.4229235" lon="9.2061188"><ele>107.0</ele><time>2026-04-23T16:47:09.779Z</time></trkpt><trkpt lat="45.4229895" lon="9.2062072"><ele>107.0</ele><time>2026-04-23T16:47:11.786Z</time></trkpt><trkpt lat="45.4230551" lon="9.2062986"><ele>107.0</ele><time>2026-04-23T16:47:13.789Z</time></trkpt><trkpt lat="45.4231254" lon="9.2063842"><ele>106.99999999999999</ele><time>2026-04-23T16:47:15.782Z</time></trkpt><trkpt lat="45.4231841" lon="9.2064607"><ele>107.0</ele><time>2026-04-23T16:47:17.777Z</time></trkpt><trkpt lat="45.4232437" lon="9.2065458"><ele>107.33333333333333</ele><time>2026-04-23T16:47:19.781Z</time></trkpt><trkpt lat="45.4232909" lon="9.2066479"><ele>107.66666666666666</ele><time>2026-04-23T16:47:21.779Z</time></trkpt><trkpt lat="45.423331" lon="9.2067606"><ele>108.0</ele><time>2026-04-23T16:47:23.78Z</time></trkpt><trkpt lat="45.4233676" lon="9.2068654"><ele>108.33333333333334</ele><time>2026-04-23T16:47:25.776Z</time></trkpt><trkpt lat="45.4234068" lon="9.2069517"><ele>108.66666666666667</ele><time>2026-04-23T16:47:27.779Z</time></trkpt><trkpt lat="45.4234731" lon="9.2070181"><ele>109.0</ele><time>2026-04-23T16:47:29.779Z</time></trkpt><trkpt lat="45.4235471" lon="9.2070735"><ele>109.00000000000001</ele><time>2026-04-23T16:47:31.782Z</time></trkpt><trkpt lat="45.4236206" lon="9.2071278"><ele>109.0</ele><time>2026-04-23T16:47:33.795Z</time></trkpt><trkpt lat="45.4237019" lon="9.2071826"><ele>109.0</ele><time>2026-04-23T16:47:35.78Z</time></trkpt><trkpt lat="45.4237824" lon="9.2072296"><ele>109.0</ele><time>2026-04-23T16:47:37.783Z</time></trkpt><trkpt lat="45.423863" lon="9.2072803"><ele>109.00000000000001</ele><time>2026-04-23T16:47:39.787Z</time></trkpt><trkpt lat="45.4239449" lon="9.207323"><ele>109.0</ele><time>2026-04-23T16:47:41.782Z</time></trkpt><trkpt lat="45.424023" lon="9.2073752"><ele>109.00000000000001</ele><time>2026-04-23T16:47:43.783Z</time></trkpt><trkpt lat="45.4240979" lon="9.2074293"><ele>109.0</ele><time>2026-04-23T16:47:45.795Z</time></trkpt><trkpt lat="45.4241606" lon="9.2074766"><ele>109.0</ele><time>2026-04-23T16:47:47.774Z</time></trkpt><trkpt lat="45.424222" lon="9.2075593"><ele>109.0</ele><time>2026-04-23T16:47:49.779Z</time></trkpt><trkpt lat="45.4242704" lon="9.2076516"><ele>109.00000000000001</ele><time>2026-04-23T16:47:51.78Z</time></trkpt><trkpt lat="45.4243076" lon="9.207778"><ele>109.0</ele><time>2026-04-23T16:47:53.774Z</time></trkpt><trkpt lat="45.4243367" lon="9.2078933"><ele>109.00000000000001</ele><time>2026-04-23T16:47:55.785Z</time></trkpt><trkpt lat="45.4243592" lon="9.2080195"><ele>109.0</ele><time>2026-04-23T16:47:57.779Z</time></trkpt><trkpt lat="45.4243828" lon="9.2081316"><ele>109.0</ele><time>2026-04-23T16:47:59.783Z</time></trkpt><trkpt lat="45.4243965" lon="9.20825"><ele>109.0</ele><time>2026-04-23T16:48:01.789Z</time></trkpt><trkpt lat="45.4244212" lon="9.2083587"><ele>109.00000000000001</ele><time>2026-04-23T16:48:03.783Z</time></trkpt><trkpt lat="45.4244414" lon="9.2084808"><ele>109.0</ele><time>2026-04-23T16:48:05.784Z</time></trkpt><trkpt lat="45.4244602" lon="9.2086056"><ele>108.71428571428572</ele><time>2026-04-23T16:48:07.782Z</time></trkpt><trkpt lat="45.4244751" lon="9.2087187"><ele>108.42857142857143</ele><time>2026-04-23T16:48:09.782Z</time></trkpt><trkpt lat="45.4245027" lon="9.2088179"><ele>108.14285714285714</ele><time>2026-04-23T16:48:11.782Z</time></trkpt><trkpt lat="45.4245585" lon="9.2088931"><ele>107.85714285714286</ele><time>2026-04-23T16:48:13.787Z</time></trkpt><trkpt lat="45.4246228" lon="9.208895"><ele>107.57142857142857</ele><time>2026-04-23T16:48:17.778Z</time></trkpt><trkpt lat="45.4246825" lon="9.2088438"><ele>107.28571428571429</ele><time>2026-04-23T16:48:22.784Z</time></trkpt><trkpt lat="45.4247093" lon="9.2087449"><ele>107.0</ele><time>2026-04-23T16:48:26.783Z</time></trkpt><trkpt lat="45.4247773" lon="9.2086878"><ele>107.00000000000001</ele><time>2026-04-23T16:48:29.776Z</time></trkpt><trkpt lat="45.4248641" lon="9.2086611"><ele>107.0</ele><time>2026-04-23T16:48:32.785Z</time></trkpt><trkpt lat="45.4249276" lon="9.2086523"><ele>107.0</ele><time>2026-04-23T16:48:34.795Z</time></trkpt><trkpt lat="45.4250057" lon="9.2086267"><ele>107.0</ele><time>2026-04-23T16:48:37.779Z</time></trkpt><trkpt lat="45.4250715" lon="9.2086057"><ele>107.0</ele><time>2026-04-23T16:48:40.782Z</time></trkpt><trkpt lat="45.4249976" lon="9.2085845"><ele>107.00000000000001</ele><time>2026-04-23T16:48:45.788Z</time></trkpt><trkpt lat="45.4249297" lon="9.2086229"><ele>107.0</ele><time>2026-04-23T16:48:47.784Z</time></trkpt><trkpt lat="45.4248543" lon="9.2086423"><ele>106.99999999999999</ele><time>2026-04-23T16:48:49.784Z</time></trkpt><trkpt lat="45.4247841" lon="9.2086897"><ele>107.0</ele><time>2026-04-23T16:48:51.783Z</time></trkpt><trkpt lat="45.4247203" lon="9.2087857"><ele>107.0</ele><time>2026-04-23T16:48:53.785Z</time></trkpt><trkpt lat="45.4246897" lon="9.2089136"><ele>107.0</ele><time>2026-04-23T16:48:55.787Z</time></trkpt><trkpt lat="45.4247098" lon="9.2090375"><ele>106.99999999999999</ele><time>2026-04-23T16:48:57.791Z</time></trkpt><trkpt lat="45.4247178" lon="9.2091603"><ele>107.0</ele><time>2026-04-23T16:48:59.785Z</time></trkpt><trkpt lat="45.4247355" lon="9.2092759"><ele>107.39999999999999</ele><time>2026-04-23T16:49:01.783Z</time></trkpt><trkpt lat="45.4247606" lon="9.2094733"><ele>107.79999999999998</ele><time>2026-04-23T16:49:04.793Z</time></trkpt><trkpt lat="45.4247711" lon="9.2096147"><ele>108.2</ele><time>2026-04-23T16:49:06.781Z</time></trkpt><trkpt lat="45.4247836" lon="9.2097336"><ele>108.6</ele><time>2026-04-23T16:49:08.788Z</time></trkpt><trkpt lat="45.4248122" lon="9.2098538"><ele>109.0</ele><time>2026-04-23T16:49:10.788Z</time></trkpt><trkpt lat="45.4248326" lon="9.2099684"><ele>109.83333333333334</ele><time>2026-04-23T16:49:12.775Z</time></trkpt><trkpt lat="45.4248523" lon="9.2100812"><ele>110.66666666666667</ele><time>2026-04-23T16:49:14.781Z</time></trkpt><trkpt lat="45.4248693" lon="9.2101967"><ele>111.5</ele><time>2026-04-23T16:49:16.78Z</time></trkpt><trkpt lat="45.4248788" lon="9.2103108"><ele>112.33333333333334</ele><time>2026-04-23T16:49:18.783Z</time></trkpt><trkpt lat="45.424885" lon="9.2104214"><ele>113.16666666666667</ele><time>2026-04-23T16:49:20.784Z</time></trkpt><trkpt lat="45.4248906" lon="9.2105309"><ele>114.0</ele><time>2026-04-23T16:49:22.779Z</time></trkpt><trkpt lat="45.424902" lon="9.2106523"><ele>114.0</ele><time>2026-04-23T16:49:24.785Z</time></trkpt><trkpt lat="45.4249086" lon="9.2107821"><ele>114.0</ele><time>2026-04-23T16:49:26.786Z</time></trkpt><trkpt lat="45.424913" lon="9.2109059"><ele>114.0</ele><time>2026-04-23T16:49:28.778Z</time></trkpt><trkpt lat="45.4249404" lon="9.2110281"><ele>114.0</ele><time>2026-04-23T16:49:30.785Z</time></trkpt><trkpt lat="45.4249712" lon="9.2111893"><ele>114.0</ele><time>2026-04-23T16:49:32.783Z</time></trkpt><trkpt lat="45.4249805" lon="9.211333"><ele>114.0</ele><time>2026-04-23T16:49:34.783Z</time></trkpt><trkpt lat="45.4249783" lon="9.2114861"><ele>114.0</ele><time>2026-04-23T16:49:36.79Z</time></trkpt><trkpt lat="45.4249787" lon="9.2116348"><ele>114.0</ele><time>2026-04-23T16:49:38.787Z</time></trkpt><trkpt lat="45.4249899" lon="9.2117732"><ele>114.0</ele><time>2026-04-23T16:49:40.783Z</time></trkpt><trkpt lat="45.4249979" lon="9.2119033"><ele>114.0</ele><time>2026-04-23T16:49:42.786Z</time></trkpt><trkpt lat="45.4250126" lon="9.212044"><ele>113.5</ele><time>2026-04-23T16:49:44.792Z</time></trkpt><trkpt lat="45.4250464" lon="9.212166"><ele>113.0</ele><time>2026-04-23T16:49:46.783Z</time></trkpt><trkpt lat="45.4251062" lon="9.2122548"><ele>112.5</ele><time>2026-04-23T16:49:48.781Z</time></trkpt><trkpt lat="45.4251681" lon="9.2123342"><ele>112.0</ele><time>2026-04-23T16:49:50.786Z</time></trkpt><trkpt lat="45.4252346" lon="9.2124001"><ele>111.5</ele><time>2026-04-23T16:49:52.781Z</time></trkpt><trkpt lat="45.425296" lon="9.2124771"><ele>111.0</ele><time>2026-04-23T16:49:54.779Z</time></trkpt><trkpt lat="45.4253615" lon="9.2125763"><ele>110.4</ele><time>2026-04-23T16:49:56.782Z</time></trkpt><trkpt lat="45.4254328" lon="9.2126664"><ele>109.8</ele><time>2026-04-23T16:49:58.78Z</time></trkpt><trkpt lat="45.4255152" lon="9.2127497"><ele>109.20000000000002</ele><time>2026-04-23T16:50:00.79Z</time></trkpt><trkpt lat="45.4255907" lon="9.2128312"><ele>108.60000000000001</ele><time>2026-04-23T16:50:02.786Z</time></trkpt><trkpt lat="45.4256708" lon="9.2129151"><ele>108.0</ele><time>2026-04-23T16:50:04.786Z</time></trkpt><trkpt lat="45.4257451" lon="9.2130032"><ele>107.66666666666667</ele><time>2026-04-23T16:50:06.785Z</time></trkpt><trkpt lat="45.4258164" lon="9.213087"><ele>107.33333333333334</ele><time>2026-04-23T16:50:08.785Z</time></trkpt><trkpt lat="45.4258828" lon="9.2131721"><ele>107.0</ele><time>2026-04-23T16:50:10.783Z</time></trkpt><trkpt lat="45.4259511" lon="9.2132585"><ele>106.66666666666667</ele><time>2026-04-23T16:50:12.78Z</time></trkpt><trkpt lat="45.4260207" lon="9.2133351"><ele>106.33333333333334</ele><time>2026-04-23T16:50:14.779Z</time></trkpt><trkpt lat="45.4260815" lon="9.2134108"><ele>106.0</ele><time>2026-04-23T16:50:16.783Z</time></trkpt><trkpt lat="45.4261476" lon="9.2134906"><ele>105.83333333333334</ele><time>2026-04-23T16:50:18.781Z</time></trkpt><trkpt lat="45.4262101" lon="9.2135617"><ele>105.66666666666667</ele><time>2026-04-23T16:50:20.775Z</time></trkpt><trkpt lat="45.4262762" lon="9.213634"><ele>105.5</ele><time>2026-04-23T16:50:22.778Z</time></trkpt><trkpt lat="45.4263386" lon="9.2136996"><ele>105.33333333333334</ele><time>2026-04-23T16:50:24.783Z</time></trkpt><trkpt lat="45.4264114" lon="9.2137735"><ele>105.16666666666667</ele><time>2026-04-23T16:50:26.78Z</time></trkpt><trkpt lat="45.4264824" lon="9.2138406"><ele>105.0</ele><time>2026-04-23T16:50:28.78Z</time></trkpt><trkpt lat="45.4265517" lon="9.2139247"><ele>105.66666666666667</ele><time>2026-04-23T16:50:30.787Z</time></trkpt><trkpt lat="45.4266283" lon="9.2139988"><ele>106.33333333333334</ele><time>2026-04-23T16:50:32.781Z</time></trkpt><trkpt lat="45.4266964" lon="9.2140726"><ele>107.0</ele><time>2026-04-23T16:50:34.781Z</time></trkpt><trkpt lat="45.4267688" lon="9.2141516"><ele>107.66666666666667</ele><time>2026-04-23T16:50:36.783Z</time></trkpt><trkpt lat="45.4268259" lon="9.2142265"><ele>108.33333333333334</ele><time>2026-04-23T16:50:38.779Z</time></trkpt><trkpt lat="45.4268831" lon="9.2143204"><ele>109.0</ele><time>2026-04-23T16:50:40.787Z</time></trkpt><trkpt lat="45.4269322" lon="9.2144189"><ele>109.00000000000001</ele><time>2026-04-23T16:50:42.786Z</time></trkpt><trkpt lat="45.4269817" lon="9.2145176"><ele>109.0</ele><time>2026-04-23T16:50:44.785Z</time></trkpt><trkpt lat="45.4270282" lon="9.2146199"><ele>109.0</ele><time>2026-04-23T16:50:46.78Z</time></trkpt><trkpt lat="45.4270767" lon="9.214734"><ele>109.0</ele><time>2026-04-23T16:50:48.789Z</time></trkpt><trkpt lat="45.4271283" lon="9.2148284"><ele>109.00000000000001</ele><time>2026-04-23T16:50:50.782Z</time></trkpt><trkpt lat="45.4271619" lon="9.2149364"><ele>109.0</ele><time>2026-04-23T16:50:52.785Z</time></trkpt><trkpt lat="45.4271379" lon="9.2150392"><ele>109.50000000000001</ele><time>2026-04-23T16:50:54.778Z</time></trkpt><trkpt lat="45.4270847" lon="9.2150933"><ele>110.0</ele><time>2026-04-23T16:50:56.778Z</time></trkpt><trkpt lat="45.4270257" lon="9.2151374"><ele>110.5</ele><time>2026-04-23T16:50:58.785Z</time></trkpt><trkpt lat="45.4269711" lon="9.2152192"><ele>111.0</ele><time>2026-04-23T16:51:00.78Z</time></trkpt><trkpt lat="45.4269157" lon="9.2153135"><ele>111.50000000000001</ele><time>2026-04-23T16:51:02.784Z</time></trkpt><trkpt lat="45.4268547" lon="9.2154027"><ele>112.0</ele><time>2026-04-23T16:51:04.793Z</time></trkpt><trkpt lat="45.4267912" lon="9.2154808"><ele>112.00000000000001</ele><time>2026-04-23T16:51:06.784Z</time></trkpt><trkpt lat="45.4267273" lon="9.2155663"><ele>112.0</ele><time>2026-04-23T16:51:08.782Z</time></trkpt><trkpt lat="45.426659" lon="9.2156372"><ele>112.0</ele><time>2026-04-23T16:51:10.782Z</time></trkpt><trkpt lat="45.4265841" lon="9.2156838"><ele>112.0</ele><time>2026-04-23T16:51:12.784Z</time></trkpt><trkpt lat="45.4265043" lon="9.2157249"><ele>112.00000000000001</ele><time>2026-04-23T16:51:14.783Z</time></trkpt><trkpt lat="45.4264351" lon="9.2157673"><ele>112.0</ele><time>2026-04-23T16:51:16.792Z</time></trkpt><trkpt lat="45.4263567" lon="9.2158025"><ele>110.6</ele><time>2026-04-23T16:51:18.778Z</time></trkpt><trkpt lat="45.4262791" lon="9.2158636"><ele>109.19999999999999</ele><time>2026-04-23T16:51:20.783Z</time></trkpt><trkpt lat="45.4262007" lon="9.2159326"><ele>107.8</ele><time>2026-04-23T16:51:22.778Z</time></trkpt><trkpt lat="45.4261232" lon="9.2160142"><ele>106.4</ele><time>2026-04-23T16:51:24.797Z</time></trkpt><trkpt lat="45.4260552" lon="9.2161141"><ele>105.0</ele><time>2026-04-23T16:51:26.787Z</time></trkpt><trkpt lat="45.4259831" lon="9.2162029"><ele>105.0</ele><time>2026-04-23T16:51:28.782Z</time></trkpt><trkpt lat="45.4259147" lon="9.2162904"><ele>105.0</ele><time>2026-04-23T16:51:30.786Z</time></trkpt><trkpt lat="45.4258417" lon="9.2163702"><ele>105.0</ele><time>2026-04-23T16:51:32.783Z</time></trkpt><trkpt lat="45.4257472" lon="9.216425"><ele>105.0</ele><time>2026-04-23T16:51:34.78Z</time></trkpt><trkpt lat="45.4256308" lon="9.2164096"><ele>105.0</ele><time>2026-04-23T16:51:36.782Z</time></trkpt><trkpt lat="45.425533" lon="9.2164002"><ele>105.0</ele><time>2026-04-23T16:51:38.787Z</time></trkpt><trkpt lat="45.4254331" lon="9.216435"><ele>105.0</ele><time>2026-04-23T16:51:40.78Z</time></trkpt><trkpt lat="45.4253487" lon="9.2164956"><ele>105.0</ele><time>2026-04-23T16:51:42.783Z</time></trkpt><trkpt lat="45.4252792" lon="9.2165817"><ele>105.0</ele><time>2026-04-23T16:51:44.787Z</time></trkpt><trkpt lat="45.4252133" lon="9.2166865"><ele>105.0</ele><time>2026-04-23T16:51:46.789Z</time></trkpt><trkpt lat="45.4251395" lon="9.2167866"><ele>105.0</ele><time>2026-04-23T16:51:48.779Z</time></trkpt><trkpt lat="45.4250655" lon="9.2168796"><ele>105.0</ele><time>2026-04-23T16:51:50.781Z</time></trkpt><trkpt lat="45.4249847" lon="9.2169406"><ele>105.0</ele><time>2026-04-23T16:51:52.787Z</time></trkpt><trkpt lat="45.4248909" lon="9.2169799"><ele>105.0</ele><time>2026-04-23T16:51:54.795Z</time></trkpt><trkpt lat="45.4247934" lon="9.217016"><ele>105.0</ele><time>2026-04-23T16:51:56.776Z</time></trkpt><trkpt lat="45.4246975" lon="9.2170445"><ele>105.0</ele><time>2026-04-23T16:51:58.784Z</time></trkpt><trkpt lat="45.4246081" lon="9.2170591"><ele>105.0</ele><time>2026-04-23T16:52:00.778Z</time></trkpt><trkpt lat="45.4245177" lon="9.217082"><ele>105.0</ele><time>2026-04-23T16:52:02.783Z</time></trkpt><trkpt lat="45.4244402" lon="9.2171021"><ele>105.0</ele><time>2026-04-23T16:52:04.789Z</time></trkpt><trkpt lat="45.4243416" lon="9.2171364"><ele>105.0</ele><time>2026-04-23T16:52:06.796Z</time></trkpt><trkpt lat="45.4242549" lon="9.2171421"><ele>105.0</ele><time>2026-04-23T16:52:08.782Z</time></trkpt><trkpt lat="45.4241735" lon="9.217155"><ele>105.0</ele><time>2026-04-23T16:52:10.778Z</time></trkpt><trkpt lat="45.4240772" lon="9.2171699"><ele>105.0</ele><time>2026-04-23T16:52:12.78Z</time></trkpt><trkpt lat="45.4239711" lon="9.2171991"><ele>105.0</ele><time>2026-04-23T16:52:14.786Z</time></trkpt><trkpt lat="45.4238729" lon="9.2172102"><ele>105.0</ele><time>2026-04-23T16:52:16.782Z</time></trkpt><trkpt lat="45.4237752" lon="9.2172186"><ele>105.0</ele><time>2026-04-23T16:52:18.783Z</time></trkpt><trkpt lat="45.4236821" lon="9.2172284"><ele>105.2</ele><time>2026-04-23T16:52:20.779Z</time></trkpt><trkpt lat="45.4235863" lon="9.2172633"><ele>105.4</ele><time>2026-04-23T16:52:22.785Z</time></trkpt><trkpt lat="45.4234986" lon="9.2173248"><ele>105.6</ele><time>2026-04-23T16:52:24.784Z</time></trkpt><trkpt lat="45.423413" lon="9.2173813"><ele>105.8</ele><time>2026-04-23T16:52:26.782Z</time></trkpt><trkpt lat="45.4233273" lon="9.2174439"><ele>106.0</ele><time>2026-04-23T16:52:28.775Z</time></trkpt><trkpt lat="45.4232471" lon="9.217504"><ele>106.0</ele><time>2026-04-23T16:52:30.785Z</time></trkpt><trkpt lat="45.4231668" lon="9.2175776"><ele>106.0</ele><time>2026-04-23T16:52:32.787Z</time></trkpt><trkpt lat="45.4230907" lon="9.2176648"><ele>106.0</ele><time>2026-04-23T16:52:34.793Z</time></trkpt><trkpt lat="45.423015" lon="9.2177555"><ele>106.0</ele><time>2026-04-23T16:52:36.779Z</time></trkpt><trkpt lat="45.4229497" lon="9.2178478"><ele>106.0</ele><time>2026-04-23T16:52:38.784Z</time></trkpt><trkpt lat="45.4228855" lon="9.2179465"><ele>106.0</ele><time>2026-04-23T16:52:40.784Z</time></trkpt><trkpt lat="45.422819" lon="9.2180408"><ele>106.0</ele><time>2026-04-23T16:52:42.78Z</time></trkpt><trkpt lat="45.4227552" lon="9.2181361"><ele>106.0</ele><time>2026-04-23T16:52:44.779Z</time></trkpt><trkpt lat="45.4226893" lon="9.2182226"><ele>106.0</ele><time>2026-04-23T16:52:46.789Z</time></trkpt><trkpt lat="45.4226248" lon="9.218319"><ele>106.0</ele><time>2026-04-23T16:52:48.782Z</time></trkpt><trkpt lat="45.4225645" lon="9.2184217"><ele>106.19999999999999</ele><time>2026-04-23T16:52:50.777Z</time></trkpt><trkpt lat="45.422495" lon="9.2185086"><ele>106.39999999999999</ele><time>2026-04-23T16:52:52.781Z</time></trkpt><trkpt lat="45.4224248" lon="9.2185904"><ele>106.6</ele><time>2026-04-23T16:52:54.784Z</time></trkpt><trkpt lat="45.4223436" lon="9.2186686"><ele>106.8</ele><time>2026-04-23T16:52:56.78Z</time></trkpt><trkpt lat="45.4222653" lon="9.2187433"><ele>107.0</ele><time>2026-04-23T16:52:58.779Z</time></trkpt><trkpt lat="45.4221821" lon="9.2188077"><ele>106.19999999999999</ele><time>2026-04-23T16:53:00.779Z</time></trkpt><trkpt lat="45.4221025" lon="9.2188664"><ele>105.39999999999999</ele><time>2026-04-23T16:53:02.773Z</time></trkpt><trkpt lat="45.4220151" lon="9.2189199"><ele>104.6</ele><time>2026-04-23T16:53:04.781Z</time></trkpt><trkpt lat="45.4219231" lon="9.2189604"><ele>103.80000000000001</ele><time>2026-04-23T16:53:06.783Z</time></trkpt><trkpt lat="45.4218316" lon="9.2189825"><ele>103.0</ele><time>2026-04-23T16:53:08.801Z</time></trkpt><trkpt lat="45.4217438" lon="9.2190226"><ele>103.0</ele><time>2026-04-23T16:53:10.781Z</time></trkpt><trkpt lat="45.4216573" lon="9.219063"><ele>103.0</ele><time>2026-04-23T16:53:12.782Z</time></trkpt><trkpt lat="45.4215683" lon="9.2191228"><ele>103.0</ele><time>2026-04-23T16:53:14.782Z</time></trkpt><trkpt lat="45.4214915" lon="9.2191879"><ele>103.0</ele><time>2026-04-23T16:53:16.779Z</time></trkpt><trkpt lat="45.4214183" lon="9.2192673"><ele>103.0</ele><time>2026-04-23T16:53:18.794Z</time></trkpt><trkpt lat="45.4213403" lon="9.2193122"><ele>103.0</ele><time>2026-04-23T16:53:20.784Z</time></trkpt><trkpt lat="45.4212616" lon="9.2193691"><ele>103.0</ele><time>2026-04-23T16:53:22.781Z</time></trkpt><trkpt lat="45.4211916" lon="9.219454"><ele>103.0</ele><time>2026-04-23T16:53:24.783Z</time></trkpt><trkpt lat="45.4211303" lon="9.2195476"><ele>103.0</ele><time>2026-04-23T16:53:26.802Z</time></trkpt><trkpt lat="45.4210744" lon="9.2196576"><ele>103.0</ele><time>2026-04-23T16:53:28.776Z</time></trkpt><trkpt lat="45.4210132" lon="9.2197705"><ele>103.2</ele><time>2026-04-23T16:53:30.781Z</time></trkpt><trkpt lat="45.4209532" lon="9.2198868"><ele>103.4</ele><time>2026-04-23T16:53:32.793Z</time></trkpt><trkpt lat="45.4209005" lon="9.2200022"><ele>103.60000000000001</ele><time>2026-04-23T16:53:34.782Z</time></trkpt><trkpt lat="45.4208405" lon="9.2201165"><ele>103.80000000000001</ele><time>2026-04-23T16:53:36.788Z</time></trkpt><trkpt lat="45.4207784" lon="9.2202282"><ele>104.0</ele><time>2026-04-23T16:53:38.78Z</time></trkpt><trkpt lat="45.4207201" lon="9.2203335"><ele>104.0</ele><time>2026-04-23T16:53:40.779Z</time></trkpt><trkpt lat="45.4206655" lon="9.2204553"><ele>104.0</ele><time>2026-04-23T16:53:42.795Z</time></trkpt><trkpt lat="45.4206054" lon="9.2205624"><ele>104.0</ele><time>2026-04-23T16:53:44.782Z</time></trkpt><trkpt lat="45.4205522" lon="9.2206686"><ele>104.0</ele><time>2026-04-23T16:53:46.788Z</time></trkpt><trkpt lat="45.4204925" lon="9.220777"><ele>104.0</ele><time>2026-04-23T16:53:48.78Z</time></trkpt><trkpt lat="45.4204339" lon="9.2208882"><ele>103.80000000000001</ele><time>2026-04-23T16:53:50.782Z</time></trkpt><trkpt lat="45.4203651" lon="9.2209909"><ele>103.60000000000001</ele><time>2026-04-23T16:53:52.781Z</time></trkpt><trkpt lat="45.420303" lon="9.2210878"><ele>103.4</ele><time>2026-04-23T16:53:54.78Z</time></trkpt><trkpt lat="45.4202277" lon="9.2211815"><ele>103.2</ele><time>2026-04-23T16:53:56.793Z</time></trkpt><trkpt lat="45.4201558" lon="9.2212651"><ele>103.0</ele><time>2026-04-23T16:53:58.784Z</time></trkpt><trkpt lat="45.4200861" lon="9.2213548"><ele>103.0</ele><time>2026-04-23T16:54:00.779Z</time></trkpt><trkpt lat="45.4200057" lon="9.2214444"><ele>103.0</ele><time>2026-04-23T16:54:02.781Z</time></trkpt><trkpt lat="45.4199289" lon="9.2215208"><ele>103.0</ele><time>2026-04-23T16:54:04.772Z</time></trkpt><trkpt lat="45.4198459" lon="9.2215911"><ele>103.0</ele><time>2026-04-23T16:54:06.798Z</time></trkpt><trkpt lat="45.4197736" lon="9.2216739"><ele>103.0</ele><time>2026-04-23T16:54:08.774Z</time></trkpt><trkpt lat="45.4196938" lon="9.2217408"><ele>103.0</ele><time>2026-04-23T16:54:10.782Z</time></trkpt><trkpt lat="45.4196145" lon="9.2218189"><ele>103.0</ele><time>2026-04-23T16:54:12.776Z</time></trkpt><trkpt lat="45.4195441" lon="9.2218927"><ele>103.0</ele><time>2026-04-23T16:54:14.778Z</time></trkpt><trkpt lat="45.4194661" lon="9.2219684"><ele>103.0</ele><time>2026-04-23T16:54:16.783Z</time></trkpt><trkpt lat="45.4193902" lon="9.2220456"><ele>103.0</ele><time>2026-04-23T16:54:18.777Z</time></trkpt><trkpt lat="45.4193115" lon="9.2221175"><ele>103.0</ele><time>2026-04-23T16:54:20.797Z</time></trkpt><trkpt lat="45.4192321" lon="9.2221995"><ele>103.0</ele><time>2026-04-23T16:54:22.784Z</time></trkpt><trkpt lat="45.4191578" lon="9.2222832"><ele>103.0</ele><time>2026-04-23T16:54:24.795Z</time></trkpt><trkpt lat="45.4190846" lon="9.2223595"><ele>103.0</ele><time>2026-04-23T16:54:26.791Z</time></trkpt><trkpt lat="45.4190099" lon="9.2224366"><ele>103.0</ele><time>2026-04-23T16:54:28.779Z</time></trkpt><trkpt lat="45.4189307" lon="9.2225219"><ele>103.2</ele><time>2026-04-23T16:54:30.776Z</time></trkpt><trkpt lat="45.4188543" lon="9.2225943"><ele>103.4</ele><time>2026-04-23T16:54:32.781Z</time></trkpt><trkpt lat="45.418766" lon="9.2226625"><ele>103.60000000000001</ele><time>2026-04-23T16:54:34.787Z</time></trkpt><trkpt lat="45.4186767" lon="9.2227148"><ele>103.80000000000001</ele><time>2026-04-23T16:54:36.779Z</time></trkpt><trkpt lat="45.4185881" lon="9.2227555"><ele>104.0</ele><time>2026-04-23T16:54:38.785Z</time></trkpt><trkpt lat="45.4185022" lon="9.2227978"><ele>104.2</ele><time>2026-04-23T16:54:40.775Z</time></trkpt><trkpt lat="45.4184182" lon="9.2228493"><ele>104.4</ele><time>2026-04-23T16:54:42.78Z</time></trkpt><trkpt lat="45.4183293" lon="9.2228992"><ele>104.6</ele><time>2026-04-23T16:54:44.779Z</time></trkpt><trkpt lat="45.4182367" lon="9.2229484"><ele>104.8</ele><time>2026-04-23T16:54:46.79Z</time></trkpt><trkpt lat="45.4181588" lon="9.2230062"><ele>105.0</ele><time>2026-04-23T16:54:48.779Z</time></trkpt><trkpt lat="45.4180801" lon="9.22306"><ele>105.0</ele><time>2026-04-23T16:54:50.778Z</time></trkpt><trkpt lat="45.4179942" lon="9.2231136"><ele>105.0</ele><time>2026-04-23T16:54:52.781Z</time></trkpt><trkpt lat="45.4179076" lon="9.2231584"><ele>105.0</ele><time>2026-04-23T16:54:54.785Z</time></trkpt><trkpt lat="45.4178278" lon="9.223206"><ele>105.0</ele><time>2026-04-23T16:54:56.801Z</time></trkpt><trkpt lat="45.4177391" lon="9.2232665"><ele>105.0</ele><time>2026-04-23T16:54:58.782Z</time></trkpt><trkpt lat="45.4176515" lon="9.2233075"><ele>104.0</ele><time>2026-04-23T16:55:00.781Z</time></trkpt><trkpt lat="45.4175621" lon="9.2233784"><ele>103.0</ele><time>2026-04-23T16:55:02.786Z</time></trkpt><trkpt lat="45.4174704" lon="9.2234295"><ele>102.0</ele><time>2026-04-23T16:55:04.783Z</time></trkpt><trkpt lat="45.4173871" lon="9.2234667"><ele>101.0</ele><time>2026-04-23T16:55:06.78Z</time></trkpt><trkpt lat="45.4173006" lon="9.2235222"><ele>100.0</ele><time>2026-04-23T16:55:08.775Z</time></trkpt><trkpt lat="45.4172156" lon="9.2235877"><ele>100.4</ele><time>2026-04-23T16:55:10.775Z</time></trkpt><trkpt lat="45.4171331" lon="9.2236716"><ele>100.8</ele><time>2026-04-23T16:55:12.783Z</time></trkpt><trkpt lat="45.4170616" lon="9.2237501"><ele>101.19999999999999</ele><time>2026-04-23T16:55:14.794Z</time></trkpt><trkpt lat="45.4169775" lon="9.2238303"><ele>101.6</ele><time>2026-04-23T16:55:16.776Z</time></trkpt><trkpt lat="45.4168992" lon="9.2239276"><ele>102.0</ele><time>2026-04-23T16:55:18.782Z</time></trkpt><trkpt lat="45.4168274" lon="9.2240202"><ele>102.19999999999999</ele><time>2026-04-23T16:55:20.793Z</time></trkpt><trkpt lat="45.4167557" lon="9.2241011"><ele>102.4</ele><time>2026-04-23T16:55:22.782Z</time></trkpt><trkpt lat="45.4166812" lon="9.2241766"><ele>102.6</ele><time>2026-04-23T16:55:24.782Z</time></trkpt><trkpt lat="45.4166031" lon="9.224259"><ele>102.80000000000001</ele><time>2026-04-23T16:55:26.783Z</time></trkpt><trkpt lat="45.4165267" lon="9.2243409"><ele>103.0</ele><time>2026-04-23T16:55:28.774Z</time></trkpt><trkpt lat="45.4164603" lon="9.2244188"><ele>103.0</ele><time>2026-04-23T16:55:30.781Z</time></trkpt><trkpt lat="45.4163964" lon="9.224495"><ele>103.0</ele><time>2026-04-23T16:55:32.777Z</time></trkpt><trkpt lat="45.4163364" lon="9.2245883"><ele>103.0</ele><time>2026-04-23T16:55:34.786Z</time></trkpt><trkpt lat="45.4162756" lon="9.2246835"><ele>103.0</ele><time>2026-04-23T16:55:36.778Z</time></trkpt><trkpt lat="45.4162135" lon="9.2247883"><ele>103.0</ele><time>2026-04-23T16:55:38.78Z</time></trkpt><trkpt lat="45.4161534" lon="9.2248962"><ele>102.83333333333334</ele><time>2026-04-23T16:55:40.784Z</time></trkpt><trkpt lat="45.4160925" lon="9.2249925"><ele>102.66666666666667</ele><time>2026-04-23T16:55:42.791Z</time></trkpt><trkpt lat="45.4160366" lon="9.2250911"><ele>102.5</ele><time>2026-04-23T16:55:44.783Z</time></trkpt><trkpt lat="45.4159824" lon="9.2251908"><ele>102.33333333333334</ele><time>2026-04-23T16:55:46.78Z</time></trkpt><trkpt lat="45.4159249" lon="9.2252795"><ele>102.16666666666667</ele><time>2026-04-23T16:55:48.781Z</time></trkpt><trkpt lat="45.4158693" lon="9.2253764"><ele>102.0</ele><time>2026-04-23T16:55:50.78Z</time></trkpt><trkpt lat="45.4158082" lon="9.2254726"><ele>102.0</ele><time>2026-04-23T16:55:52.782Z</time></trkpt><trkpt lat="45.4157493" lon="9.2255715"><ele>102.0</ele><time>2026-04-23T16:55:54.782Z</time></trkpt><trkpt lat="45.4156907" lon="9.2256725"><ele>102.0</ele><time>2026-04-23T16:55:56.78Z</time></trkpt><trkpt lat="45.4156233" lon="9.2257731"><ele>102.0</ele><time>2026-04-23T16:55:58.793Z</time></trkpt><trkpt lat="45.4155591" lon="9.225886"><ele>102.0</ele><time>2026-04-23T16:56:00.78Z</time></trkpt><trkpt lat="45.4154984" lon="9.225991"><ele>101.8</ele><time>2026-04-23T16:56:02.786Z</time></trkpt><trkpt lat="45.4154305" lon="9.2260894"><ele>101.6</ele><time>2026-04-23T16:56:04.775Z</time></trkpt><trkpt lat="45.4153702" lon="9.2261932"><ele>101.39999999999999</ele><time>2026-04-23T16:56:06.785Z</time></trkpt><trkpt lat="45.4153066" lon="9.2263015"><ele>101.19999999999999</ele><time>2026-04-23T16:56:08.786Z</time></trkpt><trkpt lat="45.4152521" lon="9.2264082"><ele>101.0</ele><time>2026-04-23T16:56:10.778Z</time></trkpt><trkpt lat="45.4151838" lon="9.2265067"><ele>101.0</ele><time>2026-04-23T16:56:12.778Z</time></trkpt><trkpt lat="45.4151216" lon="9.2266127"><ele>101.0</ele><time>2026-04-23T16:56:14.782Z</time></trkpt><trkpt lat="45.4150641" lon="9.2267062"><ele>101.0</ele><time>2026-04-23T16:56:16.79Z</time></trkpt><trkpt lat="45.4150067" lon="9.2268182"><ele>101.0</ele><time>2026-04-23T16:56:18.781Z</time></trkpt><trkpt lat="45.4149408" lon="9.2269215"><ele>101.0</ele><time>2026-04-23T16:56:20.782Z</time></trkpt><trkpt lat="45.4148772" lon="9.2270226"><ele>101.0</ele><time>2026-04-23T16:56:22.783Z</time></trkpt><trkpt lat="45.4148013" lon="9.227115"><ele>101.0</ele><time>2026-04-23T16:56:24.785Z</time></trkpt><trkpt lat="45.4147334" lon="9.2272206"><ele>101.0</ele><time>2026-04-23T16:56:26.778Z</time></trkpt><trkpt lat="45.4146717" lon="9.2273243"><ele>101.0</ele><time>2026-04-23T16:56:28.782Z</time></trkpt><trkpt lat="45.4146246" lon="9.2274314"><ele>101.0</ele><time>2026-04-23T16:56:30.779Z</time></trkpt><trkpt lat="45.4145685" lon="9.2275321"><ele>101.0</ele><time>2026-04-23T16:56:32.783Z</time></trkpt><trkpt lat="45.4145019" lon="9.2276316"><ele>101.0</ele><time>2026-04-23T16:56:34.792Z</time></trkpt><trkpt lat="45.4144427" lon="9.227737"><ele>101.0</ele><time>2026-04-23T16:56:36.783Z</time></trkpt><trkpt lat="45.4143755" lon="9.227843"><ele>101.0</ele><time>2026-04-23T16:56:38.781Z</time></trkpt><trkpt lat="45.4143099" lon="9.2279481"><ele>101.0</ele><time>2026-04-23T16:56:40.783Z</time></trkpt><trkpt lat="45.4142458" lon="9.2280395"><ele>101.0</ele><time>2026-04-23T16:56:42.783Z</time></trkpt><trkpt lat="45.4141778" lon="9.2281424"><ele>101.0</ele><time>2026-04-23T16:56:44.8Z</time></trkpt><trkpt lat="45.4141121" lon="9.2282557"><ele>101.0</ele><time>2026-04-23T16:56:46.773Z</time></trkpt><trkpt lat="45.4140458" lon="9.2283648"><ele>101.0</ele><time>2026-04-23T16:56:48.782Z</time></trkpt><trkpt lat="45.4139862" lon="9.2284815"><ele>101.0</ele><time>2026-04-23T16:56:50.783Z</time></trkpt><trkpt lat="45.4139269" lon="9.2285955"><ele>101.0</ele><time>2026-04-23T16:56:52.775Z</time></trkpt><trkpt lat="45.4138632" lon="9.2287031"><ele>101.0</ele><time>2026-04-23T16:56:54.781Z</time></trkpt><trkpt lat="45.413807" lon="9.2288148"><ele>101.0</ele><time>2026-04-23T16:56:56.781Z</time></trkpt><trkpt lat="45.4137707" lon="9.2289361"><ele>101.0</ele><time>2026-04-23T16:56:58.78Z</time></trkpt><trkpt lat="45.4137463" lon="9.2290594"><ele>101.0</ele><time>2026-04-23T16:57:00.783Z</time></trkpt><trkpt lat="45.4137379" lon="9.229196"><ele>100.99999999999999</ele><time>2026-04-23T16:57:02.782Z</time></trkpt><trkpt lat="45.4137179" lon="9.2293213"><ele>101.0</ele><time>2026-04-23T16:57:04.781Z</time></trkpt><trkpt lat="45.4137109" lon="9.229445"><ele>101.0</ele><time>2026-04-23T16:57:06.781Z</time></trkpt><trkpt lat="45.4136978" lon="9.2295772"><ele>101.0</ele><time>2026-04-23T16:57:08.784Z</time></trkpt><trkpt lat="45.4136891" lon="9.2297031"><ele>100.99999999999999</ele><time>2026-04-23T16:57:10.777Z</time></trkpt><trkpt lat="45.4136758" lon="9.2298259"><ele>101.0</ele><time>2026-04-23T16:57:12.779Z</time></trkpt><trkpt lat="45.4136602" lon="9.2299571"><ele>101.0</ele><time>2026-04-23T16:57:14.786Z</time></trkpt><trkpt lat="45.4136499" lon="9.230088"><ele>101.0</ele><time>2026-04-23T16:57:16.777Z</time></trkpt><trkpt lat="45.4136393" lon="9.2302175"><ele>101.0</ele><time>2026-04-23T16:57:18.785Z</time></trkpt><trkpt lat="45.4136289" lon="9.2303468"><ele>101.0</ele><time>2026-04-23T16:57:20.781Z</time></trkpt><trkpt lat="45.4136215" lon="9.2304726"><ele>101.0</ele><time>2026-04-23T16:57:22.779Z</time></trkpt><trkpt lat="45.4136054" lon="9.2305929"><ele>101.16666666666666</ele><time>2026-04-23T16:57:24.79Z</time></trkpt><trkpt lat="45.4135952" lon="9.2307112"><ele>101.33333333333333</ele><time>2026-04-23T16:57:26.783Z</time></trkpt><trkpt lat="45.4135895" lon="9.2308343"><ele>101.5</ele><time>2026-04-23T16:57:28.784Z</time></trkpt><trkpt lat="45.4135797" lon="9.2309419"><ele>101.66666666666666</ele><time>2026-04-23T16:57:30.779Z</time></trkpt><trkpt lat="45.4135667" lon="9.2310608"><ele>101.83333333333333</ele><time>2026-04-23T16:57:33.781Z</time></trkpt><trkpt lat="45.4135745" lon="9.2311879"><ele>102.0</ele><time>2026-04-23T16:57:36.782Z</time></trkpt><trkpt lat="45.4136187" lon="9.231292"><ele>102.0</ele><time>2026-04-23T16:57:38.784Z</time></trkpt><trkpt lat="45.4136706" lon="9.2313757"><ele>102.0</ele><time>2026-04-23T16:57:40.774Z</time></trkpt><trkpt lat="45.413728" lon="9.2314617"><ele>102.0</ele><time>2026-04-23T16:57:42.792Z</time></trkpt><trkpt lat="45.4137762" lon="9.2315519"><ele>102.0</ele><time>2026-04-23T16:57:44.782Z</time></trkpt><trkpt lat="45.4138377" lon="9.2316313"><ele>102.0</ele><time>2026-04-23T16:57:46.773Z</time></trkpt><trkpt lat="45.4138894" lon="9.2317267"><ele>102.0</ele><time>2026-04-23T16:57:48.782Z</time></trkpt><trkpt lat="45.4139387" lon="9.2318266"><ele>101.66666666666667</ele><time>2026-04-23T16:57:50.779Z</time></trkpt><trkpt lat="45.4139861" lon="9.2319135"><ele>101.33333333333334</ele><time>2026-04-23T16:57:52.778Z</time></trkpt><trkpt lat="45.4140389" lon="9.2320054"><ele>101.0</ele><time>2026-04-23T16:57:54.776Z</time></trkpt><trkpt lat="45.4140911" lon="9.2320987"><ele>100.66666666666667</ele><time>2026-04-23T16:57:56.777Z</time></trkpt><trkpt lat="45.4141477" lon="9.2321825"><ele>100.33333333333334</ele><time>2026-04-23T16:57:58.783Z</time></trkpt><trkpt lat="45.4141933" lon="9.2322721"><ele>100.0</ele><time>2026-04-23T16:58:00.788Z</time></trkpt><trkpt lat="45.4142495" lon="9.2323487"><ele>100.57142857142858</ele><time>2026-04-23T16:58:02.779Z</time></trkpt><trkpt lat="45.4143023" lon="9.2324231"><ele>101.14285714285714</ele><time>2026-04-23T16:58:04.778Z</time></trkpt><trkpt lat="45.4143581" lon="9.2325075"><ele>101.71428571428572</ele><time>2026-04-23T16:58:06.78Z</time></trkpt><trkpt lat="45.4144137" lon="9.232592"><ele>102.28571428571429</ele><time>2026-04-23T16:58:08.781Z</time></trkpt><trkpt lat="45.414466" lon="9.232665"><ele>102.85714285714286</ele><time>2026-04-23T16:58:10.777Z</time></trkpt><trkpt lat="45.4145089" lon="9.2327425"><ele>103.42857142857143</ele><time>2026-04-23T16:58:12.785Z</time></trkpt><trkpt lat="45.4145547" lon="9.232814"><ele>104.0</ele><time>2026-04-23T16:58:14.775Z</time></trkpt><trkpt lat="45.4146027" lon="9.2328939"><ele>104.2</ele><time>2026-04-23T16:58:16.775Z</time></trkpt><trkpt lat="45.414668" lon="9.2329876"><ele>104.4</ele><time>2026-04-23T16:58:18.78Z</time></trkpt><trkpt lat="45.4147265" lon="9.2330849"><ele>104.6</ele><time>2026-04-23T16:58:20.79Z</time></trkpt><trkpt lat="45.4147965" lon="9.233173"><ele>104.8</ele><time>2026-04-23T16:58:22.78Z</time></trkpt><trkpt lat="45.4148521" lon="9.2332816"><ele>105.0</ele><time>2026-04-23T16:58:24.783Z</time></trkpt><trkpt lat="45.4149072" lon="9.2334041"><ele>105.0</ele><time>2026-04-23T16:58:26.781Z</time></trkpt><trkpt lat="45.4149633" lon="9.233525"><ele>105.0</ele><time>2026-04-23T16:58:28.779Z</time></trkpt><trkpt lat="45.4150258" lon="9.2336558"><ele>105.0</ele><time>2026-04-23T16:58:30.785Z</time></trkpt><trkpt lat="45.4150854" lon="9.2337756"><ele>105.0</ele><time>2026-04-23T16:58:32.778Z</time></trkpt><trkpt lat="45.4151564" lon="9.2338831"><ele>105.0</ele><time>2026-04-23T16:58:34.783Z</time></trkpt><trkpt lat="45.4152323" lon="9.2339893"><ele>104.4</ele><time>2026-04-23T16:58:36.792Z</time></trkpt><trkpt lat="45.4153211" lon="9.234096"><ele>103.8</ele><time>2026-04-23T16:58:38.775Z</time></trkpt><trkpt lat="45.4153877" lon="9.2341965"><ele>103.19999999999999</ele><time>2026-04-23T16:58:40.782Z</time></trkpt><trkpt lat="45.4154603" lon="9.2342924"><ele>102.6</ele><time>2026-04-23T16:58:42.776Z</time></trkpt><trkpt lat="45.4155326" lon="9.2343786"><ele>102.0</ele><time>2026-04-23T16:58:44.79Z</time></trkpt><trkpt lat="45.4156025" lon="9.2344645"><ele>102.0</ele><time>2026-04-23T16:58:46.79Z</time></trkpt><trkpt lat="45.4156739" lon="9.2345586"><ele>102.0</ele><time>2026-04-23T16:58:48.776Z</time></trkpt><trkpt lat="45.4157462" lon="9.2346353"><ele>102.0</ele><time>2026-04-23T16:58:50.788Z</time></trkpt><trkpt lat="45.4158109" lon="9.234711"><ele>102.0</ele><time>2026-04-23T16:58:52.79Z</time></trkpt><trkpt lat="45.4158778" lon="9.234799"><ele>102.0</ele><time>2026-04-23T16:58:54.779Z</time></trkpt><trkpt lat="45.4159383" lon="9.234873"><ele>102.0</ele><time>2026-04-23T16:58:56.779Z</time></trkpt><trkpt lat="45.4159906" lon="9.2349469"><ele>102.16666666666667</ele><time>2026-04-23T16:58:58.775Z</time></trkpt><trkpt lat="45.4160542" lon="9.2350198"><ele>102.33333333333334</ele><time>2026-04-23T16:59:00.785Z</time></trkpt><trkpt lat="45.416122" lon="9.235095"><ele>102.5</ele><time>2026-04-23T16:59:02.776Z</time></trkpt><trkpt lat="45.416193" lon="9.2351817"><ele>102.66666666666667</ele><time>2026-04-23T16:59:04.787Z</time></trkpt><trkpt lat="45.4162627" lon="9.2352629"><ele>102.83333333333334</ele><time>2026-04-23T16:59:06.786Z</time></trkpt><trkpt lat="45.416339" lon="9.2353442"><ele>103.0</ele><time>2026-04-23T16:59:08.778Z</time></trkpt><trkpt lat="45.4164142" lon="9.2354058"><ele>103.2</ele><time>2026-04-23T16:59:10.783Z</time></trkpt><trkpt lat="45.4164878" lon="9.2354782"><ele>103.4</ele><time>2026-04-23T16:59:12.777Z</time></trkpt><trkpt lat="45.4165606" lon="9.2355699"><ele>103.60000000000001</ele><time>2026-04-23T16:59:14.771Z</time></trkpt><trkpt lat="45.4166403" lon="9.2356558"><ele>103.80000000000001</ele><time>2026-04-23T16:59:16.775Z</time></trkpt><trkpt lat="45.4167249" lon="9.2357482"><ele>104.0</ele><time>2026-04-23T16:59:18.782Z</time></trkpt><trkpt lat="45.4167998" lon="9.235822"><ele>104.0</ele><time>2026-04-23T16:59:20.778Z</time></trkpt><trkpt lat="45.4168745" lon="9.2359056"><ele>104.0</ele><time>2026-04-23T16:59:22.777Z</time></trkpt><trkpt lat="45.4169485" lon="9.2359892"><ele>104.0</ele><time>2026-04-23T16:59:24.781Z</time></trkpt><trkpt lat="45.4170314" lon="9.2360517"><ele>104.0</ele><time>2026-04-23T16:59:26.777Z</time></trkpt><trkpt lat="45.4171104" lon="9.2361245"><ele>104.0</ele><time>2026-04-23T16:59:28.786Z</time></trkpt><trkpt lat="45.4171939" lon="9.2362013"><ele>103.4</ele><time>2026-04-23T16:59:30.782Z</time></trkpt><trkpt lat="45.4172736" lon="9.2362649"><ele>102.80000000000001</ele><time>2026-04-23T16:59:32.778Z</time></trkpt><trkpt lat="45.4173535" lon="9.2363415"><ele>102.19999999999999</ele><time>2026-04-23T16:59:34.775Z</time></trkpt><trkpt lat="45.4174339" lon="9.2364127"><ele>101.6</ele><time>2026-04-23T16:59:36.783Z</time></trkpt><trkpt lat="45.4175093" lon="9.2364829"><ele>101.0</ele><time>2026-04-23T16:59:38.777Z</time></trkpt><trkpt lat="45.4175842" lon="9.2365649"><ele>100.99999999999999</ele><time>2026-04-23T16:59:40.78Z</time></trkpt><trkpt lat="45.417656" lon="9.2366263"><ele>101.0</ele><time>2026-04-23T16:59:42.782Z</time></trkpt><trkpt lat="45.4177225" lon="9.2367016"><ele>101.0</ele><time>2026-04-23T16:59:44.779Z</time></trkpt><trkpt lat="45.4177922" lon="9.2367735"><ele>101.0</ele><time>2026-04-23T16:59:46.772Z</time></trkpt><trkpt lat="45.4178642" lon="9.2368305"><ele>100.99999999999999</ele><time>2026-04-23T16:59:48.78Z</time></trkpt><trkpt lat="45.4179397" lon="9.2368879"><ele>101.0</ele><time>2026-04-23T16:59:50.778Z</time></trkpt><trkpt lat="45.4180214" lon="9.2369579"><ele>101.0</ele><time>2026-04-23T16:59:52.783Z</time></trkpt><trkpt lat="45.4180937" lon="9.2370373"><ele>101.0</ele><time>2026-04-23T16:59:54.778Z</time></trkpt><trkpt lat="45.418158" lon="9.237117"><ele>101.0</ele><time>2026-04-23T16:59:56.784Z</time></trkpt><trkpt lat="45.4181677" lon="9.2372608"><ele>101.0</ele><time>2026-04-23T16:59:58.788Z</time></trkpt><trkpt lat="45.4181263" lon="9.2373776"><ele>101.0</ele><time>2026-04-23T17:00:00.786Z</time></trkpt><trkpt lat="45.4180906" lon="9.2374858"><ele>101.16666666666666</ele><time>2026-04-23T17:00:02.785Z</time></trkpt><trkpt lat="45.4180666" lon="9.2376097"><ele>101.33333333333333</ele><time>2026-04-23T17:00:04.782Z</time></trkpt><trkpt lat="45.4180446" lon="9.2377257"><ele>101.5</ele><time>2026-04-23T17:00:06.778Z</time></trkpt><trkpt lat="45.4180217" lon="9.2378237"><ele>101.66666666666666</ele><time>2026-04-23T17:00:08.789Z</time></trkpt><trkpt lat="45.4179897" lon="9.2379329"><ele>101.83333333333333</ele><time>2026-04-23T17:00:10.775Z</time></trkpt><trkpt lat="45.417963" lon="9.2380287"><ele>102.0</ele><time>2026-04-23T17:00:12.776Z</time></trkpt><trkpt lat="45.4179452" lon="9.238119"><ele>102.0</ele><time>2026-04-23T17:00:14.774Z</time></trkpt><trkpt lat="45.4179217" lon="9.2382052"><ele>102.0</ele><time>2026-04-23T17:00:16.78Z</time></trkpt><trkpt lat="45.4178987" lon="9.2382937"><ele>102.0</ele><time>2026-04-23T17:00:18.79Z</time></trkpt><trkpt lat="45.4178698" lon="9.2383987"><ele>102.0</ele><time>2026-04-23T17:00:21.775Z</time></trkpt><trkpt lat="45.4178385" lon="9.2385375"><ele>102.0</ele><time>2026-04-23T17:00:24.782Z</time></trkpt><trkpt lat="45.4177914" lon="9.2386438"><ele>102.0</ele><time>2026-04-23T17:00:26.782Z</time></trkpt><trkpt lat="45.4177288" lon="9.2387736"><ele>102.0</ele><time>2026-04-23T17:00:28.78Z</time></trkpt><trkpt lat="45.4176657" lon="9.2389174"><ele>102.0</ele><time>2026-04-23T17:00:30.782Z</time></trkpt><trkpt lat="45.417591" lon="9.2390409"><ele>102.0</ele><time>2026-04-23T17:00:32.777Z</time></trkpt><trkpt lat="45.4175153" lon="9.2391529"><ele>102.0</ele><time>2026-04-23T17:00:34.781Z</time></trkpt><trkpt lat="45.4174369" lon="9.2392758"><ele>102.19999999999999</ele><time>2026-04-23T17:00:36.783Z</time></trkpt><trkpt lat="45.4173609" lon="9.2393907"><ele>102.4</ele><time>2026-04-23T17:00:38.799Z</time></trkpt><trkpt lat="45.4172933" lon="9.2395179"><ele>102.6</ele><time>2026-04-23T17:00:40.775Z</time></trkpt><trkpt lat="45.4172189" lon="9.2396374"><ele>102.80000000000001</ele><time>2026-04-23T17:00:42.779Z</time></trkpt><trkpt lat="45.4171441" lon="9.2397516"><ele>103.0</ele><time>2026-04-23T17:00:44.783Z</time></trkpt><trkpt lat="45.4170747" lon="9.2398716"><ele>103.0</ele><time>2026-04-23T17:00:46.785Z</time></trkpt><trkpt lat="45.4170074" lon="9.239999"><ele>103.0</ele><time>2026-04-23T17:00:48.772Z</time></trkpt><trkpt lat="45.4169276" lon="9.2401034"><ele>103.0</ele><time>2026-04-23T17:00:50.782Z</time></trkpt><trkpt lat="45.4168519" lon="9.2402049"><ele>103.0</ele><time>2026-04-23T17:00:52.776Z</time></trkpt><trkpt lat="45.4167684" lon="9.2402764"><ele>103.0</ele><time>2026-04-23T17:00:54.777Z</time></trkpt><trkpt lat="45.4166689" lon="9.2403326"><ele>103.0</ele><time>2026-04-23T17:00:56.78Z</time></trkpt><trkpt lat="45.4165943" lon="9.2403924"><ele>103.0</ele><time>2026-04-23T17:00:58.785Z</time></trkpt><trkpt lat="45.4165293" lon="9.2404693"><ele>103.0</ele><time>2026-04-23T17:01:00.783Z</time></trkpt><trkpt lat="45.4164616" lon="9.2405619"><ele>103.0</ele><time>2026-04-23T17:01:02.78Z</time></trkpt><trkpt lat="45.4163848" lon="9.2406411"><ele>103.0</ele><time>2026-04-23T17:01:04.781Z</time></trkpt><trkpt lat="45.4162988" lon="9.2406991"><ele>103.33333333333334</ele><time>2026-04-23T17:01:06.781Z</time></trkpt><trkpt lat="45.41622" lon="9.240753"><ele>103.66666666666667</ele><time>2026-04-23T17:01:08.781Z</time></trkpt><trkpt lat="45.4161387" lon="9.2407763"><ele>104.0</ele><time>2026-04-23T17:01:10.785Z</time></trkpt><trkpt lat="45.4160446" lon="9.2407715"><ele>104.33333333333334</ele><time>2026-04-23T17:01:12.783Z</time></trkpt><trkpt lat="45.4159644" lon="9.2407755"><ele>104.66666666666667</ele><time>2026-04-23T17:01:14.776Z</time></trkpt><trkpt lat="45.4158672" lon="9.2408105"><ele>105.0</ele><time>2026-04-23T17:01:16.783Z</time></trkpt><trkpt lat="45.4157874" lon="9.2408498"><ele>105.0</ele><time>2026-04-23T17:01:18.782Z</time></trkpt><trkpt lat="45.4157011" lon="9.24087"><ele>105.0</ele><time>2026-04-23T17:01:20.779Z</time></trkpt><trkpt lat="45.4155956" lon="9.2408835"><ele>105.0</ele><time>2026-04-23T17:01:22.785Z</time></trkpt><trkpt lat="45.4155012" lon="9.240873"><ele>105.0</ele><time>2026-04-23T17:01:24.792Z</time></trkpt><trkpt lat="45.415409" lon="9.2408725"><ele>105.0</ele><time>2026-04-23T17:01:26.777Z</time></trkpt><trkpt lat="45.4153233" lon="9.2408859"><ele>104.8</ele><time>2026-04-23T17:01:28.776Z</time></trkpt><trkpt lat="45.4152265" lon="9.2409167"><ele>104.6</ele><time>2026-04-23T17:01:30.779Z</time></trkpt><trkpt lat="45.4151263" lon="9.2409514"><ele>104.4</ele><time>2026-04-23T17:01:32.79Z</time></trkpt><trkpt lat="45.4150309" lon="9.2409871"><ele>104.2</ele><time>2026-04-23T17:01:34.776Z</time></trkpt><trkpt lat="45.4149501" lon="9.2410517"><ele>104.0</ele><time>2026-04-23T17:01:36.787Z</time></trkpt><trkpt lat="45.4148734" lon="9.241104"><ele>104.0</ele><time>2026-04-23T17:01:38.774Z</time></trkpt><trkpt lat="45.4147472" lon="9.2411894"><ele>104.0</ele><time>2026-04-23T17:01:41.776Z</time></trkpt><trkpt lat="45.4146509" lon="9.2412313"><ele>104.0</ele><time>2026-04-23T17:01:43.779Z</time></trkpt><trkpt lat="45.4145773" lon="9.2411715"><ele>104.0</ele><time>2026-04-23T17:01:45.776Z</time></trkpt><trkpt lat="45.4145285" lon="9.241087"><ele>104.0</ele><time>2026-04-23T17:01:47.774Z</time></trkpt><trkpt lat="45.4144749" lon="9.2409875"><ele>103.6</ele><time>2026-04-23T17:01:49.777Z</time></trkpt><trkpt lat="45.4144146" lon="9.2408728"><ele>103.2</ele><time>2026-04-23T17:01:51.775Z</time></trkpt><trkpt lat="45.4143647" lon="9.2407584"><ele>102.8</ele><time>2026-04-23T17:01:53.78Z</time></trkpt><trkpt lat="45.4143134" lon="9.2406508"><ele>102.39999999999999</ele><time>2026-04-23T17:01:55.797Z</time></trkpt><trkpt lat="45.4142684" lon="9.2405464"><ele>102.0</ele><time>2026-04-23T17:01:57.779Z</time></trkpt><trkpt lat="45.4142287" lon="9.2404411"><ele>101.83333333333333</ele><time>2026-04-23T17:01:59.775Z</time></trkpt><trkpt lat="45.4141834" lon="9.2403377"><ele>101.66666666666666</ele><time>2026-04-23T17:02:01.778Z</time></trkpt><trkpt lat="45.4141359" lon="9.2402454"><ele>101.5</ele><time>2026-04-23T17:02:03.781Z</time></trkpt><trkpt lat="45.4140944" lon="9.240136"><ele>101.33333333333333</ele><time>2026-04-23T17:02:05.777Z</time></trkpt><trkpt lat="45.4140431" lon="9.2400326"><ele>101.16666666666666</ele><time>2026-04-23T17:02:07.784Z</time></trkpt><trkpt lat="45.4139777" lon="9.2399449"><ele>101.0</ele><time>2026-04-23T17:02:09.783Z</time></trkpt><trkpt lat="45.4138996" lon="9.2398885"><ele>100.99999999999999</ele><time>2026-04-23T17:02:11.779Z</time></trkpt><trkpt lat="45.4138225" lon="9.2398742"><ele>101.0</ele><time>2026-04-23T17:02:13.776Z</time></trkpt><trkpt lat="45.4137426" lon="9.2398945"><ele>101.0</ele><time>2026-04-23T17:02:15.779Z</time></trkpt><trkpt lat="45.4136617" lon="9.2399285"><ele>101.0</ele><time>2026-04-23T17:02:17.774Z</time></trkpt><trkpt lat="45.41358" lon="9.239978"><ele>100.99999999999999</ele><time>2026-04-23T17:02:19.783Z</time></trkpt><trkpt lat="45.4135055" lon="9.240038"><ele>101.0</ele><time>2026-04-23T17:02:21.775Z</time></trkpt><trkpt lat="45.4134273" lon="9.2400969"><ele>101.16666666666666</ele><time>2026-04-23T17:02:23.782Z</time></trkpt><trkpt lat="45.4133474" lon="9.2401407"><ele>101.33333333333333</ele><time>2026-04-23T17:02:25.774Z</time></trkpt><trkpt lat="45.4132715" lon="9.2401977"><ele>101.5</ele><time>2026-04-23T17:02:27.774Z</time></trkpt><trkpt lat="45.4131898" lon="9.2402586"><ele>101.66666666666666</ele><time>2026-04-23T17:02:29.773Z</time></trkpt><trkpt lat="45.4131119" lon="9.2403076"><ele>101.83333333333333</ele><time>2026-04-23T17:02:31.78Z</time></trkpt><trkpt lat="45.413029" lon="9.2403536"><ele>102.0</ele><time>2026-04-23T17:02:33.774Z</time></trkpt><trkpt lat="45.4129516" lon="9.2404091"><ele>102.0</ele><time>2026-04-23T17:02:35.775Z</time></trkpt><trkpt lat="45.4128777" lon="9.2404645"><ele>102.0</ele><time>2026-04-23T17:02:37.785Z</time></trkpt><trkpt lat="45.4128014" lon="9.2405239"><ele>102.0</ele><time>2026-04-23T17:02:39.776Z</time></trkpt><trkpt lat="45.4127108" lon="9.240579"><ele>102.0</ele><time>2026-04-23T17:02:41.772Z</time></trkpt><trkpt lat="45.4126317" lon="9.2406407"><ele>102.0</ele><time>2026-04-23T17:02:43.773Z</time></trkpt><trkpt lat="45.4125474" lon="9.240712"><ele>101.39999999999999</ele><time>2026-04-23T17:02:45.772Z</time></trkpt><trkpt lat="45.4124689" lon="9.2407797"><ele>100.8</ele><time>2026-04-23T17:02:47.788Z</time></trkpt><trkpt lat="45.412388" lon="9.2408357"><ele>100.2</ele><time>2026-04-23T17:02:49.778Z</time></trkpt><trkpt lat="45.412302" lon="9.2408882"><ele>99.6</ele><time>2026-04-23T17:02:51.775Z</time></trkpt><trkpt lat="45.4122251" lon="9.2409497"><ele>99.0</ele><time>2026-04-23T17:02:53.773Z</time></trkpt><trkpt lat="45.4121434" lon="9.2410132"><ele>99.0</ele><time>2026-04-23T17:02:55.785Z</time></trkpt><trkpt lat="45.4120602" lon="9.2410879"><ele>99.0</ele><time>2026-04-23T17:02:57.8Z</time></trkpt><trkpt lat="45.4119827" lon="9.2411588"><ele>99.0</ele><time>2026-04-23T17:02:59.781Z</time></trkpt><trkpt lat="45.4119051" lon="9.2412304"><ele>99.0</ele><time>2026-04-23T17:03:01.777Z</time></trkpt><trkpt lat="45.4118292" lon="9.2413075"><ele>99.0</ele><time>2026-04-23T17:03:03.777Z</time></trkpt><trkpt lat="45.4117333" lon="9.2413842"><ele>98.80000000000001</ele><time>2026-04-23T17:03:05.776Z</time></trkpt><trkpt lat="45.4116531" lon="9.2414756"><ele>98.60000000000001</ele><time>2026-04-23T17:03:07.779Z</time></trkpt><trkpt lat="45.4115699" lon="9.2415652"><ele>98.4</ele><time>2026-04-23T17:03:09.78Z</time></trkpt><trkpt lat="45.4115035" lon="9.2416639"><ele>98.2</ele><time>2026-04-23T17:03:11.786Z</time></trkpt><trkpt lat="45.411433" lon="9.241771"><ele>98.0</ele><time>2026-04-23T17:03:13.786Z</time></trkpt><trkpt lat="45.4113677" lon="9.2418725"><ele>98.0</ele><time>2026-04-23T17:03:15.777Z</time></trkpt><trkpt lat="45.4112991" lon="9.2419777"><ele>98.0</ele><time>2026-04-23T17:03:17.781Z</time></trkpt><trkpt lat="45.4112337" lon="9.2420755"><ele>98.0</ele><time>2026-04-23T17:03:19.777Z</time></trkpt><trkpt lat="45.4111663" lon="9.2421728"><ele>98.0</ele><time>2026-04-23T17:03:21.78Z</time></trkpt><trkpt lat="45.4111069" lon="9.2422707"><ele>98.0</ele><time>2026-04-23T17:03:23.77Z</time></trkpt><trkpt lat="45.4110388" lon="9.2423667"><ele>98.0</ele><time>2026-04-23T17:03:25.779Z</time></trkpt><trkpt lat="45.4109675" lon="9.2424593"><ele>98.0</ele><time>2026-04-23T17:03:27.777Z</time></trkpt><trkpt lat="45.4109005" lon="9.2425474"><ele>98.0</ele><time>2026-04-23T17:03:29.784Z</time></trkpt><trkpt lat="45.4108343" lon="9.2426274"><ele>98.0</ele><time>2026-04-23T17:03:31.779Z</time></trkpt><trkpt lat="45.4107607" lon="9.2427051"><ele>98.0</ele><time>2026-04-23T17:03:33.779Z</time></trkpt><trkpt lat="45.4106858" lon="9.2427864"><ele>98.0</ele><time>2026-04-23T17:03:35.78Z</time></trkpt><trkpt lat="45.4106132" lon="9.2428711"><ele>98.0</ele><time>2026-04-23T17:03:37.781Z</time></trkpt><trkpt lat="45.4105426" lon="9.242951"><ele>98.0</ele><time>2026-04-23T17:03:39.78Z</time></trkpt><trkpt lat="45.4104649" lon="9.2430094"><ele>98.0</ele><time>2026-04-23T17:03:41.786Z</time></trkpt><trkpt lat="45.4103728" lon="9.2430281"><ele>98.0</ele><time>2026-04-23T17:03:43.783Z</time></trkpt><trkpt lat="45.4102811" lon="9.2430375"><ele>97.33333333333333</ele><time>2026-04-23T17:03:45.784Z</time></trkpt><trkpt lat="45.4101959" lon="9.2430093"><ele>96.66666666666666</ele><time>2026-04-23T17:03:47.775Z</time></trkpt><trkpt lat="45.4101165" lon="9.2429513"><ele>96.0</ele><time>2026-04-23T17:03:49.781Z</time></trkpt><trkpt lat="45.4100391" lon="9.2428954"><ele>95.33333333333333</ele><time>2026-04-23T17:03:51.784Z</time></trkpt><trkpt lat="45.4099678" lon="9.2428359"><ele>94.66666666666666</ele><time>2026-04-23T17:03:53.777Z</time></trkpt><trkpt lat="45.4098919" lon="9.2427847"><ele>94.0</ele><time>2026-04-23T17:03:55.777Z</time></trkpt><trkpt lat="45.40982" lon="9.242733"><ele>94.0</ele><time>2026-04-23T17:03:57.786Z</time></trkpt><trkpt lat="45.4097519" lon="9.242681"><ele>94.0</ele><time>2026-04-23T17:03:59.776Z</time></trkpt><trkpt lat="45.4096836" lon="9.2426202"><ele>94.0</ele><time>2026-04-23T17:04:01.779Z</time></trkpt><trkpt lat="45.4096026" lon="9.2425577"><ele>94.0</ele><time>2026-04-23T17:04:03.784Z</time></trkpt><trkpt lat="45.4095154" lon="9.2424815"><ele>94.0</ele><time>2026-04-23T17:04:05.777Z</time></trkpt><trkpt lat="45.4094398" lon="9.2424224"><ele>94.0</ele><time>2026-04-23T17:04:07.779Z</time></trkpt><trkpt lat="45.4093661" lon="9.2423598"><ele>94.83333333333333</ele><time>2026-04-23T17:04:09.78Z</time></trkpt><trkpt lat="45.4092934" lon="9.2422974"><ele>95.66666666666666</ele><time>2026-04-23T17:04:11.777Z</time></trkpt><trkpt lat="45.4092248" lon="9.2422319"><ele>96.5</ele><time>2026-04-23T17:04:13.779Z</time></trkpt><trkpt lat="45.4091597" lon="9.2421549"><ele>97.33333333333333</ele><time>2026-04-23T17:04:15.786Z</time></trkpt><trkpt lat="45.4091049" lon="9.2420704"><ele>98.16666666666667</ele><time>2026-04-23T17:04:17.777Z</time></trkpt><trkpt lat="45.4090626" lon="9.2419643"><ele>99.0</ele><time>2026-04-23T17:04:19.775Z</time></trkpt><trkpt lat="45.4090376" lon="9.2418383"><ele>99.0</ele><time>2026-04-23T17:04:21.783Z</time></trkpt><trkpt lat="45.409003" lon="9.2417073"><ele>99.0</ele><time>2026-04-23T17:04:23.779Z</time></trkpt><trkpt lat="45.4089779" lon="9.2415835"><ele>99.0</ele><time>2026-04-23T17:04:25.78Z</time></trkpt><trkpt lat="45.4089422" lon="9.2414616"><ele>99.0</ele><time>2026-04-23T17:04:27.779Z</time></trkpt><trkpt lat="45.4089074" lon="9.241351"><ele>99.0</ele><time>2026-04-23T17:04:29.78Z</time></trkpt><trkpt lat="45.4088676" lon="9.241244"><ele>99.5</ele><time>2026-04-23T17:04:31.782Z</time></trkpt><trkpt lat="45.4088278" lon="9.2411298"><ele>100.0</ele><time>2026-04-23T17:04:33.777Z</time></trkpt><trkpt lat="45.4087854" lon="9.2410172"><ele>100.5</ele><time>2026-04-23T17:04:35.784Z</time></trkpt><trkpt lat="45.4087375" lon="9.2409022"><ele>101.0</ele><time>2026-04-23T17:04:37.776Z</time></trkpt><trkpt lat="45.408697" lon="9.2408026"><ele>101.5</ele><time>2026-04-23T17:04:39.781Z</time></trkpt><trkpt lat="45.4086444" lon="9.2407182"><ele>102.0</ele><time>2026-04-23T17:04:41.774Z</time></trkpt><trkpt lat="45.4085857" lon="9.2406543"><ele>102.42857142857143</ele><time>2026-04-23T17:04:43.778Z</time></trkpt><trkpt lat="45.4085206" lon="9.2405941"><ele>102.85714285714286</ele><time>2026-04-23T17:04:45.781Z</time></trkpt><trkpt lat="45.4084563" lon="9.2405277"><ele>103.28571428571428</ele><time>2026-04-23T17:04:47.774Z</time></trkpt><trkpt lat="45.4083939" lon="9.2404638"><ele>103.71428571428572</ele><time>2026-04-23T17:04:49.773Z</time></trkpt><trkpt lat="45.40834" lon="9.2403975"><ele>104.14285714285714</ele><time>2026-04-23T17:04:51.78Z</time></trkpt><trkpt lat="45.4082979" lon="9.2403223"><ele>104.57142857142857</ele><time>2026-04-23T17:04:53.779Z</time></trkpt><trkpt lat="45.4082692" lon="9.2402351"><ele>105.0</ele><time>2026-04-23T17:04:55.778Z</time></trkpt><trkpt lat="45.4082441" lon="9.2401453"><ele>105.0</ele><time>2026-04-23T17:04:57.779Z</time></trkpt><trkpt lat="45.4082261" lon="9.2400446"><ele>105.0</ele><time>2026-04-23T17:04:59.772Z</time></trkpt><trkpt lat="45.4082019" lon="9.2399438"><ele>105.0</ele><time>2026-04-23T17:05:01.777Z</time></trkpt><trkpt lat="45.4081739" lon="9.2398472"><ele>105.0</ele><time>2026-04-23T17:05:03.772Z</time></trkpt><trkpt lat="45.4081377" lon="9.2397522"><ele>105.0</ele><time>2026-04-23T17:05:05.787Z</time></trkpt><trkpt lat="45.408109" lon="9.2396472"><ele>105.0</ele><time>2026-04-23T17:05:07.783Z</time></trkpt><trkpt lat="45.4080844" lon="9.2395349"><ele>105.33333333333333</ele><time>2026-04-23T17:05:09.782Z</time></trkpt><trkpt lat="45.4080548" lon="9.2394298"><ele>105.66666666666666</ele><time>2026-04-23T17:05:11.783Z</time></trkpt><trkpt lat="45.408021" lon="9.2393293"><ele>106.0</ele><time>2026-04-23T17:05:13.777Z</time></trkpt><trkpt lat="45.4079901" lon="9.2392334"><ele>106.33333333333333</ele><time>2026-04-23T17:05:15.779Z</time></trkpt><trkpt lat="45.4079651" lon="9.2391163"><ele>106.66666666666666</ele><time>2026-04-23T17:05:17.777Z</time></trkpt><trkpt lat="45.4079545" lon="9.2390062"><ele>107.0</ele><time>2026-04-23T17:05:19.78Z</time></trkpt><trkpt lat="45.4079556" lon="9.2388827"><ele>106.49999999999999</ele><time>2026-04-23T17:05:21.784Z</time></trkpt><trkpt lat="45.4079585" lon="9.2387624"><ele>106.0</ele><time>2026-04-23T17:05:23.781Z</time></trkpt><trkpt lat="45.4079791" lon="9.2386504"><ele>105.5</ele><time>2026-04-23T17:05:25.783Z</time></trkpt><trkpt lat="45.4079904" lon="9.2385343"><ele>105.0</ele><time>2026-04-23T17:05:27.778Z</time></trkpt><trkpt lat="45.4080034" lon="9.2384299"><ele>104.49999999999999</ele><time>2026-04-23T17:05:29.779Z</time></trkpt><trkpt lat="45.4080178" lon="9.2383126"><ele>104.0</ele><time>2026-04-23T17:05:31.78Z</time></trkpt><trkpt lat="45.4080349" lon="9.2381947"><ele>103.49999999999999</ele><time>2026-04-23T17:05:33.775Z</time></trkpt><trkpt lat="45.4080435" lon="9.2380824"><ele>103.0</ele><time>2026-04-23T17:05:35.781Z</time></trkpt><trkpt lat="45.4080577" lon="9.2379628"><ele>102.5</ele><time>2026-04-23T17:05:37.776Z</time></trkpt><trkpt lat="45.4080636" lon="9.2378446"><ele>102.0</ele><time>2026-04-23T17:05:39.783Z</time></trkpt><trkpt lat="45.4080489" lon="9.2377331"><ele>101.49999999999999</ele><time>2026-04-23T17:05:41.781Z</time></trkpt><trkpt lat="45.4080121" lon="9.2376405"><ele>101.0</ele><time>2026-04-23T17:05:43.777Z</time></trkpt><trkpt lat="45.4079567" lon="9.2375697"><ele>100.99999999999999</ele><time>2026-04-23T17:05:45.79Z</time></trkpt><trkpt lat="45.4078847" lon="9.2375164"><ele>101.0</ele><time>2026-04-23T17:05:47.787Z</time></trkpt><trkpt lat="45.4078143" lon="9.2374639"><ele>101.0</ele><time>2026-04-23T17:05:49.779Z</time></trkpt><trkpt lat="45.4077515" lon="9.2374097"><ele>101.0</ele><time>2026-04-23T17:05:51.78Z</time></trkpt><trkpt lat="45.4076796" lon="9.2373858"><ele>100.99999999999999</ele><time>2026-04-23T17:05:53.777Z</time></trkpt><trkpt lat="45.4076154" lon="9.2374125"><ele>101.0</ele><time>2026-04-23T17:05:55.776Z</time></trkpt><trkpt lat="45.4075414" lon="9.2374766"><ele>100.99999999999999</ele><time>2026-04-23T17:05:58.778Z</time></trkpt><trkpt lat="45.4075314" lon="9.2375775"><ele>101.0</ele><time>2026-04-23T17:06:02.777Z</time></trkpt><trkpt lat="45.4074999" lon="9.237669"><ele>101.0</ele><time>2026-04-23T17:06:05.776Z</time></trkpt><trkpt lat="45.4074939" lon="9.2377721"><ele>101.0</ele><time>2026-04-23T17:06:07.782Z</time></trkpt><trkpt lat="45.4075281" lon="9.2378919"><ele>100.99999999999999</ele><time>2026-04-23T17:06:09.777Z</time></trkpt><trkpt lat="45.40757" lon="9.2380063"><ele>101.0</ele><time>2026-04-23T17:06:11.784Z</time></trkpt><trkpt lat="45.4075682" lon="9.2380984"><ele>101.14285714285714</ele><time>2026-04-23T17:06:13.776Z</time></trkpt><trkpt lat="45.4075913" lon="9.238198"><ele>101.28571428571428</ele><time>2026-04-23T17:06:16.782Z</time></trkpt><trkpt lat="45.4076059" lon="9.2383024"><ele>101.42857142857143</ele><time>2026-04-23T17:06:19.774Z</time></trkpt><trkpt lat="45.407619" lon="9.2384203"><ele>101.57142857142857</ele><time>2026-04-23T17:06:22.776Z</time></trkpt><trkpt lat="45.407621" lon="9.2385254"><ele>101.71428571428572</ele><time>2026-04-23T17:06:25.779Z</time></trkpt><trkpt lat="45.4076298" lon="9.2386149"><ele>101.85714285714286</ele><time>2026-04-23T17:06:28.776Z</time></trkpt><trkpt lat="45.4076328" lon="9.2387202"><ele>102.0</ele><time>2026-04-23T17:06:31.784Z</time></trkpt><trkpt lat="45.4076302" lon="9.2388275"><ele>102.0</ele><time>2026-04-23T17:06:34.78Z</time></trkpt><trkpt lat="45.407619" lon="9.2389321"><ele>102.0</ele><time>2026-04-23T17:06:37.777Z</time></trkpt><trkpt lat="45.4075984" lon="9.2390311"><ele>102.0</ele><time>2026-04-23T17:06:40.78Z</time></trkpt><trkpt lat="45.407583" lon="9.2391357"><ele>102.0</ele><time>2026-04-23T17:06:43.785Z</time></trkpt><trkpt lat="45.4075583" lon="9.2392321"><ele>102.0</ele><time>2026-04-23T17:06:46.78Z</time></trkpt><trkpt lat="45.4075265" lon="9.2393427"><ele>102.0</ele><time>2026-04-23T17:06:49.784Z</time></trkpt><trkpt lat="45.4074957" lon="9.2394467"><ele>101.57142857142857</ele><time>2026-04-23T17:06:52.778Z</time></trkpt><trkpt lat="45.4074569" lon="9.2395416"><ele>101.14285714285714</ele><time>2026-04-23T17:06:55.781Z</time></trkpt><trkpt lat="45.4074208" lon="9.2396305"><ele>100.71428571428572</ele><time>2026-04-23T17:06:58.777Z</time></trkpt><trkpt lat="45.4073807" lon="9.2397258"><ele>100.28571428571428</ele><time>2026-04-23T17:07:01.778Z</time></trkpt><trkpt lat="45.4073395" lon="9.2398077"><ele>99.85714285714285</ele><time>2026-04-23T17:07:04.782Z</time></trkpt><trkpt lat="45.4072994" lon="9.2398931"><ele>99.42857142857143</ele><time>2026-04-23T17:07:07.776Z</time></trkpt><trkpt lat="45.4072593" lon="9.2399826"><ele>99.0</ele><time>2026-04-23T17:07:10.78Z</time></trkpt><trkpt lat="45.4072172" lon="9.240064"><ele>98.5</ele><time>2026-04-23T17:07:13.78Z</time></trkpt><trkpt lat="45.4071782" lon="9.2401531"><ele>98.0</ele><time>2026-04-23T17:07:16.788Z</time></trkpt><trkpt lat="45.4071382" lon="9.2402469"><ele>97.5</ele><time>2026-04-23T17:07:19.778Z</time></trkpt><trkpt lat="45.407093" lon="9.2403288"><ele>97.0</ele><time>2026-04-23T17:07:22.778Z</time></trkpt><trkpt lat="45.4070442" lon="9.2404196"><ele>96.5</ele><time>2026-04-23T17:07:25.775Z</time></trkpt><trkpt lat="45.4069959" lon="9.2405127"><ele>96.0</ele><time>2026-04-23T17:07:28.784Z</time></trkpt><trkpt lat="45.4069419" lon="9.2406178"><ele>96.5</ele><time>2026-04-23T17:07:31.774Z</time></trkpt><trkpt lat="45.4068932" lon="9.2407255"><ele>97.0</ele><time>2026-04-23T17:07:34.778Z</time></trkpt><trkpt lat="45.4068513" lon="9.2408247"><ele>97.5</ele><time>2026-04-23T17:07:37.777Z</time></trkpt><trkpt lat="45.4068169" lon="9.2409052"><ele>98.0</ele><time>2026-04-23T17:07:39.78Z</time></trkpt><trkpt lat="45.4067785" lon="9.2410037"><ele>98.5</ele><time>2026-04-23T17:07:41.777Z</time></trkpt><trkpt lat="45.4067447" lon="9.2411123"><ele>99.0</ele><time>2026-04-23T17:07:43.773Z</time></trkpt><trkpt lat="45.4067005" lon="9.2412126"><ele>99.0</ele><time>2026-04-23T17:07:45.784Z</time></trkpt><trkpt lat="45.406659" lon="9.2413266"><ele>99.0</ele><time>2026-04-23T17:07:47.777Z</time></trkpt><trkpt lat="45.4066233" lon="9.2414483"><ele>99.0</ele><time>2026-04-23T17:07:49.779Z</time></trkpt><trkpt lat="45.4065907" lon="9.2415825"><ele>99.0</ele><time>2026-04-23T17:07:51.785Z</time></trkpt><trkpt lat="45.4065594" lon="9.2417438"><ele>99.0</ele><time>2026-04-23T17:07:53.775Z</time></trkpt><trkpt lat="45.4065332" lon="9.2419148"><ele>99.0</ele><time>2026-04-23T17:07:55.781Z</time></trkpt><trkpt lat="45.4065259" lon="9.2420109"><ele>99.0</ele><time>2026-04-23T17:07:56.784Z</time></trkpt><trkpt lat="45.4065183" lon="9.2421022"><ele>99.0</ele><time>2026-04-23T17:07:57.78Z</time></trkpt><trkpt lat="45.4065109" lon="9.2421924"><ele>99.0</ele><time>2026-04-23T17:07:58.783Z</time></trkpt><trkpt lat="45.4065078" lon="9.2422856"><ele>99.0</ele><time>2026-04-23T17:07:59.802Z</time></trkpt><trkpt lat="45.4065051" lon="9.2423805"><ele>99.0</ele><time>2026-04-23T17:08:00.775Z</time></trkpt><trkpt lat="45.4065122" lon="9.2424795"><ele>99.0</ele><time>2026-04-23T17:08:01.778Z</time></trkpt><trkpt lat="45.4065274" lon="9.2425858"><ele>99.0</ele><time>2026-04-23T17:08:02.777Z</time></trkpt><trkpt lat="45.406539" lon="9.2426978"><ele>99.0</ele><time>2026-04-23T17:08:03.788Z</time></trkpt><trkpt lat="45.4065521" lon="9.2428063"><ele>99.0</ele><time>2026-04-23T17:08:04.776Z</time></trkpt><trkpt lat="45.4065671" lon="9.2429048"><ele>99.0</ele><time>2026-04-23T17:08:05.779Z</time></trkpt><trkpt lat="45.4065885" lon="9.2430065"><ele>99.0</ele><time>2026-04-23T17:08:06.777Z</time></trkpt><trkpt lat="45.4066167" lon="9.2431135"><ele>99.0</ele><time>2026-04-23T17:08:07.776Z</time></trkpt><trkpt lat="45.4066461" lon="9.2432088"><ele>99.5</ele><time>2026-04-23T17:08:08.772Z</time></trkpt><trkpt lat="45.4066742" lon="9.24329"><ele>100.0</ele><time>2026-04-23T17:08:09.783Z</time></trkpt><trkpt lat="45.4067235" lon="9.2434104"><ele>100.5</ele><time>2026-04-23T17:08:11.783Z</time></trkpt><trkpt lat="45.4067201" lon="9.2435335"><ele>101.0</ele><time>2026-04-23T17:08:13.78Z</time></trkpt><trkpt lat="45.4066873" lon="9.2436449"><ele>101.5</ele><time>2026-04-23T17:08:15.781Z</time></trkpt><trkpt lat="45.4066578" lon="9.2437533"><ele>102.0</ele><time>2026-04-23T17:08:17.776Z</time></trkpt><trkpt lat="45.4065899" lon="9.2438526"><ele>102.0</ele><time>2026-04-23T17:08:19.782Z</time></trkpt><trkpt lat="45.4065089" lon="9.2438838"><ele>102.0</ele><time>2026-04-23T17:08:21.784Z</time></trkpt><trkpt lat="45.406428" lon="9.2438866"><ele>102.0</ele><time>2026-04-23T17:08:23.786Z</time></trkpt><trkpt lat="45.4063598" lon="9.2439001"><ele>102.0</ele><time>2026-04-23T17:08:25.776Z</time></trkpt><trkpt lat="45.4062851" lon="9.24392"><ele>102.0</ele><time>2026-04-23T17:08:27.776Z</time></trkpt><trkpt lat="45.4062002" lon="9.2439192"><ele>102.0</ele><time>2026-04-23T17:08:29.778Z</time></trkpt><trkpt lat="45.4061228" lon="9.2439299"><ele>102.0</ele><time>2026-04-23T17:08:31.777Z</time></trkpt><trkpt lat="45.4060402" lon="9.2439556"><ele>102.0</ele><time>2026-04-23T17:08:33.779Z</time></trkpt><trkpt lat="45.4059631" lon="9.2439854"><ele>102.0</ele><time>2026-04-23T17:08:35.777Z</time></trkpt><trkpt lat="45.4058972" lon="9.2440629"><ele>102.0</ele><time>2026-04-23T17:08:37.78Z</time></trkpt><trkpt lat="45.4058435" lon="9.2441532"><ele>102.0</ele><time>2026-04-23T17:08:39.781Z</time></trkpt><trkpt lat="45.4057972" lon="9.2442538"><ele>102.0</ele><time>2026-04-23T17:08:41.791Z</time></trkpt><trkpt lat="45.4057419" lon="9.2443562"><ele>102.0</ele><time>2026-04-23T17:08:43.78Z</time></trkpt><trkpt lat="45.4056801" lon="9.244447"><ele>102.0</ele><time>2026-04-23T17:08:45.779Z</time></trkpt><trkpt lat="45.4056198" lon="9.2445287"><ele>102.0</ele><time>2026-04-23T17:08:47.787Z</time></trkpt><trkpt lat="45.4055564" lon="9.2446074"><ele>102.0</ele><time>2026-04-23T17:08:49.777Z</time></trkpt><trkpt lat="45.4054911" lon="9.2446898"><ele>102.0</ele><time>2026-04-23T17:08:51.785Z</time></trkpt><trkpt lat="45.4054187" lon="9.2447751"><ele>102.0</ele><time>2026-04-23T17:08:53.778Z</time></trkpt><trkpt lat="45.4053492" lon="9.2448595"><ele>101.83333333333333</ele><time>2026-04-23T17:08:55.788Z</time></trkpt><trkpt lat="45.4052798" lon="9.2449343"><ele>101.66666666666666</ele><time>2026-04-23T17:08:57.775Z</time></trkpt><trkpt lat="45.4052217" lon="9.2450116"><ele>101.5</ele><time>2026-04-23T17:08:59.779Z</time></trkpt><trkpt lat="45.4051556" lon="9.2450908"><ele>101.33333333333333</ele><time>2026-04-23T17:09:01.775Z</time></trkpt><trkpt lat="45.4050862" lon="9.2451674"><ele>101.16666666666666</ele><time>2026-04-23T17:09:03.781Z</time></trkpt><trkpt lat="45.4050211" lon="9.2452514"><ele>101.0</ele><time>2026-04-23T17:09:05.783Z</time></trkpt><trkpt lat="45.4049611" lon="9.2453339"><ele>100.99999999999999</ele><time>2026-04-23T17:09:07.775Z</time></trkpt><trkpt lat="45.4049004" lon="9.2454118"><ele>101.0</ele><time>2026-04-23T17:09:09.777Z</time></trkpt><trkpt lat="45.4048437" lon="9.2454869"><ele>101.0</ele><time>2026-04-23T17:09:11.774Z</time></trkpt><trkpt lat="45.4047961" lon="9.2455932"><ele>101.0</ele><time>2026-04-23T17:09:13.779Z</time></trkpt><trkpt lat="45.4047503" lon="9.2456982"><ele>100.99999999999999</ele><time>2026-04-23T17:09:15.786Z</time></trkpt><trkpt lat="45.4047209" lon="9.2457919"><ele>101.0</ele><time>2026-04-23T17:09:17.779Z</time></trkpt><trkpt lat="45.4047546" lon="9.2458969"><ele>100.4</ele><time>2026-04-23T17:09:19.772Z</time></trkpt><trkpt lat="45.4048204" lon="9.2459921"><ele>99.8</ele><time>2026-04-23T17:09:21.78Z</time></trkpt><trkpt lat="45.4048889" lon="9.2460983"><ele>99.2</ele><time>2026-04-23T17:09:23.779Z</time></trkpt><trkpt lat="45.4049512" lon="9.2462054"><ele>98.60000000000001</ele><time>2026-04-23T17:09:25.785Z</time></trkpt><trkpt lat="45.4050205" lon="9.2463101"><ele>98.0</ele><time>2026-04-23T17:09:27.78Z</time></trkpt><trkpt lat="45.4050797" lon="9.2464117"><ele>98.0</ele><time>2026-04-23T17:09:29.773Z</time></trkpt><trkpt lat="45.4051393" lon="9.2465109"><ele>98.0</ele><time>2026-04-23T17:09:31.778Z</time></trkpt><trkpt lat="45.4051958" lon="9.2466106"><ele>98.0</ele><time>2026-04-23T17:09:33.78Z</time></trkpt><trkpt lat="45.4052514" lon="9.2467122"><ele>98.0</ele><time>2026-04-23T17:09:35.778Z</time></trkpt><trkpt lat="45.4053066" lon="9.2468097"><ele>98.0</ele><time>2026-04-23T17:09:37.774Z</time></trkpt><trkpt lat="45.4053651" lon="9.2469099"><ele>97.99999999999999</ele><time>2026-04-23T17:09:39.787Z</time></trkpt><trkpt lat="45.4054143" lon="9.2470121"><ele>98.0</ele><time>2026-04-23T17:09:41.773Z</time></trkpt><trkpt lat="45.4054692" lon="9.2471228"><ele>98.0</ele><time>2026-04-23T17:09:43.776Z</time></trkpt><trkpt lat="45.4055174" lon="9.247231"><ele>98.0</ele><time>2026-04-23T17:09:45.782Z</time></trkpt><trkpt lat="45.4055623" lon="9.2473456"><ele>97.99999999999999</ele><time>2026-04-23T17:09:47.784Z</time></trkpt><trkpt lat="45.4055938" lon="9.2474572"><ele>98.0</ele><time>2026-04-23T17:09:49.786Z</time></trkpt><trkpt lat="45.4056362" lon="9.2475617"><ele>97.99999999999999</ele><time>2026-04-23T17:09:51.786Z</time></trkpt><trkpt lat="45.4056801" lon="9.2476701"><ele>98.0</ele><time>2026-04-23T17:09:53.775Z</time></trkpt><trkpt lat="45.4057219" lon="9.2477793"><ele>98.0</ele><time>2026-04-23T17:09:55.778Z</time></trkpt><trkpt lat="45.4057684" lon="9.2478834"><ele>98.0</ele><time>2026-04-23T17:09:57.781Z</time></trkpt><trkpt lat="45.4058148" lon="9.247988"><ele>97.99999999999999</ele><time>2026-04-23T17:09:59.776Z</time></trkpt><trkpt lat="45.4058525" lon="9.2481033"><ele>98.0</ele><time>2026-04-23T17:10:01.776Z</time></trkpt><trkpt lat="45.4058932" lon="9.2482144"><ele>97.49999999999999</ele><time>2026-04-23T17:10:03.788Z</time></trkpt><trkpt lat="45.4059302" lon="9.2483264"><ele>97.0</ele><time>2026-04-23T17:10:05.781Z</time></trkpt><trkpt lat="45.4059739" lon="9.2484387"><ele>96.5</ele><time>2026-04-23T17:10:07.774Z</time></trkpt><trkpt lat="45.4060156" lon="9.2485478"><ele>96.0</ele><time>2026-04-23T17:10:09.777Z</time></trkpt><trkpt lat="45.4060589" lon="9.2486509"><ele>95.5</ele><time>2026-04-23T17:10:11.775Z</time></trkpt><trkpt lat="45.4060961" lon="9.248765"><ele>95.0</ele><time>2026-04-23T17:10:13.789Z</time></trkpt><trkpt lat="45.4061106" lon="9.2488728"><ele>94.83333333333334</ele><time>2026-04-23T17:10:15.775Z</time></trkpt><trkpt lat="45.4061192" lon="9.2489878"><ele>94.66666666666667</ele><time>2026-04-23T17:10:17.777Z</time></trkpt><trkpt lat="45.4061357" lon="9.2490997"><ele>94.5</ele><time>2026-04-23T17:10:19.783Z</time></trkpt><trkpt lat="45.4061456" lon="9.2492187"><ele>94.33333333333333</ele><time>2026-04-23T17:10:21.786Z</time></trkpt><trkpt lat="45.4061548" lon="9.2493395"><ele>94.16666666666666</ele><time>2026-04-23T17:10:23.779Z</time></trkpt><trkpt lat="45.4061688" lon="9.2494548"><ele>94.0</ele><time>2026-04-23T17:10:25.78Z</time></trkpt><trkpt lat="45.4061792" lon="9.2495659"><ele>94.0</ele><time>2026-04-23T17:10:27.776Z</time></trkpt><trkpt lat="45.4061897" lon="9.2496848"><ele>94.0</ele><time>2026-04-23T17:10:29.771Z</time></trkpt><trkpt lat="45.4061967" lon="9.2497994"><ele>94.0</ele><time>2026-04-23T17:10:31.78Z</time></trkpt><trkpt lat="45.4062065" lon="9.24991"><ele>94.0</ele><time>2026-04-23T17:10:33.778Z</time></trkpt><trkpt lat="45.4062155" lon="9.250027"><ele>94.0</ele><time>2026-04-23T17:10:35.785Z</time></trkpt><trkpt lat="45.4062187" lon="9.2501337"><ele>94.0</ele><time>2026-04-23T17:10:37.781Z</time></trkpt><trkpt lat="45.4062261" lon="9.2502409"><ele>94.33333333333333</ele><time>2026-04-23T17:10:39.777Z</time></trkpt><trkpt lat="45.406252" lon="9.2503478"><ele>94.66666666666666</ele><time>2026-04-23T17:10:41.778Z</time></trkpt><trkpt lat="45.4063014" lon="9.2504371"><ele>95.0</ele><time>2026-04-23T17:10:43.783Z</time></trkpt><trkpt lat="45.4063926" lon="9.2505044"><ele>95.33333333333333</ele><time>2026-04-23T17:10:45.78Z</time></trkpt><trkpt lat="45.4064786" lon="9.2505641"><ele>95.66666666666667</ele><time>2026-04-23T17:10:47.787Z</time></trkpt><trkpt lat="45.4065573" lon="9.2506224"><ele>96.0</ele><time>2026-04-23T17:10:49.778Z</time></trkpt><trkpt lat="45.4066428" lon="9.2506692"><ele>96.19999999999999</ele><time>2026-04-23T17:10:51.784Z</time></trkpt><trkpt lat="45.4067275" lon="9.2507409"><ele>96.39999999999999</ele><time>2026-04-23T17:10:53.787Z</time></trkpt><trkpt lat="45.4068149" lon="9.2508016"><ele>96.6</ele><time>2026-04-23T17:10:55.781Z</time></trkpt><trkpt lat="45.4069025" lon="9.2508652"><ele>96.8</ele><time>2026-04-23T17:10:57.781Z</time></trkpt><trkpt lat="45.4069904" lon="9.2509307"><ele>97.0</ele><time>2026-04-23T17:10:59.782Z</time></trkpt><trkpt lat="45.4070716" lon="9.251008"><ele>97.0</ele><time>2026-04-23T17:11:01.795Z</time></trkpt><trkpt lat="45.407153" lon="9.2510906"><ele>97.0</ele><time>2026-04-23T17:11:03.779Z</time></trkpt><trkpt lat="45.4072317" lon="9.2511733"><ele>97.0</ele><time>2026-04-23T17:11:05.772Z</time></trkpt><trkpt lat="45.407303" lon="9.2512468"><ele>97.0</ele><time>2026-04-23T17:11:07.778Z</time></trkpt><trkpt lat="45.4073783" lon="9.2513183"><ele>97.0</ele><time>2026-04-23T17:11:09.779Z</time></trkpt><trkpt lat="45.4074537" lon="9.2513896"><ele>96.66666666666667</ele><time>2026-04-23T17:11:11.779Z</time></trkpt><trkpt lat="45.4075245" lon="9.2514649"><ele>96.33333333333334</ele><time>2026-04-23T17:11:13.781Z</time></trkpt><trkpt lat="45.407602" lon="9.2515327"><ele>96.0</ele><time>2026-04-23T17:11:15.774Z</time></trkpt><trkpt lat="45.4076736" lon="9.2516061"><ele>95.66666666666667</ele><time>2026-04-23T17:11:17.78Z</time></trkpt><trkpt lat="45.4077436" lon="9.2516797"><ele>95.33333333333334</ele><time>2026-04-23T17:11:19.776Z</time></trkpt><trkpt lat="45.4078126" lon="9.2517473"><ele>95.0</ele><time>2026-04-23T17:11:21.792Z</time></trkpt><trkpt lat="45.4078885" lon="9.251815"><ele>95.0</ele><time>2026-04-23T17:11:23.779Z</time></trkpt><trkpt lat="45.4079585" lon="9.251885"><ele>95.0</ele><time>2026-04-23T17:11:25.782Z</time></trkpt><trkpt lat="45.4080242" lon="9.2519613"><ele>95.0</ele><time>2026-04-23T17:11:27.774Z</time></trkpt><trkpt lat="45.4080776" lon="9.2520471"><ele>95.0</ele><time>2026-04-23T17:11:29.78Z</time></trkpt><trkpt lat="45.4081308" lon="9.2521397"><ele>95.0</ele><time>2026-04-23T17:11:31.776Z</time></trkpt><trkpt lat="45.4081894" lon="9.2522384"><ele>95.0</ele><time>2026-04-23T17:11:33.779Z</time></trkpt><trkpt lat="45.4082474" lon="9.252332"><ele>94.83333333333334</ele><time>2026-04-23T17:11:35.773Z</time></trkpt><trkpt lat="45.4083038" lon="9.2524203"><ele>94.66666666666667</ele><time>2026-04-23T17:11:37.779Z</time></trkpt><trkpt lat="45.4083613" lon="9.252514"><ele>94.5</ele><time>2026-04-23T17:11:39.782Z</time></trkpt><trkpt lat="45.4084171" lon="9.2526154"><ele>94.33333333333333</ele><time>2026-04-23T17:11:41.775Z</time></trkpt><trkpt lat="45.408479" lon="9.2527096"><ele>94.16666666666666</ele><time>2026-04-23T17:11:43.771Z</time></trkpt><trkpt lat="45.4085398" lon="9.2528045"><ele>94.0</ele><time>2026-04-23T17:11:45.779Z</time></trkpt><trkpt lat="45.4085966" lon="9.2528973"><ele>94.0</ele><time>2026-04-23T17:11:47.785Z</time></trkpt><trkpt lat="45.4086541" lon="9.2529967"><ele>94.0</ele><time>2026-04-23T17:11:49.79Z</time></trkpt><trkpt lat="45.4087163" lon="9.2530899"><ele>94.0</ele><time>2026-04-23T17:11:51.775Z</time></trkpt><trkpt lat="45.4087746" lon="9.2531826"><ele>94.0</ele><time>2026-04-23T17:11:53.776Z</time></trkpt><trkpt lat="45.4088365" lon="9.2532878"><ele>94.0</ele><time>2026-04-23T17:11:55.779Z</time></trkpt><trkpt lat="45.4088964" lon="9.2533825"><ele>94.2</ele><time>2026-04-23T17:11:57.783Z</time></trkpt><trkpt lat="45.4089537" lon="9.2534793"><ele>94.4</ele><time>2026-04-23T17:11:59.785Z</time></trkpt><trkpt lat="45.409017" lon="9.2535815"><ele>94.6</ele><time>2026-04-23T17:12:01.787Z</time></trkpt><trkpt lat="45.4090751" lon="9.2536788"><ele>94.8</ele><time>2026-04-23T17:12:03.779Z</time></trkpt><trkpt lat="45.4091339" lon="9.2537789"><ele>95.0</ele><time>2026-04-23T17:12:05.777Z</time></trkpt><trkpt lat="45.4091898" lon="9.2538701"><ele>95.2</ele><time>2026-04-23T17:12:07.779Z</time></trkpt><trkpt lat="45.4092481" lon="9.2539653"><ele>95.4</ele><time>2026-04-23T17:12:09.78Z</time></trkpt><trkpt lat="45.4093113" lon="9.2540642"><ele>95.6</ele><time>2026-04-23T17:12:11.781Z</time></trkpt><trkpt lat="45.4093771" lon="9.254161"><ele>95.8</ele><time>2026-04-23T17:12:13.778Z</time></trkpt><trkpt lat="45.4094343" lon="9.2542502"><ele>96.0</ele><time>2026-04-23T17:12:15.778Z</time></trkpt><trkpt lat="45.4094921" lon="9.2543481"><ele>96.0</ele><time>2026-04-23T17:12:17.781Z</time></trkpt><trkpt lat="45.4095539" lon="9.2544474"><ele>96.0</ele><time>2026-04-23T17:12:19.781Z</time></trkpt><trkpt lat="45.409609" lon="9.254547"><ele>96.0</ele><time>2026-04-23T17:12:21.777Z</time></trkpt><trkpt lat="45.4096766" lon="9.2546055"><ele>96.0</ele><time>2026-04-23T17:12:23.786Z</time></trkpt><trkpt lat="45.4097402" lon="9.2546346"><ele>96.0</ele><time>2026-04-23T17:12:25.777Z</time></trkpt><trkpt lat="45.409824" lon="9.2546797"><ele>96.0</ele><time>2026-04-23T17:12:28.782Z</time></trkpt><trkpt lat="45.4098834" lon="9.2547178"><ele>96.16666666666667</ele><time>2026-04-23T17:12:30.778Z</time></trkpt><trkpt lat="45.4099539" lon="9.254704"><ele>96.33333333333334</ele><time>2026-04-23T17:12:32.778Z</time></trkpt><trkpt lat="45.4100367" lon="9.2547159"><ele>96.5</ele><time>2026-04-23T17:12:34.775Z</time></trkpt><trkpt lat="45.4101013" lon="9.2547814"><ele>96.66666666666667</ele><time>2026-04-23T17:12:36.777Z</time></trkpt><trkpt lat="45.4101708" lon="9.2548525"><ele>96.83333333333334</ele><time>2026-04-23T17:12:39.777Z</time></trkpt><trkpt lat="45.410237" lon="9.2549254"><ele>97.0</ele><time>2026-04-23T17:12:42.778Z</time></trkpt><trkpt lat="45.4102974" lon="9.2549802"><ele>97.16666666666667</ele><time>2026-04-23T17:12:44.78Z</time></trkpt><trkpt lat="45.4103722" lon="9.2550524"><ele>97.33333333333334</ele><time>2026-04-23T17:12:46.774Z</time></trkpt><trkpt lat="45.4104367" lon="9.2551045"><ele>97.5</ele><time>2026-04-23T17:12:48.775Z</time></trkpt><trkpt lat="45.410498" lon="9.2551607"><ele>97.66666666666666</ele><time>2026-04-23T17:12:50.786Z</time></trkpt><trkpt lat="45.4105769" lon="9.2552399"><ele>97.83333333333333</ele><time>2026-04-23T17:12:53.775Z</time></trkpt><trkpt lat="45.4106228" lon="9.2553108"><ele>98.0</ele><time>2026-04-23T17:12:55.78Z</time></trkpt><trkpt lat="45.4106451" lon="9.2554237"><ele>97.99999999999999</ele><time>2026-04-23T17:12:58.778Z</time></trkpt><trkpt lat="45.4106812" lon="9.2555109"><ele>98.0</ele><time>2026-04-23T17:13:02.777Z</time></trkpt><trkpt lat="45.4106658" lon="9.2556286"><ele>98.0</ele><time>2026-04-23T17:13:06.78Z</time></trkpt><trkpt lat="45.4106299" lon="9.2557063"><ele>98.0</ele><time>2026-04-23T17:13:08.78Z</time></trkpt><trkpt lat="45.4105562" lon="9.2557947"><ele>97.99999999999999</ele><time>2026-04-23T17:13:11.782Z</time></trkpt><trkpt lat="45.4105214" lon="9.2558827"><ele>98.0</ele><time>2026-04-23T17:13:13.775Z</time></trkpt><trkpt lat="45.4104731" lon="9.2559588"><ele>98.0</ele><time>2026-04-23T17:13:15.805Z</time></trkpt><trkpt lat="45.4104291" lon="9.256041"><ele>98.0</ele><time>2026-04-23T17:13:17.778Z</time></trkpt><trkpt lat="45.4103864" lon="9.2561244"><ele>98.0</ele><time>2026-04-23T17:13:19.786Z</time></trkpt><trkpt lat="45.4103411" lon="9.2562062"><ele>98.0</ele><time>2026-04-23T17:13:21.777Z</time></trkpt><trkpt lat="45.410289" lon="9.2562859"><ele>98.0</ele><time>2026-04-23T17:13:23.784Z</time></trkpt><trkpt lat="45.4102394" lon="9.2563723"><ele>98.0</ele><time>2026-04-23T17:13:25.773Z</time></trkpt><trkpt lat="45.4101881" lon="9.2564527"><ele>98.0</ele><time>2026-04-23T17:13:27.781Z</time></trkpt><trkpt lat="45.4101365" lon="9.2565427"><ele>97.99999999999999</ele><time>2026-04-23T17:13:29.777Z</time></trkpt><trkpt lat="45.4100864" lon="9.256638"><ele>98.0</ele><time>2026-04-23T17:13:31.781Z</time></trkpt><trkpt lat="45.4100288" lon="9.2567246"><ele>98.0</ele><time>2026-04-23T17:13:33.789Z</time></trkpt><trkpt lat="45.4099759" lon="9.2568102"><ele>98.0</ele><time>2026-04-23T17:13:35.78Z</time></trkpt><trkpt lat="45.4099194" lon="9.2569079"><ele>97.99999999999999</ele><time>2026-04-23T17:13:37.777Z</time></trkpt><trkpt lat="45.4098612" lon="9.2569982"><ele>98.0</ele><time>2026-04-23T17:13:39.784Z</time></trkpt><trkpt lat="45.4098078" lon="9.2570878"><ele>97.99999999999999</ele><time>2026-04-23T17:13:41.776Z</time></trkpt><trkpt lat="45.4097539" lon="9.2571749"><ele>98.0</ele><time>2026-04-23T17:13:43.783Z</time></trkpt><trkpt lat="45.4096993" lon="9.2572687"><ele>98.0</ele><time>2026-04-23T17:13:45.781Z</time></trkpt><trkpt lat="45.4096555" lon="9.2573728"><ele>98.0</ele><time>2026-04-23T17:13:47.781Z</time></trkpt><trkpt lat="45.4096049" lon="9.2574593"><ele>97.99999999999999</ele><time>2026-04-23T17:13:49.789Z</time></trkpt><trkpt lat="45.4095447" lon="9.257551"><ele>98.0</ele><time>2026-04-23T17:13:51.776Z</time></trkpt><trkpt lat="45.4094804" lon="9.25763"><ele>97.99999999999999</ele><time>2026-04-23T17:13:53.78Z</time></trkpt><trkpt lat="45.4094276" lon="9.257724"><ele>98.0</ele><time>2026-04-23T17:13:55.781Z</time></trkpt><trkpt lat="45.4093722" lon="9.2578162"><ele>98.0</ele><time>2026-04-23T17:13:57.783Z</time></trkpt><trkpt lat="45.4093136" lon="9.2579076"><ele>98.0</ele><time>2026-04-23T17:13:59.772Z</time></trkpt><trkpt lat="45.4092594" lon="9.2579994"><ele>97.99999999999999</ele><time>2026-04-23T17:14:01.779Z</time></trkpt><trkpt lat="45.4092089" lon="9.2580844"><ele>98.0</ele><time>2026-04-23T17:14:03.775Z</time></trkpt><trkpt lat="45.4091579" lon="9.2581792"><ele>97.99999999999999</ele><time>2026-04-23T17:14:05.773Z</time></trkpt><trkpt lat="45.4091038" lon="9.2582669"><ele>98.0</ele><time>2026-04-23T17:14:07.781Z</time></trkpt><trkpt lat="45.4090491" lon="9.2583539"><ele>98.0</ele><time>2026-04-23T17:14:09.781Z</time></trkpt><trkpt lat="45.4090163" lon="9.2584341"><ele>98.0</ele><time>2026-04-23T17:14:11.776Z</time></trkpt><trkpt lat="45.4090352" lon="9.2585535"><ele>97.99999999999999</ele><time>2026-04-23T17:14:14.778Z</time></trkpt><trkpt lat="45.4091073" lon="9.2586357"><ele>98.0</ele><time>2026-04-23T17:14:16.775Z</time></trkpt><trkpt lat="45.4091786" lon="9.2587442"><ele>97.99999999999999</ele><time>2026-04-23T17:14:18.78Z</time></trkpt><trkpt lat="45.4092569" lon="9.2588712"><ele>98.0</ele><time>2026-04-23T17:14:20.777Z</time></trkpt><trkpt lat="45.4092948" lon="9.2589442"><ele>98.0</ele><time>2026-04-23T17:14:21.793Z</time></trkpt><trkpt lat="45.4093366" lon="9.2590166"><ele>98.0</ele><time>2026-04-23T17:14:22.779Z</time></trkpt><trkpt lat="45.4093815" lon="9.2590909"><ele>97.99999999999999</ele><time>2026-04-23T17:14:23.762Z</time></trkpt><trkpt lat="45.40943" lon="9.2591769"><ele>98.0</ele><time>2026-04-23T17:14:24.778Z</time></trkpt><trkpt lat="45.4094712" lon="9.2592753"><ele>98.0</ele><time>2026-04-23T17:14:25.777Z</time></trkpt><trkpt lat="45.409551" lon="9.2594145"><ele>98.0</ele><time>2026-04-23T17:14:27.778Z</time></trkpt><trkpt lat="45.4096161" lon="9.2595256"><ele>98.0</ele><time>2026-04-23T17:14:29.778Z</time></trkpt><trkpt lat="45.4096438" lon="9.259657"><ele>98.0</ele><time>2026-04-23T17:14:31.783Z</time></trkpt><trkpt lat="45.4096552" lon="9.2597831"><ele>98.0</ele><time>2026-04-23T17:14:33.779Z</time></trkpt><trkpt lat="45.4096367" lon="9.2598966"><ele>97.66666666666666</ele><time>2026-04-23T17:14:35.776Z</time></trkpt><trkpt lat="45.4096201" lon="9.2600125"><ele>97.33333333333333</ele><time>2026-04-23T17:14:37.776Z</time></trkpt><trkpt lat="45.4096048" lon="9.2601247"><ele>97.0</ele><time>2026-04-23T17:14:39.782Z</time></trkpt><trkpt lat="45.4095992" lon="9.2602605"><ele>96.66666666666666</ele><time>2026-04-23T17:14:42.779Z</time></trkpt><trkpt lat="45.4095832" lon="9.2603922"><ele>96.33333333333333</ele><time>2026-04-23T17:14:45.777Z</time></trkpt><trkpt lat="45.4095741" lon="9.2605262"><ele>96.0</ele><time>2026-04-23T17:14:48.77Z</time></trkpt><trkpt lat="45.4095524" lon="9.2606554"><ele>96.33333333333333</ele><time>2026-04-23T17:14:51.772Z</time></trkpt><trkpt lat="45.4095416" lon="9.2607832"><ele>96.66666666666666</ele><time>2026-04-23T17:14:54.775Z</time></trkpt><trkpt lat="45.4095563" lon="9.26091"><ele>97.0</ele><time>2026-04-23T17:14:57.778Z</time></trkpt><trkpt lat="45.4095834" lon="9.2610063"><ele>97.33333333333333</ele><time>2026-04-23T17:14:59.778Z</time></trkpt><trkpt lat="45.4096202" lon="9.2611096"><ele>97.66666666666666</ele><time>2026-04-23T17:15:01.779Z</time></trkpt><trkpt lat="45.4096789" lon="9.2611878"><ele>98.0</ele><time>2026-04-23T17:15:03.779Z</time></trkpt><trkpt lat="45.4097415" lon="9.2612326"><ele>97.99999999999999</ele><time>2026-04-23T17:15:05.787Z</time></trkpt><trkpt lat="45.4098119" lon="9.2612502"><ele>98.0</ele><time>2026-04-23T17:15:07.779Z</time></trkpt><trkpt lat="45.4098936" lon="9.2612652"><ele>98.0</ele><time>2026-04-23T17:15:09.778Z</time></trkpt><trkpt lat="45.4099795" lon="9.2612747"><ele>98.0</ele><time>2026-04-23T17:15:11.778Z</time></trkpt><trkpt lat="45.4100621" lon="9.2612931"><ele>97.99999999999999</ele><time>2026-04-23T17:15:13.775Z</time></trkpt><trkpt lat="45.4101448" lon="9.2613035"><ele>98.0</ele><time>2026-04-23T17:15:15.775Z</time></trkpt><trkpt lat="45.4102277" lon="9.2613072"><ele>97.99999999999999</ele><time>2026-04-23T17:15:17.78Z</time></trkpt><trkpt lat="45.410303" lon="9.2613201"><ele>98.0</ele><time>2026-04-23T17:15:19.777Z</time></trkpt><trkpt lat="45.4103802" lon="9.2613325"><ele>98.0</ele><time>2026-04-23T17:15:21.77Z</time></trkpt><trkpt lat="45.4104428" lon="9.2613924"><ele>98.0</ele><time>2026-04-23T17:15:23.778Z</time></trkpt><trkpt lat="45.4104726" lon="9.2615197"><ele>97.99999999999999</ele><time>2026-04-23T17:15:26.769Z</time></trkpt><trkpt lat="45.4104734" lon="9.2616188"><ele>98.0</ele><time>2026-04-23T17:15:28.78Z</time></trkpt><trkpt lat="45.410477" lon="9.2617479"><ele>98.83333333333333</ele><time>2026-04-23T17:15:31.774Z</time></trkpt><trkpt lat="45.4104829" lon="9.2618448"><ele>99.66666666666666</ele><time>2026-04-23T17:15:33.776Z</time></trkpt><trkpt lat="45.4105315" lon="9.2619795"><ele>100.5</ele><time>2026-04-23T17:15:35.78Z</time></trkpt><trkpt lat="45.410601" lon="9.2620626"><ele>101.33333333333334</ele><time>2026-04-23T17:15:36.774Z</time></trkpt><trkpt lat="45.4106384" lon="9.2621552"><ele>102.16666666666667</ele><time>2026-04-23T17:15:37.779Z</time></trkpt><trkpt lat="45.4106221" lon="9.2622454"><ele>103.0</ele><time>2026-04-23T17:15:38.783Z</time></trkpt><trkpt lat="45.4105598" lon="9.2623246"><ele>103.00000000000001</ele><time>2026-04-23T17:15:39.796Z</time></trkpt><trkpt lat="45.4104975" lon="9.2623995"><ele>103.0</ele><time>2026-04-23T17:15:40.782Z</time></trkpt><trkpt lat="45.4104229" lon="9.2624426"><ele>103.0</ele><time>2026-04-23T17:15:42.775Z</time></trkpt><trkpt lat="45.4103599" lon="9.2625169"><ele>103.0</ele><time>2026-04-23T17:15:44.78Z</time></trkpt><trkpt lat="45.4102669" lon="9.2625798"><ele>103.00000000000001</ele><time>2026-04-23T17:15:46.779Z</time></trkpt><trkpt lat="45.4101811" lon="9.2625734"><ele>103.0</ele><time>2026-04-23T17:15:48.775Z</time></trkpt><trkpt lat="45.4101055" lon="9.2625234"><ele>103.00000000000001</ele><time>2026-04-23T17:15:50.776Z</time></trkpt><trkpt lat="45.4100342" lon="9.2624659"><ele>103.0</ele><time>2026-04-23T17:15:52.774Z</time></trkpt><trkpt lat="45.4099529" lon="9.2624201"><ele>103.0</ele><time>2026-04-23T17:15:54.779Z</time></trkpt><trkpt lat="45.4098789" lon="9.2623721"><ele>103.0</ele><time>2026-04-23T17:15:56.79Z</time></trkpt><trkpt lat="45.4098039" lon="9.2623538"><ele>103.00000000000001</ele><time>2026-04-23T17:15:58.779Z</time></trkpt><trkpt lat="45.4097173" lon="9.2623405"><ele>103.0</ele><time>2026-04-23T17:16:00.772Z</time></trkpt><trkpt lat="45.4096417" lon="9.2623375"><ele>102.28571428571428</ele><time>2026-04-23T17:16:02.78Z</time></trkpt><trkpt lat="45.4095712" lon="9.2623193"><ele>101.57142857142857</ele><time>2026-04-23T17:16:04.775Z</time></trkpt><trkpt lat="45.4094996" lon="9.2623111"><ele>100.85714285714286</ele><time>2026-04-23T17:16:06.788Z</time></trkpt><trkpt lat="45.409424" lon="9.2623355"><ele>100.14285714285714</ele><time>2026-04-23T17:16:09.773Z</time></trkpt><trkpt lat="45.4093544" lon="9.2623508"><ele>99.42857142857143</ele><time>2026-04-23T17:16:13.775Z</time></trkpt><trkpt lat="45.4092919" lon="9.2623207"><ele>98.71428571428571</ele><time>2026-04-23T17:16:16.779Z</time></trkpt><trkpt lat="45.4092229" lon="9.262329"><ele>98.0</ele><time>2026-04-23T17:16:19.773Z</time></trkpt><trkpt lat="45.4092099" lon="9.2624347"><ele>97.99999999999999</ele><time>2026-04-23T17:16:22.777Z</time></trkpt><trkpt lat="45.4092387" lon="9.2625327"><ele>98.0</ele><time>2026-04-23T17:16:25.784Z</time></trkpt><trkpt lat="45.4092912" lon="9.2626004"><ele>98.0</ele><time>2026-04-23T17:16:28.774Z</time></trkpt><trkpt lat="45.409347" lon="9.2626538"><ele>98.0</ele><time>2026-04-23T17:16:31.775Z</time></trkpt><trkpt lat="45.40935" lon="9.2627656"><ele>97.99999999999999</ele><time>2026-04-23T17:16:40.776Z</time></trkpt><trkpt lat="45.4093478" lon="9.2628689"><ele>98.0</ele><time>2026-04-23T17:16:42.775Z</time></trkpt><trkpt lat="45.4094172" lon="9.2629429"><ele>97.99999999999999</ele><time>2026-04-23T17:16:45.776Z</time></trkpt><trkpt lat="45.4094827" lon="9.2630241"><ele>98.0</ele><time>2026-04-23T17:16:48.788Z</time></trkpt><trkpt lat="45.4095396" lon="9.2630921"><ele>98.0</ele><time>2026-04-23T17:16:51.773Z</time></trkpt><trkpt lat="45.4096031" lon="9.2631566"><ele>98.0</ele><time>2026-04-23T17:16:54.777Z</time></trkpt><trkpt lat="45.409659" lon="9.263223"><ele>97.99999999999999</ele><time>2026-04-23T17:16:57.782Z</time></trkpt><trkpt lat="45.4097231" lon="9.2633087"><ele>98.0</ele><time>2026-04-23T17:17:00.779Z</time></trkpt><trkpt lat="45.4097791" lon="9.263399"><ele>98.66666666666666</ele><time>2026-04-23T17:17:03.776Z</time></trkpt><trkpt lat="45.4098302" lon="9.2634996"><ele>99.33333333333333</ele><time>2026-04-23T17:17:06.775Z</time></trkpt><trkpt lat="45.4098852" lon="9.2635817"><ele>100.0</ele><time>2026-04-23T17:17:09.78Z</time></trkpt><trkpt lat="45.4099348" lon="9.2636609"><ele>100.66666666666666</ele><time>2026-04-23T17:17:12.781Z</time></trkpt><trkpt lat="45.4099911" lon="9.2637498"><ele>101.33333333333333</ele><time>2026-04-23T17:17:15.78Z</time></trkpt><trkpt lat="45.4100443" lon="9.2638241"><ele>102.0</ele><time>2026-04-23T17:17:18.78Z</time></trkpt><trkpt lat="45.4100992" lon="9.2639117"><ele>102.0</ele><time>2026-04-23T17:17:21.776Z</time></trkpt><trkpt lat="45.4101475" lon="9.2639742"><ele>102.0</ele><time>2026-04-23T17:17:23.783Z</time></trkpt><trkpt lat="45.4102075" lon="9.2640629"><ele>102.0</ele><time>2026-04-23T17:17:25.775Z</time></trkpt><trkpt lat="45.4102713" lon="9.2641618"><ele>102.0</ele><time>2026-04-23T17:17:27.776Z</time></trkpt><trkpt lat="45.4103481" lon="9.2642804"><ele>102.0</ele><time>2026-04-23T17:17:29.777Z</time></trkpt><trkpt lat="45.4104242" lon="9.2643991"><ele>101.8</ele><time>2026-04-23T17:17:31.778Z</time></trkpt><trkpt lat="45.4105041" lon="9.2645295"><ele>101.6</ele><time>2026-04-23T17:17:33.776Z</time></trkpt><trkpt lat="45.4105957" lon="9.2646534"><ele>101.39999999999999</ele><time>2026-04-23T17:17:35.776Z</time></trkpt><trkpt lat="45.4106451" lon="9.2647201"><ele>101.19999999999999</ele><time>2026-04-23T17:17:36.784Z</time></trkpt><trkpt lat="45.4106914" lon="9.264796"><ele>101.0</ele><time>2026-04-23T17:17:37.775Z</time></trkpt><trkpt lat="45.4107394" lon="9.2648718"><ele>101.0</ele><time>2026-04-23T17:17:38.79Z</time></trkpt><trkpt lat="45.4107832" lon="9.2649477"><ele>101.0</ele><time>2026-04-23T17:17:39.784Z</time></trkpt><trkpt lat="45.4108338" lon="9.2650184"><ele>101.0</ele><time>2026-04-23T17:17:40.784Z</time></trkpt><trkpt lat="45.4108928" lon="9.2650908"><ele>101.0</ele><time>2026-04-23T17:17:41.773Z</time></trkpt><trkpt lat="45.4109466" lon="9.2651598"><ele>101.0</ele><time>2026-04-23T17:17:42.781Z</time></trkpt><trkpt lat="45.4109968" lon="9.2652346"><ele>101.0</ele><time>2026-04-23T17:17:43.778Z</time></trkpt><trkpt lat="45.4110417" lon="9.2653215"><ele>101.0</ele><time>2026-04-23T17:17:44.783Z</time></trkpt><trkpt lat="45.411094" lon="9.2653937"><ele>100.99999999999999</ele><time>2026-04-23T17:17:45.78Z</time></trkpt><trkpt lat="45.4111526" lon="9.2654679"><ele>101.0</ele><time>2026-04-23T17:17:46.774Z</time></trkpt><trkpt lat="45.4112056" lon="9.2655432"><ele>101.0</ele><time>2026-04-23T17:17:47.776Z</time></trkpt><trkpt lat="45.4112535" lon="9.2656222"><ele>101.0</ele><time>2026-04-23T17:17:48.782Z</time></trkpt><trkpt lat="45.4112932" lon="9.265698"><ele>100.99999999999999</ele><time>2026-04-23T17:17:49.78Z</time></trkpt><trkpt lat="45.4113499" lon="9.2658288"><ele>101.0</ele><time>2026-04-23T17:17:51.774Z</time></trkpt><trkpt lat="45.4114142" lon="9.2659541"><ele>100.99999999999999</ele><time>2026-04-23T17:17:53.788Z</time></trkpt><trkpt lat="45.4114741" lon="9.2660466"><ele>101.0</ele><time>2026-04-23T17:17:55.779Z</time></trkpt><trkpt lat="45.4115322" lon="9.2661644"><ele>101.0</ele><time>2026-04-23T17:17:57.77Z</time></trkpt><trkpt lat="45.4115906" lon="9.2662666"><ele>101.0</ele><time>2026-04-23T17:17:59.784Z</time></trkpt><trkpt lat="45.4116346" lon="9.2663449"><ele>100.99999999999999</ele><time>2026-04-23T17:18:01.782Z</time></trkpt><trkpt lat="45.4117004" lon="9.2664162"><ele>101.0</ele><time>2026-04-23T17:18:48.779Z</time></trkpt><trkpt lat="45.4117296" lon="9.2665178"><ele>101.33333333333333</ele><time>2026-04-23T17:18:51.779Z</time></trkpt><trkpt lat="45.4117581" lon="9.2666131"><ele>101.66666666666666</ele><time>2026-04-23T17:18:54.789Z</time></trkpt><trkpt lat="45.4117302" lon="9.2666985"><ele>102.0</ele><time>2026-04-23T17:18:56.782Z</time></trkpt><trkpt lat="45.4116892" lon="9.2668116"><ele>102.33333333333334</ele><time>2026-04-23T17:18:59.776Z</time></trkpt><trkpt lat="45.4116322" lon="9.2668565"><ele>102.66666666666667</ele><time>2026-04-23T17:19:01.778Z</time></trkpt><trkpt lat="45.4115536" lon="9.2669236"><ele>103.0</ele><time>2026-04-23T17:19:04.779Z</time></trkpt><trkpt lat="45.411505" lon="9.2669846"><ele>103.00000000000001</ele><time>2026-04-23T17:19:06.781Z</time></trkpt><trkpt lat="45.4114327" lon="9.2670486"><ele>103.0</ele><time>2026-04-23T17:19:09.777Z</time></trkpt><trkpt lat="45.4113696" lon="9.2671151"><ele>103.0</ele><time>2026-04-23T17:19:12.775Z</time></trkpt><trkpt lat="45.4112953" lon="9.2671476"><ele>103.0</ele><time>2026-04-23T17:19:14.782Z</time></trkpt><trkpt lat="45.4111821" lon="9.2671943"><ele>103.00000000000001</ele><time>2026-04-23T17:19:17.781Z</time></trkpt><trkpt lat="45.4111134" lon="9.2672493"><ele>103.0</ele><time>2026-04-23T17:19:19.779Z</time></trkpt><trkpt lat="45.4110466" lon="9.2673238"><ele>103.16666666666667</ele><time>2026-04-23T17:19:21.779Z</time></trkpt><trkpt lat="45.4109999" lon="9.2674048"><ele>103.33333333333334</ele><time>2026-04-23T17:19:23.776Z</time></trkpt><trkpt lat="45.410927" lon="9.2674632"><ele>103.5</ele><time>2026-04-23T17:19:25.782Z</time></trkpt><trkpt lat="45.4108649" lon="9.2675276"><ele>103.66666666666666</ele><time>2026-04-23T17:19:27.776Z</time></trkpt><trkpt lat="45.4108065" lon="9.2675934"><ele>103.83333333333333</ele><time>2026-04-23T17:19:29.788Z</time></trkpt><trkpt lat="45.4107477" lon="9.2676504"><ele>104.0</ele><time>2026-04-23T17:19:31.773Z</time></trkpt><trkpt lat="45.4106923" lon="9.2677228"><ele>103.99999999999999</ele><time>2026-04-23T17:19:33.775Z</time></trkpt><trkpt lat="45.4106215" lon="9.2677802"><ele>104.0</ele><time>2026-04-23T17:19:35.771Z</time></trkpt><trkpt lat="45.4105606" lon="9.2678682"><ele>104.0</ele><time>2026-04-23T17:19:37.776Z</time></trkpt><trkpt lat="45.4105427" lon="9.2679654"><ele>104.0</ele><time>2026-04-23T17:19:39.777Z</time></trkpt><trkpt lat="45.4105242" lon="9.2680786"><ele>103.99999999999999</ele><time>2026-04-23T17:19:41.775Z</time></trkpt><trkpt lat="45.410466" lon="9.2681415"><ele>104.0</ele><time>2026-04-23T17:19:43.774Z</time></trkpt><trkpt lat="45.4103942" lon="9.2681622"><ele>103.80000000000001</ele><time>2026-04-23T17:19:45.775Z</time></trkpt><trkpt lat="45.4103252" lon="9.2682276"><ele>103.60000000000001</ele><time>2026-04-23T17:19:49.775Z</time></trkpt><trkpt lat="45.4102506" lon="9.2683138"><ele>103.4</ele><time>2026-04-23T17:19:52.782Z</time></trkpt><trkpt lat="45.4101734" lon="9.2683897"><ele>103.2</ele><time>2026-04-23T17:19:55.779Z</time></trkpt><trkpt lat="45.4101272" lon="9.2684702"><ele>103.0</ele><time>2026-04-23T17:19:57.775Z</time></trkpt><trkpt lat="45.410082" lon="9.2686089"><ele>103.00000000000001</ele><time>2026-04-23T17:19:59.778Z</time></trkpt><trkpt lat="45.4100448" lon="9.2687238"><ele>103.0</ele><time>2026-04-23T17:20:01.769Z</time></trkpt><trkpt lat="45.4100033" lon="9.2688194"><ele>103.0</ele><time>2026-04-23T17:20:03.778Z</time></trkpt><trkpt lat="45.4099849" lon="9.2689315"><ele>103.0</ele><time>2026-04-23T17:20:05.772Z</time></trkpt><trkpt lat="45.4099406" lon="9.269022"><ele>103.00000000000001</ele><time>2026-04-23T17:20:07.781Z</time></trkpt><trkpt lat="45.4099218" lon="9.2691076"><ele>103.0</ele><time>2026-04-23T17:20:09.777Z</time></trkpt><trkpt lat="45.409908" lon="9.2691977"><ele>103.66666666666667</ele><time>2026-04-23T17:20:11.777Z</time></trkpt><trkpt lat="45.4099042" lon="9.2693224"><ele>104.33333333333334</ele><time>2026-04-23T17:20:14.792Z</time></trkpt><trkpt lat="45.4098716" lon="9.2694139"><ele>105.0</ele><time>2026-04-23T17:20:17.78Z</time></trkpt><trkpt lat="45.4099095" lon="9.2694895"><ele>105.66666666666666</ele><time>2026-04-23T17:20:21.78Z</time></trkpt><trkpt lat="45.4098662" lon="9.2695662"><ele>106.33333333333333</ele><time>2026-04-23T17:20:30.774Z</time></trkpt><trkpt lat="45.4097752" lon="9.2695908"><ele>107.0</ele><time>2026-04-23T17:20:33.781Z</time></trkpt><trkpt lat="45.4097207" lon="9.2696685"><ele>106.49999999999999</ele><time>2026-04-23T17:20:36.779Z</time></trkpt><trkpt lat="45.409765" lon="9.2697885"><ele>106.0</ele><time>2026-04-23T17:20:39.777Z</time></trkpt><trkpt lat="45.4098195" lon="9.2698621"><ele>105.5</ele><time>2026-04-23T17:20:41.774Z</time></trkpt><trkpt lat="45.4098793" lon="9.2699581"><ele>105.0</ele><time>2026-04-23T17:20:43.783Z</time></trkpt><trkpt lat="45.409932" lon="9.2700523"><ele>104.49999999999999</ele><time>2026-04-23T17:20:45.774Z</time></trkpt><trkpt lat="45.4099778" lon="9.2701359"><ele>104.0</ele><time>2026-04-23T17:20:47.778Z</time></trkpt><trkpt lat="45.4100142" lon="9.2702289"><ele>103.99999999999999</ele><time>2026-04-23T17:20:49.78Z</time></trkpt><trkpt lat="45.4100449" lon="9.2703243"><ele>104.0</ele><time>2026-04-23T17:20:51.78Z</time></trkpt><trkpt lat="45.4100914" lon="9.2704095"><ele>104.0</ele><time>2026-04-23T17:20:53.781Z</time></trkpt><trkpt lat="45.4101294" lon="9.2705077"><ele>104.0</ele><time>2026-04-23T17:20:55.78Z</time></trkpt><trkpt lat="45.4101332" lon="9.2706152"><ele>103.99999999999999</ele><time>2026-04-23T17:20:57.78Z</time></trkpt><trkpt lat="45.410113" lon="9.270731"><ele>104.0</ele><time>2026-04-23T17:20:59.777Z</time></trkpt><trkpt lat="45.4100344" lon="9.2708213"><ele>103.4</ele><time>2026-04-23T17:21:01.78Z</time></trkpt><trkpt lat="45.4099414" lon="9.2708564"><ele>102.80000000000001</ele><time>2026-04-23T17:21:03.781Z</time></trkpt><trkpt lat="45.409858" lon="9.2709219"><ele>102.19999999999999</ele><time>2026-04-23T17:21:05.785Z</time></trkpt><trkpt lat="45.4097729" lon="9.2709893"><ele>101.6</ele><time>2026-04-23T17:21:07.777Z</time></trkpt><trkpt lat="45.4097023" lon="9.2710574"><ele>101.0</ele><time>2026-04-23T17:21:09.774Z</time></trkpt><trkpt lat="45.4096366" lon="9.2711435"><ele>100.83333333333333</ele><time>2026-04-23T17:21:11.779Z</time></trkpt><trkpt lat="45.4095931" lon="9.27126"><ele>100.66666666666666</ele><time>2026-04-23T17:21:13.775Z</time></trkpt><trkpt lat="45.4096065" lon="9.2713706"><ele>100.5</ele><time>2026-04-23T17:21:15.777Z</time></trkpt><trkpt lat="45.4096454" lon="9.2714713"><ele>100.33333333333334</ele><time>2026-04-23T17:21:17.773Z</time></trkpt><trkpt lat="45.4096882" lon="9.2715912"><ele>100.16666666666667</ele><time>2026-04-23T17:21:19.779Z</time></trkpt><trkpt lat="45.4097265" lon="9.2717006"><ele>100.0</ele><time>2026-04-23T17:21:21.776Z</time></trkpt><trkpt lat="45.4097413" lon="9.2718234"><ele>100.00000000000001</ele><time>2026-04-23T17:21:23.785Z</time></trkpt><trkpt lat="45.4097167" lon="9.2719394"><ele>100.0</ele><time>2026-04-23T17:21:25.774Z</time></trkpt><trkpt lat="45.409698" lon="9.2720457"><ele>100.0</ele><time>2026-04-23T17:21:27.777Z</time></trkpt><trkpt lat="45.4096604" lon="9.2721476"><ele>100.0</ele><time>2026-04-23T17:21:29.778Z</time></trkpt><trkpt lat="45.4096279" lon="9.2722595"><ele>100.00000000000001</ele><time>2026-04-23T17:21:31.777Z</time></trkpt><trkpt lat="45.4096026" lon="9.272376"><ele>100.0</ele><time>2026-04-23T17:21:33.78Z</time></trkpt><trkpt lat="45.4095751" lon="9.2724894"><ele>100.00000000000001</ele><time>2026-04-23T17:21:35.778Z</time></trkpt><trkpt lat="45.4095491" lon="9.2725947"><ele>100.0</ele><time>2026-04-23T17:21:37.778Z</time></trkpt><trkpt lat="45.4095163" lon="9.2727068"><ele>100.0</ele><time>2026-04-23T17:21:39.778Z</time></trkpt><trkpt lat="45.4094946" lon="9.2728213"><ele>100.0</ele><time>2026-04-23T17:21:41.779Z</time></trkpt><trkpt lat="45.4094594" lon="9.2729287"><ele>100.00000000000001</ele><time>2026-04-23T17:21:43.776Z</time></trkpt><trkpt lat="45.4094219" lon="9.2730417"><ele>100.0</ele><time>2026-04-23T17:21:45.775Z</time></trkpt><trkpt lat="45.4093909" lon="9.2731488"><ele>100.0</ele><time>2026-04-23T17:21:47.781Z</time></trkpt><trkpt lat="45.409361" lon="9.2732683"><ele>100.0</ele><time>2026-04-23T17:21:49.782Z</time></trkpt><trkpt lat="45.4093332" lon="9.2733985"><ele>100.0</ele><time>2026-04-23T17:21:51.773Z</time></trkpt><trkpt lat="45.4093091" lon="9.2735159"><ele>100.0</ele><time>2026-04-23T17:21:53.779Z</time></trkpt><trkpt lat="45.409289" lon="9.2736561"><ele>100.0</ele><time>2026-04-23T17:21:55.794Z</time></trkpt><trkpt lat="45.4092985" lon="9.2737861"><ele>100.0</ele><time>2026-04-23T17:21:57.773Z</time></trkpt><trkpt lat="45.409316" lon="9.2739093"><ele>100.0</ele><time>2026-04-23T17:21:59.776Z</time></trkpt><trkpt lat="45.4093298" lon="9.274042"><ele>100.0</ele><time>2026-04-23T17:22:01.777Z</time></trkpt><trkpt lat="45.4093533" lon="9.2741752"><ele>100.0</ele><time>2026-04-23T17:22:03.784Z</time></trkpt><trkpt lat="45.4093671" lon="9.2743061"><ele>100.0</ele><time>2026-04-23T17:22:05.776Z</time></trkpt><trkpt lat="45.4093819" lon="9.2744272"><ele>100.33333333333334</ele><time>2026-04-23T17:22:07.777Z</time></trkpt><trkpt lat="45.4093968" lon="9.2745401"><ele>100.66666666666667</ele><time>2026-04-23T17:22:09.783Z</time></trkpt><trkpt lat="45.4093876" lon="9.2746562"><ele>101.0</ele><time>2026-04-23T17:22:11.782Z</time></trkpt><trkpt lat="45.4092951" lon="9.2746902"><ele>101.33333333333334</ele><time>2026-04-23T17:22:13.777Z</time></trkpt><trkpt lat="45.4091984" lon="9.2747145"><ele>101.66666666666667</ele><time>2026-04-23T17:22:15.781Z</time></trkpt><trkpt lat="45.4091107" lon="9.2747411"><ele>102.0</ele><time>2026-04-23T17:22:17.776Z</time></trkpt><trkpt lat="45.4090085" lon="9.2747665"><ele>102.0</ele><time>2026-04-23T17:22:19.78Z</time></trkpt><trkpt lat="45.4089179" lon="9.2748024"><ele>102.0</ele><time>2026-04-23T17:22:21.777Z</time></trkpt><trkpt lat="45.4088303" lon="9.2748407"><ele>102.0</ele><time>2026-04-23T17:22:23.78Z</time></trkpt><trkpt lat="45.408755" lon="9.2748857"><ele>102.0</ele><time>2026-04-23T17:22:25.78Z</time></trkpt><trkpt lat="45.4086795" lon="9.274931"><ele>102.0</ele><time>2026-04-23T17:22:27.779Z</time></trkpt><trkpt lat="45.4085981" lon="9.2749662"><ele>102.0</ele><time>2026-04-23T17:22:29.782Z</time></trkpt><trkpt lat="45.4085213" lon="9.2749868"><ele>102.0</ele><time>2026-04-23T17:22:31.776Z</time></trkpt><trkpt lat="45.4084329" lon="9.2750085"><ele>102.0</ele><time>2026-04-23T17:22:33.772Z</time></trkpt><trkpt lat="45.4083355" lon="9.2750491"><ele>102.0</ele><time>2026-04-23T17:22:35.779Z</time></trkpt><trkpt lat="45.4082478" lon="9.275098"><ele>102.0</ele><time>2026-04-23T17:22:37.776Z</time></trkpt><trkpt lat="45.4081593" lon="9.2751391"><ele>102.0</ele><time>2026-04-23T17:22:39.774Z</time></trkpt><trkpt lat="45.4080844" lon="9.2751917"><ele>102.0</ele><time>2026-04-23T17:22:41.78Z</time></trkpt><trkpt lat="45.4080292" lon="9.2752721"><ele>102.0</ele><time>2026-04-23T17:22:43.778Z</time></trkpt><trkpt lat="45.4079635" lon="9.2753614"><ele>102.0</ele><time>2026-04-23T17:22:45.775Z</time></trkpt><trkpt lat="45.4078974" lon="9.2754393"><ele>102.0</ele><time>2026-04-23T17:22:47.78Z</time></trkpt><trkpt lat="45.4078599" lon="9.275551"><ele>102.0</ele><time>2026-04-23T17:22:49.778Z</time></trkpt><trkpt lat="45.4077715" lon="9.2755922"><ele>102.0</ele><time>2026-04-23T17:22:51.775Z</time></trkpt><trkpt lat="45.4076627" lon="9.2756103"><ele>100.8</ele><time>2026-04-23T17:22:53.782Z</time></trkpt><trkpt lat="45.4075605" lon="9.2756024"><ele>99.6</ele><time>2026-04-23T17:22:55.78Z</time></trkpt><trkpt lat="45.4074526" lon="9.2755865"><ele>98.39999999999999</ele><time>2026-04-23T17:22:57.781Z</time></trkpt><trkpt lat="45.4073906" lon="9.2755627"><ele>97.19999999999999</ele><time>2026-04-23T17:22:58.78Z</time></trkpt><trkpt lat="45.407295" lon="9.2754676"><ele>96.0</ele><time>2026-04-23T17:23:00.779Z</time></trkpt><trkpt lat="45.4072221" lon="9.2753783"><ele>95.8</ele><time>2026-04-23T17:23:02.778Z</time></trkpt><trkpt lat="45.4071356" lon="9.275376"><ele>95.6</ele><time>2026-04-23T17:23:04.78Z</time></trkpt><trkpt lat="45.4070368" lon="9.2754206"><ele>95.4</ele><time>2026-04-23T17:23:06.778Z</time></trkpt><trkpt lat="45.4069627" lon="9.2755184"><ele>95.2</ele><time>2026-04-23T17:23:08.775Z</time></trkpt><trkpt lat="45.4068886" lon="9.2756096"><ele>95.0</ele><time>2026-04-23T17:23:10.776Z</time></trkpt><trkpt lat="45.4068014" lon="9.2756817"><ele>95.0</ele><time>2026-04-23T17:23:12.775Z</time></trkpt><trkpt lat="45.4067083" lon="9.275723"><ele>95.0</ele><time>2026-04-23T17:23:14.771Z</time></trkpt><trkpt lat="45.4066136" lon="9.2756755"><ele>95.0</ele><time>2026-04-23T17:23:16.773Z</time></trkpt><trkpt lat="45.4065612" lon="9.2755352"><ele>95.0</ele><time>2026-04-23T17:23:18.772Z</time></trkpt><trkpt lat="45.4065587" lon="9.2753926"><ele>95.0</ele><time>2026-04-23T17:23:20.779Z</time></trkpt><trkpt lat="45.4065948" lon="9.2752789"><ele>95.0</ele><time>2026-04-23T17:23:22.777Z</time></trkpt><trkpt lat="45.4066384" lon="9.2751963"><ele>95.0</ele><time>2026-04-23T17:23:24.777Z</time></trkpt><trkpt lat="45.4066801" lon="9.2750967"><ele>95.0</ele><time>2026-04-23T17:23:26.777Z</time></trkpt><trkpt lat="45.4067136" lon="9.2750105"><ele>95.0</ele><time>2026-04-23T17:23:28.788Z</time></trkpt><trkpt lat="45.4067416" lon="9.2749155"><ele>95.0</ele><time>2026-04-23T17:23:30.772Z</time></trkpt><trkpt lat="45.4067738" lon="9.2748355"><ele>95.0</ele><time>2026-04-23T17:23:32.779Z</time></trkpt><trkpt lat="45.406803" lon="9.2747446"><ele>95.0</ele><time>2026-04-23T17:23:34.774Z</time></trkpt><trkpt lat="45.4067969" lon="9.2746438"><ele>95.14285714285714</ele><time>2026-04-23T17:23:36.781Z</time></trkpt><trkpt lat="45.4067611" lon="9.2745547"><ele>95.28571428571429</ele><time>2026-04-23T17:23:38.784Z</time></trkpt><trkpt lat="45.4067221" lon="9.274464"><ele>95.42857142857142</ele><time>2026-04-23T17:23:40.78Z</time></trkpt><trkpt lat="45.4066758" lon="9.2743931"><ele>95.57142857142857</ele><time>2026-04-23T17:23:42.775Z</time></trkpt><trkpt lat="45.4066143" lon="9.2743471"><ele>95.71428571428571</ele><time>2026-04-23T17:23:44.778Z</time></trkpt><trkpt lat="45.4065475" lon="9.2743674"><ele>95.85714285714285</ele><time>2026-04-23T17:23:46.773Z</time></trkpt><trkpt lat="45.4064877" lon="9.2744128"><ele>96.0</ele><time>2026-04-23T17:23:48.78Z</time></trkpt><trkpt lat="45.4064171" lon="9.2744477"><ele>96.0</ele><time>2026-04-23T17:23:50.776Z</time></trkpt><trkpt lat="45.4063359" lon="9.2744288"><ele>96.0</ele><time>2026-04-23T17:23:52.776Z</time></trkpt><trkpt lat="45.406265" lon="9.2743718"><ele>96.0</ele><time>2026-04-23T17:23:54.78Z</time></trkpt><trkpt lat="45.4061971" lon="9.2743427"><ele>96.0</ele><time>2026-04-23T17:23:56.791Z</time></trkpt><trkpt lat="45.4061258" lon="9.2743539"><ele>96.0</ele><time>2026-04-23T17:23:58.78Z</time></trkpt><trkpt lat="45.4060563" lon="9.2744211"><ele>96.0</ele><time>2026-04-23T17:24:00.781Z</time></trkpt><trkpt lat="45.4060444" lon="9.2745116"><ele>96.16666666666667</ele><time>2026-04-23T17:24:02.786Z</time></trkpt><trkpt lat="45.4060692" lon="9.2746117"><ele>96.33333333333334</ele><time>2026-04-23T17:24:04.775Z</time></trkpt><trkpt lat="45.4061179" lon="9.2747111"><ele>96.5</ele><time>2026-04-23T17:24:06.773Z</time></trkpt><trkpt lat="45.4061666" lon="9.2747979"><ele>96.66666666666667</ele><time>2026-04-23T17:24:08.776Z</time></trkpt><trkpt lat="45.4062258" lon="9.274884"><ele>96.83333333333334</ele><time>2026-04-23T17:24:10.782Z</time></trkpt><trkpt lat="45.4062807" lon="9.2749792"><ele>97.0</ele><time>2026-04-23T17:24:12.776Z</time></trkpt><trkpt lat="45.4063115" lon="9.2750961"><ele>97.00000000000001</ele><time>2026-04-23T17:24:14.782Z</time></trkpt><trkpt lat="45.4062944" lon="9.2752136"><ele>97.0</ele><time>2026-04-23T17:24:16.779Z</time></trkpt><trkpt lat="45.4062242" lon="9.2752948"><ele>97.0</ele><time>2026-04-23T17:24:18.783Z</time></trkpt><trkpt lat="45.4061501" lon="9.2753547"><ele>97.0</ele><time>2026-04-23T17:24:20.779Z</time></trkpt><trkpt lat="45.4060766" lon="9.2754152"><ele>97.00000000000001</ele><time>2026-04-23T17:24:22.775Z</time></trkpt><trkpt lat="45.4060092" lon="9.2754785"><ele>97.0</ele><time>2026-04-23T17:24:24.776Z</time></trkpt><trkpt lat="45.4059437" lon="9.2755492"><ele>96.0</ele><time>2026-04-23T17:24:26.784Z</time></trkpt><trkpt lat="45.405876" lon="9.2756132"><ele>95.0</ele><time>2026-04-23T17:24:28.779Z</time></trkpt><trkpt lat="45.4057992" lon="9.275687"><ele>94.0</ele><time>2026-04-23T17:24:30.785Z</time></trkpt><trkpt lat="45.4057181" lon="9.2757467"><ele>93.0</ele><time>2026-04-23T17:24:32.778Z</time></trkpt><trkpt lat="45.4056472" lon="9.2758203"><ele>92.0</ele><time>2026-04-23T17:24:34.774Z</time></trkpt><trkpt lat="45.4055692" lon="9.2759043"><ele>92.0</ele><time>2026-04-23T17:24:36.788Z</time></trkpt><trkpt lat="45.4055076" lon="9.2759664"><ele>92.0</ele><time>2026-04-23T17:24:38.784Z</time></trkpt><trkpt lat="45.4054367" lon="9.2760246"><ele>92.0</ele><time>2026-04-23T17:24:40.778Z</time></trkpt><trkpt lat="45.4053735" lon="9.2760719"><ele>92.0</ele><time>2026-04-23T17:24:42.779Z</time></trkpt><trkpt lat="45.405309" lon="9.276121"><ele>92.0</ele><time>2026-04-23T17:24:44.775Z</time></trkpt><trkpt lat="45.4052565" lon="9.2761792"><ele>92.0</ele><time>2026-04-23T17:24:46.776Z</time></trkpt><trkpt lat="45.4051942" lon="9.2762991"><ele>99.0</ele><time>2026-04-23T17:24:48.78Z</time></trkpt><trkpt lat="45.4051244" lon="9.276369"><ele>99.0</ele><time>2026-04-23T17:24:50.782Z</time></trkpt><trkpt lat="45.4050839" lon="9.2764489"><ele>94.0</ele><time>2026-04-23T17:24:53.778Z</time></trkpt><trkpt lat="45.4050605" lon="9.276539"><ele>94.0</ele><time>2026-04-23T17:24:56.784Z</time></trkpt></trkseg></trk></gpx>